# Wetter Temperatur Luftdruck Luftfeuchtigkeit Sichtweite Windgeschwindigkeit Windrichtung Zeit
1 Clouds 14 1013 62 10000 5.51 277 09:59 29.01.2020
2 Clouds 14 1013 62 10000 5.51 277 09:40 29.01.2020
3 Clouds 14 1013 62 10000 5.51 277 09:21 29.01.2020
4 Clouds 14 1013 67 10000 5.51 277 08:56 29.01.2020
5 Clouds 14 1013 67 10000 5.51 277 08:56 29.01.2020
6 Clouds 13 1013 71 10000 5.51 277 08:38 29.01.2020
7 Clouds 13 1013 71 10000 3.17 252 08:18 29.01.2020
8 Clouds 12 1013 81 10000 3.17 252 07:43 29.01.2020
9 Clouds 11 1013 81 10000 3.17 252 07:23 29.01.2020
10 Clouds 10 1013 71 10000 3.17 252 06:39 29.01.2020
11 Clouds 10 1013 87 10000 1 0 06:21 29.01.2020
12 Clouds 10 1013 87 10000 1 0 05:55 29.01.2020
13 Clouds 10 1013 81 10000 1.5 0 05:36 29.01.2020
14 Clouds 10 1014 93 10000 1 0 04:49 29.01.2020
15 Clouds 10 1014 93 10000 1 0 04:49 29.01.2020
16 Clouds 10 1013 87 10000 1.5 0 04:25 29.01.2020
17 Clouds 10 1014 87 10000 1 0 02:41 29.01.2020
18 Clouds 11 1014 81 10000 4.37 284 01:49 29.01.2020
19 Clouds 11 1014 81 10000 5.17 288 00:41 29.01.2020
20 Clouds 11 1015 66 10000 1 0 00:23 29.01.2020
21 Clouds 11 1015 71 10000 5.17 288 23:44 28.01.2020
22 Clouds 11 1015 76 10000 1.5 0 23:21 28.01.2020
23 Clouds 11 1016 76 10000 5.4 294 22:58 28.01.2020
24 Clouds 11 1016 76 10000 5.4 294 22:40 28.01.2020
25 Clouds 11 1015 76 10000 1.5 0 22:21 28.01.2020
26 Clouds 11 1015 71 10000 1 0 21:42 28.01.2020
27 Clouds 12 1015 71 10000 2.1 150 21:22 28.01.2020
28 Clouds 12 1015 71 10000 1.5 0 20:57 28.01.2020
29 Clouds 12 1015 71 10000 1.5 0 20:39 28.01.2020
30 Clouds 12 1015 71 10000 1.5 0 20:39 28.01.2020
31 Clouds 12 1015 62 10000 1.5 0 20:21 28.01.2020
32 Clouds 12 1015 62 10000 2.72 289 19:39 28.01.2020
33 Clouds 12 1015 62 10000 2.72 289 19:20 28.01.2020
34 Clouds 13 1014 62 10000 1 0 18:58 28.01.2020
35 Clouds 13 1014 62 10000 1 0 18:58 28.01.2020
36 Clouds 13 1014 62 10000 1 0 18:39 28.01.2020
37 Clear 13 1014 62 10000 1.5 0 18:21 28.01.2020
38 Clear 13 1014 58 10000 1.5 0 17:57 28.01.2020
39 Clear 13 1014 58 10000 1.5 0 17:37 28.01.2020
40 Clear 14 1014 58 10000 1.5 0 17:19 28.01.2020
41 Clouds 14 1014 41 10000 1.5 0 16:54 28.01.2020
42 Clouds 14 1014 39 10000 1.5 360 16:36 28.01.2020
43 Clouds 15 1014 39 10000 1.5 360 16:18 28.01.2020
44 Clouds 15 1014 39 10000 2.6 330 15:41 28.01.2020
45 Clouds 16 1014 39 10000 1.5 0 15:19 28.01.2020
46 Clouds 16 1014 39 10000 1.5 0 15:19 28.01.2020
47 Clouds 16 1014 45 10000 4.1 310 14:54 28.01.2020
48 Clouds 16 1014 45 10000 3.1 310 14:36 28.01.2020
49 Clouds 16 1014 45 10000 3.1 310 14:18 28.01.2020
50 Clouds 16 1014 42 10000 3.1 290 13:39 28.01.2020
51 Clouds 16 1015 45 10000 2.6 290 13:21 28.01.2020
52 Clouds 16 1015 45 10000 2.6 300 12:42 28.01.2020
53 Clear 16 1016 45 10000 3.1 290 12:23 28.01.2020
54 Clear 15 1016 42 10000 2.6 320 11:48 28.01.2020
55 Clear 15 1016 44 10000 3.6 300 11:23 28.01.2020
56 Clear 14 1016 44 10000 2.6 320 10:59 28.01.2020
57 Clear 14 1016 44 10000 2.6 320 10:40 28.01.2020
58 Clear 14 1016 48 10000 2.6 290 10:20 28.01.2020
59 Clear 13 1016 54 10000 1.5 0 09:55 28.01.2020
60 Clear 13 1016 66 10000 1.5 0 09:36 28.01.2020
61 Clear 12 1016 66 10000 1.5 0 09:18 28.01.2020
62 Clear 11 1017 76 10000 2.1 0 08:40 28.01.2020
63 Clear 10 1017 76 10000 2.1 0 08:19 28.01.2020
64 Clear 8 1016 87 10000 4.28 314 07:38 28.01.2020
65 Clouds 7 1016 87 10000 4.28 314 06:51 28.01.2020
66 Clouds 7 1015 93 10000 4.28 314 06:28 28.01.2020
67 Clouds 8 1015 93 10000 4.28 314 05:55 28.01.2020
68 Rain 7 1015 93 10000 4.28 314 05:27 28.01.2020
69 Clouds 8 1015 87 10000 5.11 303 04:30 28.01.2020
70 Clouds 9 1015 81 10000 1.5 0 02:58 28.01.2020
71 Clouds 9 1014 71 10000 4.87 295 02:25 28.01.2020
72 Clouds 9 1014 71 10000 4.87 295 02:25 28.01.2020
73 Clouds 9 1014 87 10000 4.87 295 01:57 28.01.2020
74 Clouds 9 1014 76 10000 4.87 295 01:32 28.01.2020
75 Clouds 9 1015 71 10000 1.5 0 00:51 28.01.2020
76 Clouds 10 1015 71 10000 1.5 0 00:29 28.01.2020
77 Clouds 10 1015 76 10000 4.53 296 23:51 27.01.2020
78 Clouds 10 1015 93 10000 4.53 296 23:30 27.01.2020
79 Clouds 10 1015 93 10000 4.13 303 22:59 27.01.2020
80 Clouds 10 1015 93 10000 4.13 303 22:40 27.01.2020
81 Clouds 10 1015 93 10000 4.13 303 22:19 27.01.2020
82 Rain 10 1015 93 8000 4.13 303 21:55 27.01.2020
83 Rain 10 1015 93 8000 4.13 303 21:37 27.01.2020
84 Rain 10 1015 93 8000 4.13 303 21:18 27.01.2020
85 Clouds 10 1015 93 8000 4.13 303 20:43 27.01.2020
86 Clouds 11 1015 100 8000 3.13 303 20:22 27.01.2020
87 Clouds 11 1015 100 8000 3.35 300 19:59 27.01.2020
88 Clouds 11 1015 100 8000 3.35 300 19:41 27.01.2020
89 Clouds 11 1015 93 9000 3.35 300 19:22 27.01.2020
90 Clouds 11 1016 81 10000 3.6 200 18:56 27.01.2020
91 Rain 11 1015 93 8000 3.35 300 18:38 27.01.2020
92 Rain 12 1015 93 8000 3.35 300 18:19 27.01.2020
93 Rain 12 1015 93 8000 3.35 300 17:39 27.01.2020
94 Rain 12 1015 93 7000 4.51 288 17:21 27.01.2020
95 Clouds 12 1015 93 7000 4.51 288 16:59 27.01.2020
96 Clouds 12 1015 93 7000 4.51 288 16:40 27.01.2020
97 Clouds 12 1015 100 7000 1.5 0 16:22 27.01.2020
98 Clouds 12 1015 100 7000 1.5 0 15:55 27.01.2020
99 Clouds 12 1015 100 7000 1.5 0 15:55 27.01.2020
100 Drizzle 12 1016 100 5000 4.51 288 15:36 27.01.2020
101 Drizzle 12 1016 100 5000 4.51 288 15:36 27.01.2020
102 Drizzle 12 1016 100 5000 4.51 288 15:18 27.01.2020
103 Rain 12 1016 100 5000 4.51 288 14:42 27.01.2020
104 Rain 12 1016 93 4000 4.51 288 14:22 27.01.2020
105 Rain 12 1016 93 4000 2.19 236 14:22 27.01.2020
106 Rain 12 1016 93 5000 2.19 236 13:57 27.01.2020
107 Rain 13 1016 93 5000 2.41 242 13:37 27.01.2020
108 Rain 13 1016 93 5000 2.41 242 13:18 27.01.2020
109 Rain 14 1017 93 5000 2.41 242 12:44 27.01.2020
110 Rain 14 1017 93 5000 2.41 242 12:23 27.01.2020
111 Rain 14 1017 93 5000 2.41 242 12:23 27.01.2020
112 Rain 14 1018 93 9000 2.41 242 11:58 27.01.2020
113 Rain 14 1018 93 9000 2.41 242 11:40 27.01.2020
114 Rain 14 1018 87 9000 2.66 112 11:20 27.01.2020
115 Clouds 15 1018 82 10000 2.66 112 10:43 27.01.2020
116 Clouds 15 1018 87 10000 2.66 112 10:24 27.01.2020
117 Clouds 14 1018 87 10000 1.5 0 09:54 27.01.2020
118 Clouds 15 1018 87 10000 2.66 112 09:36 27.01.2020
119 Clouds 14 1018 87 10000 2.66 112 09:18 27.01.2020
120 Clouds 14 1019 87 10000 2.66 112 08:42 27.01.2020
121 Clouds 13 1018 93 10000 1.5 0 08:20 27.01.2020
122 Clouds 12 1019 93 9000 1.5 0 07:53 27.01.2020
123 Clouds 12 1019 93 9000 1.5 0 07:33 27.01.2020
124 Clouds 11 1019 93 9000 1.5 0 06:51 27.01.2020
125 Clouds 11 1019 100 9000 1.32 77 06:24 27.01.2020
126 Clouds 11 1019 93 9000 0.84 40 05:22 27.01.2020
127 Clouds 11 1020 93 9000 0.84 40 03:43 27.01.2020
128 Clouds 11 1020 93 9000 0.84 40 02:32 27.01.2020
129 Drizzle 11 1021 100 7000 0.87 171 01:29 27.01.2020
130 Drizzle 11 1021 93 7000 0.87 171 00:43 27.01.2020
131 Drizzle 11 1021 93 7000 0.87 171 00:23 27.01.2020
132 Drizzle 11 1021 93 7000 0.87 171 23:59 26.01.2020
133 Drizzle 11 1021 93 7000 0.87 171 23:59 26.01.2020
134 Drizzle 11 1022 93 7000 0.87 171 23:41 26.01.2020
135 Drizzle 11 1022 93 7000 0.87 171 23:41 26.01.2020
136 Drizzle 11 1022 93 7000 2.59 55 23:18 26.01.2020
137 Clouds 11 1023 93 7000 2.59 55 22:54 26.01.2020
138 Clouds 11 1023 93 10000 2.59 55 22:36 26.01.2020
139 Clouds 11 1023 93 10000 2.59 55 22:18 26.01.2020
140 Clouds 11 1023 93 7000 2.59 55 21:54 26.01.2020
141 Drizzle 11 1022 93 7000 2.59 55 21:36 26.01.2020
142 Drizzle 11 1022 93 7000 2.59 55 21:18 26.01.2020
143 Clouds 11 1022 93 7000 2.59 55 20:54 26.01.2020
144 Clouds 11 1022 93 7000 2.59 55 20:36 26.01.2020
145 Clouds 12 1022 93 7000 0.61 177 20:18 26.01.2020
146 Drizzle 12 1022 93 7000 0.61 177 19:40 26.01.2020
147 Drizzle 12 1022 87 7000 0.61 177 19:21 26.01.2020
148 Clouds 12 1023 93 10000 0.61 177 18:59 26.01.2020
149 Clouds 12 1023 93 10000 0.61 177 18:40 26.01.2020
150 Clouds 12 1023 93 10000 0.61 177 18:22 26.01.2020
151 Clouds 12 1023 93 10000 0.61 177 17:58 26.01.2020
152 Clouds 12 1023 87 10000 0.61 177 17:38 26.01.2020
153 Clouds 12 1023 87 10000 1.3 137 17:18 26.01.2020
154 Clouds 12 1023 87 10000 1.3 137 17:18 26.01.2020
155 Clouds 13 1023 82 10000 1.3 137 16:57 26.01.2020
156 Clouds 13 1023 82 10000 1.3 137 16:39 26.01.2020
157 Clouds 13 1023 82 10000 1.3 137 16:20 26.01.2020
158 Clouds 13 1022 82 0 1.34 180 15:55 26.01.2020
159 Clouds 13 1024 81 0 1.3 137 15:36 26.01.2020
160 Clouds 13 1023 73 0 0.89 247 15:18 26.01.2020
161 Clouds 14 1024 78 0 0.45 223 14:40 26.01.2020
162 Clouds 14 1008 65 0 1.79 249 14:19 26.01.2020
163 Clouds 14 1022 77 0 2.24 184 13:42 26.01.2020
164 Clouds 14 1009 64 0 1.55 144 13:20 26.01.2020
165 Clouds 14 1009 66 0 1.34 255 12:57 26.01.2020
166 Clouds 14 1025 76 0 1.55 144 12:39 26.01.2020
167 Clouds 14 1023 78 0 0.45 153 12:20 26.01.2020
168 Clouds 14 1026 79 0 0.45 255 11:57 26.01.2020
169 Clouds 14 1026 78 0 1.55 144 11:37 26.01.2020
170 Clouds 13 1026 81 10000 1.13 115 11:18 26.01.2020
171 Clouds 13 1026 81 10000 1.13 115 10:57 26.01.2020
172 Clouds 13 1026 81 10000 1.13 115 10:38 26.01.2020
173 Clouds 13 1026 81 10000 1.13 115 10:38 26.01.2020
174 Clouds 13 1026 81 10000 1.13 115 10:20 26.01.2020
175 Clouds 13 1026 81 10000 1.13 115 10:20 26.01.2020
176 Clouds 13 1026 76 10000 1.13 115 09:56 26.01.2020
177 Clouds 12 1025 76 10000 1.13 115 09:38 26.01.2020
178 Clouds 12 1025 76 10000 1.13 115 09:19 26.01.2020
179 Clouds 11 1025 87 10000 1.13 115 08:42 26.01.2020
180 Clouds 10 1025 87 10000 1.13 115 08:22 26.01.2020
181 Clouds 9 1025 93 10000 1.21 340 07:54 26.01.2020
182 Clouds 9 1025 93 10000 1.21 340 07:36 26.01.2020
183 Clouds 9 1025 93 10000 1.21 340 07:36 26.01.2020
184 Clouds 8 1025 93 10000 1.21 340 07:18 26.01.2020
185 Clouds 8 1025 93 10000 1.21 340 06:26 26.01.2020
186 Clouds 8 1025 93 10000 1.21 340 05:29 26.01.2020
187 Clouds 8 1024 93 10000 1.71 343 04:44 26.01.2020
188 Clouds 9 1025 93 10000 1.71 343 02:38 26.01.2020
189 Clouds 9 1025 100 10000 1.68 345 01:46 26.01.2020
190 Clouds 9 1025 93 10000 1.66 343 01:23 26.01.2020
191 Clouds 9 1025 93 10000 1.66 343 00:44 26.01.2020
192 Rain 9 1026 93 10000 1.66 343 00:26 26.01.2020
193 Clouds 9 1027 81 0 1.66 343 23:40 25.01.2020
194 Clouds 9 1025 80 0 0.45 69 23:21 25.01.2020
195 Clouds 9 1027 81 0 0.5 65 22:56 25.01.2020
196 Clouds 10 1027 82 0 0.5 65 22:37 25.01.2020
197 Clouds 10 1027 82 0 0.5 65 22:18 25.01.2020
198 Clouds 10 1027 82 0 0.5 65 21:55 25.01.2020
199 Clouds 10 1027 82 0 0.5 65 21:37 25.01.2020
200 Clouds 11 1026 76 0 0.5 65 21:19 25.01.2020
201 Clouds 10 1027 82 0 0.5 65 20:43 25.01.2020
202 Clouds 11 1026 72 0 1.18 166 20:24 25.01.2020
203 Clouds 10 1010 84 0 1.36 140 19:48 25.01.2020
204 Clouds 10 1027 81 0 1.36 140 19:20 25.01.2020
205 Clouds 11 1025 74 0 1.18 166 18:59 25.01.2020
206 Clouds 11 1025 79 0 1.36 140 18:41 25.01.2020
207 Clouds 11 1025 74 0 1.18 166 18:21 25.01.2020
208 Clouds 11 1025 74 0 1.18 166 17:56 25.01.2020
209 Clouds 11 1025 74 0 1.36 140 17:37 25.01.2020
210 Clouds 11 1025 74 0 2.1 156 17:18 25.01.2020
211 Clouds 12 1024 72 0 0.45 191 16:42 25.01.2020
212 Clouds 12 1024 72 0 0.45 191 16:42 25.01.2020
213 Clouds 12 1024 70 0 0.45 162 16:23 25.01.2020
214 Clouds 13 1024 68 0 1.79 206 15:56 25.01.2020
215 Clouds 13 1025 67 0 1.34 213 15:38 25.01.2020
216 Clouds 13 1025 64 0 0.89 186 15:19 25.01.2020
217 Clouds 14 1024 73 0 3.58 150 14:42 25.01.2020
218 Clear 14 1027 71 0 0.89 264 14:19 25.01.2020
219 Clear 14 1025 66 0 1.34 272 13:45 25.01.2020
220 Clear 13 1027 73 0 2.24 226 13:26 25.01.2020
221 Clear 14 1027 70 0 1.79 194 12:57 25.01.2020
222 Clouds 13 1027 66 10000 1.55 169 12:37 25.01.2020
223 Clouds 13 1027 66 10000 1.55 169 12:19 25.01.2020
224 Clouds 13 1027 66 10000 1.55 169 12:19 25.01.2020
225 Clouds 13 1027 66 10000 1.55 169 11:40 25.01.2020
226 Clouds 13 1027 66 10000 1.55 169 11:40 25.01.2020
227 Clouds 13 1027 62 10000 1.25 176 11:19 25.01.2020
228 Clear 12 1028 66 10000 1.25 176 10:55 25.01.2020
229 Clear 12 1028 62 10000 1.25 176 10:37 25.01.2020
230 Clear 11 1028 62 10000 1.25 176 10:18 25.01.2020
231 Clear 11 1028 66 10000 1.25 176 09:40 25.01.2020
232 Clear 10 1028 70 10000 1.25 176 09:19 25.01.2020
233 Clear 9 1028 75 10000 1.25 176 08:43 25.01.2020
234 Clear 7 1027 93 10000 0.63 333 07:57 25.01.2020
235 Clear 5 1027 93 10000 0.63 333 07:36 25.01.2020
236 Clouds 4 1027 86 10000 0.63 333 06:33 25.01.2020
237 Clouds 4 1027 86 10000 0.63 333 06:33 25.01.2020
238 Clouds 4 1027 86 10000 0.63 333 05:57 25.01.2020
239 Clouds 4 1027 86 10000 0.63 333 05:38 25.01.2020
240 Clouds 4 1027 86 10000 0.61 351 04:19 25.01.2020
241 Clouds 4 1027 93 10000 1.5 0 03:49 25.01.2020
242 Clouds 4 1028 86 10000 0.61 351 02:37 25.01.2020
243 Clouds 5 1028 80 10000 0.3 221 01:57 25.01.2020
244 Clouds 4 1028 80 10000 0.39 170 01:23 25.01.2020
245 Clouds 5 1029 80 10000 0.39 170 00:39 25.01.2020
246 Clouds 5 1029 80 10000 0.39 170 00:18 25.01.2020
247 Clouds 5 1029 80 10000 0.39 170 23:42 24.01.2020
248 Clouds 5 1029 80 10000 0.39 170 23:42 24.01.2020
249 Clouds 5 1029 80 10000 0.77 180 23:24 24.01.2020
250 Clouds 5 1030 80 10000 0.77 180 22:46 24.01.2020
251 Clouds 5 1030 80 10000 1.5 0 22:28 24.01.2020
252 Clouds 5 1030 80 10000 0.77 180 21:59 24.01.2020
253 Clouds 5 1030 80 10000 0.77 180 21:40 24.01.2020
254 Clouds 5 1030 80 10000 1.5 0 21:19 24.01.2020
255 Clouds 6 1030 80 10000 0.77 180 20:44 24.01.2020
256 Clouds 6 1030 80 10000 1.18 184 20:22 24.01.2020
257 Clouds 6 1030 75 10000 1.18 184 19:58 24.01.2020
258 Clouds 6 1030 75 10000 1.18 184 19:58 24.01.2020
259 Clouds 6 1030 75 10000 1.18 184 19:40 24.01.2020
260 Clouds 7 1030 75 10000 1.18 184 19:22 24.01.2020
261 Clouds 7 1030 75 10000 1.18 184 19:22 24.01.2020
262 Clouds 7 1030 70 10000 1.18 184 18:56 24.01.2020
263 Clouds 7 1030 65 10000 1.18 184 18:37 24.01.2020
264 Clouds 7 1030 65 10000 1.18 184 18:19 24.01.2020
265 Clouds 8 1030 70 10000 1.18 184 17:42 24.01.2020
266 Clouds 8 1030 66 10000 2.1 210 17:21 24.01.2020
267 Clouds 8 1030 66 10000 2.1 210 17:21 24.01.2020
268 Clouds 9 1030 53 10000 2.6 190 16:55 24.01.2020
269 Clouds 10 1030 50 10000 3.1 190 16:36 24.01.2020
270 Clouds 10 1030 50 10000 3.1 190 16:18 24.01.2020
271 Clouds 10 1030 50 10000 3.6 190 15:40 24.01.2020
272 Clouds 11 1030 46 10000 3.6 200 15:20 24.01.2020
273 Clouds 11 1030 43 10000 3.6 170 14:42 24.01.2020
274 Clouds 11 1031 43 10000 3.1 190 14:23 24.01.2020
275 Clouds 11 1031 43 10000 3.1 200 13:57 24.01.2020
276 Clear 11 1031 43 10000 2.1 210 13:39 24.01.2020
277 Clear 11 1031 43 10000 2.1 210 13:19 24.01.2020
278 Clear 11 1031 43 10000 2.1 210 13:19 24.01.2020
279 Clouds 11 1031 43 10000 2.6 160 12:41 24.01.2020
280 Clouds 11 1032 43 10000 1.5 0 12:18 24.01.2020
281 Clouds 11 1032 46 10000 1.5 0 11:43 24.01.2020
282 Clouds 10 1033 50 10000 1.5 0 11:19 24.01.2020
283 Clouds 10 1033 50 10000 1.51 340 10:43 24.01.2020
284 Clouds 10 1033 57 10000 1.51 340 10:22 24.01.2020
285 Clouds 10 1033 57 10000 1.51 340 09:57 24.01.2020
286 Clouds 9 1033 57 10000 1.51 340 09:39 24.01.2020
287 Clouds 9 1033 65 10000 1.51 340 09:21 24.01.2020
288 Clouds 7 1033 75 10000 1.51 340 08:41 24.01.2020
289 Clouds 6 1033 75 10000 2.29 19 08:20 24.01.2020
290 Clouds 6 1033 80 10000 1.5 0 07:51 24.01.2020
291 Clouds 5 1033 63 10000 1.92 20 07:32 24.01.2020
292 Clouds 4 1032 63 10000 1.5 0 06:48 24.01.2020
293 Clouds 4 1032 63 10000 1.92 20 06:29 24.01.2020
294 Clouds 5 1032 86 10000 1.92 20 05:58 24.01.2020
295 Clouds 5 1032 67 10000 2.3 10 04:57 24.01.2020
296 Clouds 6 1032 75 10000 1 0 02:53 24.01.2020
297 Clouds 6 1032 70 10000 2.3 10 02:25 24.01.2020
298 Clouds 7 1032 70 10000 3.16 8 01:45 24.01.2020
299 Clouds 7 1032 75 10000 2.55 14 01:26 24.01.2020
300 Clouds 7 1031 80 10000 2.55 14 00:25 24.01.2020
301 Clouds 7 1031 75 10000 2.55 14 23:49 23.01.2020
302 Clouds 7 1031 75 10000 2.55 14 23:31 23.01.2020
303 Clouds 7 1031 75 10000 1 0 22:59 23.01.2020
304 Clouds 7 1031 70 10000 3.36 356 22:38 23.01.2020
305 Clouds 7 1031 70 10000 3.36 356 22:19 23.01.2020
306 Clouds 7 1031 70 10000 1.5 0 21:57 23.01.2020
307 Clouds 7 1030 61 10000 3.36 356 21:39 23.01.2020
308 Clouds 8 1030 61 10000 3.36 356 21:20 23.01.2020
309 Clouds 8 1030 57 10000 3.36 356 20:59 23.01.2020
310 Clouds 8 1030 65 10000 1 0 20:38 23.01.2020
311 Clouds 8 1030 65 10000 1 0 20:19 23.01.2020
312 Clouds 8 1030 65 10000 1 0 20:19 23.01.2020
313 Clouds 8 1029 65 10000 2.1 360 19:56 23.01.2020
314 Clouds 8 1029 61 10000 5.03 5 19:38 23.01.2020
315 Clouds 8 1029 61 10000 5.03 5 19:19 23.01.2020
316 Clouds 8 1028 57 10000 2.6 0 18:43 23.01.2020
317 Clouds 8 1028 57 10000 2.6 0 18:21 23.01.2020
318 Clouds 9 1028 57 10000 4.1 300 17:58 23.01.2020
319 Clouds 9 1028 57 10000 4.1 300 17:40 23.01.2020
320 Clouds 9 1027 57 10000 5.1 320 17:20 23.01.2020
321 Clouds 9 1027 53 10000 6.2 20 16:56 23.01.2020
322 Clouds 9 1027 53 10000 6.2 20 16:37 23.01.2020
323 Clouds 10 1026 50 10000 4.1 10 16:18 23.01.2020
324 Clouds 10 1026 50 10000 4.1 10 15:55 23.01.2020
325 Clouds 11 1025 47 10000 4.1 10 15:37 23.01.2020
326 Clouds 11 1025 47 10000 4.1 10 15:18 23.01.2020
327 Clouds 12 1025 47 10000 5.1 360 14:55 23.01.2020
328 Clouds 12 1026 47 10000 13.9 50 14:37 23.01.2020
329 Clouds 12 1026 47 10000 13.9 50 14:19 23.01.2020
330 Clouds 13 1024 44 10000 7.7 360 13:40 23.01.2020
331 Clouds 14 1024 44 10000 7.7 360 13:20 23.01.2020
332 Clear 14 1023 44 10000 9.3 350 12:47 23.01.2020
333 Clear 15 1022 52 10000 9.3 350 12:25 23.01.2020
334 Clear 15 1023 29 10000 10.3 340 11:59 23.01.2020
335 Clear 15 1023 29 10000 10.3 340 11:39 23.01.2020
336 Clear 15 1023 29 10000 11.3 340 11:20 23.01.2020
337 Clear 14 1023 23 10000 5.1 350 10:45 23.01.2020
338 Clear 14 1023 54 10000 2.6 150 10:23 23.01.2020
339 Clear 13 1023 53 10000 2.96 355 09:59 23.01.2020
340 Clear 12 1023 61 10000 2.9 4 09:39 23.01.2020
341 Clear 11 1023 61 10000 2.96 355 09:20 23.01.2020
342 Clear 10 1022 61 10000 2.96 355 08:43 23.01.2020
343 Clouds 8 1022 81 10000 3.42 335 08:24 23.01.2020
344 Clouds 6 1022 86 10000 3.42 335 07:49 23.01.2020
345 Clouds 5 1022 48 10000 3.42 335 07:27 23.01.2020
346 Clouds 4 1022 48 10000 3.42 335 06:54 23.01.2020
347 Clouds 4 1021 93 10000 3.42 335 06:24 23.01.2020
348 Clouds 5 1021 93 10000 3.42 335 05:58 23.01.2020
349 Clouds 5 1021 86 10000 2.89 325 04:24 23.01.2020
350 Clouds 5 1022 86 10000 1.5 0 02:48 23.01.2020
351 Clouds 5 1023 80 10000 3.12 315 01:50 23.01.2020
352 Clouds 6 1024 53 10000 1.5 0 00:29 23.01.2020
353 Clear 6 1024 69 10000 3.12 318 23:57 22.01.2020
354 Clear 6 1024 64 10000 3.12 318 23:38 22.01.2020
355 Clear 6 1024 64 10000 2.67 319 23:20 22.01.2020
356 Clear 6 1024 64 10000 1.5 0 22:42 22.01.2020
357 Clear 6 1024 64 10000 2.67 319 22:23 22.01.2020
358 Clear 7 1024 69 10000 2.67 319 21:56 22.01.2020
359 Clear 7 1025 60 10000 1.5 0 21:36 22.01.2020
360 Clear 7 1025 60 10000 1.5 0 21:18 22.01.2020
361 Clear 7 1025 65 10000 2.67 319 20:41 22.01.2020
362 Clear 7 1025 60 10000 1.8 327 20:23 22.01.2020
363 Clear 8 1025 60 10000 1.5 0 19:58 22.01.2020
364 Clear 8 1025 60 10000 1.5 0 19:39 22.01.2020
365 Clear 8 1025 56 10000 1.8 327 19:19 22.01.2020
366 Clear 8 1025 44 10000 1.5 0 18:57 22.01.2020
367 Clear 8 1025 61 10000 1.5 0 18:38 22.01.2020
368 Clear 8 1025 61 10000 1.5 0 18:20 22.01.2020
369 Clear 9 1025 66 10000 1.5 0 17:55 22.01.2020
370 Clear 9 1025 57 10000 1.5 0 17:37 22.01.2020
371 Clear 10 1025 57 10000 1.5 0 17:19 22.01.2020
372 Clear 11 1025 54 10000 1.5 0 16:43 22.01.2020
373 Clear 12 1026 44 10000 1.5 0 16:23 22.01.2020
374 Clear 12 1026 35 10000 1.5 0 15:59 22.01.2020
375 Clear 12 1026 35 10000 1.5 0 15:41 22.01.2020
376 Clear 13 1026 38 10000 2.6 230 15:22 22.01.2020
377 Clear 13 1026 43 10000 1.5 0 14:58 22.01.2020
378 Clear 13 1026 43 10000 1.5 0 14:37 22.01.2020
379 Clear 13 1028 50 10000 3.6 70 14:18 22.01.2020
380 Clear 13 1028 50 10000 3.6 60 13:55 22.01.2020
381 Clear 13 1028 24 10000 3.6 340 13:36 22.01.2020
382 Clear 13 1028 24 10000 3.6 340 13:36 22.01.2020
383 Clear 13 1028 24 10000 3.6 340 13:36 22.01.2020
384 Clear 13 1028 24 10000 3.6 340 13:18 22.01.2020
385 Clear 13 1028 24 10000 3.6 310 12:55 22.01.2020
386 Clear 13 1029 26 10000 3.6 320 12:37 22.01.2020
387 Clear 13 1029 26 10000 3.6 320 12:18 22.01.2020
388 Clouds 12 1030 28 10000 3.1 300 11:56 22.01.2020
389 Clouds 12 1030 30 10000 2.6 290 11:37 22.01.2020
390 Clouds 11 1030 30 10000 2.6 290 11:18 22.01.2020
391 Clouds 11 1031 34 10000 3.6 320 10:44 22.01.2020
392 Clouds 10 1031 34 10000 3.6 310 10:20 22.01.2020
393 Clouds 10 1031 37 10000 4.1 310 09:44 22.01.2020
394 Clouds 9 1031 39 10000 4.1 300 09:25 22.01.2020
395 Clouds 8 1031 39 10000 4.1 300 08:58 22.01.2020
396 Clouds 8 1031 39 10000 4.1 300 08:40 22.01.2020
397 Clouds 7 1031 39 10000 3.6 320 08:21 22.01.2020
398 Clouds 6 1031 42 10000 2.6 300 07:58 22.01.2020
399 Clouds 6 1031 42 10000 2.6 300 07:40 22.01.2020
400 Clouds 5 1031 48 10000 2.6 300 07:21 22.01.2020
401 Clouds 4 1031 45 10000 1.5 0 06:31 22.01.2020
402 Clouds 4 1031 45 10000 1.5 0 05:41 22.01.2020
403 Clouds 4 1031 45 10000 3.1 320 04:20 22.01.2020
404 Clouds 4 1032 42 10000 5.1 340 03:23 22.01.2020
405 Clouds 4 1032 42 10000 5.1 340 03:23 22.01.2020
406 Clouds 4 1032 42 10000 3.6 360 02:27 22.01.2020
407 Clouds 4 1034 64 10000 4.6 40 00:45 22.01.2020
408 Clouds 4 1035 60 10000 2.6 90 00:26 22.01.2020
409 Clouds 5 1034 42 10000 5.1 350 23:39 21.01.2020
410 Clouds 5 1034 45 10000 5.1 360 23:21 21.01.2020
411 Clouds 5 1034 48 10000 4.6 350 22:59 21.01.2020
412 Clouds 5 1034 48 10000 4.6 350 22:39 21.01.2020
413 Clouds 5 1034 48 10000 4.1 350 22:20 21.01.2020
414 Clouds 4 1034 60 10000 2.6 360 21:56 21.01.2020
415 Clouds 5 1034 60 10000 2.6 360 21:38 21.01.2020
416 Clouds 4 1035 69 10000 1.5 0 21:19 21.01.2020
417 Clouds 5 1035 65 10000 1.5 0 20:56 21.01.2020
418 Clouds 5 1035 60 10000 3.83 352 20:37 21.01.2020
419 Clouds 5 1035 60 10000 4.03 347 20:18 21.01.2020
420 Clouds 5 1035 60 10000 4.03 347 20:18 21.01.2020
421 Clouds 5 1035 60 10000 4.03 347 19:56 21.01.2020
422 Clouds 6 1035 56 10000 4.03 347 19:37 21.01.2020
423 Clouds 6 1035 56 10000 4.03 347 19:19 21.01.2020
424 Clouds 6 1036 64 10000 4.03 347 18:55 21.01.2020
425 Clouds 6 1036 64 10000 1.5 0 18:36 21.01.2020
426 Clouds 6 1036 64 10000 1.5 0 18:18 21.01.2020
427 Clouds 6 1036 64 10000 2.1 340 17:43 21.01.2020
428 Clouds 7 1036 57 10000 3.6 340 17:20 21.01.2020
429 Clouds 7 1036 61 10000 4.6 340 16:58 21.01.2020
430 Clouds 7 1036 57 10000 4.6 340 16:37 21.01.2020
431 Clouds 8 1036 57 10000 4.6 340 16:18 21.01.2020
432 Clouds 8 1036 57 10000 3.6 340 15:41 21.01.2020
433 Clouds 8 1036 57 10000 6.2 350 15:21 21.01.2020
434 Clouds 8 1036 57 10000 4.1 340 14:58 21.01.2020
435 Clouds 8 1036 61 10000 4.6 340 14:37 21.01.2020
436 Clouds 8 1036 61 10000 4.6 340 14:19 21.01.2020
437 Clouds 8 1037 61 10000 4.6 340 13:39 21.01.2020
438 Clouds 8 1037 61 10000 5.1 350 13:19 21.01.2020
439 Clouds 8 1038 61 10000 5.1 350 12:43 21.01.2020
440 Clouds 8 1038 56 10000 5.1 350 12:25 21.01.2020
441 Clouds 8 1038 61 10000 4.6 350 11:57 21.01.2020
442 Clouds 8 1038 61 10000 4.6 350 11:38 21.01.2020
443 Clouds 8 1038 61 10000 4.6 350 11:20 21.01.2020
444 Clouds 8 1039 61 10000 4.1 340 10:44 21.01.2020
445 Clouds 7 1039 65 10000 4.1 340 10:23 21.01.2020
446 Clouds 7 1039 65 10000 4.1 340 10:23 21.01.2020
447 Clouds 8 1039 61 10000 4.1 340 09:59 21.01.2020
448 Clouds 7 1039 61 10000 4.1 340 09:40 21.01.2020
449 Clouds 7 1038 65 10000 4.6 340 09:22 21.01.2020
450 Clouds 7 1038 65 10000 4.1 340 08:48 21.01.2020
451 Clouds 7 1038 65 10000 3.6 340 08:27 21.01.2020
452 Clouds 6 1038 70 10000 4.1 330 07:57 21.01.2020
453 Clouds 6 1038 70 10000 3.6 340 07:38 21.01.2020
454 Clouds 6 1038 70 10000 3.6 340 07:20 21.01.2020
455 Clouds 6 1038 70 10000 3.6 340 06:45 21.01.2020
456 Clouds 6 1038 65 10000 4.1 330 06:23 21.01.2020
457 Clouds 6 1038 65 10000 4.1 330 06:23 21.01.2020
458 Clouds 6 1038 61 10000 3.1 320 05:41 21.01.2020
459 Clouds 7 1038 70 10000 2.6 310 04:39 21.01.2020
460 Clouds 7 1038 70 10000 2.6 330 02:55 21.01.2020
461 Clouds 7 1038 61 10000 3.6 340 01:47 21.01.2020
462 Clouds 7 1038 57 10000 4.1 340 00:54 21.01.2020
463 Clouds 7 1038 61 10000 3.1 350 00:32 21.01.2020
464 Clouds 7 1038 57 10000 2.6 330 23:57 20.01.2020
465 Clouds 7 1038 61 10000 2.1 320 23:37 20.01.2020
466 Clouds 7 1038 61 10000 2.1 320 23:18 20.01.2020
467 Clouds 7 1038 57 10000 3.6 350 22:56 20.01.2020
468 Clouds 7 1038 57 10000 3.6 350 22:37 20.01.2020
469 Clouds 7 1038 57 10000 3.6 350 22:18 20.01.2020
470 Clouds 7 1038 61 10000 4.1 340 21:57 20.01.2020
471 Clouds 7 1038 65 10000 3.1 340 21:36 20.01.2020
472 Clouds 7 1038 65 10000 3.1 340 21:18 20.01.2020
473 Clouds 7 1038 65 10000 3.6 340 20:55 20.01.2020
474 Clouds 7 1038 70 10000 3.1 350 20:36 20.01.2020
475 Clouds 7 1038 70 10000 3.1 350 20:18 20.01.2020
476 Clouds 7 1038 70 10000 2.1 350 19:56 20.01.2020
477 Clouds 7 1038 65 10000 2.1 350 19:37 20.01.2020
478 Clouds 7 1038 65 10000 2.1 350 19:18 20.01.2020
479 Clouds 7 1037 65 10000 2.1 340 18:42 20.01.2020
480 Rain 7 1037 65 10000 3.1 310 18:21 20.01.2020
481 Rain 7 1036 70 10000 4.1 340 17:39 20.01.2020
482 Clouds 7 1036 70 10000 4.1 350 17:19 20.01.2020
483 Clouds 7 1036 70 10000 5.1 340 16:58 20.01.2020
484 Clouds 7 1036 70 10000 4.1 350 16:37 20.01.2020
485 Clouds 7 1036 70 10000 4.1 350 16:18 20.01.2020
486 Clouds 8 1036 66 10000 4.1 360 15:41 20.01.2020
487 Clouds 8 1035 66 10000 4.1 360 15:22 20.01.2020
488 Clouds 8 1035 66 10000 4.1 350 14:59 20.01.2020
489 Clouds 8 1035 61 10000 5.1 10 14:41 20.01.2020
490 Clouds 8 1035 61 10000 5.1 10 14:21 20.01.2020
491 Clouds 8 1035 61 10000 4.1 360 13:57 20.01.2020
492 Clouds 9 1035 61 10000 4.1 360 13:38 20.01.2020
493 Clouds 9 1035 61 10000 4.1 360 13:20 20.01.2020
494 Clouds 9 1035 57 10000 5.1 360 12:44 20.01.2020
495 Clouds 9 1035 61 10000 3.1 360 12:25 20.01.2020
496 Clouds 9 1035 61 10000 3.1 360 12:25 20.01.2020
497 Clouds 8 1035 61 10000 4.1 10 11:56 20.01.2020
498 Clouds 8 1035 61 10000 3.1 340 11:37 20.01.2020
499 Clouds 8 1035 61 10000 3.1 340 11:19 20.01.2020
500 Clouds 8 1035 61 10000 2.1 350 10:47 20.01.2020
501 Clouds 8 1034 66 10000 5.44 15 10:21 20.01.2020
502 Clouds 8 1034 70 10000 5.44 15 09:42 20.01.2020
503 Clouds 8 1034 70 10000 5.44 15 09:24 20.01.2020
504 Rain 8 1033 75 10000 5.44 15 08:59 20.01.2020
505 Clouds 8 1033 75 10000 5.44 15 08:39 20.01.2020
506 Clouds 7 1033 100 10000 3.1 350 08:20 20.01.2020
507 Clouds 7 1032 70 10000 3.06 357 07:41 20.01.2020
508 Clouds 7 1032 75 10000 3.06 357 07:21 20.01.2020
509 Clouds 7 1032 75 10000 1.5 0 06:44 20.01.2020
510 Clouds 7 1031 75 10000 1.5 0 06:24 20.01.2020
511 Clouds 7 1031 75 10000 1.5 0 05:41 20.01.2020
512 Clouds 7 1031 81 10000 1.5 0 05:20 20.01.2020
513 Clouds 7 1030 81 10000 1.5 0 04:24 20.01.2020
514 Clouds 7 1029 81 10000 3.46 353 02:33 20.01.2020
515 Clouds 7 1029 75 10000 1.5 0 01:40 20.01.2020
516 Clouds 7 1029 75 10000 1.5 0 01:20 20.01.2020
517 Clouds 7 1028 75 10000 1.5 0 00:43 20.01.2020
518 Clouds 7 1028 81 10000 1.5 0 00:21 20.01.2020
519 Clouds 7 1028 75 10000 1.5 0 23:38 19.01.2020
520 Clouds 7 1028 75 10000 1.5 0 23:19 19.01.2020
521 Clouds 7 1027 75 10000 1.5 0 22:56 19.01.2020
522 Clouds 7 1027 75 10000 1.5 0 22:37 19.01.2020
523 Clouds 7 1027 75 10000 1.5 0 22:19 19.01.2020
524 Clouds 7 1027 75 10000 1.5 0 21:56 19.01.2020
525 Clouds 7 1026 75 10000 1.5 0 21:38 19.01.2020
526 Clouds 7 1026 75 10000 1.5 0 21:38 19.01.2020
527 Clouds 7 1026 75 10000 1.5 0 21:19 19.01.2020
528 Clouds 7 1026 75 10000 1.5 0 20:57 19.01.2020
529 Rain 7 1026 75 10000 1.5 0 20:38 19.01.2020
530 Rain 7 1026 75 10000 3.1 340 20:20 19.01.2020
531 Rain 7 1026 75 10000 2.1 310 19:56 19.01.2020
532 Clouds 7 1026 75 10000 2.1 310 19:37 19.01.2020
533 Clouds 7 1025 75 10000 2.1 360 19:19 19.01.2020
534 Clouds 7 1025 75 10000 1.5 0 18:55 19.01.2020
535 Clouds 7 1024 70 10000 2.6 360 18:37 19.01.2020
536 Rain 7 1024 70 10000 2.6 360 18:19 19.01.2020
537 Rain 7 1023 76 10000 3.1 360 17:58 19.01.2020
538 Rain 7 1023 70 10000 3.1 350 17:39 19.01.2020
539 Rain 7 1023 70 10000 3.1 350 17:20 19.01.2020
540 Rain 7 1022 76 10000 2.6 340 16:57 19.01.2020
541 Rain 8 1022 70 10000 3.6 340 16:38 19.01.2020
542 Clouds 8 1022 70 10000 3.6 340 16:19 19.01.2020
543 Clouds 8 1022 76 10000 3.1 340 15:57 19.01.2020
544 Clouds 8 1022 66 10000 3.6 350 15:37 19.01.2020
545 Clouds 8 1022 66 10000 3.6 350 15:37 19.01.2020
546 Clouds 8 1022 66 10000 3.6 350 15:19 19.01.2020
547 Clouds 8 1022 66 10000 3.6 340 14:57 19.01.2020
548 Clouds 8 1022 66 10000 3.6 340 14:38 19.01.2020
549 Clouds 8 1021 62 10000 3.6 360 14:18 19.01.2020
550 Clouds 9 1021 62 10000 3.1 350 13:55 19.01.2020
551 Clouds 9 1021 61 10000 3.6 340 13:37 19.01.2020
552 Clouds 9 1021 61 10000 3.6 340 13:18 19.01.2020
553 Clouds 9 1021 62 10000 3.6 340 12:54 19.01.2020
554 Clouds 9 1021 66 10000 4.6 350 12:36 19.01.2020
555 Clouds 9 1021 66 10000 4.6 350 12:18 19.01.2020
556 Clouds 9 1022 61 10000 5.1 340 11:39 19.01.2020
557 Clouds 9 1022 61 10000 5.1 340 11:20 19.01.2020
558 Clouds 9 1022 66 10000 3.6 360 10:55 19.01.2020
559 Clouds 9 1022 66 10000 3.6 360 10:37 19.01.2020
560 Clouds 9 1022 70 10000 3.6 360 10:37 19.01.2020
561 Clouds 9 1022 70 10000 3.6 360 10:19 19.01.2020
562 Clouds 9 1022 66 10000 4.6 350 09:45 19.01.2020
563 Clouds 9 1021 70 10000 3.6 350 09:27 19.01.2020
564 Clouds 8 1021 70 10000 3.49 6 08:58 19.01.2020
565 Clouds 8 1021 70 10000 3.49 6 08:39 19.01.2020
566 Clouds 7 1021 70 10000 4.23 350 08:21 19.01.2020
567 Clouds 7 1021 75 10000 1.5 0 07:42 19.01.2020
568 Clouds 7 1021 75 10000 2.1 330 07:22 19.01.2020
569 Clouds 7 1021 75 10000 2.1 330 06:53 19.01.2020
570 Clouds 7 1021 75 10000 1.5 0 06:21 19.01.2020
571 Clouds 7 1021 70 10000 1 0 02:44 19.01.2020
572 Clouds 7 1021 75 10000 3.1 340 02:21 19.01.2020
573 Clouds 7 1021 65 10000 2.6 330 01:25 19.01.2020
574 Clouds 8 1021 65 10000 1.5 0 00:50 19.01.2020
575 Clouds 8 1021 65 10000 2.1 330 00:29 19.01.2020
576 Clouds 8 1021 70 10000 1 0 23:58 18.01.2020
577 Clouds 8 1022 70 10000 1.5 0 23:40 18.01.2020
578 Clouds 8 1022 70 10000 1.5 0 23:21 18.01.2020
579 Clouds 8 1021 75 10000 1.5 0 22:55 18.01.2020
580 Clouds 8 1021 70 10000 1 0 22:37 18.01.2020
581 Clouds 8 1021 70 10000 1 0 22:19 18.01.2020
582 Clouds 8 1021 65 10000 1.5 0 21:57 18.01.2020
583 Clouds 8 1021 61 10000 2.1 350 21:37 18.01.2020
584 Clouds 8 1021 61 10000 2.1 350 21:19 18.01.2020
585 Clouds 8 1022 66 10000 2.1 340 20:43 18.01.2020
586 Clouds 8 1022 66 10000 2.6 350 20:21 18.01.2020
587 Clouds 8 1022 66 10000 3.1 340 19:58 18.01.2020
588 Clouds 8 1022 66 10000 3.1 340 19:40 18.01.2020
589 Clouds 8 1022 66 10000 3.1 340 19:22 18.01.2020
590 Clouds 8 1022 70 10000 3.1 340 18:42 18.01.2020
591 Clouds 8 1022 70 10000 3.1 340 18:22 18.01.2020
592 Clouds 8 1022 70 10000 2.6 340 17:56 18.01.2020
593 Clouds 8 1022 61 10000 2.6 350 17:37 18.01.2020
594 Clouds 8 1022 61 10000 2.6 350 17:19 18.01.2020
595 Clouds 8 1021 61 10000 3.1 340 16:55 18.01.2020
596 Clouds 8 1021 61 10000 3.1 340 16:55 18.01.2020
597 Clouds 9 1022 66 10000 4.1 340 16:36 18.01.2020
598 Clouds 9 1022 66 10000 4.1 340 16:18 18.01.2020
599 Clouds 9 1022 61 10000 4.1 330 15:41 18.01.2020
600 Clouds 9 1022 61 10000 5.1 330 15:23 18.01.2020
601 Clouds 9 1022 61 10000 4.1 340 14:57 18.01.2020
602 Clouds 9 1022 61 10000 4.1 340 14:39 18.01.2020
603 Clouds 9 1022 61 10000 5.1 330 14:18 18.01.2020
604 Clouds 9 1022 61 10000 4.1 340 13:43 18.01.2020
605 Clouds 9 1022 61 10000 4.1 340 13:24 18.01.2020
606 Clouds 9 1023 66 10000 5.1 330 12:57 18.01.2020
607 Clouds 9 1023 66 10000 5.1 330 12:57 18.01.2020
608 Clouds 9 1023 66 10000 5.1 330 12:38 18.01.2020
609 Clouds 9 1023 66 10000 5.1 330 12:20 18.01.2020
610 Clouds 9 1023 61 10000 5.1 330 11:44 18.01.2020
611 Clouds 9 1024 61 10000 4.1 330 11:21 18.01.2020
612 Clouds 9 1024 66 10000 4.1 330 10:57 18.01.2020
613 Clouds 9 1024 61 10000 3.1 340 10:38 18.01.2020
614 Clouds 8 1024 61 10000 3.1 340 10:19 18.01.2020
615 Clouds 8 1024 57 10000 3.1 340 09:46 18.01.2020
616 Clouds 8 1024 61 10000 2.6 350 09:28 18.01.2020
617 Clouds 8 1024 61 10000 2.6 340 08:55 18.01.2020
618 Clouds 8 1024 66 10000 3.1 340 08:37 18.01.2020
619 Clouds 8 1024 66 10000 3.1 340 08:19 18.01.2020
620 Clouds 7 1024 66 10000 3.1 340 07:45 18.01.2020
621 Clouds 7 1025 75 10000 3.1 350 07:26 18.01.2020
622 Rain 7 1024 70 10000 3.1 340 06:47 18.01.2020
623 Rain 7 1023 66 10000 2.1 350 05:59 18.01.2020
624 Rain 7 1023 66 10000 3.1 350 05:21 18.01.2020
625 Clouds 8 1024 70 10000 3.6 350 02:55 18.01.2020
626 Clouds 8 1024 76 10000 2.1 360 01:54 18.01.2020
627 Clouds 8 1024 76 10000 2.6 330 01:30 18.01.2020
628 Clouds 8 1024 81 10000 2.6 340 00:37 18.01.2020
629 Clouds 8 1024 81 10000 2.6 340 00:37 18.01.2020
630 Clouds 8 1024 81 10000 2.6 340 00:37 18.01.2020
631 Clouds 8 1024 81 10000 2.6 340 00:18 18.01.2020
632 Clouds 8 1024 81 10000 2.6 340 23:41 17.01.2020
633 Rain 8 1025 81 10000 3.6 350 23:20 17.01.2020
634 Drizzle 8 1025 81 9000 10 358 22:45 17.01.2020
635 Rain 8 1025 93 9000 1.5 0 22:22 17.01.2020
636 Rain 8 1025 81 9000 2.1 350 21:59 17.01.2020
637 Drizzle 8 1025 70 10000 1.5 0 21:41 17.01.2020
638 Drizzle 8 1025 70 10000 1.5 0 21:22 17.01.2020
639 Rain 8 1024 61 10000 4.1 360 20:58 17.01.2020
640 Rain 8 1024 61 10000 4.1 360 20:38 17.01.2020
641 Rain 8 1024 57 10000 2.6 10 20:20 17.01.2020
642 Rain 8 1024 53 10000 5.1 350 19:55 17.01.2020
643 Rain 8 1024 53 10000 5.1 350 19:55 17.01.2020
644 Clouds 8 1024 53 10000 5.1 350 19:37 17.01.2020
645 Clouds 8 1024 53 10000 5.1 350 19:19 17.01.2020
646 Clouds 8 1024 67 10000 4.1 350 18:56 17.01.2020
647 Clouds 8 1024 67 10000 4.1 360 18:36 17.01.2020
648 Clouds 8 1024 67 10000 4.1 360 18:18 17.01.2020
649 Clouds 8 1023 67 10000 4.6 360 17:39 17.01.2020
650 Clouds 8 1023 53 10000 3.1 360 17:20 17.01.2020
651 Clouds 9 1023 53 10000 4.1 360 16:43 17.01.2020
652 Clouds 9 1022 50 10000 3.6 360 16:21 17.01.2020
653 Clouds 9 1022 50 10000 6.2 340 15:58 17.01.2020
654 Clouds 9 1022 53 10000 4.1 360 15:39 17.01.2020
655 Clouds 10 1022 53 10000 4.1 360 15:20 17.01.2020
656 Clouds 10 1022 46 10000 7.2 350 14:43 17.01.2020
657 Clouds 10 1022 46 10000 7.2 350 14:24 17.01.2020
658 Clouds 10 1022 59 10000 6.2 360 13:43 17.01.2020
659 Clouds 10 1022 57 10000 6.2 360 13:23 17.01.2020
660 Clouds 10 1022 43 10000 6.7 10 12:47 17.01.2020
661 Clouds 10 1023 46 10000 7.7 10 12:23 17.01.2020
662 Clouds 10 1023 50 10000 4.6 350 11:43 17.01.2020
663 Clouds 10 1023 46 10000 6.7 350 11:20 17.01.2020
664 Clouds 10 1024 46 10000 7.2 360 10:57 17.01.2020
665 Clouds 10 1024 46 10000 7.2 360 10:57 17.01.2020
666 Clouds 10 1024 46 10000 7.2 360 10:39 17.01.2020
667 Clouds 10 1024 50 10000 6.2 340 10:20 17.01.2020
668 Clouds 10 1023 53 10000 4.1 340 09:56 17.01.2020
669 Clouds 10 1023 53 10000 3.1 340 09:37 17.01.2020
670 Clouds 9 1023 53 10000 3.1 340 09:18 17.01.2020
671 Clouds 9 1023 53 10000 4.1 340 08:42 17.01.2020
672 Clouds 9 1023 53 10000 5.1 350 08:23 17.01.2020
673 Clouds 9 1023 57 10000 4.6 330 07:49 17.01.2020
674 Clouds 9 1023 53 10000 6.2 350 07:30 17.01.2020
675 Clouds 9 1022 57 10000 6.2 350 06:56 17.01.2020
676 Clouds 9 1022 57 10000 7.7 350 06:37 17.01.2020
677 Clouds 9 1021 57 10000 4.6 340 05:22 17.01.2020
678 Clouds 9 1021 57 10000 4.1 330 03:38 17.01.2020
679 Clouds 9 1020 68 0 1.34 119 02:43 17.01.2020
680 Clouds 9 1020 63 0 2.68 355 01:45 17.01.2020
681 Clouds 9 1020 65 0 2.24 15 01:27 17.01.2020
682 Clouds 9 1020 62 0 2.24 329 00:43 17.01.2020
683 Clouds 9 1021 57 10000 3.1 320 00:20 17.01.2020
684 Clouds 9 1021 57 10000 3.1 320 23:42 16.01.2020
685 Clouds 9 1021 57 10000 3.1 320 23:24 16.01.2020
686 Clouds 9 1022 57 10000 4.1 350 22:43 16.01.2020
687 Clouds 9 1022 66 10000 4.1 300 22:22 16.01.2020
688 Clouds 9 1021 62 10000 5.1 320 21:57 16.01.2020
689 Clouds 9 1022 62 10000 4.1 310 21:39 16.01.2020
690 Clouds 9 1022 62 10000 4.1 310 21:19 16.01.2020
691 Clouds 9 1021 62 10000 6.2 340 20:59 16.01.2020
692 Clouds 9 1021 62 10000 6.2 340 20:40 16.01.2020
693 Clouds 9 1021 66 10000 6.2 300 20:20 16.01.2020
694 Clouds 10 1021 66 10000 5.1 320 19:57 16.01.2020
695 Clouds 9 1021 66 10000 5.1 320 19:39 16.01.2020
696 Clouds 9 1021 66 10000 5.1 330 19:20 16.01.2020
697 Clouds 9 1021 66 10000 8.2 340 18:56 16.01.2020
698 Clouds 9 1021 66 10000 8.2 340 18:37 16.01.2020
699 Clouds 10 1021 66 10000 8.2 340 18:18 16.01.2020
700 Clouds 10 1021 66 10000 7.7 340 17:56 16.01.2020
701 Clouds 10 1021 66 10000 7.7 340 17:56 16.01.2020
702 Clouds 10 1021 66 10000 7.7 340 17:38 16.01.2020
703 Clouds 10 1021 66 10000 7.7 330 17:20 16.01.2020
704 Clouds 11 1021 62 10000 7.7 340 16:40 16.01.2020
705 Clouds 11 1021 62 10000 7.7 330 16:21 16.01.2020
706 Clouds 11 1021 58 10000 7.7 330 15:57 16.01.2020
707 Clouds 11 1021 58 10000 5.1 340 15:38 16.01.2020
708 Clouds 12 1021 58 10000 5.1 340 15:20 16.01.2020
709 Clouds 12 1021 58 10000 8.7 350 14:42 16.01.2020
710 Clouds 12 1021 58 10000 8.7 350 14:24 16.01.2020
711 Clouds 12 1021 58 10000 5.7 350 13:55 16.01.2020
712 Clouds 13 1022 58 10000 9.3 340 13:37 16.01.2020
713 Clouds 12 1022 58 10000 9.3 340 13:19 16.01.2020
714 Clouds 12 1022 62 10000 7.7 330 12:41 16.01.2020
715 Clouds 12 1022 62 10000 6.2 330 12:21 16.01.2020
716 Clouds 12 1023 62 10000 5.1 320 11:43 16.01.2020
717 Clouds 12 1023 58 10000 9.3 340 11:24 16.01.2020
718 Clouds 12 1023 62 10000 7.7 350 10:59 16.01.2020
719 Clouds 11 1023 62 10000 8.7 350 10:38 16.01.2020
720 Clouds 11 1023 62 10000 8.7 350 10:20 16.01.2020
721 Clouds 11 1023 62 10000 8.7 350 09:54 16.01.2020
722 Clouds 11 1023 62 10000 7.7 330 09:36 16.01.2020
723 Clouds 11 1023 62 10000 7.7 330 09:18 16.01.2020
724 Clouds 10 1024 66 10000 4.6 340 08:42 16.01.2020
725 Clouds 10 1023 66 10000 4.1 330 08:22 16.01.2020
726 Clouds 9 1023 71 10000 6.2 330 07:43 16.01.2020
727 Clouds 9 1023 71 10000 6.2 330 07:25 16.01.2020
728 Clouds 8 1023 71 10000 6.2 330 06:55 16.01.2020
729 Clouds 8 1023 71 10000 5.7 340 06:35 16.01.2020
730 Clouds 8 1023 71 10000 4.6 330 05:56 16.01.2020
731 Clouds 8 1023 66 10000 4.6 320 05:30 16.01.2020
732 Clouds 8 1023 71 10000 5.1 320 04:37 16.01.2020
733 Clouds 8 1024 71 10000 4.1 320 03:27 16.01.2020
734 Clouds 8 1024 71 10000 4.1 320 02:24 16.01.2020
735 Clouds 9 1024 66 10000 4.1 320 00:44 16.01.2020
736 Clouds 8 1024 66 10000 4.6 320 00:24 16.01.2020
737 Clouds 9 1025 66 10000 4.6 330 23:46 15.01.2020
738 Clouds 9 1025 66 10000 4.1 320 23:22 15.01.2020
739 Clouds 9 1026 62 10000 3.1 310 22:57 15.01.2020
740 Clouds 9 1026 62 10000 3.1 310 22:39 15.01.2020
741 Clouds 9 1026 71 10000 3.1 310 22:19 15.01.2020
742 Clouds 9 1025 66 10000 3.6 320 21:57 15.01.2020
743 Clouds 9 1025 66 10000 4.6 320 21:37 15.01.2020
744 Clouds 9 1025 66 10000 4.6 320 21:37 15.01.2020
745 Clouds 8 1025 66 10000 4.6 320 21:19 15.01.2020
746 Clouds 9 1025 66 10000 4.1 320 20:57 15.01.2020
747 Clouds 9 1025 66 10000 5.1 330 20:39 15.01.2020
748 Clouds 9 1025 66 10000 5.1 330 20:39 15.01.2020
749 Clouds 9 1025 66 10000 5.1 330 20:20 15.01.2020
750 Clouds 9 1025 71 10000 4.1 330 19:55 15.01.2020
751 Clouds 9 1025 66 10000 6.2 330 19:37 15.01.2020
752 Clouds 10 1025 66 10000 6.2 330 19:18 15.01.2020
753 Clouds 10 1025 71 10000 5.7 330 18:56 15.01.2020
754 Clouds 10 1025 71 10000 5.7 330 18:56 15.01.2020
755 Clouds 9 1025 71 10000 6.2 330 18:38 15.01.2020
756 Clouds 10 1025 71 10000 6.2 330 18:19 15.01.2020
757 Clouds 10 1025 71 10000 6.2 330 17:56 15.01.2020
758 Clouds 10 1025 71 10000 6.2 330 17:37 15.01.2020
759 Clouds 10 1025 71 10000 6.2 330 17:18 15.01.2020
760 Clouds 11 1025 71 10000 6.2 340 16:41 15.01.2020
761 Clouds 11 1025 66 10000 7.2 340 16:22 15.01.2020
762 Clouds 11 1024 66 10000 6.2 340 15:58 15.01.2020
763 Clouds 11 1024 66 10000 6.2 340 15:39 15.01.2020
764 Clouds 11 1024 71 10000 6.2 340 15:20 15.01.2020
765 Clouds 12 1024 71 10000 7.2 330 14:43 15.01.2020
766 Clouds 12 1025 66 10000 4.6 340 14:20 15.01.2020
767 Clouds 12 1025 71 10000 5.1 340 13:55 15.01.2020
768 Clouds 12 1025 76 10000 4.6 330 13:37 15.01.2020
769 Clouds 12 1025 76 10000 4.6 330 13:18 15.01.2020
770 Clouds 12 1025 76 10000 4.6 330 12:41 15.01.2020
771 Clouds 12 1026 76 10000 4.1 340 12:20 15.01.2020
772 Clouds 12 1026 76 10000 4.1 340 12:20 15.01.2020
773 Clouds 12 1026 76 10000 3.6 340 11:58 15.01.2020
774 Clouds 12 1026 76 10000 4.1 330 11:38 15.01.2020
775 Clouds 11 1026 76 10000 4.1 330 11:19 15.01.2020
776 Clouds 11 1027 76 10000 3.6 340 10:46 15.01.2020
777 Clouds 11 1027 76 10000 3.6 340 10:28 15.01.2020
778 Clouds 11 1027 76 10000 3.6 340 09:54 15.01.2020
779 Clouds 10 1027 76 10000 3.1 350 09:36 15.01.2020
780 Clouds 10 1027 76 10000 3.1 350 09:18 15.01.2020
781 Clouds 10 1026 71 10000 2.1 340 08:41 15.01.2020
782 Clouds 9 1026 76 10000 3.1 330 08:23 15.01.2020
783 Clouds 9 1026 76 10000 2.1 320 07:53 15.01.2020
784 Clouds 9 1026 81 10000 2.6 330 07:32 15.01.2020
785 Clouds 8 1026 81 10000 2.1 320 06:47 15.01.2020
786 Clouds 9 1026 81 10000 2.1 310 06:21 15.01.2020
787 Clouds 8 1026 81 10000 5.1 350 04:45 15.01.2020
788 Clouds 7 1026 81 10000 3.1 330 02:39 15.01.2020
789 Clouds 7 1026 81 10000 2.6 340 01:28 15.01.2020
790 Clouds 7 1026 81 10000 2.6 340 01:28 15.01.2020
791 Clouds 7 1026 87 10000 2.57 21 00:59 15.01.2020
792 Clouds 7 1025 87 10000 2.57 21 00:36 15.01.2020
793 Clouds 7 1025 87 10000 2.57 21 00:18 15.01.2020
794 Clouds 7 1025 87 10000 2.57 21 23:45 14.01.2020
795 Clouds 7 1025 87 10000 2.1 340 23:24 14.01.2020
796 Clouds 8 1026 93 10000 1.5 0 22:54 14.01.2020
797 Clouds 8 1026 93 10000 2.1 360 22:36 14.01.2020
798 Clouds 8 1026 93 10000 2.1 360 22:18 14.01.2020
799 Clouds 8 1026 87 10000 1.5 0 21:54 14.01.2020
800 Clouds 8 1025 87 10000 2.97 8 21:36 14.01.2020
801 Clouds 8 1025 87 10000 2.97 8 21:18 14.01.2020
802 Clouds 8 1025 87 10000 2.97 8 21:18 14.01.2020
803 Clouds 8 1026 81 10000 1.5 0 20:41 14.01.2020
804 Clouds 9 1026 87 10000 1.5 0 20:22 14.01.2020
805 Clouds 9 1026 87 10000 1.5 0 19:56 14.01.2020
806 Clouds 9 1026 87 10000 1.5 0 19:38 14.01.2020
807 Clouds 9 1026 87 10000 1.5 0 19:20 14.01.2020
808 Clouds 9 1025 87 10000 1.54 5 18:58 14.01.2020
809 Clouds 10 1025 81 10000 1.54 5 18:39 14.01.2020
810 Clouds 10 1025 81 10000 1.54 5 18:19 14.01.2020
811 Clouds 10 1025 81 10000 1.54 5 17:39 14.01.2020
812 Clouds 11 1025 76 10000 2.41 165 17:19 14.01.2020
813 Clouds 11 1024 71 10000 2.41 165 16:59 14.01.2020
814 Clouds 12 1024 71 10000 2.41 165 16:40 14.01.2020
815 Clouds 12 1024 62 10000 2.41 165 16:21 14.01.2020
816 Clouds 12 1024 62 10000 2.41 165 15:55 14.01.2020
817 Clouds 13 1024 62 10000 1.5 0 15:37 14.01.2020
818 Clouds 13 1024 62 10000 1.5 0 15:18 14.01.2020
819 Clouds 13 1024 58 10000 1.5 0 14:43 14.01.2020
820 Clouds 13 1024 54 10000 2.1 150 14:20 14.01.2020
821 Clouds 14 1024 54 10000 2.2 187 13:43 14.01.2020
822 Clouds 14 1024 58 10000 1.5 0 13:20 14.01.2020
823 Clouds 13 1024 58 10000 2.1 140 12:59 14.01.2020
824 Clouds 14 1024 58 10000 1.5 0 12:40 14.01.2020
825 Clouds 13 1024 58 10000 1.5 0 12:20 14.01.2020
826 Clouds 13 1024 58 10000 1.5 0 12:20 14.01.2020
827 Clouds 13 1024 58 10000 0.99 181 11:43 14.01.2020
828 Clouds 13 1025 58 10000 1.5 0 11:23 14.01.2020
829 Clouds 12 1025 62 10000 1.32 81 10:58 14.01.2020
830 Clouds 12 1025 62 10000 1.32 81 10:39 14.01.2020
831 Clouds 12 1025 62 9000 1.32 81 10:20 14.01.2020
832 Clouds 12 1025 66 9000 1.32 81 09:57 14.01.2020
833 Clouds 11 1025 71 9000 1.32 81 09:39 14.01.2020
834 Clouds 10 1025 71 9000 1.32 81 09:20 14.01.2020
835 Clouds 9 1025 81 9000 1.32 81 08:44 14.01.2020
836 Clouds 7 1025 81 9000 1.5 0 08:23 14.01.2020
837 Clouds 7 1025 86 9000 1.5 0 07:53 14.01.2020
838 Clouds 6 1024 86 9000 1.5 0 07:31 14.01.2020
839 Clouds 5 1024 80 10000 2.01 17 06:51 14.01.2020
840 Clouds 6 1024 81 10000 2.6 350 06:27 14.01.2020
841 Clouds 6 1024 93 10000 2.01 17 05:25 14.01.2020
842 Rain 6 1024 86 10000 2.36 15 03:52 14.01.2020
843 Clouds 6 1025 81 10000 2.36 15 02:43 14.01.2020
844 Clouds 6 1024 86 10000 1.62 21 01:53 14.01.2020
845 Clouds 6 1025 87 10000 1.5 0 00:51 14.01.2020
846 Clouds 7 1025 87 10000 1.5 0 00:32 14.01.2020
847 Clouds 7 1025 87 10000 1.5 0 00:32 14.01.2020
848 Clouds 7 1025 87 10000 1.5 0 23:55 13.01.2020
849 Clouds 7 1025 87 10000 1.5 0 23:37 13.01.2020
850 Clouds 7 1025 87 10000 1.5 0 23:18 13.01.2020
851 Clouds 7 1025 87 10000 1.5 0 22:42 13.01.2020
852 Clouds 8 1025 81 10000 1.5 0 22:21 13.01.2020
853 Clouds 8 1025 76 10000 2.6 340 21:57 13.01.2020
854 Clouds 8 1025 76 10000 2.1 320 21:38 13.01.2020
855 Clouds 8 1025 76 10000 2.1 320 21:38 13.01.2020
856 Clouds 8 1025 76 10000 2.1 320 21:19 13.01.2020
857 Clouds 9 1025 76 10000 2.6 300 20:58 13.01.2020
858 Clouds 9 1025 76 10000 2.6 300 20:40 13.01.2020
859 Clouds 9 1025 76 10000 1.5 0 20:22 13.01.2020
860 Clouds 9 1025 76 10000 2.6 300 19:59 13.01.2020
861 Clouds 9 1025 76 10000 2.6 300 19:39 13.01.2020
862 Clouds 9 1025 76 10000 2.6 300 19:20 13.01.2020
863 Clouds 9 1025 76 10000 2.6 290 18:56 13.01.2020
864 Clouds 10 1025 71 10000 2.1 0 18:37 13.01.2020
865 Clouds 10 1025 71 10000 2.1 0 18:37 13.01.2020
866 Clouds 10 1025 71 10000 2.1 0 18:18 13.01.2020
867 Clouds 10 1024 66 10000 2.1 340 17:43 13.01.2020
868 Clouds 11 1024 66 10000 2.1 340 17:25 13.01.2020
869 Clouds 11 1024 62 10000 2.6 340 16:57 13.01.2020
870 Clouds 11 1023 66 0 0.45 45 16:38 13.01.2020
871 Clouds 11 1012 53 0 0.89 296 16:20 13.01.2020
872 Clouds 12 1023 60 0 0.45 26 15:44 13.01.2020
873 Clouds 12 1026 61 0 1.34 331 15:24 13.01.2020
874 Clouds 12 1024 58 0 1.34 336 14:59 13.01.2020
875 Clouds 12 1026 61 0 0.89 25 14:39 13.01.2020
876 Clouds 12 1026 61 0 0.89 25 14:39 13.01.2020
877 Clouds 12 1026 61 0 0.89 25 14:39 13.01.2020
878 Clouds 12 1023 62 0 2.68 351 14:20 13.01.2020
879 Clouds 12 1026 60 0 1.79 30 13:55 13.01.2020
880 Clouds 12 1023 58 0 0.89 30 13:37 13.01.2020
881 Clouds 12 1026 60 0 2.24 15 13:19 13.01.2020
882 Clouds 12 1026 62 10000 4.1 350 12:43 13.01.2020
883 Clouds 13 1026 62 10000 4.1 350 12:23 13.01.2020
884 Clouds 12 1026 62 10000 4.1 350 11:57 13.01.2020
885 Clouds 12 1026 58 10000 4.1 340 11:37 13.01.2020
886 Clouds 12 1026 58 10000 4.1 340 11:37 13.01.2020
887 Clouds 12 1026 58 10000 4.1 340 11:19 13.01.2020
888 Clouds 12 1026 58 10000 3.6 340 10:56 13.01.2020
889 Clouds 12 1026 62 10000 4.1 340 10:37 13.01.2020
890 Clouds 12 1026 62 10000 4.1 340 10:19 13.01.2020
891 Clouds 11 1026 66 10000 4.6 340 09:44 13.01.2020
892 Clouds 11 1026 71 10000 4.1 330 09:24 13.01.2020
893 Clouds 11 1026 76 10000 3.1 360 08:57 13.01.2020
894 Clouds 10 1026 76 10000 2.1 360 08:37 13.01.2020
895 Clouds 10 1026 76 10000 2.1 360 08:18 13.01.2020
896 Clouds 9 1026 81 10000 4.1 360 07:44 13.01.2020
897 Clouds 9 1026 81 10000 4.6 350 07:26 13.01.2020
898 Clouds 9 1026 76 10000 2.6 330 06:39 13.01.2020
899 Clouds 9 1026 81 10000 2.6 300 05:42 13.01.2020
900 Clouds 9 1026 81 10000 2.6 280 05:19 13.01.2020
901 Clouds 9 1026 81 10000 3.38 354 03:46 13.01.2020
902 Clouds 9 1026 81 10000 2.1 300 02:51 13.01.2020
903 Clouds 9 1026 81 10000 2.6 320 02:30 13.01.2020
904 Clouds 9 1026 76 10000 2.6 330 01:33 13.01.2020
905 Clouds 9 1025 76 10000 2.6 330 00:55 13.01.2020
906 Clouds 9 1025 76 10000 3.1 330 00:36 13.01.2020
907 Clouds 9 1025 76 10000 3.1 330 00:18 13.01.2020
908 Clouds 9 1026 76 10000 3.6 310 23:40 12.01.2020
909 Clouds 9 1026 76 10000 2.1 290 23:22 12.01.2020
910 Clouds 9 1026 76 10000 2.1 300 22:57 12.01.2020
911 Clouds 9 1026 76 10000 2.1 300 22:39 12.01.2020
912 Clouds 9 1026 76 10000 2.1 330 22:19 12.01.2020
913 Clouds 9 1025 76 10000 2.6 350 21:54 12.01.2020
914 Clouds 9 1025 76 10000 2.6 350 21:54 12.01.2020
915 Clouds 9 1025 76 10000 2.1 300 21:36 12.01.2020
916 Clouds 9 1025 76 10000 2.1 300 21:18 12.01.2020
917 Clouds 9 1025 76 10000 3.6 310 20:54 12.01.2020
918 Clouds 10 1025 76 10000 2.6 310 20:36 12.01.2020
919 Clouds 10 1025 76 10000 2.6 310 20:18 12.01.2020
920 Clouds 10 1025 76 10000 2.6 300 19:54 12.01.2020
921 Clouds 10 1025 76 10000 2.6 300 19:54 12.01.2020
922 Clouds 10 1025 76 10000 3.1 310 19:36 12.01.2020
923 Clouds 10 1025 76 10000 3.1 310 19:18 12.01.2020
924 Clouds 10 1025 76 10000 3.1 310 18:56 12.01.2020
925 Clouds 10 1025 76 10000 3.1 320 18:38 12.01.2020
926 Clouds 10 1025 76 10000 3.1 320 18:19 12.01.2020
927 Clouds 10 1024 71 10000 3.1 310 17:42 12.01.2020
928 Clouds 10 1024 66 10000 2.6 310 17:21 12.01.2020
929 Clouds 10 1024 66 10000 3.1 320 16:58 12.01.2020
930 Clouds 11 1024 58 10000 4.1 330 16:38 12.01.2020
931 Clouds 11 1024 58 10000 4.1 330 16:20 12.01.2020
932 Clouds 11 1024 58 10000 5.7 350 15:55 12.01.2020
933 Clouds 11 1023 54 10000 5.7 350 15:37 12.01.2020
934 Clouds 12 1023 54 10000 5.7 350 15:19 12.01.2020
935 Clouds 12 1023 54 10000 4.6 340 14:42 12.01.2020
936 Clouds 13 1023 54 10000 3.6 340 14:23 12.01.2020
937 Clouds 13 1023 54 10000 3.6 340 13:57 12.01.2020
938 Clouds 13 1023 50 10000 3.6 330 13:39 12.01.2020
939 Clouds 13 1023 50 10000 3.6 330 13:20 12.01.2020
940 Clouds 13 1023 54 10000 3.6 330 12:55 12.01.2020
941 Clouds 13 1024 50 10000 3.6 330 12:37 12.01.2020
942 Clouds 13 1024 50 10000 3.6 330 12:18 12.01.2020
943 Clouds 13 1024 54 10000 3.1 330 11:41 12.01.2020
944 Clouds 13 1024 54 10000 3.6 340 11:22 12.01.2020
945 Clouds 12 1024 54 10000 4.1 340 10:56 12.01.2020
946 Clouds 13 1024 54 10000 4.1 330 10:37 12.01.2020
947 Clouds 12 1024 54 10000 4.1 330 10:18 12.01.2020
948 Clouds 11 1024 58 10000 2.1 320 09:42 12.01.2020
949 Clouds 11 1024 58 10000 2.1 320 09:22 12.01.2020
950 Clouds 10 1024 62 10000 1.5 0 08:48 12.01.2020
951 Clouds 8 1023 81 10000 3.55 354 08:24 12.01.2020
952 Clouds 8 1023 75 10000 1.5 0 07:47 12.01.2020
953 Clouds 6 1023 75 10000 1.5 0 07:26 12.01.2020
954 Clouds 6 1023 75 10000 1.5 0 07:26 12.01.2020
955 Clouds 7 1023 81 10000 1.5 0 06:59 12.01.2020
956 Clouds 7 1022 81 10000 1.5 0 06:36 12.01.2020
957 Clouds 6 1022 81 10000 1 0 05:52 12.01.2020
958 Clouds 6 1022 86 10000 3.47 7 04:56 12.01.2020
959 Clouds 7 1022 87 10000 3.47 7 03:43 12.01.2020
960 Clouds 7 1022 87 10000 3.47 7 02:46 12.01.2020
961 Clouds 7 1022 87 10000 2.1 360 02:24 12.01.2020
962 Clouds 7 1022 81 10000 1 0 01:34 12.01.2020
963 Clouds 7 1022 81 10000 1.5 0 00:46 12.01.2020
964 Clouds 7 1022 87 10000 1 0 00:22 12.01.2020
965 Clouds 7 1022 81 10000 2.1 360 23:57 11.01.2020
966 Clouds 7 1022 81 10000 2.1 360 23:39 11.01.2020
967 Clouds 8 1023 81 10000 2.33 17 23:18 11.01.2020
968 Clouds 8 1022 81 10000 2.1 360 22:56 11.01.2020
969 Clouds 8 1022 81 10000 1.5 0 22:37 11.01.2020
970 Clouds 8 1022 81 10000 1.5 0 22:19 11.01.2020
971 Clouds 8 1022 81 10000 1 0 21:44 11.01.2020
972 Clouds 8 1022 81 10000 1.5 0 21:19 11.01.2020
973 Clouds 8 1022 81 10000 2.33 17 20:56 11.01.2020
974 Clouds 8 1022 87 10000 1 0 20:38 11.01.2020
975 Clouds 8 1022 87 10000 1 0 20:19 11.01.2020
976 Clouds 9 1021 75 10000 1.5 0 19:56 11.01.2020
977 Clouds 9 1021 81 10000 1.5 0 19:38 11.01.2020
978 Clouds 9 1021 81 10000 1.5 0 19:20 11.01.2020
979 Clouds 9 1021 81 10000 1 0 18:55 11.01.2020
980 Clouds 9 1021 81 10000 1.5 0 18:36 11.01.2020
981 Clouds 9 1021 81 10000 1.5 0 18:18 11.01.2020
982 Clouds 9 1021 81 10000 1.5 0 18:18 11.01.2020
983 Clouds 9 1021 81 10000 1.5 0 18:18 11.01.2020
984 Clouds 9 1021 81 10000 1.5 0 18:18 11.01.2020
985 Clouds 10 1021 81 10000 1.5 0 17:57 11.01.2020
986 Clouds 10 1021 81 10000 1.02 35 17:38 11.01.2020
987 Clouds 10 1021 81 10000 1.11 173 17:18 11.01.2020
988 Clouds 11 1021 71 10000 1.11 173 16:43 11.01.2020
989 Clouds 12 1021 62 10000 1.5 0 16:24 11.01.2020
990 Clouds 12 1021 66 10000 1.5 0 15:56 11.01.2020
991 Clouds 13 1021 58 10000 2.1 200 15:38 11.01.2020
992 Clouds 13 1021 58 10000 2.1 200 15:19 11.01.2020
993 Clouds 13 1021 51 10000 1.11 173 14:46 11.01.2020
994 Clear 13 1020 47 10000 1.5 0 14:25 11.01.2020
995 Clear 14 1020 47 10000 1.45 169 13:57 11.01.2020
996 Clear 14 1020 47 10000 1.45 169 13:38 11.01.2020
997 Clear 14 1021 44 10000 1.5 0 13:19 11.01.2020
998 Clear 14 1021 44 10000 1.28 178 12:55 11.01.2020
999 Clouds 13 1022 50 10000 1.5 0 12:36 11.01.2020
1000 Clouds 13 1022 50 10000 1.5 0 12:18 11.01.2020
1001 Clouds 13 1022 50 10000 1.28 178 11:42 11.01.2020
1002 Clouds 13 1023 50 10000 1.28 178 11:23 11.01.2020
1003 Clear 12 1023 47 10000 0.46 68 10:46 11.01.2020
1004 Clear 12 1023 47 10000 0.46 68 10:25 11.01.2020
1005 Clear 11 1023 53 10000 0.46 68 09:43 11.01.2020
1006 Clear 11 1023 57 10000 0.46 68 09:21 11.01.2020
1007 Clear 11 1023 57 10000 0.46 68 09:21 11.01.2020
1008 Clear 10 1023 65 10000 0.46 68 08:57 11.01.2020
1009 Clear 8 1023 44 10000 0.46 68 08:38 11.01.2020
1010 Clear 7 1023 53 10000 1.48 5 08:19 11.01.2020
1011 Clear 6 1023 69 10000 1.48 5 07:42 11.01.2020
1012 Clear 5 1023 69 10000 1.48 5 07:23 11.01.2020
1013 Clear 5 1023 74 10000 1.48 5 06:43 11.01.2020
1014 Clear 5 1022 69 10000 1.48 5 05:29 11.01.2020
1015 Clear 5 1022 69 10000 1.6 23 04:40 11.01.2020
1016 Clear 5 1022 69 10000 1.6 23 04:21 11.01.2020
1017 Clear 6 1023 69 10000 1.6 23 02:46 11.01.2020
1018 Clear 6 1023 69 10000 1.72 18 01:47 11.01.2020
1019 Clear 6 1023 69 10000 1.74 16 01:27 11.01.2020
1020 Clear 6 1023 65 10000 1.74 16 00:52 11.01.2020
1021 Clear 6 1023 65 10000 1.74 16 00:29 11.01.2020
1022 Clear 6 1023 65 10000 1.74 16 23:59 10.01.2020
1023 Clear 6 1023 65 10000 1.74 16 23:39 10.01.2020
1024 Clear 6 1023 65 10000 1.72 21 23:20 10.01.2020
1025 Clear 7 1023 65 10000 1.72 21 22:41 10.01.2020
1026 Clear 7 1023 55 10000 1.72 21 22:22 10.01.2020
1027 Clear 7 1023 55 10000 1.72 21 21:59 10.01.2020
1028 Clear 7 1023 55 10000 1.72 21 21:41 10.01.2020
1029 Clear 7 1024 70 10000 1.5 240 21:21 10.01.2020
1030 Clear 7 1022 55 10000 1.72 21 20:59 10.01.2020
1031 Clear 7 1022 55 10000 1.72 21 20:40 10.01.2020
1032 Clear 7 1022 55 10000 1.68 22 20:22 10.01.2020
1033 Clear 8 1022 55 10000 1.63 10 19:41 10.01.2020
1034 Clear 8 1022 55 10000 1.63 10 19:21 10.01.2020
1035 Clear 8 1022 55 10000 1.63 10 18:58 10.01.2020
1036 Clear 8 1022 55 10000 1.63 10 18:40 10.01.2020
1037 Clear 8 1022 65 10000 1.63 10 18:18 10.01.2020
1038 Clear 9 1022 66 10000 1.63 10 17:56 10.01.2020
1039 Clear 9 1022 70 10000 1.63 10 17:38 10.01.2020
1040 Clear 10 1022 70 10000 0.65 299 17:20 10.01.2020
1041 Clear 10 1023 71 10000 2.6 60 16:55 10.01.2020
1042 Clear 11 1021 43 10000 0.65 299 16:36 10.01.2020
1043 Clear 11 1021 43 10000 0.65 299 16:18 10.01.2020
1044 Clear 12 1021 33 10000 0.65 299 15:55 10.01.2020
1045 Clear 12 1021 33 10000 0.65 299 15:36 10.01.2020
1046 Clear 12 1021 33 10000 0.65 299 15:18 10.01.2020
1047 Clear 13 1021 30 10000 0.65 299 14:42 10.01.2020
1048 Clear 13 1021 30 10000 0.64 296 14:20 10.01.2020
1049 Clear 13 1021 28 10000 0.64 296 13:58 10.01.2020
1050 Clear 13 1021 28 10000 0.64 296 13:58 10.01.2020
1051 Clear 13 1022 28 10000 0.64 296 13:40 10.01.2020
1052 Clear 13 1022 28 10000 0.54 262 13:22 10.01.2020
1053 Clear 13 1022 30 10000 0.54 262 12:57 10.01.2020
1054 Clear 13 1022 32 10000 1.5 0 12:38 10.01.2020
1055 Clear 13 1022 32 10000 1.5 0 12:18 10.01.2020
1056 Clear 12 1023 32 10000 1.5 0 11:54 10.01.2020
1057 Clear 12 1023 30 10000 0.54 262 11:36 10.01.2020
1058 Clear 12 1023 30 10000 1.35 12 11:18 10.01.2020
1059 Clear 11 1023 30 10000 1.35 12 10:42 10.01.2020
1060 Clear 11 1024 34 10000 1.35 12 10:24 10.01.2020
1061 Clear 11 1024 37 10000 1 0 09:56 10.01.2020
1062 Clear 10 1024 37 10000 1 0 09:37 10.01.2020
1063 Clear 9 1024 45 10000 1 0 09:19 10.01.2020
1064 Clear 8 1024 52 10000 1.5 0 08:42 10.01.2020
1065 Clear 7 1024 56 10000 2.35 2 08:23 10.01.2020
1066 Clear 5 1023 59 10000 2.1 340 07:45 10.01.2020
1067 Clouds 5 1023 69 10000 1 0 07:26 10.01.2020
1068 Clouds 4 1023 69 10000 1.5 0 06:46 10.01.2020
1069 Clouds 4 1023 51 10000 2.6 270 06:26 10.01.2020
1070 Clouds 4 1023 55 10000 2.6 310 05:51 10.01.2020
1071 Clouds 4 1023 52 10000 2.5 358 03:45 10.01.2020
1072 Clouds 4 1023 45 10000 2.5 358 03:22 10.01.2020
1073 Clouds 4 1023 42 10000 1.5 0 02:49 10.01.2020
1074 Clouds 4 1023 52 10000 1.5 0 01:47 10.01.2020
1075 Clouds 4 1023 48 10000 1.5 0 01:28 10.01.2020
1076 Clouds 4 1025 64 10000 2.1 330 00:44 10.01.2020
1077 Clouds 4 1024 42 10000 4.1 330 23:58 09.01.2020
1078 Clouds 5 1025 60 10000 3.6 30 23:39 09.01.2020
1079 Clouds 5 1025 60 10000 3.6 30 23:20 09.01.2020
1080 Clouds 5 1024 39 10000 4.1 330 22:57 09.01.2020
1081 Clouds 5 1024 45 10000 4.1 330 22:39 09.01.2020
1082 Clouds 5 1024 45 10000 4.1 330 22:19 09.01.2020
1083 Clouds 5 1024 45 10000 4.1 330 22:19 09.01.2020
1084 Clouds 5 1024 45 10000 4.1 330 22:19 09.01.2020
1085 Clouds 6 1024 39 10000 4.1 330 21:57 09.01.2020
1086 Clouds 6 1024 39 10000 4.1 330 21:38 09.01.2020
1087 Clouds 6 1024 45 10000 4.1 330 21:19 09.01.2020
1088 Clouds 6 1024 49 10000 2.88 359 20:58 09.01.2020
1089 Clouds 6 1025 52 10000 6.2 30 20:39 09.01.2020
1090 Clouds 6 1025 52 10000 6.2 30 20:39 09.01.2020
1091 Clouds 6 1025 52 10000 6.2 30 20:20 09.01.2020
1092 Clouds 6 1025 52 10000 6.2 30 20:20 09.01.2020
1093 Clouds 6 1024 49 10000 3.6 340 19:58 09.01.2020
1094 Clouds 6 1025 49 10000 3.16 350 19:38 09.01.2020
1095 Clouds 7 1024 49 10000 3.16 350 19:19 09.01.2020
1096 Clouds 7 1024 49 10000 3.16 350 18:55 09.01.2020
1097 Clouds 7 1024 49 10000 3.16 350 18:55 09.01.2020
1098 Clouds 7 1024 49 10000 3.16 350 18:37 09.01.2020
1099 Clouds 7 1024 52 10000 3.16 350 18:19 09.01.2020
1100 Clouds 7 1024 52 10000 2.1 320 17:41 09.01.2020
1101 Clouds 8 1024 49 10000 2.1 350 17:18 09.01.2020
1102 Clouds 8 1024 49 10000 2.1 350 16:55 09.01.2020
1103 Clouds 8 1024 53 10000 2.6 330 16:36 09.01.2020
1104 Clouds 9 1024 53 10000 4.6 350 16:18 09.01.2020
1105 Clouds 9 1024 53 10000 2.6 340 15:41 09.01.2020
1106 Clouds 9 1024 53 10000 2.6 340 15:19 09.01.2020
1107 Clouds 9 1024 53 10000 2.6 340 14:55 09.01.2020
1108 Clouds 9 1024 53 10000 4.1 350 14:36 09.01.2020
1109 Clouds 9 1024 57 10000 2.6 330 14:18 09.01.2020
1110 Clouds 9 1024 57 10000 2.6 330 13:54 09.01.2020
1111 Clouds 9 1024 49 10000 5.1 350 13:36 09.01.2020
1112 Clouds 9 1024 48 10000 4.1 340 13:18 09.01.2020
1113 Clouds 9 1024 46 10000 5.7 340 12:41 09.01.2020
1114 Clouds 9 1024 46 10000 5.7 340 12:22 09.01.2020
1115 Clouds 9 1025 45 10000 3.6 340 11:58 09.01.2020
1116 Clouds 9 1025 45 10000 5.1 350 11:40 09.01.2020
1117 Clouds 9 1026 45 10000 4.1 350 11:22 09.01.2020
1118 Clouds 8 1026 49 10000 3.6 360 10:44 09.01.2020
1119 Clouds 8 1026 52 10000 2.6 360 10:23 09.01.2020
1120 Clouds 8 1026 52 10000 2.6 360 09:59 09.01.2020
1121 Clouds 8 1026 52 10000 3.1 10 09:39 09.01.2020
1122 Clouds 7 1026 52 10000 3.1 10 09:21 09.01.2020
1123 Clouds 7 1026 52 10000 2.6 360 09:21 09.01.2020
1124 Clouds 7 1026 52 10000 2.6 360 08:55 09.01.2020
1125 Clouds 7 1026 52 10000 5.32 350 08:37 09.01.2020
1126 Clouds 7 1026 52 10000 5.68 343 08:19 09.01.2020
1127 Clouds 6 1026 52 10000 1.5 0 07:42 09.01.2020
1128 Clouds 6 1026 52 10000 1.5 0 07:42 09.01.2020
1129 Clouds 5 1026 52 10000 4.83 346 07:23 09.01.2020
1130 Clouds 6 1026 52 10000 1.5 0 06:39 09.01.2020
1131 Clouds 6 1026 52 10000 1.5 0 06:20 09.01.2020
1132 Clouds 6 1025 52 10000 3.1 330 05:49 09.01.2020
1133 Clouds 5 1025 48 10000 3.6 340 04:44 09.01.2020
1134 Clouds 5 1025 48 10000 4.1 350 03:54 09.01.2020
1135 Clouds 6 1026 52 10000 1.5 0 02:54 09.01.2020
1136 Clouds 6 1026 52 10000 5.4 343 02:28 09.01.2020
1137 Clouds 6 1026 52 10000 3.1 350 01:39 09.01.2020
1138 Clouds 6 1026 48 10000 3.6 320 00:43 09.01.2020
1139 Clouds 6 1026 45 10000 3.1 320 00:21 09.01.2020
1140 Clouds 6 1026 45 10000 3.1 320 23:55 08.01.2020
1141 Clouds 6 1026 45 10000 3.6 330 23:37 08.01.2020
1142 Clouds 6 1026 48 10000 2.6 320 23:18 08.01.2020
1143 Clouds 6 1026 48 10000 3.6 320 22:39 08.01.2020
1144 Clouds 6 1026 45 10000 4.1 340 22:21 08.01.2020
1145 Clouds 6 1026 45 10000 4.1 340 21:58 08.01.2020
1146 Clouds 6 1026 45 10000 3.6 340 21:39 08.01.2020
1147 Clouds 6 1026 45 10000 5.1 340 21:20 08.01.2020
1148 Clouds 6 1026 45 10000 5.1 340 20:58 08.01.2020
1149 Clouds 6 1026 42 10000 5.1 350 20:40 08.01.2020
1150 Clouds 6 1026 42 10000 5.1 360 20:20 08.01.2020
1151 Clouds 6 1026 42 10000 5.1 360 19:56 08.01.2020
1152 Clouds 6 1026 39 10000 5.1 350 19:37 08.01.2020
1153 Clouds 6 1026 42 10000 6.2 350 19:19 08.01.2020
1154 Clouds 6 1026 42 10000 6.2 350 18:56 08.01.2020
1155 Clouds 6 1026 45 10000 5.7 360 18:37 08.01.2020
1156 Clouds 6 1026 45 10000 5.1 360 18:18 08.01.2020
1157 Clouds 6 1026 45 10000 5.1 360 17:55 08.01.2020
1158 Clouds 6 1025 48 10000 5.1 360 17:36 08.01.2020
1159 Clouds 6 1025 52 10000 5.1 360 17:18 08.01.2020
1160 Clouds 6 1025 52 10000 5.1 360 16:54 08.01.2020
1161 Clouds 7 1026 48 10000 7.2 340 16:36 08.01.2020
1162 Clouds 7 1025 45 10000 5.1 360 16:18 08.01.2020
1163 Clouds 7 1025 45 10000 6.2 360 15:40 08.01.2020
1164 Clouds 7 1025 45 10000 6.2 360 15:20 08.01.2020
1165 Clouds 8 1025 49 10000 7.7 350 14:56 08.01.2020
1166 Clouds 8 1024 42 10000 7.2 360 14:38 08.01.2020
1167 Clouds 8 1024 42 10000 7.2 360 14:19 08.01.2020
1168 Rain 8 1024 42 10000 7.2 350 13:40 08.01.2020
1169 Rain 8 1024 42 10000 7.2 350 13:19 08.01.2020
1170 Clouds 8 1024 45 10000 7.2 360 12:42 08.01.2020
1171 Clouds 8 1024 45 10000 7.2 360 12:19 08.01.2020
1172 Clouds 8 1024 45 10000 7.2 360 11:55 08.01.2020
1173 Clouds 8 1024 45 10000 7.2 360 11:55 08.01.2020
1174 Clouds 8 1024 42 10000 7.7 360 11:37 08.01.2020
1175 Clouds 8 1024 42 10000 7.7 360 11:19 08.01.2020
1176 Clouds 8 1024 42 10000 7.7 360 10:55 08.01.2020
1177 Clouds 8 1024 42 10000 7.2 360 10:37 08.01.2020
1178 Clouds 7 1024 45 10000 6.7 350 10:18 08.01.2020
1179 Clouds 7 1024 45 10000 5.1 360 09:41 08.01.2020
1180 Clouds 7 1024 45 10000 5.1 360 09:19 08.01.2020
1181 Clouds 7 1024 52 10000 6.2 350 08:56 08.01.2020
1182 Clouds 6 1024 56 10000 4.1 340 08:37 08.01.2020
1183 Clouds 6 1024 60 10000 4.1 340 08:19 08.01.2020
1184 Clouds 6 1023 77 10000 4.1 340 07:48 08.01.2020
1185 Clouds 6 1023 77 10000 4.1 340 07:29 08.01.2020
1186 Clouds 5 1023 70 10000 7.2 340 06:45 08.01.2020
1187 Clouds 5 1022 70 10000 5.1 350 06:22 08.01.2020
1188 Clouds 5 1022 56 10000 5.7 330 05:41 08.01.2020
1189 Clouds 5 1022 56 10000 5.7 330 05:41 08.01.2020
1190 Clouds 5 1022 56 10000 5.1 320 04:56 08.01.2020
1191 Clouds 5 1022 56 10000 3.1 330 04:24 08.01.2020
1192 Clouds 5 1022 56 10000 2.6 310 02:45 08.01.2020
1193 Clouds 5 1022 56 10000 2.6 310 02:22 08.01.2020
1194 Clouds 5 1022 56 10000 2.6 320 01:46 08.01.2020
1195 Clouds 5 1022 52 10000 3.1 310 01:19 08.01.2020
1196 Clouds 6 1022 52 10000 2.6 320 00:28 08.01.2020
1197 Clouds 6 1022 52 10000 2.6 310 23:57 07.01.2020
1198 Clouds 6 1022 52 10000 2.6 320 23:39 07.01.2020
1199 Clouds 6 1022 52 10000 2.1 330 23:20 07.01.2020
1200 Clouds 6 1022 52 10000 2.1 330 23:20 07.01.2020
1201 Clouds 6 1022 52 10000 3.1 350 22:40 07.01.2020
1202 Clouds 6 1021 52 10000 3.1 360 22:20 07.01.2020
1203 Clouds 6 1021 52 10000 3.1 360 21:56 07.01.2020
1204 Clouds 6 1022 56 10000 1.5 0 21:38 07.01.2020
1205 Clouds 6 1021 56 10000 2.1 360 21:20 07.01.2020
1206 Clouds 6 1021 56 10000 2.1 360 20:55 07.01.2020
1207 Clouds 6 1021 56 10000 2.1 320 20:36 07.01.2020
1208 Clouds 6 1021 56 10000 2.6 340 20:18 07.01.2020
1209 Clouds 6 1021 52 10000 2.6 330 19:38 07.01.2020
1210 Clouds 6 1021 52 10000 3.1 330 19:20 07.01.2020
1211 Clouds 6 1021 52 10000 3.1 330 18:58 07.01.2020
1212 Clouds 6 1021 52 10000 2.6 350 18:40 07.01.2020
1213 Clouds 6 1020 52 10000 5.1 350 18:19 07.01.2020
1214 Clouds 6 1020 52 10000 5.1 350 17:59 07.01.2020
1215 Clouds 6 1020 52 10000 5.7 330 17:39 07.01.2020
1216 Clouds 6 1020 52 10000 3.1 340 17:21 07.01.2020
1217 Clouds 6 1020 52 10000 3.1 340 16:57 07.01.2020
1218 Clouds 6 1019 70 10000 5.1 340 16:38 07.01.2020
1219 Clouds 6 1019 65 10000 5.1 340 16:19 07.01.2020
1220 Clouds 6 1019 65 10000 5.1 340 15:58 07.01.2020
1221 Clouds 6 1019 65 10000 3.6 310 15:39 07.01.2020
1222 Clouds 6 1019 70 10000 3.6 310 15:21 07.01.2020
1223 Clouds 6 1019 70 10000 3.6 310 14:54 07.01.2020
1224 Clouds 6 1018 75 10000 5.1 330 14:36 07.01.2020
1225 Clouds 6 1018 70 9000 6.7 360 14:18 07.01.2020
1226 Clouds 6 1018 56 9000 7.7 360 13:39 07.01.2020
1227 Clouds 6 1017 60 10000 8.2 360 13:19 07.01.2020
1228 Clouds 6 1017 56 10000 9.8 360 12:41 07.01.2020
1229 Rain 6 1018 56 9000 10.3 360 12:20 07.01.2020
1230 Rain 5 1018 56 9000 10.3 360 11:57 07.01.2020
1231 Rain 5 1018 52 8000 10.8 360 11:38 07.01.2020
1232 Clouds 5 1018 56 8000 8.7 350 11:20 07.01.2020
1233 Clouds 5 1018 65 8000 8.7 360 10:42 07.01.2020
1234 Clouds 5 1018 65 8000 8.7 360 10:24 07.01.2020
1235 Clouds 5 1019 65 8000 8.2 360 09:59 07.01.2020
1236 Clouds 5 1018 82 8000 8.7 360 09:38 07.01.2020
1237 Clouds 5 1018 82 8000 8.7 360 09:20 07.01.2020
1238 Clouds 4 1018 65 8000 6.2 350 08:46 07.01.2020
1239 Clouds 4 1018 65 8000 5.1 350 08:26 07.01.2020
1240 Clouds 4 1018 65 8000 5.1 350 07:54 07.01.2020
1241 Rain 4 1018 65 8000 4.1 360 07:28 07.01.2020
1242 Rain 4 1018 85 10000 3.6 360 06:54 07.01.2020
1243 Drizzle 4 1017 85 8000 4.1 350 06:34 07.01.2020
1244 Rain 4 1017 80 8000 5.1 310 05:55 07.01.2020
1245 Clouds 4 1017 69 10000 2.6 350 04:41 07.01.2020
1246 Drizzle 4 1016 85 8000 2.6 350 03:29 07.01.2020
1247 Rain 4 1016 84 7000 4.1 350 02:24 07.01.2020
1248 Rain 4 1016 80 7000 4.6 350 01:57 07.01.2020
1249 Rain 4 1015 80 7000 3.6 350 01:32 07.01.2020
1250 Drizzle 4 1015 75 7000 5.1 360 00:37 07.01.2020
1251 Drizzle 4 1015 75 7000 4.6 360 00:19 07.01.2020
1252 Drizzle 4 1015 75 7000 4.6 360 23:55 06.01.2020
1253 Drizzle 4 1015 75 7000 5.1 350 23:36 06.01.2020
1254 Drizzle 4 1015 75 7000 5.1 350 23:36 06.01.2020
1255 Rain 4 1015 75 7000 4.1 360 23:18 06.01.2020
1256 Rain 4 1015 81 7000 5.1 360 22:42 06.01.2020
1257 Rain 5 1015 81 7000 5.1 360 22:22 06.01.2020
1258 Rain 5 1014 70 7000 5.1 360 21:57 06.01.2020
1259 Rain 5 1014 75 7000 5.1 360 21:38 06.01.2020
1260 Rain 5 1014 75 8000 4.6 360 21:20 06.01.2020
1261 Rain 5 1014 75 8000 4.6 360 21:20 06.01.2020
1262 Rain 5 1014 75 8000 4.6 360 20:56 06.01.2020
1263 Rain 5 1013 81 8000 4.6 360 20:38 06.01.2020
1264 Rain 5 1013 81 7000 5.1 360 20:20 06.01.2020
1265 Rain 5 1013 81 7000 5.1 360 19:56 06.01.2020
1266 Rain 5 1013 86 8000 4.6 360 19:38 06.01.2020
1267 Rain 5 1013 86 8000 4.6 360 19:19 06.01.2020
1268 Rain 4 1013 86 8000 4.1 360 18:47 06.01.2020
1269 Rain 4 1013 86 8000 4.1 360 18:21 06.01.2020
1270 Rain 4 1013 86 8000 8.2 340 17:58 06.01.2020
1271 Rain 4 1012 80 8000 7.2 330 17:37 06.01.2020
1272 Rain 4 1012 86 8000 7.7 340 17:18 06.01.2020
1273 Rain 4 1012 80 8000 8.2 330 16:44 06.01.2020
1274 Rain 4 1012 80 8000 8.2 330 16:25 06.01.2020
1275 Rain 4 1012 80 8000 8.2 330 16:25 06.01.2020
1276 Rain 4 1012 80 8000 8.2 330 15:59 06.01.2020
1277 Rain 4 1012 80 8000 7.2 330 15:39 06.01.2020
1278 Rain 4 1011 80 8000 6.2 330 15:19 06.01.2020
1279 Rain 4 1011 80 8000 6.2 330 14:57 06.01.2020
1280 Rain 4 1011 80 8000 5.1 330 14:39 06.01.2020
1281 Rain 4 1011 80 6000 8.2 360 14:19 06.01.2020
1282 Rain 4 1011 80 6000 8.2 360 13:54 06.01.2020
1283 Rain 4 1011 80 8000 6.2 320 13:36 06.01.2020
1284 Rain 4 1011 86 8000 5.1 320 13:18 06.01.2020
1285 Rain 4 1011 80 8000 6.7 320 12:41 06.01.2020
1286 Rain 4 1011 86 8000 4.1 330 12:20 06.01.2020
1287 Rain 4 1011 86 8000 4.1 330 11:57 06.01.2020
1288 Rain 4 1012 86 8000 4.1 330 11:38 06.01.2020
1289 Rain 4 1012 80 8000 4.1 300 11:20 06.01.2020
1290 Rain 4 1012 80 8000 4.6 320 10:45 06.01.2020
1291 Rain 4 1012 80 8000 4.6 320 10:27 06.01.2020
1292 Rain 4 1012 81 8000 6.2 350 09:59 06.01.2020
1293 Rain 4 1012 81 8000 7.7 350 09:37 06.01.2020
1294 Rain 4 1011 80 8000 4.6 310 09:19 06.01.2020
1295 Rain 4 1011 80 8000 3.1 310 08:43 06.01.2020
1296 Rain 4 1011 80 8000 3.1 310 08:24 06.01.2020
1297 Rain 4 1010 80 8000 2.6 360 07:51 06.01.2020
1298 Rain 4 1010 80 8000 2.6 360 07:26 06.01.2020
1299 Rain 4 1009 80 7000 2.6 320 06:45 06.01.2020
1300 Rain 4 1009 80 7000 3.1 320 06:19 06.01.2020
1301 Rain 4 1009 86 7000 2.1 320 05:42 06.01.2020
1302 Rain 4 1009 86 7000 3.6 330 04:33 06.01.2020
1303 Rain 5 1009 86 7000 2.6 0 03:59 06.01.2020
1304 Rain 5 1009 81 7000 5.1 280 02:46 06.01.2020
1305 Rain 6 1009 81 7000 5.1 280 02:23 06.01.2020
1306 Rain 6 1009 86 7000 5.7 350 01:43 06.01.2020
1307 Rain 6 1009 86 7000 5.7 350 01:21 06.01.2020
1308 Rain 6 1009 86 7000 2.1 320 00:41 06.01.2020
1309 Rain 6 1009 93 7000 3.6 330 00:20 06.01.2020
1310 Rain 5 1009 86 7000 4.6 330 23:41 05.01.2020
1311 Rain 5 1009 86 7000 4.6 330 23:22 05.01.2020
1312 Rain 5 1009 86 7000 3.6 340 22:56 05.01.2020
1313 Rain 5 1009 86 7000 2.1 220 22:37 05.01.2020
1314 Rain 5 1009 86 7000 2.1 220 22:19 05.01.2020
1315 Rain 5 1008 86 7000 2.6 0 22:19 05.01.2020
1316 Rain 5 1008 86 7000 2.6 0 21:54 05.01.2020
1317 Rain 5 1008 86 7000 1.5 340 21:36 05.01.2020
1318 Rain 5 1008 86 7000 3.1 350 21:18 05.01.2020
1319 Rain 5 1008 86 7000 3.1 350 21:18 05.01.2020
1320 Rain 5 1008 86 7000 3.1 350 20:54 05.01.2020
1321 Rain 6 1008 86 7000 5.7 340 20:36 05.01.2020
1322 Rain 6 1008 86 7000 5.7 340 20:36 05.01.2020
1323 Rain 6 1008 87 8000 7.2 340 20:18 05.01.2020
1324 Rain 6 1008 87 8000 7.2 340 19:54 05.01.2020
1325 Rain 6 1008 87 8000 7.2 340 19:36 05.01.2020
1326 Rain 6 1008 87 8000 5.7 350 19:18 05.01.2020
1327 Rain 6 1008 87 8000 5.7 350 18:54 05.01.2020
1328 Rain 6 1008 87 8000 5.7 350 18:54 05.01.2020
1329 Rain 6 1009 87 8000 3.1 340 18:36 05.01.2020
1330 Rain 6 1009 87 8000 6.2 350 18:18 05.01.2020
1331 Rain 6 1009 87 8000 6.2 350 18:18 05.01.2020
1332 Rain 6 1009 87 8000 6.2 350 17:39 05.01.2020
1333 Rain 7 1009 87 8000 6.2 350 17:21 05.01.2020
1334 Rain 7 1008 81 8000 7.2 340 16:58 05.01.2020
1335 Drizzle 7 1008 81 9000 5.1 340 16:40 05.01.2020
1336 Drizzle 7 1009 81 9000 5.1 340 16:20 05.01.2020
1337 Drizzle 8 1009 81 9000 6.7 340 15:41 05.01.2020
1338 Rain 8 1009 81 9000 5.7 340 15:22 05.01.2020
1339 Rain 8 1009 81 9000 5.7 340 15:22 05.01.2020
1340 Rain 8 1009 81 9000 5.7 340 14:58 05.01.2020
1341 Drizzle 9 1009 75 10000 8.2 330 14:40 05.01.2020
1342 Drizzle 10 1009 75 10000 8.2 330 14:22 05.01.2020
1343 Clouds 10 1008 62 10000 5.1 340 13:59 05.01.2020
1344 Clouds 11 1008 62 10000 4.6 350 13:39 05.01.2020
1345 Clouds 11 1008 62 10000 4.6 350 13:20 05.01.2020
1346 Clouds 11 1008 58 10000 5.1 340 12:57 05.01.2020
1347 Clouds 11 1009 58 10000 3.6 320 12:38 05.01.2020
1348 Clouds 11 1009 54 10000 5.1 340 12:20 05.01.2020
1349 Clouds 11 1009 54 10000 5.1 340 12:20 05.01.2020
1350 Clouds 11 1009 54 10000 5.1 340 11:55 05.01.2020
1351 Clouds 11 1010 58 10000 5.1 350 11:36 05.01.2020
1352 Clouds 11 1010 58 10000 5.1 340 11:18 05.01.2020
1353 Clouds 11 1011 62 10000 3.1 340 10:41 05.01.2020
1354 Clouds 11 1011 57 10000 3.6 330 10:20 05.01.2020
1355 Clouds 11 1011 62 10000 3.1 340 10:20 05.01.2020
1356 Clouds 11 1011 57 10000 3.6 330 09:57 05.01.2020
1357 Clouds 11 1011 58 10000 2.6 320 09:38 05.01.2020
1358 Clouds 10 1011 62 10000 6.72 12 09:20 05.01.2020
1359 Clouds 10 1011 62 10000 6.72 12 08:45 05.01.2020
1360 Clouds 9 1011 53 10000 4.5 0 08:21 05.01.2020
1361 Clouds 9 1011 53 10000 1.5 0 07:47 05.01.2020
1362 Clouds 9 1011 53 10000 1.5 0 07:29 05.01.2020
1363 Clouds 7 1011 61 10000 2.6 320 06:55 05.01.2020
1364 Clouds 8 1011 81 10000 4.5 0 05:43 05.01.2020
1365 Clouds 8 1011 81 10000 2.65 327 04:56 05.01.2020
1366 Clouds 8 1012 87 10000 2.65 327 04:19 05.01.2020
1367 Clouds 8 1012 81 10000 2.65 327 03:40 05.01.2020
1368 Clouds 8 1014 86 10000 1 0 02:36 05.01.2020
1369 Clouds 8 1014 86 10000 1 0 02:36 05.01.2020
1370 Clouds 8 1014 80 10000 3.27 317 02:18 05.01.2020
1371 Clouds 8 1014 80 10000 3.27 317 01:36 05.01.2020
1372 Clouds 8 1014 86 10000 1 0 01:18 05.01.2020
1373 Clouds 8 1015 75 10000 2.1 250 00:39 05.01.2020
1374 Clouds 8 1015 75 10000 2.1 250 00:21 05.01.2020
1375 Clouds 8 1014 80 10000 3.07 320 23:58 04.01.2020
1376 Clouds 8 1015 75 10000 3.07 320 23:38 04.01.2020
1377 Clouds 8 1015 70 10000 3.03 308 23:18 04.01.2020
1378 Clouds 8 1015 75 10000 3.03 308 22:39 04.01.2020
1379 Clouds 8 1015 75 10000 3.03 308 22:39 04.01.2020
1380 Clouds 8 1015 75 10000 3.03 308 22:21 04.01.2020
1381 Clouds 8 1015 75 10000 3.03 308 21:57 04.01.2020
1382 Clouds 9 1016 70 10000 3.03 308 21:38 04.01.2020
1383 Clouds 8 1017 57 10000 0.5 0 21:19 04.01.2020
1384 Clouds 8 1017 57 10000 0.5 0 21:19 04.01.2020
1385 Clouds 8 1017 57 10000 0.5 0 20:56 04.01.2020
1386 Clouds 9 1017 61 10000 0.5 0 20:37 04.01.2020
1387 Clear 9 1016 51 10000 2.7 310 20:19 04.01.2020
1388 Clear 9 1016 51 10000 2.7 310 19:42 04.01.2020
1389 Clear 9 1016 51 10000 2.7 310 19:23 04.01.2020
1390 Clear 9 1016 65 10000 2.7 310 18:58 04.01.2020
1391 Clear 10 1016 65 10000 2.7 310 18:39 04.01.2020
1392 Clear 10 1016 65 10000 2.7 310 18:20 04.01.2020
1393 Clear 10 1016 65 10000 2.7 310 17:58 04.01.2020
1394 Clear 10 1016 57 10000 1.5 0 17:40 04.01.2020
1395 -273 0 0 0 0 0 17:22 04.01.2020
1396 Clear 12 1016 66 10000 1.61 282 16:42 04.01.2020
1397 Clear 12 1016 66 10000 1.61 282 16:24 04.01.2020
1398 Clear 13 1016 54 10000 1.61 282 15:59 04.01.2020
1399 Clear 13 1016 54 10000 1.61 282 15:59 04.01.2020
1400 Clear 14 1016 51 10000 1.61 282 15:41 04.01.2020
1401 Clear 14 1016 44 10000 2.1 200 15:19 04.01.2020
1402 Clear 14 1016 44 10000 2.1 200 14:58 04.01.2020
1403 Clear 14 1016 44 10000 2.1 200 14:58 04.01.2020
1404 Clear 15 1016 41 10000 2.1 170 14:40 04.01.2020
1405 Clear 15 1016 44 10000 1.5 0 14:19 04.01.2020
1406 Clear 15 1016 44 10000 1.5 0 13:56 04.01.2020
1407 Clear 15 1016 38 10000 1.34 247 13:37 04.01.2020
1408 Clear 15 1017 38 10000 1.34 247 13:18 04.01.2020
1409 Clear 15 1017 31 10000 1.5 0 12:42 04.01.2020
1410 Clear 15 1017 36 10000 2.1 190 12:20 04.01.2020
1411 Clear 15 1017 36 10000 2.1 190 11:59 04.01.2020
1412 Clear 14 1018 33 10000 1.5 0 11:40 04.01.2020
1413 Clear 13 1018 26 10000 0.82 308 11:20 04.01.2020
1414 Clear 13 1020 24 10000 1 0 10:58 04.01.2020
1415 Clear 13 1019 30 10000 0.82 308 10:38 04.01.2020
1416 Clear 13 1019 37 10000 1.5 0 10:19 04.01.2020
1417 Clear 13 1019 24 10000 0.82 308 09:42 04.01.2020
1418 Clear 12 1019 24 10000 0.82 308 09:24 04.01.2020
1419 Clouds 10 1019 27 10000 2.1 290 08:44 04.01.2020
1420 Clouds 9 1019 27 10000 2.1 290 08:25 04.01.2020
1421 Clouds 7 1019 31 10000 2.6 290 07:51 04.01.2020
1422 Clouds 7 1019 34 10000 2.1 310 07:32 04.01.2020
1423 Clouds 6 1019 29 10000 2.1 330 06:39 04.01.2020
1424 Clouds 7 1019 29 10000 1.5 0 05:52 04.01.2020
1425 Clouds 7 1018 39 10000 2.1 340 04:48 04.01.2020
1426 Clouds 7 1018 39 10000 2.1 340 04:28 04.01.2020
1427 Clouds 7 1019 39 10000 2.1 320 03:20 04.01.2020
1428 Clouds 7 1019 34 10000 1.5 0 02:38 04.01.2020
1429 Clouds 7 1019 34 10000 1.5 0 02:18 04.01.2020
1430 Clouds 7 1020 34 10000 1.5 0 01:32 04.01.2020
1431 Clouds 7 1020 34 10000 1.5 0 01:32 04.01.2020
1432 Clouds 7 1020 34 10000 1.5 0 01:32 04.01.2020
1433 Clouds 7 1020 39 10000 1.5 0 00:58 04.01.2020
1434 Clouds 7 1020 34 10000 2.1 300 00:29 04.01.2020
1435 Clouds 7 1020 31 10000 3.1 330 23:57 03.01.2020
1436 Clouds 7 1020 31 10000 2.1 310 23:29 03.01.2020
1437 Clouds 6 1020 31 10000 3.96 352 22:57 03.01.2020
1438 Clouds 6 1020 31 10000 3.96 352 22:57 03.01.2020
1439 Clouds 6 1020 45 10000 3.96 352 22:39 03.01.2020
1440 Clouds 6 1021 42 10000 3.96 352 22:18 03.01.2020
1441 Clouds 6 1021 42 10000 3.96 352 21:57 03.01.2020
1442 Clouds 6 1021 31 10000 3.96 352 21:37 03.01.2020
1443 Clouds 6 1021 39 10000 3.96 352 21:18 03.01.2020
1444 Clouds 6 1021 39 10000 3.96 352 20:54 03.01.2020
1445 Clouds 7 1021 36 10000 3.96 352 20:36 03.01.2020
1446 Clouds 7 1021 36 10000 2.1 310 20:18 03.01.2020
1447 Clouds 7 1021 34 10000 3.6 340 19:42 03.01.2020
1448 Clouds 7 1021 34 10000 5.08 348 19:23 03.01.2020
1449 Clouds 7 1021 34 10000 5.08 348 18:54 03.01.2020
1450 Clouds 7 1021 34 10000 2.6 330 18:36 03.01.2020
1451 Clouds 7 1021 36 10000 2.6 330 18:18 03.01.2020
1452 Clouds 8 1021 36 10000 3.1 330 17:41 03.01.2020
1453 Clouds 8 1021 39 10000 4.1 320 17:21 03.01.2020
1454 Clouds 8 1021 39 10000 3.1 310 16:45 03.01.2020
1455 Clouds 8 1021 39 10000 3.1 310 16:26 03.01.2020
1456 Clouds 9 1021 39 10000 3.6 320 16:00 03.01.2020
1457 Clouds 9 1020 43 10000 4.1 330 15:41 03.01.2020
1458 Clouds 9 1021 43 10000 5.7 330 15:19 03.01.2020
1459 Clouds 10 1020 43 10000 5.7 330 14:40 03.01.2020
1460 Clouds 10 1020 43 10000 5.7 330 14:40 03.01.2020
1461 Clouds 10 1020 43 10000 5.7 330 14:20 03.01.2020
1462 Clouds 10 1020 48 10000 6.2 340 13:59 03.01.2020
1463 Clouds 10 1021 48 10000 4.6 350 13:40 03.01.2020
1464 Clouds 10 1021 48 10000 4.6 350 13:21 03.01.2020
1465 Clouds 10 1021 46 10000 8.91 351 12:41 03.01.2020
1466 Clouds 10 1021 46 10000 8.91 351 12:22 03.01.2020
1467 Clouds 10 1022 46 10000 8.91 351 11:54 03.01.2020
1468 Clouds 10 1022 44 10000 8.91 351 11:35 03.01.2020
1469 Clouds 9 1022 57 10000 10.27 353 10:58 03.01.2020
1470 Clouds 9 1023 49 10000 10.27 353 10:40 03.01.2020
1471 Clouds 9 1023 49 10000 10.27 353 10:22 03.01.2020
1472 Clouds 9 1023 49 10000 10.27 353 09:56 03.01.2020
1473 Clouds 8 1023 49 10000 10.27 353 09:38 03.01.2020
1474 Clouds 8 1023 52 10000 10.27 353 09:20 03.01.2020
1475 Clouds 8 1023 52 10000 10.27 353 08:45 03.01.2020
1476 Clouds 7 1023 52 10000 10.03 351 08:23 03.01.2020
1477 Clouds 7 1023 56 10000 7.93 345 07:57 03.01.2020
1478 Clouds 7 1023 56 10000 7.93 345 07:38 03.01.2020
1479 Clouds 7 1023 64 10000 5.1 330 07:18 03.01.2020
1480 Clouds 6 1023 64 10000 7.93 345 06:42 03.01.2020
1481 Clouds 6 1023 64 10000 7.93 345 06:23 03.01.2020
1482 Clouds 7 1022 56 10000 10.13 3 05:20 03.01.2020
1483 Clouds 7 1023 62 10000 10.13 3 03:45 03.01.2020
1484 Clouds 7 1023 62 10000 10.13 3 02:55 03.01.2020
1485 Clouds 7 1023 67 10000 11.93 7 01:54 03.01.2020
1486 Clouds 7 1023 67 10000 11.93 7 01:36 03.01.2020
1487 Clouds 7 1023 66 10000 12.29 7 01:36 03.01.2020
1488 Clouds 7 1023 52 10000 12.29 7 00:46 03.01.2020
1489 Clouds 7 1023 52 10000 12.29 7 00:26 03.01.2020
1490 Clouds 7 1023 52 10000 12.29 7 23:54 02.01.2020
1491 Clouds 7 1023 52 10000 12.29 7 23:36 02.01.2020
1492 Clouds 7 1023 52 10000 10.81 8 23:18 02.01.2020
1493 Clouds 7 1024 52 10000 10.81 8 22:42 02.01.2020
1494 Clouds 7 1024 52 10000 10.81 8 22:20 02.01.2020
1495 Clouds 7 1024 49 10000 10.81 8 21:57 02.01.2020
1496 Clouds 7 1024 49 10000 10.81 8 21:38 02.01.2020
1497 Clouds 7 1024 52 10000 10.81 8 21:20 02.01.2020
1498 Clouds 7 1024 52 10000 10.81 8 20:56 02.01.2020
1499 Clouds 7 1024 49 10000 10.81 8 20:38 02.01.2020
1500 Clouds 7 1024 49 10000 11.66 8 20:20 02.01.2020
1501 Clouds 7 1024 49 10000 11.66 8 19:55 02.01.2020
1502 Clouds 7 1024 49 10000 11.66 8 19:36 02.01.2020
1503 Clouds 7 1024 45 10000 11.66 8 19:18 02.01.2020
1504 Clouds 7 1024 45 10000 11.66 8 18:54 02.01.2020
1505 Clouds 7 1024 45 10000 11.66 8 18:36 02.01.2020
1506 Clouds 7 1024 45 10000 11.66 8 18:18 02.01.2020
1507 Clouds 7 1024 45 10000 11.66 8 17:55 02.01.2020
1508 Clouds 7 1024 45 10000 11.66 8 17:36 02.01.2020
1509 Clouds 7 1023 49 10000 12.63 9 17:18 02.01.2020
1510 Clouds 7 1023 52 10000 12.63 9 16:41 02.01.2020
1511 Clouds 7 1023 52 10000 12.63 9 16:21 02.01.2020
1512 Clouds 7 1023 49 10000 12.63 9 15:58 02.01.2020
1513 Clouds 7 1023 49 10000 12.63 9 15:40 02.01.2020
1514 Clouds 7 1023 49 10000 12.63 9 15:40 02.01.2020
1515 Clouds 7 1024 60 10000 12.63 9 15:22 02.01.2020
1516 Clouds 7 1024 60 10000 12.63 9 14:57 02.01.2020
1517 Clouds 6 1024 70 9000 12.63 9 14:37 02.01.2020
1518 Clouds 6 1024 75 8000 13.74 13 14:18 02.01.2020
1519 Rain 6 1024 70 6000 8.7 10 13:51 02.01.2020
1520 Rain 6 1024 70 6000 8.7 10 13:32 02.01.2020
1521 Rain 6 1024 75 6000 5.1 350 12:58 02.01.2020
1522 Rain 7 1025 80 6000 7.7 320 12:39 02.01.2020
1523 Rain 7 1025 81 8000 7.2 350 12:20 02.01.2020
1524 Rain 7 1025 81 8000 7.2 350 11:41 02.01.2020
1525 Rain 7 1025 75 8000 7.2 330 11:20 02.01.2020
1526 Rain 7 1025 70 8000 6.7 350 10:45 02.01.2020
1527 Rain 6 1025 70 8000 6.7 350 10:27 02.01.2020
1528 Rain 5 1025 55 6000 8.7 10 09:56 02.01.2020
1529 Rain 5 1025 49 10000 5.1 10 09:35 02.01.2020
1530 Clouds 5 1024 61 10000 4.6 340 08:53 02.01.2020
1531 Rain 5 1024 65 10000 4.1 350 08:32 02.01.2020
1532 Rain 4 1024 70 8000 5.1 360 07:57 02.01.2020
1533 Rain 4 1024 75 8000 5.7 20 07:31 02.01.2020
1534 Rain 4 1025 80 8000 5.1 10 06:57 02.01.2020
1535 Rain 4 1025 80 8000 5.1 10 06:57 02.01.2020
1536 Rain 4 1024 75 10000 5.1 20 06:39 02.01.2020
1537 Rain 4 1024 75 10000 5.1 360 05:38 02.01.2020
1538 Rain 5 1024 80 10000 1.5 0 04:34 02.01.2020
1539 Rain 6 1024 75 10000 2.1 20 03:23 02.01.2020
1540 Clouds 7 1024 75 10000 2.6 330 02:21 02.01.2020
1541 Rain 7 1024 70 10000 3.6 280 01:49 02.01.2020
1542 Rain 7 1024 70 10000 3.6 280 01:25 02.01.2020
1543 Clouds 7 1024 65 10000 3.6 350 00:38 02.01.2020
1544 Clouds 8 1024 67 10000 2.6 340 00:20 02.01.2020
1545 Clouds 8 1024 67 10000 1.5 0 23:42 01.01.2020
1546 Clouds 8 1024 61 10000 2.1 350 23:21 01.01.2020
1547 Clouds 8 1024 61 10000 2.1 350 23:21 01.01.2020
1548 Clouds 8 1024 65 10000 2.6 340 22:39 01.01.2020
1549 Clouds 8 1024 65 10000 2.6 340 22:39 01.01.2020
1550 Clouds 8 1024 65 10000 2.6 340 22:20 01.01.2020
1551 Clouds 8 1024 65 10000 2.6 340 22:20 01.01.2020
1552 Clouds 8 1024 70 10000 3.1 330 21:58 01.01.2020
1553 Clouds 8 1022 61 10000 3.6 330 21:39 01.01.2020
1554 Clouds 8 1022 61 10000 3.6 330 21:20 01.01.2020
1555 Clouds 8 1023 65 10000 3.1 330 20:57 01.01.2020
1556 Drizzle 8 1024 61 10000 2.6 360 20:38 01.01.2020
1557 Clouds 8 1023 61 10000 3.1 360 20:20 01.01.2020
1558 Clouds 8 1023 61 10000 3.1 360 19:56 01.01.2020
1559 Clouds 8 1023 70 10000 3.1 360 19:37 01.01.2020
1560 Clouds 8 1023 70 10000 3.1 360 19:19 01.01.2020
1561 Clouds 8 1023 70 10000 3.1 360 18:56 01.01.2020
1562 Clouds 8 1023 70 10000 3.1 350 18:37 01.01.2020
1563 Clouds 8 1023 75 10000 4.6 360 18:19 01.01.2020
1564 Clouds 8 1023 75 10000 4.6 360 17:57 01.01.2020
1565 Drizzle 8 1022 75 10000 1.5 0 17:39 01.01.2020
1566 Clouds 8 1022 70 10000 4.6 350 17:19 01.01.2020
1567 Clouds 8 1022 70 10000 4.6 350 16:56 01.01.2020
1568 Clouds 8 1022 70 10000 4.6 350 16:56 01.01.2020
1569 Clouds 8 1022 76 10000 2.1 320 16:37 01.01.2020
1570 Clouds 8 1021 76 10000 1.5 0 16:19 01.01.2020
1571 Rain 8 1021 76 10000 1.5 0 15:54 01.01.2020
1572 Rain 8 1021 70 10000 1.5 0 15:36 01.01.2020
1573 Rain 8 1021 66 10000 3.6 360 15:18 01.01.2020
1574 Clouds 8 1021 57 10000 4.6 17 14:41 01.01.2020
1575 Clouds 8 1021 57 10000 10.44 11 14:23 01.01.2020
1576 Clouds 9 1020 57 10000 4.1 350 13:57 01.01.2020
1577 Clouds 9 1020 57 10000 5.1 340 13:38 01.01.2020
1578 Clouds 10 1020 53 10000 5.1 340 13:19 01.01.2020
1579 Clouds 10 1020 53 10000 5.1 340 12:57 01.01.2020
1580 Clouds 10 1020 53 10000 6.2 330 12:39 01.01.2020
1581 Clouds 10 1020 53 10000 6.7 340 12:19 01.01.2020
1582 Clouds 11 1020 53 10000 6.7 340 11:56 01.01.2020
1583 Clouds 10 1020 53 10000 6.2 350 11:37 01.01.2020
1584 Clouds 10 1021 50 10000 5.1 340 11:18 01.01.2020
1585 Clouds 10 1021 50 10000 5.1 340 10:54 01.01.2020
1586 Clouds 10 1021 43 10000 4.1 350 10:36 01.01.2020
1587 Clouds 10 1021 43 10000 2.1 280 10:18 01.01.2020
1588 Clouds 9 1021 43 10000 3.6 340 09:38 01.01.2020
1589 Clouds 9 1021 43 10000 1.5 0 09:19 01.01.2020
1590 Clouds 8 1021 43 10000 1.5 0 08:56 01.01.2020
1591 Clouds 7 1021 39 10000 3.66 3 08:37 01.01.2020
1592 Clouds 7 1021 39 10000 3.66 3 08:37 01.01.2020
1593 Clouds 7 1021 48 10000 2.36 351 08:19 01.01.2020
1594 Clouds 6 1021 48 10000 2.36 351 07:55 01.01.2020
1595 Clouds 5 1021 80 10000 2.36 351 07:37 01.01.2020
1596 Clouds 3 1020 35 10000 2.36 351 06:45 01.01.2020
1597 Clouds 3 1020 35 10000 2.36 351 06:22 01.01.2020
1598 Clouds 3 1020 69 10000 2.36 351 05:23 01.01.2020
1599 Clouds 3 1021 74 10000 2.52 345 03:47 01.01.2020
1600 Clouds 3 1021 74 10000 2.52 345 03:24 01.01.2020
1601 Clouds 3 1021 74 10000 2.52 345 02:57 01.01.2020
1602 Clouds 3 1021 48 10000 2.52 345 02:37 01.01.2020
1603 Rain 3 1021 41 10000 2.36 347 01:59 01.01.2020
1604 Rain 3 1022 55 10000 2.36 347 01:38 01.01.2020
1605 Rain 3 1022 55 10000 2.36 347 01:20 01.01.2020
1606 Clouds 3 1022 64 10000 1.5 340 00:44 01.01.2020
1607 Clouds 3 1022 64 10000 1.5 340 00:25 01.01.2020
1608 Clouds 4 1022 64 10000 2.43 344 23:41 31.12.2019
1609 Clouds 4 1022 64 10000 2.38 348 23:22 31.12.2019
1610 Clouds 4 1023 69 10000 2.38 348 22:58 31.12.2019
1611 Clouds 4 1023 65 10000 3.1 360 22:39 31.12.2019
1612 Clouds 4 1023 65 10000 2.38 348 22:20 31.12.2019
1613 Clouds 5 1023 65 10000 2.38 348 21:59 31.12.2019
1614 Clouds 5 1023 60 10000 2.1 0 21:40 31.12.2019
1615 Clouds 5 1024 56 10000 1.5 0 21:22 31.12.2019
1616 Clouds 5 1024 56 10000 1.5 0 20:57 31.12.2019
1617 Clouds 5 1024 49 10000 2.38 348 20:37 31.12.2019
1618 Clouds 5 1024 49 10000 1.5 330 20:19 31.12.2019
1619 Clouds 6 1024 49 10000 1.5 330 19:55 31.12.2019
1620 Clouds 6 1024 49 10000 2.1 330 19:36 31.12.2019
1621 Clouds 6 1024 45 10000 3.06 344 19:18 31.12.2019
1622 Clouds 6 1024 45 10000 3.06 344 18:54 31.12.2019
1623 Clouds 6 1024 52 10000 2.1 330 18:36 31.12.2019
1624 Clouds 7 1024 45 10000 3.06 344 18:18 31.12.2019
1625 Clouds 7 1024 45 10000 3.06 344 18:18 31.12.2019
1626 Clouds 7 1024 45 10000 3.06 344 17:54 31.12.2019
1627 Clouds 7 1024 52 10000 2.6 340 17:36 31.12.2019
1628 Clouds 7 1024 49 10000 2.6 320 17:18 31.12.2019
1629 Clouds 7 1024 49 10000 2.6 320 16:55 31.12.2019
1630 Clouds 7 1024 49 10000 2.6 320 16:36 31.12.2019
1631 Clouds 7 1024 49 10000 3.1 320 16:18 31.12.2019
1632 Clouds 8 1024 49 10000 3.1 320 15:55 31.12.2019
1633 Clouds 8 1024 49 10000 3.6 320 15:37 31.12.2019
1634 Clouds 8 1024 49 10000 4.6 340 15:18 31.12.2019
1635 Clouds 8 1024 49 10000 4.6 340 14:55 31.12.2019
1636 Clouds 8 1024 49 10000 3.1 330 14:36 31.12.2019
1637 Clouds 8 1024 49 10000 4.6 340 14:18 31.12.2019
1638 Clouds 8 1024 49 10000 4.6 340 13:54 31.12.2019
1639 Clouds 7 1024 49 10000 6.2 340 13:36 31.12.2019
1640 Clouds 7 1024 49 10000 4.6 340 13:18 31.12.2019
1641 Clouds 7 1024 52 10000 5.7 340 12:40 31.12.2019
1642 Clouds 7 1024 52 10000 5.7 340 12:40 31.12.2019
1643 Clouds 7 1024 52 10000 5.7 340 12:20 31.12.2019
1644 Clouds 7 1024 52 10000 5.1 340 12:20 31.12.2019
1645 Clouds 7 1024 52 10000 5.1 340 11:57 31.12.2019
1646 Clouds 7 1025 52 10000 5.1 340 11:39 31.12.2019
1647 Clouds 7 1025 61 10000 3.1 350 11:20 31.12.2019
1648 Clouds 7 1025 61 10000 3.1 350 10:58 31.12.2019
1649 Clouds 6 1025 65 10000 3.6 350 10:38 31.12.2019
1650 Clouds 6 1025 65 10000 3.6 350 10:20 31.12.2019
1651 Clouds 6 1025 65 10000 2.6 350 09:59 31.12.2019
1652 Clouds 6 1025 70 10000 4.1 350 09:40 31.12.2019
1653 Drizzle 5 1025 70 8000 3.6 350 09:21 31.12.2019
1654 Drizzle 5 1025 70 8000 3.6 350 08:58 31.12.2019
1655 Drizzle 5 1025 70 8000 4.1 350 08:39 31.12.2019
1656 Clouds 5 1025 80 8000 4.1 340 08:20 31.12.2019
1657 Clouds 4 1025 75 10000 6.2 350 07:43 31.12.2019
1658 Clouds 4 1025 75 10000 6.2 350 07:22 31.12.2019
1659 Rain 4 1024 75 10000 6.7 350 06:50 31.12.2019
1660 Rain 4 1025 86 7000 6.2 360 05:59 31.12.2019
1661 Rain 4 1024 86 6000 7.7 360 04:30 31.12.2019
1662 Rain 4 1024 86 6000 7.7 350 03:59 31.12.2019
1663 Rain 4 1024 93 6000 8.7 340 02:56 31.12.2019
1664 Rain 4 1024 86 6000 8.7 350 02:19 31.12.2019
1665 Rain 4 1023 93 6000 4.1 340 01:48 31.12.2019
1666 Rain 4 1023 93 6000 4.1 340 01:48 31.12.2019
1667 Rain 4 1023 93 6000 4.1 340 01:28 31.12.2019
1668 Rain 5 1023 86 6000 2.6 320 00:47 31.12.2019
1669 Rain 5 1023 86 6000 2.6 320 00:23 31.12.2019
1670 Rain 5 1023 86 6000 2.6 320 00:23 31.12.2019
1671 Rain 5 1023 86 6000 2.1 300 23:58 30.12.2019
1672 Rain 5 1023 93 6000 3.1 320 23:38 30.12.2019
1673 Rain 5 1023 93 6000 3.1 320 23:20 30.12.2019
1674 Rain 5 1023 93 6000 4.1 310 22:58 30.12.2019
1675 Rain 5 1023 86 6000 5.1 330 22:40 30.12.2019
1676 Rain 5 1023 86 6000 7.7 310 22:20 30.12.2019
1677 Rain 5 1023 86 6000 5.1 330 22:20 30.12.2019
1678 Rain 5 1022 93 6000 3.6 310 21:57 30.12.2019
1679 Rain 5 1022 93 6000 3.6 310 21:39 30.12.2019
1680 Rain 5 1022 93 6000 3.6 310 21:39 30.12.2019
1681 Rain 4 1022 86 6000 5.1 320 21:19 30.12.2019
1682 Rain 4 1022 86 6000 5.1 320 20:58 30.12.2019
1683 Rain 4 1022 93 6000 5.1 340 20:40 30.12.2019
1684 Rain 4 1022 93 6000 5.1 340 20:20 30.12.2019
1685 Rain 4 1022 93 6000 5.7 350 19:58 30.12.2019
1686 Rain 4 1022 86 6000 3.6 350 19:38 30.12.2019
1687 Rain 4 1021 93 6000 4.6 330 19:19 30.12.2019
1688 Rain 4 1021 93 6000 4.6 330 18:58 30.12.2019
1689 Rain 4 1021 93 6000 6.2 310 18:40 30.12.2019
1690 Rain 4 1020 93 6000 7.7 310 18:20 30.12.2019
1691 Rain 3 1020 93 6000 7.7 310 17:56 30.12.2019
1692 Rain 3 1020 93 6000 5.1 310 17:56 30.12.2019
1693 Rain 3 1020 93 6000 5.1 310 17:38 30.12.2019
1694 Rain 3 1020 93 5000 6.2 310 17:19 30.12.2019
1695 Rain 3 1020 93 5000 6.2 310 16:58 30.12.2019
1696 Rain 3 1020 100 5000 2.6 320 16:37 30.12.2019
1697 Rain 3 1020 93 3500 3.1 170 16:19 30.12.2019
1698 Rain 3 1020 93 3500 3.1 170 15:56 30.12.2019
1699 Rain 3 1019 100 3500 2.6 310 15:37 30.12.2019
1700 Rain 3 1019 93 3000 6.7 320 15:18 30.12.2019
1701 Rain 3 1019 93 3000 7.7 320 14:43 30.12.2019
1702 Rain 3 1018 93 2000 7.2 320 14:20 30.12.2019
1703 Rain 3 1018 93 1500 7.7 320 13:58 30.12.2019
1704 Rain 3 1018 93 1500 7.7 320 13:40 30.12.2019
1705 Rain 3 1018 93 1500 8.2 320 13:21 30.12.2019
1706 Rain 3 1018 93 1500 8.2 320 13:21 30.12.2019
1707 Rain 3 1018 93 1500 8.2 320 12:56 30.12.2019
1708 Rain 3 1018 93 1500 7.7 320 12:37 30.12.2019
1709 Rain 3 1018 93 3000 6.7 310 12:18 30.12.2019
1710 Rain 3 1018 93 3000 6.7 310 11:45 30.12.2019
1711 Rain 3 1018 93 3000 6.7 350 11:20 30.12.2019
1712 Rain 3 1018 93 3000 6.7 350 10:58 30.12.2019
1713 Rain 4 1018 93 3000 7.2 350 10:40 30.12.2019
1714 Rain 4 1020 100 4000 6.2 330 10:19 30.12.2019
1715 Rain 4 1018 93 4000 6.7 350 09:42 30.12.2019
1716 Rain 4 1018 93 4000 6.7 350 09:20 30.12.2019
1717 Rain 4 1018 93 4000 6.7 350 08:56 30.12.2019
1718 Rain 4 1018 93 4000 6.2 350 08:37 30.12.2019
1719 Rain 5 1017 93 4000 6.2 340 08:18 30.12.2019
1720 Rain 4 1017 100 5000 5.1 340 07:42 30.12.2019
1721 Rain 4 1017 100 4000 4.1 340 06:59 30.12.2019
1722 Rain 4 1017 93 6000 4.1 340 06:24 30.12.2019
1723 Rain 5 1017 93 5000 2.6 350 04:23 30.12.2019
1724 Thunderstorm 5 1017 93 5000 4.6 350 03:42 30.12.2019
1725 Rain 6 1017 80 10000 3.1 320 02:41 30.12.2019
1726 Rain 6 1017 80 10000 4.1 340 02:20 30.12.2019
1727 Clouds 6 1016 80 10000 3.6 320 01:26 30.12.2019
1728 Rain 6 1016 80 10000 5.1 330 00:47 30.12.2019
1729 Rain 5 1016 80 10000 5.1 330 00:26 30.12.2019
1730 Rain 6 1017 80 10000 5.1 330 23:40 29.12.2019
1731 Clouds 6 1017 80 10000 5.7 340 23:22 29.12.2019
1732 Clouds 6 1017 80 10000 5.7 340 22:57 29.12.2019
1733 Clouds 6 1017 80 10000 5.7 340 22:38 29.12.2019
1734 Clouds 6 1017 80 10000 5.7 340 22:38 29.12.2019
1735 Clouds 6 1017 80 10000 5.1 330 22:20 29.12.2019
1736 Clouds 5 1017 80 10000 5.1 330 21:54 29.12.2019
1737 Clouds 5 1017 80 10000 5.7 340 21:36 29.12.2019
1738 Clouds 5 1017 80 10000 5.1 350 21:18 29.12.2019
1739 Clouds 5 1017 80 10000 5.1 350 20:55 29.12.2019
1740 Rain 5 1017 80 8000 12.3 10 20:36 29.12.2019
1741 Rain 5 1017 86 8000 5.7 350 20:18 29.12.2019
1742 Rain 5 1018 86 8000 5.7 350 19:40 29.12.2019
1743 Rain 5 1018 86 8000 5.7 350 19:22 29.12.2019
1744 Rain 5 1018 86 8000 5.7 350 18:59 29.12.2019
1745 Rain 5 1018 93 8000 5.7 350 18:40 29.12.2019
1746 Rain 5 1018 93 8000 5.7 350 18:21 29.12.2019
1747 Rain 5 1017 80 8000 6.2 360 17:58 29.12.2019
1748 Rain 6 1017 86 8000 5.1 360 17:39 29.12.2019
1749 Rain 6 1017 86 8000 5.1 360 17:20 29.12.2019
1750 Rain 6 1017 75 10000 6.2 340 16:58 29.12.2019
1751 Rain 5 1017 86 10000 5.1 340 16:40 29.12.2019
1752 Rain 5 1017 86 10000 5.1 340 16:40 29.12.2019
1753 Rain 5 1017 86 10000 5.1 340 16:21 29.12.2019
1754 Rain 5 1017 86 10000 5.1 340 16:21 29.12.2019
1755 Rain 5 1017 86 10000 5.1 340 15:59 29.12.2019
1756 Rain 5 1017 86 10000 4.6 350 15:40 29.12.2019
1757 Rain 5 1017 86 10000 4.6 350 15:20 29.12.2019
1758 Rain 6 1017 86 6000 5.1 360 15:00 29.12.2019
1759 Rain 6 1017 86 8000 4.1 350 14:41 29.12.2019
1760 Rain 6 1017 86 8000 7.2 350 14:19 29.12.2019
1761 Rain 6 1017 86 8000 7.2 350 13:59 29.12.2019
1762 Rain 6 1017 86 8000 5.1 340 13:40 29.12.2019
1763 Rain 6 1017 86 10000 6.2 340 13:22 29.12.2019
1764 Rain 6 1017 86 8000 5.1 340 13:22 29.12.2019
1765 Rain 6 1017 86 10000 6.2 340 12:58 29.12.2019
1766 Rain 6 1017 93 9000 5.7 340 12:39 29.12.2019
1767 Rain 6 1017 93 9000 5.7 340 12:21 29.12.2019
1768 Rain 6 1017 65 10000 9.8 360 11:43 29.12.2019
1769 Clouds 6 1017 65 10000 9.8 360 11:22 29.12.2019
1770 Rain 6 1017 61 10000 11.8 30 10:57 29.12.2019
1771 Rain 6 1018 93 7000 5.1 330 10:39 29.12.2019
1772 Rain 6 1018 93 7000 6.7 330 10:18 29.12.2019
1773 Rain 6 1018 86 7000 5.1 340 09:46 29.12.2019
1774 Rain 6 1018 86 7000 5.1 340 09:28 29.12.2019
1775 Rain 6 1018 86 8000 5.1 340 08:59 29.12.2019
1776 Rain 6 1018 86 8000 6.2 350 08:40 29.12.2019
1777 Rain 5 1017 86 8000 4.6 330 08:21 29.12.2019
1778 Rain 5 1017 86 10000 4.6 350 07:45 29.12.2019
1779 Rain 5 1017 86 10000 4.6 350 07:26 29.12.2019
1780 Rain 4 1016 86 10000 4.6 340 06:42 29.12.2019
1781 Rain 4 1016 93 10000 5.1 350 06:19 29.12.2019
1782 Rain 5 1016 93 10000 4.1 340 05:44 29.12.2019
1783 Rain 4 1016 86 10000 3.1 320 04:33 29.12.2019
1784 Rain 4 1016 86 10000 3.1 350 03:36 29.12.2019
1785 Rain 4 1016 86 10000 1.5 330 02:30 29.12.2019
1786 Rain 4 1016 86 10000 1.5 330 02:30 29.12.2019
1787 Rain 4 1016 86 10000 3.6 350 01:52 29.12.2019
1788 Rain 4 1016 86 10000 3.6 350 01:29 29.12.2019
1789 Rain 4 1016 86 10000 4.6 350 00:47 29.12.2019
1790 Rain 4 1016 86 10000 4.6 350 00:25 29.12.2019
1791 Rain 4 1016 86 10000 5.1 350 23:56 28.12.2019
1792 Rain 4 1016 86 10000 4.6 360 23:37 28.12.2019
1793 Rain 4 1016 80 10000 5.7 360 23:18 28.12.2019
1794 Rain 4 1016 80 10000 5.7 360 23:18 28.12.2019
1795 Rain 4 1016 80 10000 5.7 360 23:18 28.12.2019
1796 Rain 5 1016 86 10000 4.6 360 22:38 28.12.2019
1797 Rain 5 1016 86 10000 4.1 360 22:19 28.12.2019
1798 Rain 5 1016 86 10000 4.1 360 21:56 28.12.2019
1799 Clouds 5 1016 75 10000 4.6 360 21:37 28.12.2019
1800 Clouds 5 1016 75 10000 6.2 360 21:19 28.12.2019
1801 Clouds 6 1016 75 10000 6.2 360 20:54 28.12.2019
1802 Clouds 6 1016 75 10000 6.2 360 20:54 28.12.2019
1803 Clouds 6 1015 75 10000 4.6 350 20:36 28.12.2019
1804 Clouds 5 1015 80 10000 5.1 360 20:18 28.12.2019
1805 Clouds 6 1015 75 10000 3.1 360 19:43 28.12.2019
1806 Clouds 6 1015 75 10000 3.1 360 19:24 28.12.2019
1807 Clouds 5 1015 77 10000 2.6 310 18:59 28.12.2019
1808 Clouds 6 1015 75 10000 5.7 350 18:41 28.12.2019
1809 Clouds 6 1015 75 10000 5.7 350 18:20 28.12.2019
1810 Clouds 6 1014 65 10000 5.7 340 17:59 28.12.2019
1811 Clouds 6 1014 65 10000 5.1 350 17:39 28.12.2019
1812 Clouds 6 1014 65 10000 5.1 350 17:21 28.12.2019
1813 Clouds 6 1014 65 10000 5.1 340 16:51 28.12.2019
1814 Clouds 6 1014 65 10000 5.1 340 16:27 28.12.2019
1815 Clouds 7 1014 65 10000 6.2 350 15:58 28.12.2019
1816 Clouds 7 1014 61 10000 6.2 350 15:39 28.12.2019
1817 Clouds 7 1014 61 10000 6.2 350 15:21 28.12.2019
1818 Clouds 7 1014 57 10000 6.2 350 15:21 28.12.2019
1819 Clouds 7 1014 57 10000 6.2 350 15:21 28.12.2019
1820 Clouds 8 1014 53 10000 5.7 360 14:47 28.12.2019
1821 Clouds 8 1014 53 10000 5.7 360 14:26 28.12.2019
1822 Clouds 9 1014 46 10000 6.2 350 13:58 28.12.2019
1823 Clouds 9 1014 40 10000 5.7 320 13:39 28.12.2019
1824 Clouds 9 1014 40 10000 5.7 320 13:20 28.12.2019
1825 Clouds 9 1014 40 10000 5.7 320 13:20 28.12.2019
1826 Clouds 9 1014 43 10000 6.2 340 12:56 28.12.2019
1827 Clouds 10 1014 40 10000 5.1 330 12:37 28.12.2019
1828 Clouds 10 1014 39 10000 7.2 330 12:19 28.12.2019
1829 Clouds 9 1014 43 10000 7.7 340 11:40 28.12.2019
1830 Clouds 9 1014 43 10000 7.7 340 11:21 28.12.2019
1831 Clouds 9 1015 46 10000 6.7 330 10:55 28.12.2019
1832 Clouds 9 1015 49 10000 6.7 340 10:36 28.12.2019
1833 Clouds 9 1015 49 10000 5.7 330 10:18 28.12.2019
1834 Clouds 9 1015 49 10000 4.1 330 09:45 28.12.2019
1835 Clouds 9 1015 49 10000 4.1 330 09:23 28.12.2019
1836 Clouds 8 1015 49 10000 5.1 330 08:58 28.12.2019
1837 Clouds 8 1015 52 10000 4.1 320 08:39 28.12.2019
1838 Clouds 8 1015 52 10000 5.1 330 08:20 28.12.2019
1839 Clouds 8 1015 52 10000 3.6 330 07:43 28.12.2019
1840 Clouds 8 1015 52 10000 3.6 320 06:59 28.12.2019
1841 Clouds 8 1015 60 10000 2.6 330 05:43 28.12.2019
1842 Clouds 8 1016 57 10000 3.6 330 03:48 28.12.2019
1843 Clouds 8 1016 61 10000 2.1 320 02:50 28.12.2019
1844 Clouds 8 1016 61 10000 2.1 320 02:20 28.12.2019
1845 Clouds 8 1017 65 10000 2.6 320 01:53 28.12.2019
1846 Clouds 8 1017 65 10000 3.1 350 01:22 28.12.2019
1847 Clouds 8 1016 57 10000 2.6 330 00:44 28.12.2019
1848 Clouds 8 1016 57 10000 2.6 330 00:26 28.12.2019
1849 Clouds 8 1016 65 10000 2.6 320 23:57 27.12.2019
1850 Clouds 8 1016 66 10000 2.6 340 23:37 27.12.2019
1851 Clouds 8 1016 61 10000 2.1 310 23:18 27.12.2019
1852 Clouds 8 1016 61 10000 1.5 0 22:55 27.12.2019
1853 Clouds 8 1016 61 10000 1.5 0 22:37 27.12.2019
1854 Clouds 8 1017 70 10000 1 0 22:19 27.12.2019
1855 Clouds 9 1018 61 10000 3.1 20 21:41 27.12.2019
1856 Clouds 9 1018 61 10000 3.1 20 21:23 27.12.2019
1857 Clouds 9 1017 53 10000 2.6 340 20:44 27.12.2019
1858 Clouds 9 1017 53 10000 2.6 340 20:26 27.12.2019
1859 Clouds 9 1016 53 10000 2.1 340 19:58 27.12.2019
1860 Clouds 9 1017 57 10000 1.5 0 19:40 27.12.2019
1861 Clouds 9 1016 57 10000 1.5 0 19:19 27.12.2019
1862 Clouds 9 1016 57 10000 1.5 0 18:55 27.12.2019
1863 Clouds 9 1016 57 10000 2.38 19 18:36 27.12.2019
1864 Clouds 9 1016 57 10000 1.5 330 18:18 27.12.2019
1865 Clouds 9 1016 57 10000 1.5 330 17:55 27.12.2019
1866 Clouds 9 1016 57 10000 2.38 19 17:36 27.12.2019
1867 Clouds 9 1016 57 10000 3.58 26 17:18 27.12.2019
1868 Clouds 9 1016 57 10000 1.5 0 16:41 27.12.2019
1869 Clouds 10 1016 53 10000 1.5 0 16:22 27.12.2019
1870 Clouds 10 1016 53 10000 1.5 0 15:57 27.12.2019
1871 Clouds 10 1016 50 10000 2.6 360 15:37 27.12.2019
1872 Clouds 11 1016 43 10000 3.58 26 15:19 27.12.2019
1873 Clouds 11 1016 43 10000 3.58 26 14:56 27.12.2019
1874 Clouds 11 1016 43 10000 1.5 0 14:37 27.12.2019
1875 Clouds 11 1016 43 10000 1.5 0 14:19 27.12.2019
1876 Clouds 11 1017 43 10000 2.1 0 14:19 27.12.2019
1877 Clouds 12 1017 46 10000 1.5 0 13:46 27.12.2019
1878 Clouds 12 1017 46 10000 1.5 0 13:23 27.12.2019
1879 Clouds 12 1017 46 10000 2.6 350 12:49 27.12.2019
1880 Clouds 11 1017 46 10000 2.6 350 12:29 27.12.2019
1881 Clouds 11 1017 50 10000 3.1 340 11:59 27.12.2019
1882 Clouds 11 1017 50 10000 1.5 0 11:41 27.12.2019
1883 Clouds 11 1018 53 10000 2.1 340 11:20 27.12.2019
1884 Clouds 11 1019 53 10000 3.1 330 10:47 27.12.2019
1885 Clouds 11 1019 50 10000 3.1 330 10:24 27.12.2019
1886 Clouds 10 1018 53 10000 2.6 340 09:58 27.12.2019
1887 Clouds 10 1018 53 10000 2.6 340 09:39 27.12.2019
1888 Clouds 10 1018 53 10000 2.6 340 09:21 27.12.2019
1889 Clouds 10 1019 50 10000 3.1 330 08:49 27.12.2019
1890 Clouds 10 1018 53 10000 2.35 9 08:30 27.12.2019
1891 Clouds 8 1018 61 10000 1.5 0 07:48 27.12.2019
1892 Clouds 8 1018 61 10000 1.5 0 07:26 27.12.2019
1893 Clouds 7 1018 75 10000 3.66 355 06:33 27.12.2019
1894 Clouds 7 1017 61 10000 3.1 350 04:51 27.12.2019
1895 Clouds 8 1018 65 10000 3.6 350 02:49 27.12.2019
1896 Clouds 8 1017 75 10000 6.05 2 01:56 27.12.2019
1897 Clouds 7 1017 61 10000 5.36 359 01:23 27.12.2019
1898 Clouds 7 1017 61 10000 5.36 359 00:53 27.12.2019
1899 Clouds 7 1017 57 10000 5.36 359 00:34 27.12.2019
1900 Clouds 7 1017 57 10000 5.36 359 23:59 26.12.2019
1901 Clouds 8 1017 70 10000 5.36 359 23:40 26.12.2019
1902 Clouds 8 1017 70 10000 2.1 210 23:21 26.12.2019
1903 Clouds 8 1017 66 10000 7.85 358 22:43 26.12.2019
1904 Clouds 9 1016 61 10000 7.85 358 22:21 26.12.2019
1905 Clouds 9 1016 61 10000 7.85 358 21:58 26.12.2019
1906 Clouds 9 1016 61 10000 7.85 358 21:38 26.12.2019
1907 Clouds 9 1016 61 10000 7.85 358 21:20 26.12.2019
1908 Clouds 9 1016 61 10000 7.85 358 20:45 26.12.2019
1909 Clouds 9 1016 61 10000 7.85 358 20:45 26.12.2019
1910 Clouds 9 1016 61 10000 7.9 2 20:23 26.12.2019
1911 Clouds 10 1015 66 10000 7.9 2 19:58 26.12.2019
1912 Clouds 10 1015 57 10000 3.1 300 19:39 26.12.2019
1913 Clouds 10 1015 53 10000 4.1 320 19:20 26.12.2019
1914 Clouds 10 1015 53 10000 4.1 320 18:57 26.12.2019
1915 Rain 9 1015 53 10000 3.1 310 18:38 26.12.2019
1916 Rain 9 1015 53 10000 2.6 350 18:19 26.12.2019
1917 Clouds 10 1014 46 10000 3.6 350 17:43 26.12.2019
1918 Clouds 10 1014 46 10000 3.6 350 17:43 26.12.2019
1919 Clouds 10 1014 46 10000 3.6 350 17:22 26.12.2019
1920 Clouds 10 1014 50 10000 4.1 350 16:58 26.12.2019
1921 Clouds 11 1014 46 10000 3.1 350 16:40 26.12.2019
1922 Clouds 11 1014 46 10000 3.1 350 16:21 26.12.2019
1923 Clouds 11 1013 47 10000 3.1 350 15:41 26.12.2019
1924 Clouds 11 1013 50 10000 5.7 350 15:22 26.12.2019
1925 Clouds 11 1013 50 10000 5.7 350 14:59 26.12.2019
1926 Clouds 11 1012 50 10000 3.6 350 14:39 26.12.2019
1927 Clouds 11 1012 50 10000 3.6 350 14:20 26.12.2019
1928 Rain 10 1012 57 10000 3.1 10 13:43 26.12.2019
1929 Rain 11 1012 54 10000 6.2 10 13:21 26.12.2019
1930 Rain 11 1012 54 10000 6.2 10 12:58 26.12.2019
1931 Clouds 11 1012 47 10000 5.1 350 12:38 26.12.2019
1932 Clouds 11 1012 41 10000 5.1 330 12:19 26.12.2019
1933 Clouds 11 1012 41 10000 5.1 330 11:57 26.12.2019
1934 Clouds 12 1012 43 10000 5.1 330 11:38 26.12.2019
1935 Clouds 11 1012 50 10000 3.6 330 11:20 26.12.2019
1936 Clouds 11 1012 46 10000 4.1 320 10:42 26.12.2019
1937 Clouds 10 1013 46 10000 3.1 320 10:19 26.12.2019
1938 Clouds 10 1013 46 10000 1 0 09:50 26.12.2019
1939 Clouds 9 1013 46 10000 1 0 09:31 26.12.2019
1940 Clouds 9 1012 57 10000 5.94 350 08:43 26.12.2019
1941 Rain 8 1012 57 10000 5.67 351 08:25 26.12.2019
1942 Clouds 8 1012 70 10000 3.62 344 07:53 26.12.2019
1943 Rain 8 1012 65 10000 3.62 344 07:28 26.12.2019
1944 Rain 7 1011 86 10000 3.62 344 06:54 26.12.2019
1945 Clouds 7 1011 86 10000 3.62 344 06:32 26.12.2019
1946 Clouds 7 1010 86 10000 3.62 344 05:46 26.12.2019
1947 Clouds 7 1010 86 10000 5.09 342 04:59 26.12.2019
1948 Clouds 8 1010 81 10000 5.09 342 04:30 26.12.2019
1949 Clouds 8 1010 70 10000 2.1 340 02:58 26.12.2019
1950 Clouds 8 1011 70 10000 1.5 0 02:34 26.12.2019
1951 Rain 8 1010 75 10000 4.7 343 01:51 26.12.2019
1952 Rain 8 1010 70 10000 4.7 343 01:33 26.12.2019
1953 Rain 8 1010 66 10000 6.28 343 00:50 26.12.2019
1954 Rain 8 1010 66 10000 6.28 343 00:27 26.12.2019
1955 Rain 8 1010 66 10000 6.28 343 23:59 25.12.2019
1956 Rain 9 1010 66 10000 6.28 343 23:40 25.12.2019
1957 Clouds 9 1009 61 10000 6.01 342 23:21 25.12.2019
1958 Clouds 9 1009 61 10000 2.1 330 22:59 25.12.2019
1959 Clouds 9 1009 61 10000 2.1 330 22:39 25.12.2019
1960 Clouds 9 1009 61 10000 3.6 330 22:21 25.12.2019
1961 Clouds 9 1009 61 10000 3.6 330 21:59 25.12.2019
1962 Clouds 9 1009 61 10000 6.01 342 21:39 25.12.2019
1963 Clouds 9 1009 65 10000 6.01 342 21:20 25.12.2019
1964 Clouds 9 1009 65 10000 6.01 342 20:56 25.12.2019
1965 Clouds 9 1009 70 10000 6.01 342 20:38 25.12.2019
1966 Clouds 9 1009 65 10000 6.03 340 20:18 25.12.2019
1967 Clouds 9 1008 65 10000 6.03 340 19:43 25.12.2019
1968 Clouds 9 1008 65 10000 6.03 340 19:43 25.12.2019
1969 Clouds 9 1008 65 10000 6.03 340 19:25 25.12.2019
1970 Clouds 10 1008 50 10000 6.03 340 18:58 25.12.2019
1971 Clouds 10 1008 46 10000 6.03 340 18:37 25.12.2019
1972 Clouds 10 1008 40 10000 2.6 310 18:19 25.12.2019
1973 Clouds 10 1008 50 10000 1.5 0 17:42 25.12.2019
1974 Clouds 10 1007 40 10000 1.5 0 17:19 25.12.2019
1975 Clouds 11 1007 40 10000 1.5 0 16:58 25.12.2019
1976 Clouds 11 1007 37 10000 1.5 0 16:37 25.12.2019
1977 Clouds 11 1007 34 10000 3.1 330 16:18 25.12.2019
1978 Clouds 11 1007 34 10000 3.1 330 15:57 25.12.2019
1979 Clouds 12 1007 32 10000 5.1 330 15:39 25.12.2019
1980 Clouds 12 1007 35 10000 5.1 340 15:20 25.12.2019
1981 Clouds 12 1007 35 10000 5.1 340 14:57 25.12.2019
1982 Clouds 12 1007 32 10000 5.7 330 14:39 25.12.2019
1983 Clouds 12 1007 37 10000 6.2 330 14:20 25.12.2019
1984 Clouds 12 1007 35 10000 6.7 330 13:45 25.12.2019
1985 Clouds 12 1007 35 10000 6.7 340 13:21 25.12.2019
1986 Clouds 12 1007 35 10000 6.7 340 12:57 25.12.2019
1987 Clouds 12 1007 35 10000 5.1 320 12:38 25.12.2019
1988 Clouds 12 1007 35 10000 5.1 320 12:20 25.12.2019
1989 Clouds 12 1007 40 10000 3.6 330 11:43 25.12.2019
1990 Clouds 12 1007 40 10000 3.6 330 11:23 25.12.2019
1991 Clouds 12 1007 37 10000 4.1 330 10:59 25.12.2019
1992 Clouds 12 1008 37 10000 3.6 330 10:37 25.12.2019
1993 Clouds 11 1008 40 10000 2.6 330 10:19 25.12.2019
1994 Clouds 11 1008 40 10000 3.1 310 09:45 25.12.2019
1995 Clouds 11 1008 40 10000 3.1 310 09:27 25.12.2019
1996 Clouds 11 1008 50 10000 1.5 0 08:47 25.12.2019
1997 Clouds 11 1008 50 10000 1.5 0 08:28 25.12.2019
1998 Clouds 9 1008 46 10000 2.6 320 07:49 25.12.2019
1999 Clouds 9 1008 46 10000 2.6 320 07:31 25.12.2019
2000 Clouds 9 1008 52 10000 2.6 290 06:49 25.12.2019
2001 Clouds 9 1008 52 10000 2.6 290 06:22 25.12.2019
2002 Clouds 9 1007 46 10000 3.1 330 05:18 25.12.2019
2003 Clouds 9 1007 46 10000 2.6 350 04:38 25.12.2019
2004 Clouds 9 1007 49 10000 3.1 330 04:18 25.12.2019
2005 Clouds 9 1007 49 10000 2.6 330 03:40 25.12.2019
2006 Clouds 10 1008 53 10000 3.6 330 02:39 25.12.2019
2007 Clouds 10 1008 50 10000 2.6 340 01:59 25.12.2019
2008 Clouds 10 1008 53 10000 2.6 220 01:25 25.12.2019
2009 Clouds 10 1008 50 10000 3.6 330 00:52 25.12.2019
2010 Clouds 10 1008 50 10000 3.6 330 00:29 25.12.2019
2011 Clouds 10 1007 46 10000 1.5 0 23:56 24.12.2019
2012 Clouds 10 1008 53 10000 2.6 320 23:38 24.12.2019
2013 Clouds 10 1008 61 10000 1.5 0 23:20 24.12.2019
2014 Clouds 11 1008 57 10000 1 0 22:40 24.12.2019
2015 Clouds 11 1008 57 10000 1 0 22:21 24.12.2019
2016 Clouds 11 1008 54 10000 5.75 336 21:43 24.12.2019
2017 Clouds 11 1008 54 10000 5.75 336 21:23 24.12.2019
2018 Clouds 11 1007 54 10000 1.5 0 20:55 24.12.2019
2019 Clouds 11 1008 54 10000 1.5 0 20:36 24.12.2019
2020 Clouds 11 1007 54 10000 5.07 348 20:18 24.12.2019
2021 Clouds 11 1007 50 10000 5.07 348 19:43 24.12.2019
2022 Clouds 11 1007 50 10000 5.07 348 19:19 24.12.2019
2023 Clouds 12 1006 41 10000 4.1 330 18:43 24.12.2019
2024 Clouds 12 1006 41 10000 3.1 320 18:24 24.12.2019
2025 Clouds 12 1006 41 10000 3.1 320 17:58 24.12.2019
2026 Clouds 12 1007 50 10000 3.6 300 17:38 24.12.2019
2027 Clouds 12 1005 41 10000 2.6 320 17:20 24.12.2019
2028 Clouds 12 1005 41 10000 2.6 320 16:55 24.12.2019
2029 Clouds 12 1005 43 10000 3.1 300 16:37 24.12.2019
2030 Clouds 12 1005 43 10000 2.6 290 16:19 24.12.2019
2031 Clouds 12 1005 43 10000 2.6 290 16:19 24.12.2019
2032 Clouds 12 1006 47 10000 4.6 340 15:55 24.12.2019
2033 Clouds 12 1006 47 10000 4.6 340 15:36 24.12.2019
2034 Clouds 12 1004 47 10000 2.1 310 15:18 24.12.2019
2035 Clouds 12 1004 47 10000 2.1 310 14:55 24.12.2019
2036 Clouds 12 1004 47 10000 4.1 310 14:36 24.12.2019
2037 Clouds 13 1004 44 10000 4.1 300 14:18 24.12.2019
2038 Clouds 13 1004 44 10000 4.1 300 13:55 24.12.2019
2039 Clouds 12 1003 47 10000 4.1 300 13:37 24.12.2019
2040 Clouds 13 1003 47 10000 4.1 310 13:18 24.12.2019
2041 Clouds 12 1003 47 10000 4.1 310 12:55 24.12.2019
2042 Clouds 12 1003 47 10000 4.1 320 12:36 24.12.2019
2043 Clouds 13 1004 44 10000 6.2 300 12:18 24.12.2019
2044 Clouds 13 1004 44 10000 6.2 300 11:54 24.12.2019
2045 Clouds 13 1004 43 10000 6.2 320 11:36 24.12.2019
2046 Clouds 13 1004 43 10000 6.2 320 11:36 24.12.2019
2047 Clouds 13 1003 44 10000 3.6 330 11:18 24.12.2019
2048 Clouds 13 1003 44 10000 3.6 330 10:55 24.12.2019
2049 Clouds 13 1003 44 10000 4.1 310 10:36 24.12.2019
2050 Clouds 13 1003 44 10000 4.1 300 10:18 24.12.2019
2051 Clouds 13 1003 44 10000 4.1 300 09:54 24.12.2019
2052 Clouds 13 1003 44 10000 3.1 320 09:36 24.12.2019
2053 Clouds 13 1002 44 10000 3.1 310 09:18 24.12.2019
2054 Clouds 12 1002 50 10000 2.1 290 08:42 24.12.2019
2055 Clouds 11 1002 57 10000 2.75 334 08:20 24.12.2019
2056 Clouds 11 1001 53 10000 1 310 07:45 24.12.2019
2057 Clouds 10 1001 53 10000 1 310 07:24 24.12.2019
2058 Clouds 10 1001 53 10000 1 310 07:24 24.12.2019
2059 Clouds 9 1000 50 10000 3.6 320 06:44 24.12.2019
2060 Clouds 9 1000 50 10000 3.6 320 06:22 24.12.2019
2061 Clouds 9 999 50 10000 2.75 334 05:57 24.12.2019
2062 Clouds 10 999 57 10000 3.6 326 05:20 24.12.2019
2063 Clouds 10 999 70 10000 3.6 326 04:36 24.12.2019
2064 Clouds 10 999 70 10000 3.6 326 03:50 24.12.2019
2065 Clouds 11 998 54 10000 3.6 326 02:59 24.12.2019
2066 Clouds 11 998 54 10000 3.98 307 02:19 24.12.2019
2067 Clouds 11 998 50 10000 3.98 307 01:42 24.12.2019
2068 Clouds 12 998 50 10000 3.98 307 01:20 24.12.2019
2069 Clouds 12 997 54 10000 3.54 309 00:43 24.12.2019
2070 Clouds 12 997 62 10000 3.54 309 00:23 24.12.2019
2071 Clouds 11 997 62 10000 3.54 309 23:55 23.12.2019
2072 Clouds 11 997 76 10000 3.54 309 23:37 23.12.2019
2073 Clouds 12 997 76 10000 4.05 320 23:19 23.12.2019
2074 Clouds 12 997 76 10000 4.05 320 22:54 23.12.2019
2075 Clouds 12 997 71 10000 4.05 320 22:36 23.12.2019
2076 Clouds 12 997 66 10000 4.05 320 22:18 23.12.2019
2077 Clouds 12 997 66 10000 4.05 320 21:55 23.12.2019
2078 Clouds 12 996 62 10000 4.05 320 21:36 23.12.2019
2079 Clouds 13 996 66 10000 4.05 320 21:18 23.12.2019
2080 Clouds 13 996 66 10000 4.05 320 20:56 23.12.2019
2081 Clouds 12 996 87 10000 4.05 320 20:38 23.12.2019
2082 Clouds 12 996 81 10000 8.09 297 20:18 23.12.2019
2083 Clouds 12 996 81 10000 8.06 302 19:55 23.12.2019
2084 Clouds 12 995 81 10000 8.06 302 19:36 23.12.2019
2085 Clouds 12 995 87 10000 8.06 302 19:18 23.12.2019
2086 Clouds 12 995 87 10000 8.06 302 18:55 23.12.2019
2087 Clouds 12 994 76 10000 8.06 302 18:36 23.12.2019
2088 Clouds 12 994 71 10000 1.5 0 18:18 23.12.2019
2089 Clouds 13 994 71 10000 1.5 0 17:55 23.12.2019
2090 Clouds 13 994 81 10000 1.5 0 17:37 23.12.2019
2091 Clouds 13 994 81 10000 4.88 287 17:18 23.12.2019
2092 Clouds 13 994 81 10000 4.88 287 16:42 23.12.2019
2093 Clouds 13 994 81 10000 4.88 287 16:19 23.12.2019
2094 Clouds 14 994 67 10000 1.5 0 15:59 23.12.2019
2095 Clouds 14 994 71 10000 1.5 0 15:38 23.12.2019
2096 Clouds 14 994 71 10000 1.5 0 15:20 23.12.2019
2097 Clouds 14 994 71 10000 1.5 0 14:59 23.12.2019
2098 Clouds 14 994 71 10000 1.5 0 14:41 23.12.2019
2099 Clouds 14 994 71 10000 1.5 0 14:22 23.12.2019
2100 Clouds 14 994 62 10000 1.5 0 13:58 23.12.2019
2101 Clouds 14 995 67 10000 1.5 0 13:40 23.12.2019
2102 Clouds 14 995 67 10000 1.5 0 13:22 23.12.2019
2103 Clouds 14 995 72 10000 1.5 0 12:56 23.12.2019
2104 Clouds 14 995 76 10000 1.5 0 12:37 23.12.2019
2105 Clouds 14 996 76 10000 1.5 0 12:19 23.12.2019
2106 Clouds 15 997 76 10000 1.5 0 11:44 23.12.2019
2107 Clouds 15 997 76 10000 1.5 0 11:26 23.12.2019
2108 Clouds 14 998 76 10000 1.5 0 10:57 23.12.2019
2109 Clouds 14 998 76 10000 1.5 0 10:57 23.12.2019
2110 Clouds 14 998 82 10000 2.95 260 10:39 23.12.2019
2111 Clouds 14 998 82 10000 2.95 260 10:20 23.12.2019
2112 Rain 14 998 82 10000 2.95 260 09:59 23.12.2019
2113 Rain 14 998 93 10000 2.95 260 09:39 23.12.2019
2114 Rain 14 998 93 8000 2.95 260 09:21 23.12.2019
2115 Rain 14 998 93 8000 2.95 260 08:56 23.12.2019
2116 Rain 14 998 81 8000 1.5 0 08:38 23.12.2019
2117 Clouds 14 997 62 10000 6.7 240 08:20 23.12.2019
2118 Drizzle 13 998 76 10000 1.5 0 07:43 23.12.2019
2119 Clouds 13 998 81 10000 1.5 0 07:20 23.12.2019
2120 Clouds 13 998 81 10000 1.5 0 06:53 23.12.2019
2121 Clouds 13 997 81 10000 1.5 0 06:25 23.12.2019
2122 Clouds 13 997 76 10000 2.25 288 05:50 23.12.2019
2123 Clouds 13 997 66 10000 2.25 288 05:27 23.12.2019
2124 Clouds 14 997 71 10000 5.6 245 04:31 23.12.2019
2125 Clouds 13 998 76 10000 5.6 245 03:18 23.12.2019
2126 Clouds 13 998 76 10000 5.6 245 02:40 23.12.2019
2127 Clouds 13 999 93 10000 2.61 253 02:19 23.12.2019
2128 Clouds 13 998 93 10000 2.61 253 01:42 23.12.2019
2129 Rain 13 998 93 10000 3.6 268 01:20 23.12.2019
2130 Rain 13 998 93 10000 3.6 268 00:43 23.12.2019
2131 Clouds 12 998 87 10000 3.6 268 00:22 23.12.2019
2132 Clouds 12 998 87 10000 3.6 268 23:39 22.12.2019
2133 Clouds 12 999 81 10000 1.5 0 23:21 22.12.2019
2134 Clouds 12 999 81 10000 1.5 0 22:58 22.12.2019
2135 Clouds 12 999 81 10000 1.5 0 22:58 22.12.2019
2136 Rain 13 999 81 10000 1.5 0 22:40 22.12.2019
2137 Rain 13 999 81 10000 1.5 0 22:19 22.12.2019
2138 Rain 12 999 71 8000 2.1 220 21:57 22.12.2019
2139 Rain 12 1000 76 7000 4.1 290 21:39 22.12.2019
2140 Rain 12 1000 76 7000 4.1 290 21:21 22.12.2019
2141 Rain 14 1000 76 5000 7.2 290 20:58 22.12.2019
2142 Rain 15 999 93 8000 3.1 180 20:39 22.12.2019
2143 Rain 16 1000 77 6000 3.6 230 20:18 22.12.2019
2144 Rain 16 1000 77 6000 3.6 230 19:56 22.12.2019
2145 Rain 17 1000 77 8000 6.2 170 19:37 22.12.2019
2146 Rain 17 1000 63 8000 5.7 170 19:19 22.12.2019
2147 Rain 17 1001 55 10000 6.2 170 18:41 22.12.2019
2148 Clouds 17 1002 52 10000 6.2 190 18:23 22.12.2019
2149 Clouds 17 1002 52 10000 6.2 190 17:56 22.12.2019
2150 Clouds 17 1002 59 10000 5.1 160 17:37 22.12.2019
2151 Clouds 17 1002 59 10000 5.1 170 17:18 22.12.2019
2152 Clouds 17 1002 59 10000 5.1 170 16:57 22.12.2019
2153 Clouds 17 1003 63 10000 6.2 190 16:38 22.12.2019
2154 Clouds 17 1003 63 10000 6.2 190 16:19 22.12.2019
2155 Clouds 17 1003 55 10000 6.2 190 15:56 22.12.2019
2156 Rain 17 1003 63 10000 3.6 140 15:37 22.12.2019
2157 Rain 17 1003 63 10000 3.6 140 15:37 22.12.2019
2158 Clouds 17 1004 68 10000 3.6 150 15:19 22.12.2019
2159 Rain 17 1004 68 10000 3.6 150 14:55 22.12.2019
2160 Rain 17 1004 59 10000 3.1 170 14:36 22.12.2019
2161 Rain 18 1004 63 10000 3.6 160 14:18 22.12.2019
2162 Clouds 18 1004 63 10000 3.6 160 13:55 22.12.2019
2163 Clouds 18 1005 63 10000 2.6 140 13:36 22.12.2019
2164 Clouds 18 1006 68 10000 3.1 130 13:18 22.12.2019
2165 Clouds 18 1006 68 10000 3.1 130 12:55 22.12.2019
2166 Clouds 18 1006 68 10000 3.1 150 12:37 22.12.2019
2167 Clouds 18 1007 63 10000 3.1 170 12:18 22.12.2019
2168 Clouds 18 1007 63 10000 3.1 170 11:54 22.12.2019
2169 Clouds 18 1008 63 10000 3.1 160 11:36 22.12.2019
2170 Clouds 18 1008 63 10000 3.1 170 11:18 22.12.2019
2171 Clouds 18 1008 63 10000 3.1 170 10:54 22.12.2019
2172 Clouds 18 1009 63 10000 2.1 150 10:36 22.12.2019
2173 Clouds 18 1009 59 10000 2.1 180 10:18 22.12.2019
2174 Clouds 17 1010 67 10000 5.7 197 09:40 22.12.2019
2175 Clouds 17 1010 67 10000 5.7 197 09:22 22.12.2019
2176 Clouds 17 1010 72 10000 1.5 0 08:59 22.12.2019
2177 Clouds 17 1010 67 10000 5.7 197 08:38 22.12.2019
2178 Clouds 17 1011 63 10000 5.31 173 08:18 22.12.2019
2179 Clouds 16 1011 63 10000 5.31 173 07:38 22.12.2019
2180 Clouds 15 1010 55 10000 1.5 0 07:20 22.12.2019
2181 Clouds 15 1011 67 10000 1.5 0 06:40 22.12.2019
2182 Clouds 16 1011 63 10000 2.6 200 05:54 22.12.2019
2183 Clouds 15 1011 59 10000 2.6 210 05:21 22.12.2019
2184 Clouds 15 1011 59 10000 4.1 220 04:29 22.12.2019
2185 Clouds 16 1011 55 10000 3.6 200 03:53 22.12.2019
2186 Clouds 16 1011 55 10000 5.1 220 02:40 22.12.2019
2187 Clouds 16 1012 55 10000 2.6 180 01:47 22.12.2019
2188 Clouds 16 1012 55 10000 2.6 180 01:28 22.12.2019
2189 Clouds 16 1012 59 10000 2.6 210 00:47 22.12.2019
2190 Clouds 16 1012 59 10000 2.6 210 00:23 22.12.2019
2191 Clouds 16 1012 63 10000 4.6 180 23:56 21.12.2019
2192 Clouds 16 1013 76 10000 5.08 193 23:38 21.12.2019
2193 Clouds 15 1013 82 10000 3.34 212 23:19 21.12.2019
2194 Clouds 15 1013 87 10000 3.34 212 22:41 21.12.2019
2195 Clouds 15 1013 87 10000 3.34 212 22:19 21.12.2019
2196 Clouds 15 1013 87 10000 3.34 212 21:57 21.12.2019
2197 Clouds 15 1013 87 10000 3.34 212 21:38 21.12.2019
2198 Clouds 15 1013 87 10000 3.34 212 21:19 21.12.2019
2199 Clouds 15 1014 93 10000 3.34 212 20:59 21.12.2019
2200 Clouds 15 1013 93 10000 3.34 212 20:39 21.12.2019
2201 Clouds 15 1013 93 10000 3.14 213 20:21 21.12.2019
2202 Clouds 15 1014 93 10000 3.14 213 19:58 21.12.2019
2203 Clouds 15 1014 87 10000 3.14 213 19:40 21.12.2019
2204 Clouds 15 1014 87 10000 3.14 213 19:19 21.12.2019
2205 Clouds 15 1014 82 10000 3.14 213 18:45 21.12.2019
2206 Clouds 15 1014 82 10000 3.14 213 18:24 21.12.2019
2207 Clouds 15 1014 82 10000 3.14 213 17:58 21.12.2019
2208 Clouds 15 1014 82 10000 3.14 213 17:39 21.12.2019
2209 Clouds 16 1014 82 10000 3.27 225 17:21 21.12.2019
2210 Clouds 16 1013 72 10000 3.27 225 16:59 21.12.2019
2211 Clouds 16 1014 72 10000 3.27 225 16:41 21.12.2019
2212 Clouds 16 1014 72 10000 3.27 225 16:41 21.12.2019
2213 Clouds 16 1013 67 10000 1 0 16:19 21.12.2019
2214 Clouds 16 1013 67 10000 1 0 16:19 21.12.2019
2215 Clouds 16 1013 67 10000 1 0 15:57 21.12.2019
2216 Clouds 17 1014 67 10000 1 0 15:38 21.12.2019
2217 Clouds 17 1014 67 10000 1 0 15:38 21.12.2019
2218 Clouds 17 1014 72 10000 1 0 15:19 21.12.2019
2219 Clouds 17 1014 72 10000 1 0 14:57 21.12.2019
2220 Clouds 17 1014 63 10000 1.5 0 14:38 21.12.2019
2221 Clouds 18 1014 59 10000 1.5 0 14:18 21.12.2019
2222 Clouds 18 1014 59 10000 1.5 0 13:55 21.12.2019
2223 Clouds 18 1014 59 10000 2.6 210 13:37 21.12.2019
2224 Clouds 18 1015 56 10000 2.1 210 13:18 21.12.2019
2225 Clouds 18 1015 56 10000 2.1 210 12:54 21.12.2019
2226 Clouds 18 1015 55 10000 2.1 230 12:36 21.12.2019
2227 Clouds 17 1016 63 10000 2.1 210 12:18 21.12.2019
2228 Clouds 17 1016 68 10000 2.1 190 11:42 21.12.2019
2229 Clouds 17 1016 68 10000 2.1 190 11:24 21.12.2019
2230 Clouds 17 1017 68 10000 2.1 200 10:56 21.12.2019
2231 Clouds 17 1017 72 9000 1 0 10:38 21.12.2019
2232 Clouds 17 1017 77 9000 3.64 265 10:19 21.12.2019
2233 Clouds 17 1017 77 9000 1 0 09:43 21.12.2019
2234 Clouds 16 1017 82 9000 3.64 265 09:21 21.12.2019
2235 Clouds 16 1017 82 9000 3.64 265 08:57 21.12.2019
2236 Clouds 15 1017 87 9000 3.64 265 08:37 21.12.2019
2237 Clouds 14 1017 87 9000 2.74 292 08:19 21.12.2019
2238 Clouds 13 1018 93 10000 2.74 292 07:44 21.12.2019
2239 Clouds 13 1018 93 10000 2.74 292 07:22 21.12.2019
2240 Clouds 12 1018 93 10000 2.74 292 06:44 21.12.2019
2241 Clouds 12 1018 93 10000 2.74 292 06:25 21.12.2019
2242 Clouds 12 1017 100 10000 1.5 0 05:51 21.12.2019
2243 Clouds 12 1017 100 10000 3.28 295 04:58 21.12.2019
2244 Clouds 12 1017 93 10000 2.1 330 03:57 21.12.2019
2245 Clouds 12 1018 93 10000 3.28 295 02:53 21.12.2019
2246 Rain 13 1018 93 10000 3.49 294 01:59 21.12.2019
2247 Rain 13 1020 82 10000 1 0 01:38 21.12.2019
2248 Rain 13 1018 93 10000 1.5 0 01:20 21.12.2019
2249 Clouds 13 1018 93 10000 3.21 292 00:37 21.12.2019
2250 Clouds 14 1019 93 10000 1.5 0 00:18 21.12.2019
2251 Clouds 14 1019 93 10000 1.5 0 23:38 20.12.2019
2252 Clouds 14 1019 93 10000 2.21 283 23:19 20.12.2019
2253 Clouds 14 1019 93 10000 1.5 0 22:43 20.12.2019
2254 Clouds 14 1019 93 10000 1.5 0 22:21 20.12.2019
2255 Clouds 14 1019 93 10000 1.5 0 21:59 20.12.2019
2256 Clouds 14 1019 93 10000 2.21 283 21:40 20.12.2019
2257 Clouds 14 1019 93 10000 2.21 283 21:20 20.12.2019
2258 Clouds 15 1019 93 10000 2.21 283 20:41 20.12.2019
2259 Clouds 15 1019 93 10000 0.37 342 20:22 20.12.2019
2260 Clouds 15 1019 93 10000 1.5 0 19:59 20.12.2019
2261 Clouds 15 1020 82 10000 1.5 0 19:41 20.12.2019
2262 Clouds 16 1020 82 10000 1.5 0 19:20 20.12.2019
2263 Clouds 16 1020 82 10000 1.5 0 18:56 20.12.2019
2264 Clouds 16 1020 82 10000 1.5 0 18:56 20.12.2019
2265 Clouds 16 1020 82 10000 1.5 0 18:56 20.12.2019
2266 Clouds 16 1019 82 10000 1.5 0 18:38 20.12.2019
2267 Clouds 16 1020 82 10000 1.5 0 18:20 20.12.2019
2268 Clouds 16 1020 82 10000 1.5 0 17:54 20.12.2019
2269 Clouds 16 1019 77 10000 1.5 170 17:36 20.12.2019
2270 Clouds 16 1019 77 10000 1.5 170 17:18 20.12.2019
2271 Clouds 16 1019 77 10000 4.1 210 16:40 20.12.2019
2272 Clouds 17 1019 72 10000 3.6 190 16:20 20.12.2019
2273 Clouds 17 1019 72 10000 3.6 190 16:20 20.12.2019
2274 Clouds 17 1019 72 10000 1.5 0 15:57 20.12.2019
2275 Clouds 18 1019 72 10000 4.1 180 15:39 20.12.2019
2276 Clouds 18 1019 72 10000 4.1 180 15:20 20.12.2019
2277 Clouds 18 1020 72 10000 3.6 200 14:59 20.12.2019
2278 Clouds 18 1020 72 10000 3.6 200 14:40 20.12.2019
2279 Clouds 18 1019 72 10000 4.1 220 14:22 20.12.2019
2280 Clouds 18 1019 68 10000 4.6 190 13:55 20.12.2019
2281 Clouds 18 1020 72 10000 4.1 210 13:36 20.12.2019
2282 Clouds 18 1020 72 10000 4.1 210 13:18 20.12.2019
2283 Clouds 19 1020 72 10000 4.1 230 12:41 20.12.2019
2284 Clouds 19 1021 68 10000 3.6 220 12:19 20.12.2019
2285 Clouds 18 1021 72 10000 3.1 210 11:59 20.12.2019
2286 Clouds 18 1022 72 10000 2.6 210 11:40 20.12.2019
2287 Clouds 18 1022 72 10000 2.6 210 11:21 20.12.2019
2288 Clouds 17 1022 72 9000 1.5 0 10:59 20.12.2019
2289 Clouds 17 1022 72 9000 1.5 0 10:41 20.12.2019
2290 Clouds 17 1023 72 9000 1.64 211 10:21 20.12.2019
2291 Clouds 16 1023 77 8000 1.64 211 09:58 20.12.2019
2292 Clouds 16 1023 77 8000 1.64 211 09:40 20.12.2019
2293 Clouds 16 1023 87 8000 1.64 211 09:20 20.12.2019
2294 Clouds 15 1023 100 8000 3.1 360 08:44 20.12.2019
2295 Clouds 15 1023 100 8000 1.5 0 08:26 20.12.2019
2296 Clouds 14 1023 100 10000 1.5 0 07:59 20.12.2019
2297 Clouds 14 1023 100 10000 1.5 0 07:41 20.12.2019
2298 Clouds 14 1023 100 10000 1.95 227 07:19 20.12.2019
2299 Clouds 14 1023 100 10000 1.95 227 06:52 20.12.2019
2300 Clouds 13 1023 100 10000 1.5 0 06:33 20.12.2019
2301 Clouds 13 1023 93 10000 1.95 227 05:55 20.12.2019
2302 Clouds 13 1023 93 10000 1.95 227 05:36 20.12.2019
2303 Clouds 13 1023 93 10000 2.46 165 04:33 20.12.2019
2304 Clouds 14 1024 100 10000 2.46 165 03:30 20.12.2019
2305 Clouds 14 1024 100 10000 2.46 165 02:44 20.12.2019
2306 Clouds 14 1024 93 10000 2.32 174 01:52 20.12.2019
2307 Clouds 14 1024 93 10000 2.32 174 01:33 20.12.2019
2308 Clouds 14 1024 93 10000 2.09 170 00:48 20.12.2019
2309 Clouds 14 1024 87 10000 2.09 170 00:29 20.12.2019
2310 Clouds 14 1025 93 10000 2.09 170 23:54 19.12.2019
2311 Clouds 14 1025 93 10000 2.09 170 23:36 19.12.2019
2312 Clouds 14 1025 93 10000 2.16 163 23:18 19.12.2019
2313 Clouds 15 1025 87 10000 2.16 163 22:37 19.12.2019
2314 Clouds 15 1025 87 10000 2.16 163 22:19 19.12.2019
2315 Clouds 15 1026 87 10000 2.16 163 21:56 19.12.2019
2316 Clouds 15 1026 82 10000 2.16 163 21:37 19.12.2019
2317 Clouds 15 1026 82 10000 2.16 163 21:18 19.12.2019
2318 Clouds 15 1026 82 10000 2.16 163 20:56 19.12.2019
2319 Clouds 15 1026 82 10000 2.16 163 20:36 19.12.2019
2320 Clouds 15 1026 82 10000 2.72 151 20:18 19.12.2019
2321 Clouds 15 1026 82 10000 2.72 151 19:57 19.12.2019
2322 Clouds 15 1026 82 10000 2.72 151 19:39 19.12.2019
2323 Clouds 15 1026 87 10000 2.72 151 19:19 19.12.2019
2324 Clouds 15 1026 87 10000 2.72 151 18:41 19.12.2019
2325 Clouds 15 1026 77 10000 2.72 151 18:23 19.12.2019
2326 Clouds 15 1026 77 10000 2.72 151 17:58 19.12.2019
2327 Clouds 15 1026 77 10000 2.72 151 17:40 19.12.2019
2328 Clouds 15 1026 82 10000 3.25 152 17:19 19.12.2019
2329 Clouds 15 1026 82 10000 3.25 152 17:19 19.12.2019
2330 Clouds 15 1026 82 10000 3.25 152 16:59 19.12.2019
2331 Clouds 15 1026 82 10000 3.25 152 16:41 19.12.2019
2332 Clouds 16 1026 82 10000 3.25 152 16:22 19.12.2019
2333 Clouds 16 1026 77 10000 3.25 152 15:59 19.12.2019
2334 Clouds 16 1026 77 10000 3.25 152 15:40 19.12.2019
2335 Clouds 16 1026 77 10000 3.25 152 15:20 19.12.2019
2336 Clouds 16 1026 77 10000 3.25 152 14:59 19.12.2019
2337 Clouds 16 1026 77 10000 3.25 152 14:41 19.12.2019
2338 Clouds 16 1026 77 10000 3.25 152 14:41 19.12.2019
2339 Clouds 17 1026 77 10000 3.03 162 14:19 19.12.2019
2340 Clouds 17 1026 72 10000 3.03 162 13:57 19.12.2019
2341 Clouds 17 1027 72 10000 3.37 158 13:38 19.12.2019
2342 Clouds 17 1027 72 10000 3.37 158 13:19 19.12.2019
2343 Clouds 16 1027 72 10000 3.37 158 12:55 19.12.2019
2344 Clouds 16 1027 72 10000 3.37 158 12:37 19.12.2019
2345 Clouds 16 1027 72 10000 3.37 158 12:19 19.12.2019
2346 Clouds 16 1028 72 10000 3.37 158 11:57 19.12.2019
2347 Clouds 16 1028 72 10000 3.37 158 11:39 19.12.2019
2348 Clouds 16 1028 72 10000 3.07 159 11:18 19.12.2019
2349 Clouds 16 1028 77 10000 3.07 159 10:55 19.12.2019
2350 Clouds 15 1028 82 10000 3.07 159 10:37 19.12.2019
2351 Clouds 15 1028 82 10000 3.07 159 10:18 19.12.2019
2352 Clouds 15 1028 77 10000 3.07 159 09:40 19.12.2019
2353 Clouds 15 1028 82 10000 3.07 159 09:40 19.12.2019
2354 Clouds 15 1028 82 10000 3.07 159 09:21 19.12.2019
2355 Clouds 14 1028 82 9000 3.07 159 08:58 19.12.2019
2356 Clouds 14 1028 87 8000 3.07 159 08:40 19.12.2019
2357 Clouds 13 1028 87 8000 1.77 82 08:19 19.12.2019
2358 Clouds 13 1028 87 10000 1.77 82 07:57 19.12.2019
2359 Clouds 12 1027 87 10000 1.77 82 07:38 19.12.2019
2360 Clouds 12 1027 87 10000 1.77 82 07:19 19.12.2019
2361 Clouds 12 1027 93 10000 1.77 82 06:50 19.12.2019
2362 Clouds 11 1027 87 10000 1.77 82 06:29 19.12.2019
2363 Clouds 12 1027 93 10000 1.77 82 05:55 19.12.2019
2364 Clouds 12 1027 93 10000 1.77 82 05:36 19.12.2019
2365 Clouds 12 1027 87 10000 1.36 56 04:52 19.12.2019
2366 Clouds 12 1027 93 10000 1.36 56 03:21 19.12.2019
2367 Clouds 12 1027 87 10000 1.36 44 02:22 19.12.2019
2368 Clouds 11 1027 93 10000 1.26 42 01:22 19.12.2019
2369 Clouds 11 1027 93 10000 1.26 42 00:43 19.12.2019
2370 Clouds 11 1027 93 10000 1.26 42 00:24 19.12.2019
2371 Mist 12 1029 100 5000 1.26 42 23:57 18.12.2019
2372 Clouds 12 1027 93 10000 1.26 42 23:38 18.12.2019
2373 Clouds 12 1027 93 10000 0.72 73 23:18 18.12.2019
2374 Clouds 12 1028 93 10000 0.72 73 22:55 18.12.2019
2375 Clouds 12 1028 93 10000 0.72 73 22:37 18.12.2019
2376 Clouds 12 1028 93 10000 0.72 73 22:19 18.12.2019
2377 Clouds 12 1028 87 10000 0.72 73 21:56 18.12.2019
2378 Clouds 12 1028 87 10000 0.72 73 21:56 18.12.2019
2379 Rain 12 1027 87 10000 0.72 73 21:37 18.12.2019
2380 Rain 12 1027 87 10000 0.72 73 21:19 18.12.2019
2381 Rain 12 1027 93 10000 0.72 73 20:55 18.12.2019
2382 Rain 12 1027 93 10000 0.72 73 20:55 18.12.2019
2383 Rain 12 1027 87 10000 0.72 73 20:37 18.12.2019
2384 Clouds 12 1027 87 10000 0.38 143 20:19 18.12.2019
2385 Clouds 12 1027 93 10000 0.38 143 19:55 18.12.2019
2386 Clouds 12 1027 93 10000 0.38 143 19:37 18.12.2019
2387 Clouds 12 1027 93 10000 0.38 143 19:18 18.12.2019
2388 Clouds 12 1027 93 10000 0.38 143 19:18 18.12.2019
2389 Clouds 13 1027 87 10000 0.38 143 18:44 18.12.2019
2390 Clouds 13 1027 87 10000 0.38 143 18:25 18.12.2019
2391 Clouds 13 1027 87 10000 0.38 143 18:25 18.12.2019
2392 Clouds 13 1026 93 10000 0.38 143 17:57 18.12.2019
2393 Clouds 13 1026 93 10000 0.38 143 17:39 18.12.2019
2394 Clouds 14 1026 93 10000 1.19 166 17:19 18.12.2019
2395 Clouds 14 1026 82 10000 1.19 166 16:56 18.12.2019
2396 Clouds 14 1026 82 10000 1.19 166 16:38 18.12.2019
2397 Clouds 15 1026 77 10000 1.19 166 16:20 18.12.2019
2398 Clouds 16 1026 77 10000 1.19 166 15:55 18.12.2019
2399 Clouds 16 1026 72 10000 1.19 166 15:37 18.12.2019
2400 Clouds 17 1026 72 10000 1.5 0 15:18 18.12.2019
2401 Clouds 17 1026 68 10000 1.5 0 14:42 18.12.2019
2402 Clouds 17 1026 72 10000 1.77 178 14:22 18.12.2019
2403 Clouds 17 1026 72 10000 1.77 178 13:57 18.12.2019
2404 Clouds 17 1026 68 10000 1.5 0 13:38 18.12.2019
2405 Clouds 17 1026 63 10000 1.85 175 13:20 18.12.2019
2406 Clouds 17 1026 63 10000 1.85 175 12:57 18.12.2019
2407 Clouds 17 1026 63 10000 1.85 175 12:38 18.12.2019
2408 Clouds 17 1026 72 10000 1.85 175 12:19 18.12.2019
2409 Clouds 17 1027 72 10000 1.85 175 11:55 18.12.2019
2410 Clouds 17 1026 72 10000 1.85 175 11:55 18.12.2019
2411 Clouds 17 1027 72 10000 1.85 175 11:37 18.12.2019
2412 Clouds 17 1027 67 10000 0.05 192 11:19 18.12.2019
2413 Clouds 16 1027 67 10000 0.05 192 10:55 18.12.2019
2414 Clouds 16 1027 67 10000 0.05 192 10:37 18.12.2019
2415 Clouds 16 1027 72 10000 0.05 192 10:19 18.12.2019
2416 Clouds 16 1027 72 10000 0.05 192 09:50 18.12.2019
2417 Clouds 16 1027 72 10000 0.05 192 09:50 18.12.2019
2418 Clouds 15 1027 76 10000 0.05 192 09:18 18.12.2019
2419 Clouds 13 1027 81 10000 0.05 192 08:41 18.12.2019
2420 Clouds 12 1027 81 10000 1.35 333 08:22 18.12.2019
2421 Clouds 11 1027 93 10000 1.48 333 07:43 18.12.2019
2422 Clouds 11 1027 93 10000 1.48 333 07:23 18.12.2019
2423 Clouds 10 1026 100 10000 1.48 333 06:56 18.12.2019
2424 Clouds 10 1026 93 10000 1.48 333 06:27 18.12.2019
2425 Clouds 10 1026 93 10000 2.1 330 05:54 18.12.2019
2426 Clouds 10 1026 93 10000 1.5 0 04:59 18.12.2019
2427 Clouds 11 1026 93 10000 2.1 330 02:55 18.12.2019
2428 Clouds 10 1026 93 10000 2.1 330 02:37 18.12.2019
2429 Rain 11 1026 100 10000 1.52 348 02:18 18.12.2019
2430 Rain 11 1026 100 10000 1.5 0 01:41 18.12.2019
2431 Clouds 11 1026 100 10000 1.5 0 01:22 18.12.2019
2432 Clouds 11 1025 93 10000 1.5 0 00:41 18.12.2019
2433 Clouds 11 1025 93 10000 1.5 0 00:23 18.12.2019
2434 Clouds 11 1025 93 10000 1.5 0 23:57 17.12.2019
2435 Clouds 11 1025 93 10000 2.1 330 23:39 17.12.2019
2436 Clouds 11 1026 93 10000 1.5 0 23:19 17.12.2019
2437 Clouds 11 1026 93 10000 1.5 0 22:56 17.12.2019
2438 Clouds 11 1026 87 10000 1.5 320 22:38 17.12.2019
2439 Clouds 11 1026 93 10000 2.6 330 22:19 17.12.2019
2440 Clouds 11 1026 93 10000 2.6 330 21:55 17.12.2019
2441 Clouds 12 1026 93 10000 2.6 340 21:37 17.12.2019
2442 Clear 12 1026 87 10000 1.29 328 21:19 17.12.2019
2443 Clear 12 1026 87 10000 1.29 328 20:57 17.12.2019
2444 Clear 12 1025 93 10000 1.33 324 20:38 17.12.2019
2445 Clear 12 1025 87 10000 0.68 268 20:18 17.12.2019
2446 Clear 12 1025 87 10000 0.7 271 19:56 17.12.2019
2447 Rain 12 1025 87 10000 0.7 271 19:38 17.12.2019
2448 Rain 13 1025 81 10000 1.5 0 19:18 17.12.2019
2449 Rain 13 1025 81 10000 1.5 0 18:54 17.12.2019
2450 Clear 13 1025 87 10000 1.5 0 18:36 17.12.2019
2451 Clear 13 1025 82 10000 1.5 0 18:18 17.12.2019
2452 Clear 14 1025 87 10000 1.5 0 17:42 17.12.2019
2453 Clear 14 1025 87 10000 1.5 0 17:42 17.12.2019
2454 Clear 14 1024 82 10000 1.61 207 17:21 17.12.2019
2455 Clear 14 1024 82 10000 1.61 207 16:57 17.12.2019
2456 Clear 15 1024 77 10000 1.5 0 16:38 17.12.2019
2457 Clouds 16 1024 77 10000 1.61 207 16:19 17.12.2019
2458 Clouds 16 1024 77 10000 1.61 207 15:59 17.12.2019
2459 Clouds 17 1024 72 10000 1.61 207 15:37 17.12.2019
2460 Clouds 17 1024 68 10000 1.61 207 15:19 17.12.2019
2461 Clouds 17 1024 68 10000 1.61 207 14:56 17.12.2019
2462 Clouds 17 1024 68 10000 1.61 207 14:38 17.12.2019
2463 Clouds 18 1024 68 10000 1.5 0 14:19 17.12.2019
2464 Clouds 18 1024 68 10000 1.5 0 13:56 17.12.2019
2465 Clear 18 1024 68 10000 2.1 160 13:38 17.12.2019
2466 Clouds 18 1024 68 10000 1.5 0 13:19 17.12.2019
2467 Clouds 18 1024 68 10000 1.5 0 12:56 17.12.2019
2468 Clear 17 1024 63 10000 1.5 0 12:37 17.12.2019
2469 Clear 17 1024 63 10000 1.5 0 12:18 17.12.2019
2470 Clear 17 1024 63 10000 1.5 0 11:56 17.12.2019
2471 Clear 17 1025 63 10000 1.5 0 11:36 17.12.2019
2472 Clear 17 1025 67 10000 0.45 249 11:18 17.12.2019
2473 Clear 17 1025 67 10000 0.45 249 11:18 17.12.2019
2474 Clear 17 1025 67 10000 0.45 249 11:18 17.12.2019
2475 Clear 17 1025 72 10000 0.45 249 10:55 17.12.2019
2476 Clear 16 1025 72 10000 0.45 249 10:37 17.12.2019
2477 Clear 16 1025 72 10000 0.45 249 10:18 17.12.2019
2478 Clear 16 1025 77 10000 0.45 249 09:42 17.12.2019
2479 Clear 15 1025 76 10000 0.45 249 09:21 17.12.2019
2480 Clear 15 1025 76 10000 0.45 249 08:58 17.12.2019
2481 Clear 14 1025 87 10000 0.45 249 08:40 17.12.2019
2482 Clear 12 1025 93 10000 1.93 336 08:21 17.12.2019
2483 Clear 12 1025 93 10000 1.93 336 07:58 17.12.2019
2484 Clear 12 1025 93 10000 1.93 336 07:39 17.12.2019
2485 Rain 11 1025 93 10000 1.93 336 07:20 17.12.2019
2486 Clouds 10 1024 100 10000 1.93 336 06:42 17.12.2019
2487 Clouds 10 1024 100 10000 1.93 336 06:24 17.12.2019
2488 Clouds 11 1024 93 10000 1.93 336 05:41 17.12.2019
2489 Clouds 10 1024 100 10000 2.17 328 04:51 17.12.2019
2490 Clouds 11 1024 100 10000 2.17 328 03:50 17.12.2019
2491 Clouds 11 1024 93 10000 2.17 328 02:25 17.12.2019
2492 Clouds 12 1024 100 10000 1.98 329 01:21 17.12.2019
2493 Clouds 12 1024 100 10000 2.04 327 00:47 17.12.2019
2494 Clouds 12 1024 93 10000 2.04 327 00:21 17.12.2019
2495 Clouds 12 1024 93 10000 2.04 327 00:21 17.12.2019
2496 Clouds 12 1024 93 10000 2.04 327 00:21 17.12.2019
2497 Rain 12 1024 93 10000 2.04 327 23:57 16.12.2019
2498 Rain 12 1024 100 10000 2.04 327 23:38 16.12.2019
2499 Clouds 12 1025 93 10000 1.59 308 23:18 16.12.2019
2500 Clouds 13 1025 93 10000 1.59 308 22:54 16.12.2019
2501 Clouds 13 1025 93 10000 1.59 308 22:36 16.12.2019
2502 Clouds 13 1025 93 10000 1.59 308 22:18 16.12.2019
2503 Clouds 13 1025 93 10000 1.59 308 21:54 16.12.2019
2504 Clouds 13 1025 93 10000 1.59 308 21:36 16.12.2019
2505 Clouds 13 1025 93 10000 1.59 308 21:18 16.12.2019
2506 Clouds 13 1025 93 10000 1.59 308 20:54 16.12.2019
2507 Clouds 13 1026 87 10000 1.5 200 20:36 16.12.2019
2508 Clouds 13 1025 93 10000 0.58 257 20:18 16.12.2019
2509 Clouds 13 1025 93 10000 0.58 257 19:54 16.12.2019
2510 Clouds 13 1025 93 10000 0.58 257 19:36 16.12.2019
2511 Clouds 13 1025 93 10000 1 0 19:18 16.12.2019
2512 Clouds 13 1025 100 10000 0.58 257 18:42 16.12.2019
2513 Clouds 13 1024 93 10000 0.58 257 18:20 16.12.2019
2514 Clouds 14 1024 93 10000 0.58 257 17:59 16.12.2019
2515 Clouds 14 1024 93 10000 0.58 257 17:40 16.12.2019
2516 Clouds 14 1024 93 10000 0.58 257 17:40 16.12.2019
2517 Clouds 14 1024 87 10000 1.49 199 17:21 16.12.2019
2518 Clouds 15 1024 87 10000 1.49 199 16:58 16.12.2019
2519 Clouds 15 1024 87 10000 1.49 199 16:39 16.12.2019
2520 Clouds 15 1024 87 10000 1.49 199 16:39 16.12.2019
2521 Clouds 15 1024 87 10000 1.49 199 16:20 16.12.2019
2522 Clouds 16 1024 82 10000 1.5 170 15:59 16.12.2019
2523 Clouds 17 1024 68 10000 1.49 199 15:39 16.12.2019
2524 Clouds 17 1024 68 10000 1.49 199 15:39 16.12.2019
2525 Clouds 17 1024 68 10000 1.5 0 15:21 16.12.2019
2526 Clouds 17 1024 68 10000 1.5 0 14:58 16.12.2019
2527 Clouds 17 1024 63 10000 1.5 0 14:38 16.12.2019
2528 Clouds 17 1024 68 10000 1.5 0 14:20 16.12.2019
2529 Clouds 18 1024 68 10000 1.5 0 13:58 16.12.2019
2530 Clouds 18 1024 68 10000 1.5 0 13:38 16.12.2019
2531 Clouds 17 1024 68 10000 1.5 140 13:20 16.12.2019
2532 Clouds 18 1024 68 10000 1.5 140 12:58 16.12.2019
2533 Clouds 18 1025 68 10000 1.5 0 12:39 16.12.2019
2534 Clouds 17 1025 68 10000 1.55 183 12:20 16.12.2019
2535 Clouds 17 1025 68 10000 1.56 187 11:59 16.12.2019
2536 Clouds 17 1025 72 10000 1.55 183 11:41 16.12.2019
2537 Clouds 17 1025 72 10000 0.59 112 11:21 16.12.2019
2538 Clouds 17 1025 72 10000 0.55 93 10:58 16.12.2019
2539 Clouds 16 1026 72 10000 0.55 93 10:40 16.12.2019
2540 Clouds 16 1026 67 10000 0.55 93 10:20 16.12.2019
2541 Clouds 16 1026 72 10000 0.59 112 09:46 16.12.2019
2542 Clouds 15 1026 72 10000 0.55 93 09:28 16.12.2019
2543 Clouds 15 1026 76 10000 0.59 112 08:58 16.12.2019
2544 Clouds 14 1026 81 10000 0.59 112 08:38 16.12.2019
2545 Clouds 12 1025 87 10000 0.67 37 08:18 16.12.2019
2546 Clouds 12 1025 87 10000 0.67 49 07:47 16.12.2019
2547 Clouds 11 1025 87 10000 0.67 49 07:29 16.12.2019
2548 Clouds 10 1025 100 10000 0.67 49 06:46 16.12.2019
2549 Clouds 10 1025 93 10000 0.67 49 06:26 16.12.2019
2550 Clouds 10 1025 93 10000 0.67 49 05:56 16.12.2019
2551 Clouds 10 1025 93 10000 0.67 49 05:35 16.12.2019
2552 Clouds 10 1024 93 10000 0.46 44 04:33 16.12.2019
2553 Clear 11 1024 93 10000 0.46 44 02:49 16.12.2019
2554 Clear 11 1024 93 10000 0.26 111 01:45 16.12.2019
2555 Clear 11 1024 93 10000 0.25 124 00:55 16.12.2019
2556 Clear 11 1023 87 10000 0.25 124 00:36 16.12.2019
2557 Clouds 11 1023 87 10000 0.25 124 00:18 16.12.2019
2558 Clouds 11 1024 93 10000 0.25 124 23:40 15.12.2019
2559 Clouds 11 1023 87 10000 0.75 20 23:21 15.12.2019
2560 Clouds 11 1023 87 10000 0.75 20 22:56 15.12.2019
2561 Clouds 11 1023 87 10000 0.75 20 22:38 15.12.2019
2562 Clouds 11 1023 81 10000 0.75 20 22:18 15.12.2019
2563 Clouds 12 1023 81 10000 0.75 20 21:57 15.12.2019
2564 Clouds 12 1023 87 10000 0.75 20 21:38 15.12.2019
2565 Clouds 12 1023 87 10000 0.75 20 21:19 15.12.2019
2566 Clouds 12 1023 87 10000 0.75 20 20:57 15.12.2019
2567 Clouds 12 1023 87 10000 0.75 20 20:38 15.12.2019
2568 Clouds 12 1022 87 10000 1.68 25 20:19 15.12.2019
2569 Clouds 12 1022 87 10000 1.46 27 19:57 15.12.2019
2570 Clouds 12 1022 81 10000 1.68 25 19:39 15.12.2019
2571 Clouds 12 1022 81 10000 1.68 25 19:39 15.12.2019
2572 Clouds 12 1022 81 10000 1.68 25 19:19 15.12.2019
2573 Clouds 13 1022 81 10000 1.46 27 18:57 15.12.2019
2574 Clouds 13 1021 87 10000 1.68 25 18:38 15.12.2019
2575 Clouds 13 1021 87 10000 1.68 25 18:38 15.12.2019
2576 Clouds 13 1021 87 10000 1.5 0 18:18 15.12.2019
2577 Clouds 13 1021 87 10000 1.5 0 17:56 15.12.2019
2578 Clouds 14 1021 82 10000 1.5 0 17:37 15.12.2019
2579 Clouds 14 1020 82 10000 1.95 8 17:19 15.12.2019
2580 Clouds 14 1020 82 10000 1.95 8 16:57 15.12.2019
2581 Clouds 15 1020 72 10000 1.95 8 16:39 15.12.2019
2582 Clouds 16 1020 67 10000 1.95 8 16:20 15.12.2019
2583 Clouds 16 1019 63 10000 1.5 0 15:55 15.12.2019
2584 Clouds 16 1019 63 10000 1.5 0 15:37 15.12.2019
2585 Clouds 17 1019 59 10000 2.1 350 15:18 15.12.2019
2586 Clouds 16 1019 63 10000 2.6 360 14:55 15.12.2019
2587 Clouds 16 1019 63 10000 2.6 360 14:55 15.12.2019
2588 Clouds 17 1019 63 10000 2.6 360 14:36 15.12.2019
2589 Clouds 17 1019 63 10000 2.1 340 14:18 15.12.2019
2590 Clouds 17 1019 63 10000 2.1 340 13:55 15.12.2019
2591 Clouds 17 1019 67 10000 2.1 330 13:36 15.12.2019
2592 Rain 17 1018 67 10000 2.1 350 13:18 15.12.2019
2593 Rain 17 1018 67 10000 2.1 350 13:18 15.12.2019
2594 Rain 17 1018 67 10000 2.1 350 12:56 15.12.2019
2595 Rain 17 1018 67 10000 2.1 0 12:37 15.12.2019
2596 Clouds 17 1018 67 10000 3.1 340 12:19 15.12.2019
2597 Clouds 17 1018 67 10000 3.1 350 11:38 15.12.2019
2598 Clouds 17 1018 63 10000 3.1 350 11:20 15.12.2019
2599 Clouds 16 1018 63 10000 3.1 350 10:58 15.12.2019
2600 Clouds 16 1017 67 10000 3.1 350 10:40 15.12.2019
2601 Clouds 16 1017 72 10000 2.6 340 10:20 15.12.2019
2602 Clouds 16 1017 72 10000 2.6 340 09:59 15.12.2019
2603 Clouds 15 1017 77 10000 2.6 330 09:38 15.12.2019
2604 Clouds 15 1016 77 10000 2.1 330 09:20 15.12.2019
2605 Clouds 15 1016 77 10000 2.1 330 08:55 15.12.2019
2606 Clouds 14 1015 77 10000 2.6 310 08:37 15.12.2019
2607 Clouds 13 1015 77 10000 1.5 0 08:19 15.12.2019
2608 Rain 13 1015 77 10000 1.5 0 07:53 15.12.2019
2609 Rain 12 1014 77 10000 2.1 310 07:32 15.12.2019
2610 Clouds 12 1013 82 10000 3.1 330 06:30 15.12.2019
2611 Clouds 12 1012 82 10000 1.5 0 05:50 15.12.2019
2612 Clouds 12 1012 82 10000 3.74 345 05:23 15.12.2019
2613 Clouds 12 1011 87 10000 3.74 345 04:24 15.12.2019
2614 Clouds 11 1009 82 10000 3.74 345 02:59 15.12.2019
2615 Clouds 12 1008 82 10000 3.74 345 02:32 15.12.2019
2616 Clouds 12 1007 76 10000 3.1 320 01:42 15.12.2019
2617 Clouds 12 1007 82 10000 1.5 0 01:19 15.12.2019
2618 Clouds 12 1006 82 10000 2.6 340 00:51 15.12.2019
2619 Clouds 12 1006 82 10000 2.6 340 00:33 15.12.2019
2620 Rain 11 1005 81 10000 4.28 0 23:55 14.12.2019
2621 Rain 11 1005 81 10000 4.28 0 23:37 14.12.2019
2622 Rain 11 1004 81 10000 3.91 358 23:18 14.12.2019
2623 Rain 11 1004 81 10000 3.91 358 23:18 14.12.2019
2624 Clouds 11 1004 81 10000 3.91 358 22:56 14.12.2019
2625 Clouds 11 1004 81 10000 3.91 358 22:37 14.12.2019
2626 Clouds 11 1003 81 10000 2.1 340 22:18 14.12.2019
2627 Clouds 11 1003 81 10000 2.1 340 22:18 14.12.2019
2628 Clouds 11 1003 81 10000 2.1 340 21:55 14.12.2019
2629 Clouds 11 1002 81 10000 2.1 300 21:36 14.12.2019
2630 Clouds 11 1002 76 10000 1 0 21:18 14.12.2019
2631 Clouds 12 1001 76 10000 3.1 330 20:42 14.12.2019
2632 Clouds 12 1000 76 10000 3.1 360 20:20 14.12.2019
2633 Clouds 12 1000 76 10000 3.1 360 19:59 14.12.2019
2634 Clouds 12 1000 76 10000 2.1 360 19:39 14.12.2019
2635 Clouds 12 999 76 10000 2.1 10 19:21 14.12.2019
2636 Clouds 12 999 76 10000 2.1 10 18:57 14.12.2019
2637 Clouds 12 998 81 10000 7.72 349 18:38 14.12.2019
2638 Clouds 12 998 81 10000 7.72 349 18:38 14.12.2019
2639 Clouds 12 997 76 10000 7.72 349 18:20 14.12.2019
2640 Clouds 11 997 76 10000 7.72 349 17:57 14.12.2019
2641 Clouds 11 996 81 10000 2.6 330 17:38 14.12.2019
2642 Clouds 11 996 93 10000 5.46 345 17:20 14.12.2019
2643 Clouds 11 995 93 10000 5.46 345 16:41 14.12.2019
2644 Clouds 11 994 93 10000 5.46 345 16:19 14.12.2019
2645 Clouds 12 994 93 10000 5.46 345 15:55 14.12.2019
2646 Rain 12 994 100 10000 1.5 0 15:37 14.12.2019
2647 Rain 12 993 100 10000 5.46 345 15:19 14.12.2019
2648 Rain 11 993 100 10000 5.46 345 14:54 14.12.2019
2649 Rain 12 993 100 6000 5.46 345 14:36 14.12.2019
2650 Rain 12 992 93 5000 9.66 140 14:18 14.12.2019
2651 Rain 12 992 100 7000 9.66 140 13:42 14.12.2019
2652 Rain 12 991 93 8000 9.66 140 13:19 14.12.2019
2653 Rain 12 991 93 8000 9.66 140 13:19 14.12.2019
2654 Rain 13 991 93 8000 2.3 172 12:57 14.12.2019
2655 Rain 12 991 93 5000 6.35 301 12:38 14.12.2019
2656 Rain 12 991 93 5000 2.3 172 12:38 14.12.2019
2657 Rain 12 991 87 5000 1.5 0 12:20 14.12.2019
2658 Rain 13 991 87 5000 1.5 0 11:56 14.12.2019
2659 Rain 13 991 93 9000 2.3 172 11:38 14.12.2019
2660 Rain 13 990 93 9000 2.6 190 11:19 14.12.2019
2661 Rain 13 990 93 9000 2.6 190 10:56 14.12.2019
2662 Rain 13 991 93 2000 3.6 120 10:38 14.12.2019
2663 Rain 13 992 87 7000 3.6 150 10:19 14.12.2019
2664 Rain 13 992 87 9000 4.6 140 09:43 14.12.2019
2665 Rain 13 992 87 9000 4.6 140 09:23 14.12.2019
2666 Rain 14 992 87 6000 6.7 150 08:59 14.12.2019
2667 Rain 14 992 87 6000 6.7 150 08:59 14.12.2019
2668 Rain 14 992 82 8000 6.7 160 08:40 14.12.2019
2669 Rain 14 992 77 9000 5.7 160 08:19 14.12.2019
2670 Rain 14 992 72 10000 4.6 160 07:41 14.12.2019
2671 Rain 14 993 67 10000 5.7 160 07:22 14.12.2019
2672 Rain 14 993 67 10000 5.7 160 06:55 14.12.2019
2673 Rain 14 994 72 10000 4.1 170 06:36 14.12.2019
2674 Rain 14 994 77 10000 5.1 160 05:56 14.12.2019
2675 Clouds 13 995 93 10000 3.6 170 04:35 14.12.2019
2676 Clouds 12 998 87 10000 6.65 175 02:25 14.12.2019
2677 Clouds 11 999 93 10000 7.12 226 01:46 14.12.2019
2678 Clouds 11 999 93 10000 7.12 226 01:28 14.12.2019
2679 Clouds 11 1000 93 10000 9 225 00:44 14.12.2019
2680 Clouds 11 1000 93 10000 9 225 00:26 14.12.2019
2681 Clouds 11 1000 93 10000 9 225 23:43 13.12.2019
2682 Clouds 11 1001 87 10000 3.36 221 23:22 13.12.2019
2683 Clouds 11 1001 87 10000 3.36 221 22:59 13.12.2019
2684 Clouds 10 1001 87 10000 3.36 221 22:40 13.12.2019
2685 Clouds 11 1001 87 10000 3.36 221 22:19 13.12.2019
2686 Clouds 10 1001 87 10000 3.36 221 21:55 13.12.2019
2687 Clouds 11 1001 87 10000 3.36 221 21:36 13.12.2019
2688 Clouds 11 1001 93 10000 3.36 221 21:18 13.12.2019
2689 Clouds 11 1002 87 10000 3.36 221 20:40 13.12.2019
2690 Clouds 11 1002 87 10000 3 258 20:21 13.12.2019
2691 Clouds 11 1002 87 10000 3 258 19:58 13.12.2019
2692 Clouds 11 1002 87 10000 3 258 19:40 13.12.2019
2693 Clouds 11 1002 87 10000 3 258 19:21 13.12.2019
2694 Clouds 12 1002 81 10000 3 258 18:58 13.12.2019
2695 Clouds 12 1002 81 10000 3 258 18:40 13.12.2019
2696 Clouds 12 1002 93 10000 3 258 18:19 13.12.2019
2697 Clouds 12 1002 93 10000 3 258 18:19 13.12.2019
2698 Clouds 12 1002 87 10000 3 258 17:43 13.12.2019
2699 Clouds 12 1002 81 10000 1.93 225 17:20 13.12.2019
2700 Clouds 12 1002 81 10000 1.93 225 17:20 13.12.2019
2701 Clouds 13 1001 71 10000 1.93 225 16:59 13.12.2019
2702 Clouds 13 1001 62 10000 1.93 225 16:39 13.12.2019
2703 Clouds 13 1001 62 10000 1.93 225 16:20 13.12.2019
2704 Clouds 14 1001 58 10000 1.93 225 15:58 13.12.2019
2705 Clouds 14 1001 55 10000 2.1 240 15:37 13.12.2019
2706 Clouds 14 1001 55 10000 2.1 240 15:18 13.12.2019
2707 Clouds 15 1001 55 10000 2.1 230 14:41 13.12.2019
2708 Clouds 15 1001 55 10000 2.1 230 14:20 13.12.2019
2709 Clouds 15 1001 51 10000 2.1 240 13:57 13.12.2019
2710 Clouds 15 1002 55 10000 3.1 230 13:38 13.12.2019
2711 Clouds 15 1002 55 10000 3.1 230 13:19 13.12.2019
2712 Clouds 15 1002 59 10000 3.1 220 12:42 13.12.2019
2713 Clouds 15 1002 67 10000 3.05 248 12:20 13.12.2019
2714 Clouds 15 1003 72 10000 3.05 248 11:57 13.12.2019
2715 Clouds 15 1003 72 10000 3.05 248 11:39 13.12.2019
2716 Clouds 14 1003 72 10000 2.01 258 11:21 13.12.2019
2717 Clouds 13 1003 76 10000 2.01 258 10:42 13.12.2019
2718 Clouds 13 1004 76 10000 2.01 258 10:23 13.12.2019
2719 Clouds 12 1004 81 10000 2.01 258 09:56 13.12.2019
2720 Clouds 12 1004 81 10000 2.01 258 09:38 13.12.2019
2721 Clouds 11 1004 81 10000 2.01 258 09:18 13.12.2019
2722 Clouds 11 1003 87 10000 2.01 258 08:41 13.12.2019
2723 Clouds 11 1003 93 10000 2.64 260 08:23 13.12.2019
2724 Rain 10 1004 93 10000 0.5 260 07:46 13.12.2019
2725 Rain 10 1003 93 10000 1.75 300 07:21 13.12.2019
2726 Clouds 10 1003 100 10000 1.75 300 06:55 13.12.2019
2727 Clouds 9 1003 87 10000 1.75 300 06:29 13.12.2019
2728 Rain 9 1003 93 10000 1.75 300 05:46 13.12.2019
2729 Rain 9 1003 87 10000 1.75 300 05:27 13.12.2019
2730 Clouds 9 1003 87 10000 1.43 354 04:35 13.12.2019
2731 Clouds 9 1003 87 10000 1.43 354 03:46 13.12.2019
2732 Clouds 9 1004 87 10000 1.43 354 02:34 13.12.2019
2733 Clouds 9 1004 87 10000 0.66 25 01:47 13.12.2019
2734 Clouds 10 1004 87 10000 0.57 16 00:57 13.12.2019
2735 Clouds 10 1004 93 10000 0.57 16 00:37 13.12.2019
2736 Rain 10 1004 87 10000 0.57 16 23:59 12.12.2019
2737 Rain 10 1004 87 10000 0.57 16 23:59 12.12.2019
2738 Rain 10 1005 93 10000 0.57 16 23:39 12.12.2019
2739 Rain 10 1005 93 10000 1.56 21 23:21 12.12.2019
2740 Clouds 10 1005 93 10000 1.56 21 22:56 12.12.2019
2741 Clouds 10 1005 93 10000 1.56 21 22:56 12.12.2019
2742 Clouds 10 1005 87 10000 1.56 21 22:37 12.12.2019
2743 Clouds 10 1005 87 10000 1.56 21 22:18 12.12.2019
2744 Clouds 10 1005 87 10000 1.56 21 21:55 12.12.2019
2745 Clouds 10 1005 87 10000 1.56 21 21:36 12.12.2019
2746 Clouds 10 1005 87 10000 1.56 21 21:18 12.12.2019
2747 Clouds 10 1005 93 10000 1.56 21 20:56 12.12.2019
2748 Clouds 11 1005 87 10000 1.56 21 20:38 12.12.2019
2749 Clouds 11 1005 87 10000 2.18 14 20:20 12.12.2019
2750 Clouds 11 1005 87 10000 1.89 2 19:43 12.12.2019
2751 Clouds 11 1005 87 10000 1.89 2 19:23 12.12.2019
2752 Clouds 11 1005 76 10000 1.89 2 18:58 12.12.2019
2753 Clouds 11 1005 76 10000 1.89 2 18:40 12.12.2019
2754 Clouds 11 1005 76 10000 1.89 2 18:21 12.12.2019
2755 Clouds 11 1004 81 10000 1.89 2 17:59 12.12.2019
2756 Clouds 11 1004 81 10000 1.89 2 17:40 12.12.2019
2757 Clouds 11 1004 81 10000 2.03 345 17:21 12.12.2019
2758 Clouds 11 1005 81 10000 2.03 345 16:59 12.12.2019
2759 Clouds 11 1005 81 10000 2.03 345 16:41 12.12.2019
2760 Clouds 12 1005 82 10000 2.03 345 16:21 12.12.2019
2761 Clouds 12 1005 82 10000 2.03 345 16:21 12.12.2019
2762 Clouds 12 1005 71 10000 1.5 0 15:58 12.12.2019
2763 Rain 12 1005 71 10000 1.5 0 15:40 12.12.2019
2764 Rain 12 1004 71 10000 1.5 0 15:18 12.12.2019
2765 Rain 12 1004 71 10000 3.1 330 14:56 12.12.2019
2766 Rain 12 1004 71 10000 3.1 330 14:36 12.12.2019
2767 Clouds 13 1004 71 10000 3.1 330 14:18 12.12.2019
2768 Clouds 13 1004 71 10000 3.6 330 13:54 12.12.2019
2769 Clouds 13 1004 67 10000 3.1 330 13:36 12.12.2019
2770 Clouds 13 1004 67 10000 3.1 330 13:18 12.12.2019
2771 Clouds 13 1004 67 10000 3.1 340 12:41 12.12.2019
2772 Clouds 13 1005 71 10000 2.6 330 12:22 12.12.2019
2773 Clouds 13 1005 71 10000 1.5 340 11:59 12.12.2019
2774 Clouds 12 1005 76 10000 1.5 280 11:40 12.12.2019
2775 Clouds 12 1005 76 10000 1.5 280 11:21 12.12.2019
2776 Clouds 12 1005 76 10000 1.5 280 10:58 12.12.2019
2777 Clouds 12 1005 76 10000 1.5 280 10:40 12.12.2019
2778 Clouds 12 1005 76 10000 1.5 280 10:21 12.12.2019
2779 Clouds 12 1005 76 10000 2.75 3 09:56 12.12.2019
2780 Clouds 12 1005 76 10000 1.5 300 09:38 12.12.2019
2781 Rain 12 1005 76 10000 1.5 300 09:19 12.12.2019
2782 Rain 11 1005 81 10000 3.1 320 08:47 12.12.2019
2783 Rain 11 1004 81 10000 3.6 330 08:28 12.12.2019
2784 Clouds 10 1004 76 10000 3.1 330 07:54 12.12.2019
2785 Clouds 10 1004 81 10000 4.1 330 07:36 12.12.2019
2786 Clouds 10 1004 81 10000 4.1 330 07:18 12.12.2019
2787 Clouds 10 1004 81 10000 2.6 320 06:41 12.12.2019
2788 Clouds 10 1004 81 10000 2.6 320 06:21 12.12.2019
2789 Clouds 9 1004 81 10000 2.1 310 05:26 12.12.2019
2790 Clouds 10 1004 93 10000 1 0 04:31 12.12.2019
2791 Clouds 10 1005 93 10000 3.78 7 02:41 12.12.2019
2792 Clouds 10 1005 93 10000 2.1 320 02:23 12.12.2019
2793 Clouds 10 1005 93 10000 3.68 14 01:58 12.12.2019
2794 Clouds 10 1005 93 10000 1.5 0 01:35 12.12.2019
2795 Clouds 10 1005 93 10000 1.5 0 00:49 12.12.2019
2796 Rain 10 1005 93 10000 1.5 0 00:22 12.12.2019
2797 Rain 10 1005 87 10000 1.5 0 23:58 11.12.2019
2798 Rain 10 1006 87 10000 2.1 40 23:37 11.12.2019
2799 Rain 10 1006 87 10000 2.1 40 23:18 11.12.2019
2800 Drizzle 11 1007 93 10000 4.2 28 22:56 11.12.2019
2801 Rain 11 1006 93 10000 4.2 28 22:38 11.12.2019
2802 Rain 11 1006 93 10000 4.2 28 22:18 11.12.2019
2803 Rain 11 1006 93 10000 4.2 28 22:18 11.12.2019
2804 Rain 11 1006 93 10000 4.2 28 21:54 11.12.2019
2805 Rain 11 1006 93 10000 1 0 21:36 11.12.2019
2806 Rain 11 1006 93 10000 1 0 21:18 11.12.2019
2807 Thunderstorm 11 1006 93 10000 1.5 0 20:55 11.12.2019
2808 Rain 11 1006 93 10000 1.5 0 20:36 11.12.2019
2809 Rain 11 1006 93 10000 1.5 0 20:18 11.12.2019
2810 Rain 11 1006 100 10000 1.5 0 19:42 11.12.2019
2811 Thunderstorm 12 1007 100 9000 1 0 19:23 11.12.2019
2812 Thunderstorm 12 1006 87 10000 2.1 0 18:59 11.12.2019
2813 Thunderstorm 12 1006 87 10000 2.1 0 18:40 11.12.2019
2814 Rain 12 1006 81 10000 1.5 0 18:19 11.12.2019
2815 Rain 13 1006 81 10000 2.6 310 17:56 11.12.2019
2816 Clouds 13 1006 81 10000 3.7 31 17:38 11.12.2019
2817 Clouds 13 1006 81 10000 3.7 31 17:38 11.12.2019
2818 Clouds 13 1006 81 10000 3.54 153 17:18 11.12.2019
2819 Clouds 13 1006 76 10000 1.5 0 16:55 11.12.2019
2820 Clouds 14 1005 71 10000 1.5 0 16:37 11.12.2019
2821 Clouds 14 1005 71 10000 1.5 0 16:18 11.12.2019
2822 Clouds 14 1005 67 10000 1.5 0 15:56 11.12.2019
2823 Clouds 14 1005 67 10000 2.1 350 15:37 11.12.2019
2824 Clouds 15 1005 67 10000 2.1 350 15:19 11.12.2019
2825 Clouds 15 1006 77 10000 1.5 0 14:55 11.12.2019
2826 Clouds 15 1006 72 10000 3.54 153 14:36 11.12.2019
2827 Clouds 15 1006 72 10000 1.74 162 14:18 11.12.2019
2828 Clouds 15 1007 59 10000 4.6 240 13:43 11.12.2019
2829 Rain 15 1006 72 10000 2.06 158 13:23 11.12.2019
2830 Rain 15 1006 72 10000 1.5 0 12:58 11.12.2019
2831 Rain 15 1006 67 10000 2.06 158 12:39 11.12.2019
2832 Clouds 16 1006 67 10000 2.06 158 12:21 11.12.2019
2833 Clouds 15 1006 77 10000 3.1 140 11:58 11.12.2019
2834 Clouds 15 1006 72 10000 1.5 0 11:39 11.12.2019
2835 Clouds 15 1006 72 10000 1.5 0 11:19 11.12.2019
2836 Clouds 15 1006 77 10000 1.77 284 10:59 11.12.2019
2837 Clouds 15 1007 77 10000 1.77 284 10:39 11.12.2019
2838 Clouds 15 1007 77 10000 1.77 284 10:21 11.12.2019
2839 Clouds 15 1006 87 10000 1.77 284 09:56 11.12.2019
2840 Clouds 14 1006 100 10000 1.77 284 09:38 11.12.2019
2841 Clouds 14 1006 100 10000 1.77 284 09:19 11.12.2019
2842 Clouds 14 1006 100 6000 1.77 284 08:55 11.12.2019
2843 Clouds 13 1005 100 10000 1.77 284 08:36 11.12.2019
2844 Rain 13 1005 100 10000 2.62 309 08:18 11.12.2019
2845 Rain 12 1005 100 10000 2.62 309 07:42 11.12.2019
2846 Clouds 11 1005 100 10000 2.62 309 07:23 11.12.2019
2847 Rain 11 1005 100 10000 2.62 309 06:46 11.12.2019
2848 Rain 11 1005 100 10000 2.62 309 06:24 11.12.2019
2849 Rain 11 1004 100 10000 2.62 309 05:54 11.12.2019
2850 Rain 12 1004 100 10000 2.62 309 05:34 11.12.2019
2851 Rain 11 1004 100 10000 1.56 340 04:51 11.12.2019
2852 Clouds 11 1004 100 10000 1.56 340 03:26 11.12.2019
2853 Rain 12 1004 100 10000 1.56 340 02:35 11.12.2019
2854 Rain 12 1004 100 10000 4.05 140 01:22 11.12.2019
2855 Clouds 12 1005 100 10000 1.49 155 00:38 11.12.2019
2856 Clouds 12 1005 100 10000 1.49 155 00:19 11.12.2019
2857 Clouds 12 1005 100 10000 1.49 155 23:44 10.12.2019
2858 Rain 12 1005 100 10000 4.38 204 23:23 10.12.2019
2859 Rain 12 1006 100 10000 4.38 204 22:56 10.12.2019
2860 Rain 12 1006 100 10000 4.38 204 22:56 10.12.2019
2861 Rain 12 1006 100 10000 4.38 204 22:38 10.12.2019
2862 Thunderstorm 12 1005 93 8000 4.38 204 22:20 10.12.2019
2863 Thunderstorm 12 1006 100 8000 2.1 360 21:54 10.12.2019
2864 Thunderstorm 12 1006 93 8000 2.1 0 21:36 10.12.2019
2865 Thunderstorm 12 1006 93 8000 2.1 0 21:18 10.12.2019
2866 Thunderstorm 12 1005 93 8000 4.6 180 20:55 10.12.2019
2867 Thunderstorm 12 1005 87 9000 2.1 0 20:36 10.12.2019
2868 Thunderstorm 13 1005 87 9000 2.1 0 20:18 10.12.2019
2869 Thunderstorm 13 1005 87 9000 2.1 0 20:18 10.12.2019
2870 Rain 13 1005 87 10000 4.49 150 19:44 10.12.2019
2871 Rain 13 1005 87 10000 4.49 150 19:26 10.12.2019
2872 Rain 13 1005 87 10000 4.49 150 19:26 10.12.2019
2873 Rain 13 1005 87 10000 4.49 150 18:59 10.12.2019
2874 Rain 13 1005 87 10000 4.49 150 18:39 10.12.2019
2875 Rain 13 1005 87 10000 4.49 150 18:19 10.12.2019
2876 Rain 12 1005 87 10000 1 0 17:55 10.12.2019
2877 Clouds 12 1005 87 10000 4.49 150 17:37 10.12.2019
2878 Rain 12 1005 87 10000 4.98 106 17:19 10.12.2019
2879 Rain 13 1006 82 10000 1.5 0 16:42 10.12.2019
2880 Rain 13 1006 82 10000 1.5 0 16:20 10.12.2019
2881 Rain 13 1006 76 10000 4.98 106 15:55 10.12.2019
2882 Rain 13 1006 82 10000 4.1 60 15:37 10.12.2019
2883 Rain 13 1006 82 10000 4.1 60 15:18 10.12.2019
2884 Rain 13 1006 82 10000 4.1 60 15:18 10.12.2019
2885 Rain 13 1006 82 10000 4.1 60 15:18 10.12.2019
2886 Rain 13 1006 77 10000 3.1 80 14:55 10.12.2019
2887 Rain 13 1006 82 10000 2.1 60 14:36 10.12.2019
2888 Rain 14 1006 82 10000 2.1 60 14:18 10.12.2019
2889 Rain 13 1006 87 10000 1.5 0 13:56 10.12.2019
2890 Rain 13 1006 87 10000 1.5 0 13:56 10.12.2019
2891 Rain 14 1006 93 6000 1.5 0 13:37 10.12.2019
2892 Rain 14 1006 93 6000 1.5 0 13:18 10.12.2019
2893 Rain 14 1007 87 6000 3.6 170 12:40 10.12.2019
2894 Rain 14 1007 87 6000 3.6 170 12:40 10.12.2019
2895 Rain 14 1007 72 10000 5.63 111 12:21 10.12.2019
2896 Rain 14 1007 77 10000 5.63 111 11:42 10.12.2019
2897 Clouds 15 1007 77 10000 1.5 0 11:23 10.12.2019
2898 Clouds 15 1008 77 10000 4.45 127 10:56 10.12.2019
2899 Clouds 15 1008 82 10000 4.45 127 10:37 10.12.2019
2900 Clouds 14 1008 82 10000 4.45 127 10:19 10.12.2019
2901 Clouds 14 1008 82 10000 4.45 127 09:55 10.12.2019
2902 Clouds 14 1008 82 10000 4.45 127 09:55 10.12.2019
2903 Clouds 14 1008 82 10000 4.45 127 09:37 10.12.2019
2904 Clouds 14 1008 82 10000 4.45 127 09:19 10.12.2019
2905 Clouds 13 1008 93 10000 4.45 127 08:54 10.12.2019
2906 Clouds 13 1008 100 10000 4.42 114 08:36 10.12.2019
2907 Clouds 13 1008 100 10000 4.45 127 08:36 10.12.2019
2908 Rain 12 1008 100 10000 3.16 140 08:18 10.12.2019
2909 Rain 12 1008 93 10000 3.16 140 07:43 10.12.2019
2910 Rain 12 1008 93 10000 3.16 140 07:43 10.12.2019
2911 Rain 12 1008 100 10000 1 0 07:25 10.12.2019
2912 Rain 12 1008 100 10000 3.16 140 06:47 10.12.2019
2913 Rain 12 1008 93 10000 3.16 140 06:21 10.12.2019
2914 Rain 12 1008 100 10000 3.16 140 05:55 10.12.2019
2915 Rain 12 1009 93 10000 2.04 29 04:55 10.12.2019
2916 Rain 12 1009 93 10000 2.04 29 03:39 10.12.2019
2917 Rain 12 1009 93 10000 2.04 29 02:46 10.12.2019
2918 Clouds 12 1009 93 10000 2.48 64 01:45 10.12.2019
2919 Clouds 12 1009 93 10000 1.5 0 01:24 10.12.2019
2920 Clouds 12 1009 100 10000 1 0 00:42 10.12.2019
2921 Clouds 12 1010 100 10000 1.39 20 00:22 10.12.2019
2922 Rain 13 1010 93 8000 1.5 0 23:42 09.12.2019
2923 Rain 13 1010 82 10000 1.5 0 23:42 09.12.2019
2924 Rain 13 1010 82 10000 1.5 0 23:23 09.12.2019
2925 Clouds 12 1010 87 10000 1.25 158 22:58 09.12.2019
2926 Clouds 12 1010 82 10000 1.25 158 22:40 09.12.2019
2927 Clouds 12 1010 82 10000 1.25 158 22:20 09.12.2019
2928 Clouds 12 1011 82 10000 1.25 158 21:57 09.12.2019
2929 Clouds 12 1011 82 10000 1.25 158 21:39 09.12.2019
2930 Clouds 12 1011 82 10000 1.25 158 21:39 09.12.2019
2931 Clouds 12 1011 87 10000 1.25 158 21:19 09.12.2019
2932 Clouds 12 1011 82 10000 1.25 158 20:57 09.12.2019
2933 Clouds 12 1011 82 10000 1.25 158 20:39 09.12.2019
2934 Clouds 12 1011 82 10000 4.44 162 20:20 09.12.2019
2935 Clouds 12 1011 76 10000 4.44 162 19:56 09.12.2019
2936 Clouds 12 1011 76 10000 4.44 162 19:38 09.12.2019
2937 Clouds 13 1011 76 10000 4.44 162 19:19 09.12.2019
2938 Clouds 13 1011 82 10000 4.44 162 18:58 09.12.2019
2939 Clouds 13 1011 82 10000 4.44 162 18:39 09.12.2019
2940 Clouds 13 1011 82 10000 4.44 162 18:20 09.12.2019
2941 Clouds 13 1011 77 10000 4.44 162 17:58 09.12.2019
2942 Clouds 13 1011 77 10000 4.44 162 17:40 09.12.2019
2943 Clouds 13 1011 77 10000 3.71 152 17:21 09.12.2019
2944 Clouds 14 1011 77 10000 3.71 152 16:56 09.12.2019
2945 Clouds 14 1011 77 10000 3.71 152 16:56 09.12.2019
2946 Clouds 14 1011 72 10000 3.71 152 16:38 09.12.2019
2947 Clouds 14 1011 72 10000 3.71 152 16:20 09.12.2019
2948 Clouds 15 1011 72 10000 2.1 160 15:56 09.12.2019
2949 Clouds 15 1012 72 10000 2.1 160 15:37 09.12.2019
2950 Clouds 16 1012 72 10000 2.1 160 15:19 09.12.2019
2951 Clouds 16 1012 67 10000 2.6 170 14:57 09.12.2019
2952 Clouds 16 1012 67 10000 2.6 170 14:39 09.12.2019
2953 Clouds 16 1012 63 10000 2.6 150 14:18 09.12.2019
2954 Clouds 16 1012 63 10000 2.6 160 13:40 09.12.2019
2955 Clouds 16 1013 63 10000 2.1 170 13:20 09.12.2019
2956 Clouds 16 1013 63 10000 2.6 150 12:58 09.12.2019
2957 Clouds 16 1013 63 10000 2.6 150 12:40 09.12.2019
2958 Clouds 16 1013 63 10000 2.23 150 12:21 09.12.2019
2959 Clouds 16 1014 63 10000 2.23 150 11:59 09.12.2019
2960 Clouds 16 1014 63 10000 2.23 150 11:40 09.12.2019
2961 Clouds 16 1014 63 10000 1.19 152 11:21 09.12.2019
2962 Clouds 16 1015 52 10000 1.19 152 10:57 09.12.2019
2963 Clouds 15 1015 59 10000 1.19 152 10:38 09.12.2019
2964 Clouds 15 1015 59 10000 1.19 152 10:19 09.12.2019
2965 Clouds 15 1015 62 10000 1.19 152 09:43 09.12.2019
2966 Clouds 14 1015 71 10000 1.19 152 09:23 09.12.2019
2967 Clouds 13 1017 76 10000 1.19 152 08:55 09.12.2019
2968 Clouds 11 1015 81 10000 1.31 140 08:37 09.12.2019
2969 Clouds 11 1015 81 10000 1.04 60 08:19 09.12.2019
2970 Clouds 10 1015 81 10000 1.04 60 07:48 09.12.2019
2971 Rain 9 1015 87 10000 1.04 60 07:30 09.12.2019
2972 Clouds 8 1016 81 10000 1.04 60 06:55 09.12.2019
2973 Clouds 8 1016 81 10000 1.04 60 06:29 09.12.2019
2974 Clouds 9 1016 81 10000 1.04 60 05:31 09.12.2019
2975 Clouds 9 1016 81 10000 1.5 0 04:58 09.12.2019
2976 Clouds 9 1016 81 10000 1.07 28 04:27 09.12.2019
2977 Clouds 9 1016 81 10000 1.07 28 04:27 09.12.2019
2978 Clouds 9 1017 76 10000 1.07 28 02:28 09.12.2019
2979 Clouds 9 1017 71 10000 1.74 17 01:46 09.12.2019
2980 Clouds 9 1017 76 10000 1.73 10 00:57 09.12.2019
2981 Clouds 10 1017 76 10000 1.73 10 00:33 09.12.2019
2982 Clouds 10 1017 81 10000 1.73 10 23:55 08.12.2019
2983 Clouds 10 1017 81 10000 1.73 10 23:55 08.12.2019
2984 Clouds 10 1018 87 10000 1.73 10 23:37 08.12.2019
2985 Clouds 10 1018 87 10000 2.18 16 23:18 08.12.2019
2986 Clouds 10 1018 81 10000 2.18 16 22:56 08.12.2019
2987 Clouds 11 1018 76 10000 2.18 16 22:38 08.12.2019
2988 Clouds 11 1018 76 10000 2.18 16 22:18 08.12.2019
2989 Clear 11 1018 71 10000 2.18 16 21:55 08.12.2019
2990 Clear 11 1018 76 10000 2.18 16 21:37 08.12.2019
2991 Clear 11 1018 76 10000 2.18 16 21:19 08.12.2019
2992 Clear 12 1018 71 10000 2.18 16 20:55 08.12.2019
2993 Clear 12 1018 71 10000 2.18 16 20:37 08.12.2019
2994 Clear 12 1018 71 10000 2.49 359 20:18 08.12.2019
2995 Clear 12 1018 71 10000 1 0 19:55 08.12.2019
2996 Clear 13 1018 66 10000 1 0 19:36 08.12.2019
2997 Clear 12 1018 66 10000 1 0 19:18 08.12.2019
2998 Clear 13 1018 71 10000 1 0 18:54 08.12.2019
2999 Clear 13 1018 67 10000 1.5 300 18:36 08.12.2019
3000 Clear 13 1018 67 10000 1.5 300 18:18 08.12.2019
3001 Clear 14 1017 62 10000 2.49 359 17:54 08.12.2019
3002 Clear 14 1017 58 10000 2.49 359 17:36 08.12.2019
3003 Clear 14 1017 58 10000 2.51 14 17:18 08.12.2019
3004 Clouds 14 1017 58 10000 1.5 0 16:42 08.12.2019
3005 Clouds 15 1017 48 10000 2.51 14 16:24 08.12.2019
3006 Clouds 16 1017 42 10000 1.5 330 15:59 08.12.2019
3007 Clouds 16 1016 45 10000 1.5 0 15:37 08.12.2019
3008 Clouds 16 1016 45 10000 1.5 0 15:18 08.12.2019
3009 Clouds 16 1016 45 10000 1.5 0 15:18 08.12.2019
3010 Clouds 17 1016 42 10000 2.6 340 14:57 08.12.2019
3011 Clouds 17 1016 39 10000 4.1 320 14:37 08.12.2019
3012 Clouds 17 1016 39 10000 4.1 320 14:19 08.12.2019
3013 Clouds 17 1016 42 10000 3.1 360 13:41 08.12.2019
3014 Clouds 17 1016 42 10000 4.1 350 13:22 08.12.2019
3015 Clouds 17 1017 42 10000 3.6 330 12:59 08.12.2019
3016 Clouds 18 1017 42 10000 3.6 330 12:40 08.12.2019
3017 Clouds 18 1017 42 10000 3.6 320 12:20 08.12.2019
3018 Clouds 17 1017 42 10000 3.6 0 11:58 08.12.2019
3019 Clouds 17 1017 42 10000 3.1 330 11:37 08.12.2019
3020 Clouds 17 1017 42 10000 3.1 330 11:19 08.12.2019
3021 Clouds 17 1018 48 10000 3.1 350 10:57 08.12.2019
3022 Clouds 17 1018 55 10000 3.1 350 10:38 08.12.2019
3023 Clouds 16 1018 55 10000 3.1 350 10:19 08.12.2019
3024 Clouds 16 1018 55 10000 2.1 340 09:55 08.12.2019
3025 Clouds 15 1018 59 10000 2.3 337 09:37 08.12.2019
3026 Clouds 15 1018 59 10000 2.3 337 09:18 08.12.2019
3027 Clouds 14 1017 63 10000 2.3 337 08:42 08.12.2019
3028 Clouds 13 1017 71 10000 2.1 310 08:23 08.12.2019
3029 Clouds 12 1017 71 10000 2.1 350 07:57 08.12.2019
3030 Clouds 11 1017 76 10000 2.6 320 07:39 08.12.2019
3031 Clouds 11 1017 76 10000 2.6 320 07:18 08.12.2019
3032 Clouds 10 1016 71 10000 2.6 320 06:41 08.12.2019
3033 Clouds 11 1016 71 10000 2.6 320 06:21 08.12.2019
3034 Clouds 11 1016 76 10000 2.91 2 05:26 08.12.2019
3035 Clouds 11 1016 81 10000 2.45 1 04:54 08.12.2019
3036 Clouds 11 1016 81 10000 2.45 1 03:40 08.12.2019
3037 Clouds 11 1016 71 10000 2.1 350 02:46 08.12.2019
3038 Clouds 11 1016 71 10000 1.5 0 02:27 08.12.2019
3039 Clouds 11 1016 76 10000 2.69 356 01:41 08.12.2019
3040 Clouds 11 1016 93 10000 1 0 00:56 08.12.2019
3041 Clouds 11 1016 93 10000 1.5 0 00:36 08.12.2019
3042 Clouds 11 1016 93 10000 1.5 0 00:18 08.12.2019
3043 Clouds 11 1016 93 10000 2.64 3 23:39 07.12.2019
3044 Clouds 11 1016 87 10000 3.02 343 23:20 07.12.2019
3045 Clouds 12 1016 82 10000 3.02 343 22:56 07.12.2019
3046 Clouds 12 1016 93 10000 3.02 343 22:37 07.12.2019
3047 Clouds 12 1016 93 10000 3.02 343 22:19 07.12.2019
3048 Clouds 12 1016 93 10000 3.02 343 21:55 07.12.2019
3049 Clouds 12 1016 87 10000 3.02 343 21:37 07.12.2019
3050 Clouds 12 1016 87 10000 3.02 343 21:19 07.12.2019
3051 Clouds 12 1016 93 10000 3.02 343 20:40 07.12.2019
3052 Clouds 12 1016 93 10000 2.74 330 20:20 07.12.2019
3053 Clouds 13 1016 87 10000 2.74 330 19:58 07.12.2019
3054 Clouds 13 1016 87 10000 2.74 330 19:39 07.12.2019
3055 Clouds 13 1016 82 10000 2.74 330 19:21 07.12.2019
3056 Clouds 13 1016 87 10000 2.74 330 18:59 07.12.2019
3057 Clouds 13 1016 87 10000 2.74 330 18:40 07.12.2019
3058 Clouds 13 1016 87 10000 2.74 330 18:18 07.12.2019
3059 Clouds 14 1015 82 10000 2.74 330 17:56 07.12.2019
3060 Clouds 14 1015 77 10000 2.74 330 17:37 07.12.2019
3061 Clouds 14 1015 77 10000 1.5 248 17:19 07.12.2019
3062 Clouds 15 1015 77 10000 1.5 248 16:56 07.12.2019
3063 Clouds 15 1015 77 10000 1.5 248 16:37 07.12.2019
3064 Clouds 15 1015 77 10000 1.5 248 16:18 07.12.2019
3065 Clouds 16 1016 72 10000 1.5 248 15:41 07.12.2019
3066 Clouds 16 1016 72 10000 1.5 248 15:23 07.12.2019
3067 Clouds 16 1016 67 10000 1.5 248 14:57 07.12.2019
3068 Clouds 16 1016 67 10000 1.5 248 14:38 07.12.2019
3069 Clouds 17 1016 67 10000 0.5 166 14:18 07.12.2019
3070 Clouds 17 1016 67 10000 0.5 166 13:40 07.12.2019
3071 Clouds 17 1016 63 10000 0.84 136 13:20 07.12.2019
3072 Clouds 17 1017 63 10000 0.84 136 12:56 07.12.2019
3073 Clouds 16 1017 72 10000 0.84 136 12:37 07.12.2019
3074 Clouds 16 1017 72 10000 0.84 136 12:19 07.12.2019
3075 Clouds 16 1018 67 10000 0.84 136 11:55 07.12.2019
3076 Clouds 15 1019 72 10000 0.84 136 11:37 07.12.2019
3077 Clouds 15 1019 72 10000 0.73 106 11:19 07.12.2019
3078 Clouds 14 1019 77 10000 0.73 106 10:37 07.12.2019
3079 Clouds 14 1019 77 10000 0.73 106 10:19 07.12.2019
3080 Clouds 14 1019 82 10000 0.73 106 09:41 07.12.2019
3081 Clouds 13 1019 77 10000 0.73 106 09:22 07.12.2019
3082 Clouds 13 1019 82 10000 0.73 106 08:47 07.12.2019
3083 Clouds 12 1019 87 10000 0.94 119 08:25 07.12.2019
3084 Clouds 12 1019 87 10000 1 77 07:57 07.12.2019
3085 Clouds 11 1019 87 10000 1 77 07:38 07.12.2019
3086 Clouds 10 1019 87 10000 1 77 07:19 07.12.2019
3087 Clouds 10 1019 87 10000 1 77 06:45 07.12.2019
3088 Clouds 10 1019 87 10000 1 77 06:24 07.12.2019
3089 Clouds 11 1020 87 10000 0.7 75 04:49 07.12.2019
3090 Clouds 10 1020 81 10000 0.7 75 03:54 07.12.2019
3091 Clouds 11 1021 87 10000 0.7 75 02:50 07.12.2019
3092 Clouds 11 1021 87 10000 1 75 02:19 07.12.2019
3093 Clouds 11 1021 81 10000 1 75 01:31 07.12.2019
3094 Clouds 11 1022 81 10000 1.22 72 00:52 07.12.2019
3095 Clouds 10 1022 81 10000 1.22 72 00:19 07.12.2019
3096 Clouds 10 1022 76 10000 1.22 72 23:47 06.12.2019
3097 Clouds 10 1022 76 10000 1.44 63 23:24 06.12.2019
3098 Clouds 10 1023 76 10000 1.44 63 22:58 06.12.2019
3099 Clouds 10 1023 81 10000 1.44 63 22:37 06.12.2019
3100 Clouds 10 1023 81 10000 1.44 63 22:19 06.12.2019
3101 Clouds 10 1023 87 10000 1.44 63 21:56 06.12.2019
3102 Clouds 10 1023 87 10000 1.44 63 21:38 06.12.2019
3103 Clouds 10 1023 81 10000 1.44 63 21:19 06.12.2019
3104 Clouds 9 1023 81 10000 1.44 63 20:42 06.12.2019
3105 -273 0 0 0 0 0 20:23 06.12.2019
3106 Clouds 10 1023 87 10000 0.77 5 19:58 06.12.2019
3107 Clouds 10 1023 87 10000 1 0 19:39 06.12.2019
3108 Clouds 10 1023 87 10000 1 0 19:21 06.12.2019
3109 Clouds 10 1023 81 10000 0.77 5 18:55 06.12.2019
3110 Clouds 10 1023 76 10000 1 0 18:36 06.12.2019
3111 Clouds 11 1023 76 10000 1 0 18:18 06.12.2019
3112 Clouds 11 1023 76 10000 0.77 5 17:55 06.12.2019
3113 Clouds 11 1023 76 10000 1.5 0 17:37 06.12.2019
3114 Clouds 11 1023 76 10000 1.5 0 17:19 06.12.2019
3115 Clouds 11 1023 71 10000 1.5 0 16:42 06.12.2019
3116 Clouds 12 1023 66 10000 2.1 340 16:23 06.12.2019
3117 Clouds 13 1023 71 10000 2.1 360 15:57 06.12.2019
3118 Clouds 13 1024 66 10000 2.6 350 15:39 06.12.2019
3119 Clouds 13 1024 66 10000 2.6 350 15:18 06.12.2019
3120 Clouds 13 1024 67 10000 3.1 350 14:55 06.12.2019
3121 Clouds 13 1024 66 10000 3.6 360 14:37 06.12.2019
3122 Clouds 14 1024 66 10000 3.6 360 14:18 06.12.2019
3123 Clouds 14 1024 66 10000 3.6 350 13:42 06.12.2019
3124 Clouds 14 1024 62 10000 3.6 350 13:23 06.12.2019
3125 Clouds 15 1025 67 10000 3.6 350 12:42 06.12.2019
3126 Clouds 14 1025 66 10000 3.6 360 12:22 06.12.2019
3127 Clouds 14 1025 66 10000 3.1 360 11:56 06.12.2019
3128 Clouds 13 1026 66 10000 3.6 360 11:37 06.12.2019
3129 Clouds 13 1026 66 10000 3.6 360 11:19 06.12.2019
3130 Clouds 13 1026 66 10000 2.6 340 10:42 06.12.2019
3131 Clouds 13 1026 66 10000 2.6 340 10:21 06.12.2019
3132 Clouds 13 1026 66 10000 2.6 340 09:57 06.12.2019
3133 Clouds 13 1026 66 10000 2.1 340 09:37 06.12.2019
3134 Clouds 13 1026 66 10000 2.1 340 09:37 06.12.2019
3135 Clouds 12 1026 66 10000 2.1 340 09:19 06.12.2019
3136 Clouds 12 1026 66 10000 2.1 340 08:45 06.12.2019
3137 Clouds 11 1026 66 10000 2.66 3 08:26 06.12.2019
3138 Clouds 9 1026 66 10000 2.66 3 07:44 06.12.2019
3139 Clouds 9 1026 66 10000 2.1 330 07:24 06.12.2019
3140 Clouds 9 1026 66 10000 2.1 340 06:59 06.12.2019
3141 Clouds 9 1026 66 10000 2.1 340 06:28 06.12.2019
3142 Clouds 9 1026 71 10000 2.6 340 05:53 06.12.2019
3143 Clouds 8 1026 71 10000 2.6 350 05:21 06.12.2019
3144 Clouds 8 1026 66 10000 3.41 4 02:19 06.12.2019
3145 Clouds 9 1026 66 10000 2.1 350 01:22 06.12.2019
3146 Clouds 9 1027 62 10000 3.4 3 00:40 06.12.2019
3147 Clouds 9 1027 62 10000 3.4 3 00:20 06.12.2019
3148 Clouds 9 1027 66 10000 3.4 3 23:41 05.12.2019
3149 Clouds 9 1027 76 10000 4.18 3 23:18 05.12.2019
3150 Clouds 10 1027 71 10000 4.18 3 22:56 05.12.2019
3151 Clouds 10 1027 66 10000 4.18 3 22:37 05.12.2019
3152 Clouds 10 1027 66 10000 4.18 3 22:18 05.12.2019
3153 Clouds 10 1027 66 10000 4.18 3 22:18 05.12.2019
3154 Clouds 10 1027 66 10000 4.18 3 21:43 05.12.2019
3155 Clouds 10 1027 66 10000 2.1 0 21:25 05.12.2019
3156 Clouds 10 1027 66 10000 2.6 340 20:59 05.12.2019
3157 Clouds 10 1027 66 10000 2.6 340 20:40 05.12.2019
3158 Clouds 10 1027 66 10000 5.13 12 20:20 05.12.2019
3159 Clouds 10 1027 66 10000 5.13 12 20:20 05.12.2019
3160 Clouds 10 1027 66 10000 5.13 12 20:20 05.12.2019
3161 Clouds 10 1027 66 10000 5.13 12 19:56 05.12.2019
3162 Clouds 10 1027 66 10000 5.13 12 19:38 05.12.2019
3163 Clouds 10 1027 66 10000 5.13 12 19:19 05.12.2019
3164 Clouds 10 1027 66 10000 5.13 12 18:54 05.12.2019
3165 Clouds 10 1027 62 10000 5.13 12 18:36 05.12.2019
3166 Clouds 10 1027 66 10000 5.13 12 18:18 05.12.2019
3167 Clouds 10 1026 66 10000 2.1 350 17:39 05.12.2019
3168 Clouds 11 1026 62 10000 2.6 360 17:19 05.12.2019
3169 Clouds 11 1026 62 10000 2.6 360 16:57 05.12.2019
3170 Clouds 11 1026 62 10000 2.6 360 16:38 05.12.2019
3171 Clouds 11 1026 62 10000 2.6 360 16:38 05.12.2019
3172 Clouds 11 1026 62 10000 2.6 360 16:20 05.12.2019
3173 Clouds 11 1026 62 10000 3.1 350 15:56 05.12.2019
3174 Clouds 11 1026 62 10000 2.6 360 15:37 05.12.2019
3175 Clouds 11 1027 62 10000 7.2 20 15:19 05.12.2019
3176 Clouds 11 1027 62 10000 7.2 20 14:55 05.12.2019
3177 Clouds 11 1026 58 10000 3.1 340 14:36 05.12.2019
3178 Clouds 12 1026 54 10000 4.1 350 14:18 05.12.2019
3179 Clouds 12 1026 54 10000 4.1 350 13:56 05.12.2019
3180 Clouds 12 1026 58 10000 3.1 340 13:37 05.12.2019
3181 Clouds 12 1026 54 10000 3.6 350 13:18 05.12.2019
3182 Clouds 12 1027 54 10000 6.2 360 12:43 05.12.2019
3183 Clouds 12 1026 58 10000 2.6 340 12:24 05.12.2019
3184 Clouds 12 1026 58 10000 2.6 340 11:59 05.12.2019
3185 Clouds 12 1026 58 10000 2.6 330 11:38 05.12.2019
3186 Clouds 12 1026 58 10000 2.6 330 11:38 05.12.2019
3187 Clouds 12 1027 58 10000 3.6 360 11:20 05.12.2019
3188 Clouds 12 1027 54 10000 3.74 14 10:57 05.12.2019
3189 Clouds 12 1027 54 10000 3.74 14 10:38 05.12.2019
3190 Clouds 12 1028 54 10000 7.7 10 10:18 05.12.2019
3191 Clouds 13 1028 54 10000 7.7 10 09:54 05.12.2019
3192 Clouds 13 1028 58 10000 3.6 340 09:36 05.12.2019
3193 Clouds 11 1028 57 10000 4.6 360 09:18 05.12.2019
3194 Clouds 11 1027 62 10000 2.6 320 08:39 05.12.2019
3195 Clouds 10 1027 66 10000 3.1 330 08:20 05.12.2019
3196 Clouds 10 1027 66 10000 3.1 330 07:56 05.12.2019
3197 Clouds 10 1027 66 10000 2.6 330 07:36 05.12.2019
3198 Clouds 9 1027 66 10000 3.6 330 07:18 05.12.2019
3199 Clouds 9 1027 66 10000 3.1 340 06:42 05.12.2019
3200 Clouds 9 1027 66 10000 3.1 340 06:21 05.12.2019
3201 Clouds 9 1026 62 10000 3.1 360 05:48 05.12.2019
3202 Clouds 9 1026 62 10000 3.1 360 05:23 05.12.2019
3203 Clouds 9 1026 66 10000 3.6 330 04:25 05.12.2019
3204 Clouds 9 1026 66 10000 3.6 350 02:54 05.12.2019
3205 Clouds 9 1026 66 10000 4.1 360 02:25 05.12.2019
3206 Clouds 9 1026 62 10000 3.1 360 01:59 05.12.2019
3207 Clouds 10 1025 66 10000 4.1 0 01:40 05.12.2019
3208 Clouds 10 1025 66 10000 4.1 0 01:20 05.12.2019
3209 Clouds 10 1025 58 10000 3.1 350 00:37 05.12.2019
3210 Clouds 10 1025 58 10000 1.5 0 00:18 05.12.2019
3211 Clouds 10 1025 66 10000 2.1 350 23:42 04.12.2019
3212 Clouds 10 1025 71 10000 3.6 340 23:22 04.12.2019
3213 Clouds 10 1025 71 10000 3.6 340 22:57 04.12.2019
3214 Clouds 10 1025 71 10000 3.1 330 22:36 04.12.2019
3215 Clouds 10 1025 71 10000 3.1 330 22:18 04.12.2019
3216 Clouds 10 1025 71 10000 3.1 330 21:55 04.12.2019
3217 Clouds 10 1025 71 10000 2.6 340 21:37 04.12.2019
3218 Clouds 10 1025 71 10000 3.1 330 21:18 04.12.2019
3219 Clouds 10 1025 71 10000 3.1 330 21:18 04.12.2019
3220 Clouds 10 1025 71 10000 3.1 330 20:56 04.12.2019
3221 Clouds 10 1025 71 10000 3.1 340 20:38 04.12.2019
3222 Clouds 10 1024 71 10000 3.6 340 20:19 04.12.2019
3223 Clouds 10 1024 71 10000 3.1 340 19:41 04.12.2019
3224 Clouds 10 1024 71 10000 3.1 350 19:22 04.12.2019
3225 Clouds 10 1024 71 10000 3.1 350 18:59 04.12.2019
3226 Clouds 10 1024 71 10000 1.5 0 18:41 04.12.2019
3227 Clouds 10 1023 71 10000 4.1 360 18:22 04.12.2019
3228 Clouds 10 1023 71 10000 4.1 360 17:58 04.12.2019
3229 Clouds 10 1022 71 10000 2.6 350 17:39 04.12.2019
3230 Clouds 11 1022 71 10000 3.6 340 17:18 04.12.2019
3231 Clouds 11 1022 71 10000 3.6 340 17:18 04.12.2019
3232 Clouds 10 1022 71 10000 3.6 340 16:54 04.12.2019
3233 Clouds 10 1022 71 10000 3.1 340 16:36 04.12.2019
3234 Clouds 11 1021 66 10000 3.6 360 16:18 04.12.2019
3235 Clouds 11 1021 66 10000 3.1 350 15:42 04.12.2019
3236 Clouds 11 1021 66 10000 3.1 350 15:21 04.12.2019
3237 Clouds 11 1020 71 10000 4.6 350 15:00 04.12.2019
3238 Clouds 11 1020 71 10000 3.6 340 14:41 04.12.2019
3239 Clouds 11 1020 71 10000 4.1 350 14:21 04.12.2019
3240 Clouds 11 1020 71 10000 4.1 350 13:56 04.12.2019
3241 Drizzle 11 1020 71 10000 5.1 340 13:37 04.12.2019
3242 Drizzle 11 1020 76 10000 6.7 340 13:18 04.12.2019
3243 Drizzle 11 1020 76 10000 5.1 340 12:42 04.12.2019
3244 Drizzle 11 1019 76 10000 6.7 340 12:23 04.12.2019
3245 Drizzle 10 1019 76 10000 6.2 340 11:45 04.12.2019
3246 Drizzle 10 1019 76 10000 6.2 340 11:26 04.12.2019
3247 Drizzle 10 1020 81 10000 4.1 340 10:59 04.12.2019
3248 Drizzle 11 1020 76 10000 4.6 350 10:40 04.12.2019
3249 Drizzle 11 1019 81 10000 5.1 350 10:22 04.12.2019
3250 Drizzle 11 1019 71 10000 4.1 340 09:45 04.12.2019
3251 Drizzle 11 1019 71 10000 4.1 340 09:25 04.12.2019
3252 Drizzle 11 1019 71 10000 4.1 340 09:25 04.12.2019
3253 Drizzle 12 1018 71 10000 3.6 330 08:59 04.12.2019
3254 Drizzle 12 1018 71 10000 3.6 330 08:38 04.12.2019
3255 Clouds 12 1017 67 10000 4.6 320 08:19 04.12.2019
3256 Clouds 12 1017 71 10000 5.1 320 07:42 04.12.2019
3257 Clouds 12 1017 71 10000 5.1 320 07:23 04.12.2019
3258 Clouds 13 1016 76 10000 6.2 330 06:33 04.12.2019
3259 Rain 13 1016 82 10000 2.6 310 05:48 04.12.2019
3260 Clouds 13 1015 93 10000 2.99 4 04:58 04.12.2019
3261 Clouds 12 1015 87 10000 2.99 4 03:54 04.12.2019
3262 Clouds 13 1016 93 10000 2.99 4 02:38 04.12.2019
3263 Clouds 13 1016 93 10000 2.19 20 00:50 04.12.2019
3264 Clouds 13 1016 93 10000 2.19 20 00:23 04.12.2019
3265 Clouds 13 1016 93 10000 2.19 20 23:57 03.12.2019
3266 Clouds 13 1017 93 10000 2.19 20 23:38 03.12.2019
3267 Clouds 13 1017 93 10000 1.94 46 23:19 03.12.2019
3268 Clouds 13 1016 93 10000 1.94 46 22:40 03.12.2019
3269 Clouds 13 1017 87 10000 1.94 46 22:19 03.12.2019
3270 Clouds 13 1017 87 10000 1.94 46 21:58 03.12.2019
3271 Clouds 13 1016 93 10000 1.94 46 21:38 03.12.2019
3272 Clouds 13 1017 87 10000 1.94 46 21:19 03.12.2019
3273 Clouds 13 1017 87 10000 1.94 46 20:58 03.12.2019
3274 Clouds 13 1017 93 10000 1.94 46 20:39 03.12.2019
3275 Clouds 14 1017 87 10000 0.7 129 20:18 03.12.2019
3276 Clouds 14 1017 87 10000 0.7 129 19:55 03.12.2019
3277 Clouds 14 1017 87 10000 0.7 129 19:37 03.12.2019
3278 Clouds 14 1017 87 10000 0.7 129 19:18 03.12.2019
3279 Clouds 14 1017 87 10000 0.7 129 18:56 03.12.2019
3280 Clouds 14 1016 87 10000 0.7 129 18:37 03.12.2019
3281 Clouds 14 1017 87 10000 0.7 129 18:19 03.12.2019
3282 Clouds 14 1017 87 10000 0.7 129 18:19 03.12.2019
3283 Clouds 15 1016 87 10000 0.7 129 17:54 03.12.2019
3284 Clouds 14 1016 87 10000 0.7 129 17:36 03.12.2019
3285 Clouds 15 1016 87 10000 0.7 129 17:36 03.12.2019
3286 Clouds 15 1016 82 10000 1.95 194 17:18 03.12.2019
3287 Clouds 15 1016 82 10000 1.95 194 16:56 03.12.2019
3288 Clouds 15 1016 77 10000 1.5 0 16:36 03.12.2019
3289 Clouds 16 1016 72 10000 1.95 194 16:18 03.12.2019
3290 Clouds 16 1016 68 10000 1.95 194 15:40 03.12.2019
3291 Clouds 17 1016 68 10000 1.5 0 15:20 03.12.2019
3292 Clouds 16 1016 68 10000 1.5 0 14:58 03.12.2019
3293 Clouds 17 1016 63 10000 1.5 0 14:40 03.12.2019
3294 Clouds 18 1016 63 10000 1.5 0 14:19 03.12.2019
3295 Clouds 18 1016 63 10000 2.4 177 13:39 03.12.2019
3296 Clouds 18 1016 63 10000 2.52 180 13:21 03.12.2019
3297 Clouds 18 1016 59 10000 2.52 180 12:59 03.12.2019
3298 Clouds 18 1016 59 10000 2.52 180 12:59 03.12.2019
3299 Clouds 18 1017 59 10000 2.52 180 12:38 03.12.2019
3300 Clouds 18 1017 63 10000 2.52 180 12:18 03.12.2019
3301 Clouds 18 1017 63 10000 2.52 180 11:58 03.12.2019
3302 Clouds 17 1017 59 10000 2.52 180 11:38 03.12.2019
3303 Clouds 17 1018 63 10000 0.56 161 11:20 03.12.2019
3304 Clouds 16 1018 63 10000 0.56 161 10:57 03.12.2019
3305 Clouds 16 1018 63 10000 0.56 161 10:38 03.12.2019
3306 Clouds 16 1018 63 10000 0.56 161 10:38 03.12.2019
3307 Clouds 16 1019 59 10000 0.56 161 10:19 03.12.2019
3308 Clear 16 1019 63 10000 0.56 161 09:45 03.12.2019
3309 Clear 16 1019 63 10000 0.56 161 09:25 03.12.2019
3310 Clear 15 1019 71 10000 0.56 161 08:59 03.12.2019
3311 Clear 15 1019 81 10000 0.56 161 08:39 03.12.2019
3312 Clear 12 1019 87 10000 0.88 323 08:21 03.12.2019
3313 Clear 11 1019 87 10000 0.88 323 07:53 03.12.2019
3314 Clear 10 1019 87 10000 0.88 323 07:29 03.12.2019
3315 Clear 10 1019 87 10000 0.88 323 07:29 03.12.2019
3316 Clear 9 1019 93 10000 0.88 323 06:58 03.12.2019
3317 Clear 10 1019 87 10000 0.88 323 06:21 03.12.2019
3318 Clear 10 1019 87 10000 0.88 323 05:55 03.12.2019
3319 Clear 9 1019 87 10000 0.97 216 03:45 03.12.2019
3320 Clear 9 1019 87 10000 0.97 216 03:23 03.12.2019
3321 Clear 9 1019 87 10000 0.97 216 02:57 03.12.2019
3322 Clear 9 1019 87 10000 0.97 216 02:39 03.12.2019
3323 Clouds 9 1019 87 10000 1.26 198 02:21 03.12.2019
3324 Clouds 9 1019 87 10000 1.26 198 01:40 03.12.2019
3325 Clouds 9 1019 81 10000 1.26 198 01:20 03.12.2019
3326 Clouds 10 1020 81 10000 1.32 197 00:43 03.12.2019
3327 Clouds 10 1020 81 10000 1.32 197 00:25 03.12.2019
3328 Clouds 10 1020 87 10000 1.32 197 23:44 02.12.2019
3329 Clouds 10 1020 87 10000 1.76 205 23:22 02.12.2019
3330 Clouds 10 1020 87 10000 1.76 205 22:59 02.12.2019
3331 Clouds 10 1020 81 10000 1.76 205 22:39 02.12.2019
3332 Clouds 10 1020 81 10000 1.76 205 22:21 02.12.2019
3333 Clouds 10 1020 87 10000 1.76 205 21:57 02.12.2019
3334 Clouds 10 1020 87 10000 1.76 205 21:36 02.12.2019
3335 Clouds 10 1020 81 10000 1.76 205 21:18 02.12.2019
3336 Clouds 10 1020 81 10000 1.76 205 20:55 02.12.2019
3337 Clouds 11 1020 81 10000 1.76 205 20:37 02.12.2019
3338 Clouds 11 1020 81 10000 1.76 205 20:37 02.12.2019
3339 Clouds 11 1020 81 10000 1.99 206 20:18 02.12.2019
3340 Clouds 11 1021 81 10000 1.99 206 19:42 02.12.2019
3341 Clouds 11 1021 76 10000 1.99 206 19:21 02.12.2019
3342 Clouds 11 1021 76 10000 1.99 206 18:57 02.12.2019
3343 Clouds 11 1021 76 10000 1.99 206 18:38 02.12.2019
3344 Clouds 11 1021 71 10000 1.99 206 18:18 02.12.2019
3345 Clouds 11 1021 71 10000 1.99 206 17:57 02.12.2019
3346 Clouds 12 1021 71 10000 1.99 206 17:38 02.12.2019
3347 Clouds 12 1021 71 10000 0.85 205 17:19 02.12.2019
3348 Clouds 13 1021 71 10000 0.85 205 16:40 02.12.2019
3349 Clouds 13 1021 66 10000 0.85 205 16:19 02.12.2019
3350 Clouds 13 1021 66 10000 0.85 205 15:58 02.12.2019
3351 Clouds 13 1021 62 10000 0.85 205 15:39 02.12.2019
3352 Clouds 13 1021 58 10000 0.85 205 15:21 02.12.2019
3353 Clouds 13 1021 58 10000 0.85 205 14:59 02.12.2019
3354 Clouds 13 1021 58 10000 0.85 205 14:59 02.12.2019
3355 Clouds 13 1022 54 10000 0.85 205 14:38 02.12.2019
3356 Clouds 14 1022 51 10000 0.55 280 14:20 02.12.2019
3357 Clouds 14 1022 51 10000 0.55 280 13:57 02.12.2019
3358 Clouds 14 1022 51 10000 0.55 238 13:39 02.12.2019
3359 Clouds 14 1022 51 10000 0.55 238 13:19 02.12.2019
3360 Clouds 14 1022 51 10000 0.55 238 12:55 02.12.2019
3361 Clouds 14 1022 48 10000 0.55 238 12:37 02.12.2019
3362 Clouds 14 1022 47 10000 0.55 238 12:18 02.12.2019
3363 Clouds 14 1023 44 10000 0.55 238 11:38 02.12.2019
3364 Clouds 14 1023 47 10000 1.37 342 11:20 02.12.2019
3365 Clouds 14 1023 47 10000 1.37 342 10:58 02.12.2019
3366 Clouds 13 1024 47 10000 1.37 342 10:40 02.12.2019
3367 Clouds 13 1024 47 10000 1.37 342 10:21 02.12.2019
3368 Clouds 13 1024 47 10000 1.37 342 09:56 02.12.2019
3369 Clouds 13 1025 54 10000 1.37 342 09:38 02.12.2019
3370 Clouds 13 1024 62 10000 1.37 342 09:18 02.12.2019
3371 Clouds 13 1024 62 10000 1.37 342 09:18 02.12.2019
3372 Clouds 12 1024 62 10000 1.37 342 08:55 02.12.2019
3373 Clouds 11 1024 66 10000 1.37 342 08:37 02.12.2019
3374 Clouds 10 1025 71 10000 2.86 5 08:18 02.12.2019
3375 Clouds 10 1024 81 10000 2.86 5 07:39 02.12.2019
3376 Clouds 10 1024 81 10000 2.86 5 07:20 02.12.2019
3377 Clouds 9 1025 65 10000 1 260 06:43 02.12.2019
3378 Clouds 9 1024 75 10000 2.86 5 06:20 02.12.2019
3379 Clouds 9 1024 87 10000 3.06 9 05:19 02.12.2019
3380 Clouds 9 1024 81 10000 3.06 9 04:19 02.12.2019
3381 Clouds 9 1025 66 10000 3.06 9 02:51 02.12.2019
3382 Clouds 9 1024 75 10000 3.06 9 02:51 02.12.2019
3383 Clouds 8 1025 66 10000 3.63 10 01:50 02.12.2019
3384 Clouds 8 1025 66 10000 3.55 9 01:21 02.12.2019
3385 Clouds 9 1025 70 10000 2.6 360 00:44 02.12.2019
3386 Clouds 9 1025 70 10000 2.6 360 00:23 02.12.2019
3387 Clouds 9 1025 61 10000 2.6 350 23:44 01.12.2019
3388 Clouds 9 1025 66 10000 3.1 340 23:23 01.12.2019
3389 Clouds 9 1025 66 10000 3.1 340 23:23 01.12.2019
3390 Clouds 9 1025 66 10000 3.1 340 22:58 01.12.2019
3391 Clouds 9 1025 61 10000 2.1 360 22:38 01.12.2019
3392 Clear 9 1025 61 10000 2.6 360 22:20 01.12.2019
3393 Clear 9 1025 61 10000 2.6 360 22:20 01.12.2019
3394 Clear 9 1025 61 10000 2.6 360 21:58 01.12.2019
3395 Clear 9 1025 57 10000 2.6 350 21:40 01.12.2019
3396 Clear 9 1025 65 10000 1 0 21:21 01.12.2019
3397 Clear 10 1025 65 10000 1 0 20:58 01.12.2019
3398 Clear 10 1024 61 10000 1.5 0 20:40 01.12.2019
3399 Clear 10 1024 61 10000 1.5 0 20:21 01.12.2019
3400 Clear 10 1022 61 10000 1.5 0 19:58 01.12.2019
3401 Clear 10 1024 61 10000 1.5 0 19:39 01.12.2019
3402 Clear 10 1024 61 10000 1.5 0 19:39 01.12.2019
3403 Clear 10 1024 57 10000 1.5 0 19:21 01.12.2019
3404 Clear 10 1024 57 10000 1.5 0 19:21 01.12.2019
3405 Clear 10 1024 57 10000 1.5 0 18:57 01.12.2019
3406 Clear 10 1023 53 10000 1.5 0 18:38 01.12.2019
3407 Clear 10 1023 53 10000 2.1 0 18:19 01.12.2019
3408 Clear 11 1023 53 10000 2.1 0 17:58 01.12.2019
3409 Clear 11 1023 50 10000 0.5 350 17:40 01.12.2019
3410 Clear 11 1023 50 10000 0.5 350 17:22 01.12.2019
3411 Clear 11 1022 45 10000 3.1 340 16:55 01.12.2019
3412 Clouds 12 1023 50 10000 4.1 360 16:37 01.12.2019
3413 Clear 12 1022 45 10000 2.1 0 16:19 01.12.2019
3414 Clear 13 1022 45 10000 2.6 360 15:46 01.12.2019
3415 Clear 13 1022 45 10000 2.6 360 15:27 01.12.2019
3416 Clear 13 1022 45 10000 2.6 360 15:27 01.12.2019
3417 Clear 14 1022 38 10000 5.7 0 14:42 01.12.2019
3418 Clear 14 1021 36 10000 3.6 0 14:20 01.12.2019
3419 Clear 14 1021 36 10000 3.6 0 13:56 01.12.2019
3420 Clouds 15 1021 38 10000 3.6 0 13:38 01.12.2019
3421 Clouds 15 1021 38 10000 4.6 350 13:19 01.12.2019
3422 Clouds 15 1021 41 10000 3.1 340 12:42 01.12.2019
3423 Clouds 15 1021 41 10000 5.1 340 11:57 01.12.2019
3424 Clouds 15 1021 41 10000 5.1 340 11:57 01.12.2019
3425 Clouds 15 1021 41 10000 5.1 340 11:57 01.12.2019
3426 Clouds 15 1021 41 10000 5.1 340 11:57 01.12.2019
3427 Clouds 15 1021 38 10000 4.6 350 11:37 01.12.2019
3428 Clouds 15 1021 41 10000 4.6 360 11:19 01.12.2019
3429 Clouds 15 1021 44 10000 5.7 340 10:43 01.12.2019
3430 Clouds 14 1021 44 10000 5.7 340 10:21 01.12.2019
3431 Clouds 14 1020 44 10000 5.7 350 09:55 01.12.2019
3432 Clouds 14 1020 47 10000 6.7 340 09:36 01.12.2019
3433 Clouds 14 1019 54 10000 6.2 360 09:18 01.12.2019
3434 Clouds 13 1019 58 10000 2.1 350 08:42 01.12.2019
3435 Clouds 13 1019 58 10000 4.6 350 08:19 01.12.2019
3436 Clouds 12 1018 62 10000 6.2 350 07:50 01.12.2019
3437 Clouds 12 1018 62 10000 6.2 350 07:29 01.12.2019
3438 Clouds 12 1018 62 10000 2.1 360 06:54 01.12.2019
3439 Clouds 12 1017 66 10000 2.6 340 06:21 01.12.2019
3440 Clouds 12 1017 62 10000 4.6 340 05:45 01.12.2019
3441 Clouds 13 1016 62 10000 3.6 0 04:30 01.12.2019
3442 Clouds 13 1016 62 10000 2.1 290 02:47 01.12.2019
3443 Clouds 13 1016 62 10000 2.1 290 02:28 01.12.2019
3444 Clouds 14 1016 62 10000 2.6 270 01:55 01.12.2019
3445 Clouds 14 1015 62 10000 3.6 310 01:37 01.12.2019
3446 Clouds 14 1015 62 10000 3.1 310 00:50 01.12.2019
3447 Clouds 14 1015 62 10000 3.6 310 00:28 01.12.2019
3448 Clouds 14 1015 59 10000 3.1 310 23:59 30.11.2019
3449 Clouds 15 1015 62 10000 2.1 310 23:40 30.11.2019
3450 Clouds 15 1015 63 10000 4.56 328 23:21 30.11.2019
3451 Clouds 15 1014 67 10000 4.56 328 22:49 30.11.2019
3452 Clouds 15 1014 67 10000 4.56 328 22:29 30.11.2019
3453 Clouds 16 1014 67 10000 2.1 340 21:56 30.11.2019
3454 Clouds 16 1014 67 10000 2.1 310 21:37 30.11.2019
3455 Clouds 16 1014 63 10000 2.1 290 21:19 30.11.2019
3456 Clouds 16 1014 63 10000 2.1 290 20:55 30.11.2019
3457 Clouds 16 1014 67 10000 2.1 300 20:36 30.11.2019
3458 Clouds 17 1014 67 10000 4.6 302 20:18 30.11.2019
3459 Clouds 17 1014 67 10000 4.6 302 19:54 30.11.2019
3460 Clouds 17 1013 59 10000 4.6 302 19:36 30.11.2019
3461 Clouds 17 1013 68 10000 4.6 302 19:18 30.11.2019
3462 Clouds 17 1013 68 10000 2.1 300 18:54 30.11.2019
3463 Clouds 17 1013 68 10000 2.1 300 18:36 30.11.2019
3464 Clouds 17 1013 68 10000 2.1 250 18:18 30.11.2019
3465 Clouds 17 1013 68 10000 2.1 250 17:55 30.11.2019
3466 Clouds 17 1012 68 10000 1.5 0 17:36 30.11.2019
3467 Clouds 18 1012 63 10000 2.6 350 17:18 30.11.2019
3468 Clouds 18 1012 68 10000 5.36 290 16:42 30.11.2019
3469 Clouds 18 1012 68 10000 5.36 290 16:22 30.11.2019
3470 Clouds 18 1012 59 10000 1.5 0 15:55 30.11.2019
3471 Clouds 19 1012 55 10000 1.5 0 15:37 30.11.2019
3472 Clouds 19 1012 49 10000 1 0 15:18 30.11.2019
3473 Clouds 19 1012 49 10000 1 0 14:55 30.11.2019
3474 Clouds 19 1012 43 10000 2.6 300 14:37 30.11.2019
3475 Clouds 19 1012 52 10000 5.3 278 14:18 30.11.2019
3476 Clouds 19 1012 60 10000 1.5 0 13:45 30.11.2019
3477 Clouds 19 1012 60 10000 1.5 0 13:45 30.11.2019
3478 Clouds 19 1012 60 10000 1.5 0 13:26 30.11.2019
3479 Clouds 20 1012 56 10000 2.1 150 12:59 30.11.2019
3480 Clouds 20 1012 56 10000 1.5 0 12:41 30.11.2019
3481 Clouds 20 1012 56 10000 2.6 190 12:22 30.11.2019
3482 Clouds 20 1013 59 10000 4.96 280 11:43 30.11.2019
3483 Clouds 19 1013 56 10000 1.5 0 11:20 30.11.2019
3484 Clouds 19 1013 56 10000 1.5 0 10:56 30.11.2019
3485 Clouds 19 1013 63 10000 5.45 272 10:37 30.11.2019
3486 Clouds 18 1013 63 10000 5.45 272 10:19 30.11.2019
3487 Clouds 18 1013 77 10000 5.45 272 09:46 30.11.2019
3488 Clouds 17 1013 77 10000 5.45 272 09:24 30.11.2019
3489 Clouds 17 1013 77 10000 1.5 0 08:44 30.11.2019
3490 Clouds 16 1013 72 10000 2.6 210 08:22 30.11.2019
3491 Clouds 16 1013 72 10000 2.6 210 07:58 30.11.2019
3492 Clouds 16 1013 72 10000 3.91 286 07:39 30.11.2019
3493 Clouds 16 1013 77 10000 1.5 0 06:59 30.11.2019
3494 Clouds 15 1013 82 10000 3.91 286 06:29 30.11.2019
3495 Clouds 16 1013 67 10000 1.5 0 05:52 30.11.2019
3496 Clouds 16 1013 82 10000 4.04 287 03:53 30.11.2019
3497 Clouds 16 1013 77 10000 4.04 287 02:47 30.11.2019
3498 Clouds 16 1013 77 10000 4.52 295 02:22 30.11.2019
3499 Clouds 16 1014 67 10000 2.6 270 01:38 30.11.2019
3500 Clouds 16 1013 63 10000 4.68 291 01:19 30.11.2019
3501 Clouds 16 1014 63 10000 4.68 291 00:36 30.11.2019
3502 Clouds 16 1014 59 10000 4.68 291 00:18 30.11.2019
3503 Clouds 16 1014 63 10000 4.68 291 23:43 29.11.2019
3504 Clouds 16 1014 63 10000 4.22 295 23:23 29.11.2019
3505 Clouds 16 1014 67 10000 1.5 0 22:47 29.11.2019
3506 Clouds 16 1014 67 10000 1.5 0 22:26 29.11.2019
3507 Clouds 16 1013 59 10000 1.5 0 21:45 29.11.2019
3508 Clouds 16 1013 59 10000 1.5 0 21:26 29.11.2019
3509 Clouds 16 1013 52 10000 4.22 295 20:59 29.11.2019
3510 Clouds 17 1013 52 10000 1.5 0 20:40 29.11.2019
3511 Clouds 17 1013 55 10000 5.07 291 20:21 29.11.2019
3512 Clouds 17 1013 55 10000 5.07 291 19:58 29.11.2019
3513 Clouds 17 1013 59 10000 5.07 291 19:40 29.11.2019
3514 Clouds 17 1013 59 10000 5.07 291 19:20 29.11.2019
3515 Clouds 17 1013 59 10000 5.07 291 18:58 29.11.2019
3516 Clouds 17 1013 55 10000 5.07 291 18:40 29.11.2019
3517 Clouds 18 1013 48 10000 5.07 291 18:21 29.11.2019
3518 Clouds 18 1013 48 10000 2.6 270 17:45 29.11.2019
3519 Clouds 18 1013 48 10000 2.6 270 17:27 29.11.2019
3520 Clouds 18 1012 42 10000 2.6 260 16:59 29.11.2019
3521 Clouds 18 1012 42 10000 2.6 260 16:59 29.11.2019
3522 Clouds 19 1013 52 10000 4.1 240 16:41 29.11.2019
3523 Clouds 19 1012 56 10000 4.1 230 16:19 29.11.2019
3524 Clouds 19 1011 56 10000 4.1 240 15:42 29.11.2019
3525 Clouds 19 1011 56 10000 4.1 240 15:24 29.11.2019
3526 Clouds 20 1011 56 10000 4.1 280 14:58 29.11.2019
3527 Clouds 20 1012 49 10000 4.1 230 14:40 29.11.2019
3528 Clouds 20 1011 52 10000 3.6 280 14:21 29.11.2019
3529 Clouds 20 1011 52 10000 3.6 280 13:55 29.11.2019
3530 Clouds 21 1011 49 10000 4.1 270 13:37 29.11.2019
3531 Clouds 21 1011 49 10000 4.1 270 13:19 29.11.2019
3532 Clouds 21 1011 46 10000 4.1 270 12:41 29.11.2019
3533 Clouds 21 1011 46 10000 4.1 270 12:23 29.11.2019
3534 Clouds 20 1012 49 10000 3.1 280 11:55 29.11.2019
3535 Clouds 21 1012 46 10000 4.1 240 11:55 29.11.2019
3536 Clouds 20 1012 49 10000 3.1 280 11:36 29.11.2019
3537 Clouds 20 1012 56 10000 3.1 280 11:18 29.11.2019
3538 Clouds 20 1012 56 10000 3.1 280 10:57 29.11.2019
3539 Clouds 20 1012 56 10000 4.1 270 10:38 29.11.2019
3540 Clouds 20 1012 56 10000 4.1 280 10:19 29.11.2019
3541 Clouds 20 1012 56 10000 4.1 280 09:56 29.11.2019
3542 Clouds 20 1012 60 10000 4.1 280 09:37 29.11.2019
3543 Clouds 19 1012 56 10000 4.1 270 09:19 29.11.2019
3544 Clouds 19 1011 59 10000 3.6 270 08:41 29.11.2019
3545 Clouds 18 1011 59 10000 3.6 270 08:23 29.11.2019
3546 Clouds 18 1011 59 10000 2.6 260 07:59 29.11.2019
3547 Clouds 18 1011 59 10000 1.6 273 07:40 29.11.2019
3548 Clouds 17 1011 59 10000 1.6 273 07:22 29.11.2019
3549 Clouds 17 1010 72 10000 1.6 273 06:46 29.11.2019
3550 Clouds 17 1010 72 10000 1.6 273 05:48 29.11.2019
3551 Clouds 17 1010 72 10000 1.6 273 05:26 29.11.2019
3552 Clouds 17 1010 77 10000 1.5 0 04:45 29.11.2019
3553 Clouds 17 1009 68 10000 2.1 220 03:23 29.11.2019
3554 Clouds 17 1010 77 10000 1.62 258 02:42 29.11.2019
3555 Clouds 17 1010 77 10000 4.02 239 02:20 29.11.2019
3556 Clouds 17 1010 82 10000 4.86 228 01:27 29.11.2019
3557 Clouds 16 1010 77 10000 4.86 228 00:51 29.11.2019
3558 Clouds 16 1010 82 10000 4.86 228 00:22 29.11.2019
3559 Clouds 16 1010 82 10000 4.86 228 23:57 28.11.2019
3560 Clouds 17 1011 77 10000 4.86 228 23:39 28.11.2019
3561 Clouds 17 1011 77 10000 2.13 251 23:20 28.11.2019
3562 Clouds 17 1011 77 10000 2.13 251 22:55 28.11.2019
3563 Clouds 17 1011 93 10000 2.13 251 22:36 28.11.2019
3564 Clouds 17 1012 87 10000 2.13 251 22:18 28.11.2019
3565 Clouds 17 1012 87 10000 2.13 251 21:42 28.11.2019
3566 Clouds 17 1012 87 10000 2.13 251 21:21 28.11.2019
3567 Clouds 17 1012 87 10000 2.13 251 21:21 28.11.2019
3568 Clouds 17 1012 87 10000 2.13 251 20:58 28.11.2019
3569 Clouds 17 1012 87 10000 2.13 251 20:40 28.11.2019
3570 Clouds 17 1012 87 10000 2.03 229 20:21 28.11.2019
3571 Clouds 17 1012 87 10000 2.03 229 20:21 28.11.2019
3572 Clouds 17 1012 87 10000 2.03 229 19:57 28.11.2019
3573 -273 0 0 0 0 0 19:38 28.11.2019
3574 Clouds 17 1012 82 10000 2.03 229 19:19 28.11.2019
3575 Clouds 17 1012 82 10000 2.03 229 18:57 28.11.2019
3576 Clouds 18 1012 82 10000 2.03 229 18:39 28.11.2019
3577 Clouds 18 1012 77 10000 2.03 229 18:18 28.11.2019
3578 Clouds 18 1012 77 10000 2.03 229 17:56 28.11.2019
3579 Clouds 18 1012 77 10000 2.03 229 17:38 28.11.2019
3580 Clouds 18 1012 72 10000 1.92 198 17:20 28.11.2019
3581 Clouds 18 1012 77 10000 1.92 198 16:40 28.11.2019
3582 Clouds 18 1012 77 10000 1.92 198 16:19 28.11.2019
3583 Clouds 18 1012 77 10000 1.92 198 15:58 28.11.2019
3584 Clouds 18 1012 72 10000 1.92 198 15:39 28.11.2019
3585 Clouds 19 1012 68 10000 1.92 198 15:19 28.11.2019
3586 Clouds 19 1012 68 10000 1.92 198 14:58 28.11.2019
3587 Clouds 19 1012 64 10000 1 0 14:39 28.11.2019
3588 Clouds 20 1012 64 10000 1.72 193 14:19 28.11.2019
3589 Clouds 20 1013 56 10000 1 0 13:42 28.11.2019
3590 Clouds 20 1013 56 10000 1 0 13:23 28.11.2019
3591 Clouds 20 1013 56 10000 1.5 0 12:56 28.11.2019
3592 Clouds 20 1013 64 10000 2.1 160 12:38 28.11.2019
3593 Clouds 20 1013 60 10000 1 0 12:20 28.11.2019
3594 Clouds 20 1013 60 10000 1 0 11:55 28.11.2019
3595 Clouds 20 1013 64 10000 1 0 11:55 28.11.2019
3596 Clouds 20 1013 64 10000 1 0 11:37 28.11.2019
3597 Clouds 19 1014 68 10000 2.1 229 11:18 28.11.2019
3598 Clouds 19 1015 68 10000 2.1 229 10:42 28.11.2019
3599 Clouds 19 1015 63 10000 2.1 229 10:21 28.11.2019
3600 Clouds 19 1015 63 10000 2.1 229 09:56 28.11.2019
3601 -273 0 0 0 0 0 09:38 28.11.2019
3602 Clouds 17 1014 77 10000 2.1 229 09:19 28.11.2019
3603 Clouds 17 1014 77 10000 2.1 229 08:41 28.11.2019
3604 Clouds 15 1015 87 10000 1.62 307 08:22 28.11.2019
3605 Clouds 14 1015 87 10000 1.62 307 07:56 28.11.2019
3606 Clouds 14 1014 87 10000 1.62 307 07:38 28.11.2019
3607 Clouds 13 1014 93 10000 1.62 307 07:18 28.11.2019
3608 Clouds 12 1014 93 10000 1.62 307 06:40 28.11.2019
3609 Clouds 12 1014 93 10000 1.62 307 05:56 28.11.2019
3610 Clouds 12 1013 93 10000 1.62 307 05:38 28.11.2019
3611 Clouds 12 1014 93 10000 2.2 311 04:51 28.11.2019
3612 Clouds 12 1014 87 10000 2.2 311 02:32 28.11.2019
3613 Clouds 12 1014 93 10000 2.23 302 01:25 28.11.2019
3614 Clouds 13 1014 87 10000 2.23 302 00:39 28.11.2019
3615 Clouds 13 1014 87 10000 2.23 302 00:18 28.11.2019
3616 Clouds 13 1014 87 10000 2.23 302 23:39 27.11.2019
3617 Clouds 13 1014 87 10000 1.59 285 23:21 27.11.2019
3618 Clouds 13 1014 87 10000 1.59 285 22:56 27.11.2019
3619 Clouds 13 1014 87 10000 1.59 285 22:38 27.11.2019
3620 Clouds 13 1014 87 10000 1.59 285 22:19 27.11.2019
3621 Clouds 13 1014 87 10000 1.59 285 21:56 27.11.2019
3622 Clouds 13 1014 87 10000 1.59 285 21:56 27.11.2019
3623 Clouds 13 1014 87 10000 1.59 285 21:37 27.11.2019
3624 Clouds 13 1014 87 10000 1.59 285 21:18 27.11.2019
3625 Clouds 14 1014 87 10000 1.59 285 20:57 27.11.2019
3626 Clouds 14 1013 87 10000 1.59 285 20:37 27.11.2019
3627 Clouds 14 1013 82 10000 1.31 208 20:19 27.11.2019
3628 Clouds 14 1013 82 10000 1.31 208 19:55 27.11.2019
3629 Clouds 14 1013 76 10000 1.31 208 19:37 27.11.2019
3630 Clouds 14 1013 82 10000 1.31 208 19:18 27.11.2019
3631 Clouds 14 1013 82 10000 1.31 208 18:55 27.11.2019
3632 Clouds 14 1013 76 10000 1.31 208 18:36 27.11.2019
3633 Clouds 15 1013 82 10000 1.31 208 18:18 27.11.2019
3634 Clouds 15 1013 82 10000 1.31 208 17:55 27.11.2019
3635 Rain 15 1013 77 10000 1.31 208 17:36 27.11.2019
3636 Rain 15 1013 77 10000 2.13 179 17:18 27.11.2019
3637 Rain 16 1013 77 10000 2.13 179 16:55 27.11.2019
3638 Clouds 16 1012 72 10000 2.13 179 16:36 27.11.2019
3639 Clouds 16 1012 63 10000 2.13 179 16:18 27.11.2019
3640 Clouds 17 1012 63 10000 2.13 179 15:55 27.11.2019
3641 Clouds 17 1012 63 10000 2.13 179 15:37 27.11.2019
3642 Clouds 18 1012 59 10000 1.5 0 15:18 27.11.2019
3643 Clouds 18 1012 55 10000 1.5 0 14:41 27.11.2019
3644 Clouds 18 1012 55 10000 1.5 0 14:23 27.11.2019
3645 Clouds 18 1011 59 10000 1.5 0 13:59 27.11.2019
3646 Clouds 18 1012 52 10000 1.5 0 13:40 27.11.2019
3647 Clouds 18 1012 52 10000 1.5 0 13:19 27.11.2019
3648 Clouds 18 1012 52 10000 1.5 0 13:19 27.11.2019
3649 Clouds 18 1012 55 10000 1.5 0 12:59 27.11.2019
3650 Clouds 18 1012 55 10000 1.5 0 12:40 27.11.2019
3651 Clouds 18 1012 59 10000 1.5 0 12:20 27.11.2019
3652 Clouds 18 1012 59 10000 2.42 193 11:54 27.11.2019
3653 Clouds 18 1012 59 10000 2.42 193 11:36 27.11.2019
3654 Clouds 18 1013 59 10000 0.23 10 11:18 27.11.2019
3655 Clouds 17 1013 63 10000 0.23 10 10:42 27.11.2019
3656 Clouds 17 1013 63 10000 0.23 10 10:23 27.11.2019
3657 Clouds 17 1013 67 10000 0.23 10 09:48 27.11.2019
3658 Clouds 16 1013 67 10000 0.23 10 09:26 27.11.2019
3659 Clouds 16 1013 72 10000 0.23 10 08:59 27.11.2019
3660 Clouds 15 1012 67 10000 0.23 10 08:41 27.11.2019
3661 Clouds 14 1012 67 10000 2.37 11 08:22 27.11.2019
3662 Clouds 13 1012 82 10000 2.37 11 07:47 27.11.2019
3663 Clouds 13 1011 76 10000 2.37 11 07:28 27.11.2019
3664 Clouds 12 1011 76 10000 2.37 11 06:49 27.11.2019
3665 Clouds 12 1011 76 10000 2.37 11 06:30 27.11.2019
3666 Clouds 12 1010 71 10000 2.37 11 05:45 27.11.2019
3667 Clouds 12 1010 76 10000 3.15 357 05:19 27.11.2019
3668 Clouds 12 1010 81 10000 3.15 357 04:43 27.11.2019
3669 Rain 12 1010 71 10000 3.15 357 03:55 27.11.2019
3670 Clouds 12 1010 71 10000 1.5 0 03:36 27.11.2019
3671 Clouds 12 1010 76 10000 2.6 320 03:18 27.11.2019
3672 Clouds 12 1010 71 10000 3.96 344 01:48 27.11.2019
3673 Clouds 12 1009 71 10000 3.67 352 00:46 27.11.2019
3674 Clouds 13 1009 76 10000 1.5 0 00:27 27.11.2019
3675 Clouds 12 1009 76 10000 2.6 350 23:54 26.11.2019
3676 Clouds 12 1009 76 10000 2.6 350 23:54 26.11.2019
3677 Clouds 12 1009 76 10000 2.6 350 23:36 26.11.2019
3678 Clouds 13 1009 76 10000 1.5 0 23:18 26.11.2019
3679 Clouds 13 1009 71 10000 1.5 0 22:39 26.11.2019
3680 Clouds 13 1009 76 10000 2.6 310 22:19 26.11.2019
3681 Clouds 13 1009 76 10000 2.6 310 22:19 26.11.2019
3682 Clouds 13 1009 76 10000 2.6 310 21:59 26.11.2019
3683 Clouds 13 1009 76 10000 2.6 320 21:38 26.11.2019
3684 Clouds 13 1009 76 10000 1.5 0 21:20 26.11.2019
3685 Clouds 13 1009 76 10000 1.5 0 20:57 26.11.2019
3686 Clouds 13 1009 76 10000 1.5 0 20:57 26.11.2019
3687 Clouds 13 1009 76 10000 1.5 0 20:57 26.11.2019
3688 Clouds 14 1008 82 10000 1 0 20:37 26.11.2019
3689 Clouds 14 1008 82 10000 1 0 20:37 26.11.2019
3690 Clouds 14 1008 82 10000 1 0 20:37 26.11.2019
3691 Clouds 14 1008 77 10000 1 0 20:19 26.11.2019
3692 Clouds 14 1008 82 10000 1.5 0 19:55 26.11.2019
3693 Clouds 14 1008 82 10000 1.5 0 19:37 26.11.2019
3694 Clouds 14 1008 82 10000 1.5 0 19:37 26.11.2019
3695 Clouds 14 1008 77 10000 1.5 0 19:19 26.11.2019
3696 Clouds 14 1007 77 10000 1.5 0 18:57 26.11.2019
3697 Clouds 14 1007 77 10000 1.5 0 18:38 26.11.2019
3698 Clouds 15 1007 72 10000 3.1 340 18:20 26.11.2019
3699 Clouds 15 1007 72 10000 3.1 340 17:57 26.11.2019
3700 Clouds 15 1007 82 10000 4.8 350 17:38 26.11.2019
3701 Clouds 15 1006 82 10000 4.16 12 17:20 26.11.2019
3702 Clouds 15 1008 77 10000 3.6 30 16:56 26.11.2019
3703 Clouds 15 1008 77 10000 3.6 30 16:37 26.11.2019
3704 Clouds 15 1006 100 10000 4.16 12 16:18 26.11.2019
3705 Clouds 15 1006 100 10000 4.16 12 15:57 26.11.2019
3706 Rain 16 1006 100 8000 4.16 12 15:37 26.11.2019
3707 Rain 16 1005 93 8000 4.16 12 15:19 26.11.2019
3708 Rain 16 1005 93 7000 4.16 12 14:46 26.11.2019
3709 Rain 16 1005 93 7000 4.16 12 14:25 26.11.2019
3710 Rain 16 1005 87 8000 3.1 90 13:56 26.11.2019
3711 Rain 17 1005 72 10000 2.6 90 13:37 26.11.2019
3712 Rain 17 1005 72 10000 3.1 90 13:18 26.11.2019
3713 Rain 17 1005 63 10000 0.9 351 12:38 26.11.2019
3714 Rain 17 1006 67 10000 3.6 50 12:19 26.11.2019
3715 Clouds 17 1005 59 10000 1.5 0 11:56 26.11.2019
3716 Clouds 17 1005 59 10000 1.5 0 11:38 26.11.2019
3717 Clouds 18 1005 59 10000 1.91 20 11:19 26.11.2019
3718 Clouds 18 1005 59 10000 1.91 20 10:57 26.11.2019
3719 Clouds 17 1005 59 10000 1.91 20 10:39 26.11.2019
3720 Clouds 17 1007 72 10000 3.6 30 10:20 26.11.2019
3721 Clouds 17 1007 72 10000 3.6 30 09:55 26.11.2019
3722 Clouds 17 1007 72 10000 2.6 50 09:37 26.11.2019
3723 Clouds 16 1005 72 10000 1.91 20 09:18 26.11.2019
3724 Clouds 16 1005 72 10000 1.91 20 08:42 26.11.2019
3725 Clouds 15 1005 76 10000 3.06 12 08:22 26.11.2019
3726 Clouds 13 1005 87 10000 2.79 11 07:44 26.11.2019
3727 Clouds 13 1004 87 10000 2.79 11 07:25 26.11.2019
3728 Clouds 12 1004 93 10000 2.79 11 06:54 26.11.2019
3729 Clouds 12 1004 87 10000 1 0 06:22 26.11.2019
3730 Clouds 12 1004 87 10000 2.79 11 05:39 26.11.2019
3731 Clouds 13 1003 87 10000 2.68 354 03:58 26.11.2019
3732 Clouds 13 1003 87 10000 1 0 02:24 26.11.2019
3733 Clouds 13 1004 87 10000 2.1 345 01:32 26.11.2019
3734 Clouds 13 1003 87 10000 2.1 345 00:50 26.11.2019
3735 Clouds 13 1003 87 10000 2.1 345 00:25 26.11.2019
3736 Clouds 14 1004 87 10000 2.1 345 23:40 25.11.2019
3737 Clouds 14 1004 87 10000 2.21 334 23:20 25.11.2019
3738 Clouds 14 1004 87 10000 2.21 334 22:58 25.11.2019
3739 Clouds 14 1004 87 10000 2.21 334 22:38 25.11.2019
3740 Clouds 14 1004 93 10000 2.21 334 22:18 25.11.2019
3741 Clouds 14 1004 93 10000 2.21 334 21:58 25.11.2019
3742 Clouds 14 1004 93 10000 2.21 334 21:39 25.11.2019
3743 Clouds 14 1004 87 10000 2.21 334 21:20 25.11.2019
3744 Clouds 14 1004 87 10000 2.21 334 20:56 25.11.2019
3745 Clouds 14 1004 87 10000 2.21 334 20:38 25.11.2019
3746 Clouds 14 1004 87 10000 1.95 276 20:19 25.11.2019
3747 Clouds 14 1004 87 10000 1.95 276 19:56 25.11.2019
3748 Clouds 14 1004 87 10000 1.95 276 19:56 25.11.2019
3749 Clouds 14 1004 93 10000 1.95 276 19:37 25.11.2019
3750 Clouds 14 1004 87 10000 1.95 276 19:18 25.11.2019
3751 Clouds 14 1004 87 10000 1.95 276 18:56 25.11.2019
3752 Clouds 14 1004 87 10000 1.5 0 18:38 25.11.2019
3753 Clouds 14 1004 87 10000 1.5 0 18:38 25.11.2019
3754 Clouds 14 1003 93 10000 1.95 276 18:19 25.11.2019
3755 Clouds 14 1003 87 10000 1.95 276 17:56 25.11.2019
3756 Clouds 15 1003 87 10000 1.95 276 17:37 25.11.2019
3757 Clouds 15 1003 82 10000 0.91 229 17:19 25.11.2019
3758 Clouds 16 1003 72 10000 0.91 229 16:55 25.11.2019
3759 Clouds 16 1003 72 10000 0.91 229 16:37 25.11.2019
3760 Clouds 16 1003 72 10000 0.91 229 16:18 25.11.2019
3761 Clouds 16 1003 72 10000 0.91 229 15:41 25.11.2019
3762 Clouds 17 1004 67 10000 4.1 210 15:21 25.11.2019
3763 Clouds 17 1004 67 10000 4.1 210 15:21 25.11.2019
3764 Clouds 17 1004 67 10000 4.1 210 14:58 25.11.2019
3765 Clouds 17 1003 68 10000 0.91 229 14:40 25.11.2019
3766 Clouds 18 1003 59 10000 2.45 230 14:21 25.11.2019
3767 Clouds 18 1003 59 10000 2.45 230 13:54 25.11.2019
3768 Clouds 18 1003 63 10000 2.62 278 13:36 25.11.2019
3769 Clouds 18 1003 68 10000 2.62 278 13:18 25.11.2019
3770 Clouds 18 1003 68 10000 2.62 278 13:18 25.11.2019
3771 Clouds 18 1003 63 10000 2.62 278 12:41 25.11.2019
3772 Clouds 18 1003 68 10000 2.62 278 12:22 25.11.2019
3773 Clouds 18 1003 68 10000 2.62 278 12:22 25.11.2019
3774 Clouds 17 1003 68 10000 2.62 278 11:59 25.11.2019
3775 Clouds 17 1003 68 10000 2.62 278 11:39 25.11.2019
3776 Clouds 17 1003 68 10000 2.78 285 11:20 25.11.2019
3777 Clouds 16 1004 68 10000 2.78 285 10:46 25.11.2019
3778 Clouds 16 1004 68 10000 2.78 285 10:28 25.11.2019
3779 Clouds 15 1004 67 10000 2.78 285 09:59 25.11.2019
3780 Clouds 15 1004 77 10000 2.78 285 09:41 25.11.2019
3781 Clouds 14 1004 82 10000 2.78 285 09:23 25.11.2019
3782 Clouds 14 1004 93 10000 2.78 285 08:41 25.11.2019
3783 Clouds 13 1004 93 10000 2.31 4 08:22 25.11.2019
3784 Rain 13 1005 100 10000 3.05 71 07:45 25.11.2019
3785 Rain 13 1005 100 10000 3.05 71 07:25 25.11.2019
3786 Rain 13 1005 100 10000 3.05 71 07:25 25.11.2019
3787 Rain 12 1004 100 10000 3.1 340 06:51 25.11.2019
3788 Rain 12 1004 100 10000 2.6 240 06:22 25.11.2019
3789 Rain 12 1004 100 9000 2.6 100 05:50 25.11.2019
3790 Rain 12 1004 100 9000 2.6 100 05:29 25.11.2019
3791 Rain 15 1003 82 6000 4.1 90 03:49 25.11.2019
3792 Rain 16 1005 82 10000 5.1 80 02:35 25.11.2019
3793 Clouds 16 1006 77 10000 4.6 70 01:43 25.11.2019
3794 Clouds 16 1007 77 10000 2.6 70 01:24 25.11.2019
3795 Rain 16 1008 87 10000 1.5 0 00:39 25.11.2019
3796 Rain 15 1008 93 10000 1.5 0 00:18 25.11.2019
3797 Rain 15 1010 100 6000 4.6 40 23:44 24.11.2019
3798 Rain 15 1010 93 8000 5.37 103 23:20 24.11.2019
3799 Rain 15 1010 93 8000 5.37 103 22:57 24.11.2019
3800 Rain 15 1010 87 9000 1.5 0 22:39 24.11.2019
3801 Rain 15 1011 87 9000 2.6 90 22:19 24.11.2019
3802 Rain 15 1011 87 9000 2.6 90 21:57 24.11.2019
3803 Rain 16 1011 87 9000 2.6 60 21:38 24.11.2019
3804 Rain 16 1011 82 9000 2.6 80 21:20 24.11.2019
3805 Rain 16 1011 82 9000 2.6 80 20:56 24.11.2019
3806 Rain 16 1011 77 9000 1.5 0 20:37 24.11.2019
3807 Rain 16 1012 77 10000 4.12 74 20:18 24.11.2019
3808 Clouds 16 1012 77 10000 4.12 74 19:56 24.11.2019
3809 Clouds 16 1012 77 10000 4.12 74 19:56 24.11.2019
3810 Clouds 16 1012 72 10000 1.5 0 19:38 24.11.2019
3811 Clouds 16 1012 72 10000 1.5 0 19:19 24.11.2019
3812 Clouds 16 1012 72 10000 1.5 0 18:56 24.11.2019
3813 Clouds 16 1012 72 10000 1.5 0 18:36 24.11.2019
3814 Clouds 16 1012 72 10000 1 0 18:18 24.11.2019
3815 Clouds 16 1012 72 10000 2.6 70 17:55 24.11.2019
3816 Clouds 16 1012 72 10000 2.6 70 17:37 24.11.2019
3817 Clouds 16 1012 72 10000 2.6 70 17:37 24.11.2019
3818 Clouds 16 1013 72 10000 1.5 0 17:18 24.11.2019
3819 Clouds 16 1013 72 10000 1.5 0 17:18 24.11.2019
3820 Clouds 16 1013 72 10000 1.5 0 16:54 24.11.2019
3821 Clouds 16 1013 72 10000 1.5 0 16:36 24.11.2019
3822 Clouds 16 1013 72 10000 2.1 70 16:18 24.11.2019
3823 Clouds 17 1013 68 10000 2.6 80 15:42 24.11.2019
3824 Clouds 17 1013 68 10000 2.6 80 15:24 24.11.2019
3825 Clouds 17 1015 72 10000 2.6 100 14:57 24.11.2019
3826 Clouds 17 1014 68 10000 2.6 80 14:38 24.11.2019
3827 Clouds 17 1014 68 10000 2.6 80 14:38 24.11.2019
3828 Clouds 17 1014 68 10000 3.1 80 14:18 24.11.2019
3829 Clouds 18 1014 63 10000 3.6 80 13:40 24.11.2019
3830 Clouds 18 1015 63 10000 2.6 80 13:22 24.11.2019
3831 Clouds 17 1015 63 10000 2.6 80 12:59 24.11.2019
3832 Clouds 18 1015 63 10000 3.1 80 12:39 24.11.2019
3833 Clouds 18 1016 68 10000 2.1 80 12:18 24.11.2019
3834 Clouds 17 1016 68 10000 1.5 0 11:56 24.11.2019
3835 Clouds 17 1016 68 10000 1.5 0 11:36 24.11.2019
3836 Clouds 17 1016 72 10000 2.6 70 11:18 24.11.2019
3837 Clouds 17 1017 68 10000 3.1 80 10:46 24.11.2019
3838 Clouds 17 1017 68 10000 3.1 80 10:28 24.11.2019
3839 Clouds 17 1017 68 10000 3.1 80 10:28 24.11.2019
3840 Clouds 17 1017 68 10000 1.5 0 09:55 24.11.2019
3841 Clouds 16 1017 72 10000 3.31 100 09:37 24.11.2019
3842 Clouds 16 1017 77 10000 1 0 09:18 24.11.2019
3843 Clouds 16 1017 77 10000 3.31 100 08:44 24.11.2019
3844 Clouds 15 1017 77 10000 1 0 08:22 24.11.2019
3845 Clouds 15 1017 77 10000 1 0 07:57 24.11.2019
3846 Clouds 15 1017 77 10000 1 0 07:57 24.11.2019
3847 Clouds 14 1017 87 10000 2.09 41 07:37 24.11.2019
3848 Clouds 14 1016 93 10000 1.5 0 07:18 24.11.2019
3849 Clouds 13 1016 87 10000 2.09 41 06:19 24.11.2019
3850 Clouds 13 1016 87 10000 2.09 41 06:19 24.11.2019
3851 Clouds 13 1016 93 10000 2.1 330 04:48 24.11.2019
3852 Clouds 13 1017 87 10000 2.11 41 03:33 24.11.2019
3853 Clouds 13 1017 87 10000 2.21 44 02:22 24.11.2019
3854 Clouds 13 1017 87 10000 2.21 44 01:40 24.11.2019
3855 Clouds 13 1017 87 10000 2.1 340 01:21 24.11.2019
3856 Rain 13 1017 87 10000 2.24 46 00:47 24.11.2019
3857 Rain 13 1017 87 10000 2.1 310 00:24 24.11.2019
3858 Rain 13 1018 82 10000 2.1 330 23:46 23.11.2019
3859 Rain 13 1018 82 10000 2.24 61 23:23 23.11.2019
3860 Rain 13 1018 82 10000 2.24 61 22:59 23.11.2019
3861 Clouds 13 1018 82 10000 2.1 330 22:40 23.11.2019
3862 Clouds 14 1018 82 10000 2.6 330 22:22 23.11.2019
3863 Clouds 14 1018 82 10000 2.6 330 21:59 23.11.2019
3864 Clouds 14 1018 82 10000 2.24 61 21:41 23.11.2019
3865 Clouds 14 1018 82 10000 2.24 61 21:22 23.11.2019
3866 Clouds 14 1017 82 10000 2.24 61 20:57 23.11.2019
3867 Clouds 14 1017 82 10000 2.1 330 20:36 23.11.2019
3868 Clouds 14 1017 82 10000 2.1 320 20:18 23.11.2019
3869 Clouds 14 1017 82 10000 2.1 320 19:55 23.11.2019
3870 Clouds 14 1017 82 10000 2.1 340 19:36 23.11.2019
3871 Clouds 14 1017 82 10000 2.1 340 19:36 23.11.2019
3872 Clouds 15 1017 87 10000 1.28 79 19:18 23.11.2019
3873 Clouds 15 1017 82 10000 1.28 79 18:40 23.11.2019
3874 Clouds 15 1017 82 10000 1.28 79 18:21 23.11.2019
3875 Clouds 15 1016 82 10000 1.28 79 17:55 23.11.2019
3876 Clouds 15 1016 82 10000 1.28 79 17:37 23.11.2019
3877 Clouds 15 1016 87 10000 1.49 188 17:19 23.11.2019
3878 Clouds 16 1016 77 10000 1.49 188 16:55 23.11.2019
3879 Clouds 16 1016 77 10000 1.49 188 16:37 23.11.2019
3880 Clouds 17 1016 68 10000 1.49 188 16:18 23.11.2019
3881 Clouds 17 1016 68 10000 1.49 188 15:56 23.11.2019
3882 Clouds 17 1016 59 10000 1.49 188 15:38 23.11.2019
3883 Clouds 18 1017 59 10000 2.6 80 15:18 23.11.2019
3884 Clouds 18 1016 56 10000 2.6 190 14:43 23.11.2019
3885 Clouds 19 1016 52 10000 1.99 179 14:21 23.11.2019
3886 Clouds 18 1016 52 10000 1.99 179 13:59 23.11.2019
3887 Clouds 19 1016 52 10000 2.1 160 13:40 23.11.2019
3888 Clouds 19 1016 45 10000 2.1 180 13:19 23.11.2019
3889 Clouds 19 1016 42 10000 1.92 174 12:44 23.11.2019
3890 Clouds 19 1017 45 10000 1.92 174 12:24 23.11.2019
3891 Clouds 19 1017 45 10000 1.92 174 11:56 23.11.2019
3892 Clouds 19 1017 49 10000 1.92 174 11:38 23.11.2019
3893 Clouds 18 1017 49 10000 1.81 64 11:18 23.11.2019
3894 Clouds 18 1017 49 10000 1.81 64 11:18 23.11.2019
3895 Clouds 18 1017 55 10000 1.81 64 10:43 23.11.2019
3896 Clouds 18 1018 52 10000 1.81 64 10:20 23.11.2019
3897 Clouds 17 1018 55 10000 1.81 64 09:41 23.11.2019
3898 Clouds 17 1018 59 10000 1.81 64 09:19 23.11.2019
3899 Clouds 16 1018 67 10000 1.81 64 08:42 23.11.2019
3900 Clouds 14 1018 71 10000 1.77 4 08:19 23.11.2019
3901 Clouds 13 1017 87 10000 1.77 4 07:52 23.11.2019
3902 Clouds 12 1017 87 10000 1.77 4 07:34 23.11.2019
3903 Clouds 12 1017 81 10000 1.77 4 06:43 23.11.2019
3904 Clouds 12 1017 81 10000 2.1 340 06:19 23.11.2019
3905 Clouds 12 1017 87 10000 1.77 4 05:46 23.11.2019
3906 Clouds 12 1017 87 10000 2.41 340 05:27 23.11.2019
3907 Clouds 12 1016 87 10000 2.41 340 04:44 23.11.2019
3908 Clouds 12 1016 87 10000 2.41 340 04:26 23.11.2019
3909 Clouds 12 1016 81 10000 2.41 340 02:39 23.11.2019
3910 Rain 12 1016 81 10000 2.59 318 01:42 23.11.2019
3911 Clouds 13 1016 71 10000 1.72 355 00:57 23.11.2019
3912 Clouds 13 1016 71 10000 1.72 355 00:57 23.11.2019
3913 Clouds 13 1016 71 10000 1.72 355 00:38 23.11.2019
3914 Clouds 13 1016 76 10000 1.72 355 00:18 23.11.2019
3915 Clouds 13 1016 81 10000 1.72 355 23:39 22.11.2019
3916 Clouds 13 1016 76 10000 2.13 339 23:20 22.11.2019
3917 Clouds 13 1016 81 10000 2.13 339 22:57 22.11.2019
3918 Clouds 13 1016 81 10000 2.13 339 22:38 22.11.2019
3919 Clouds 13 1016 81 10000 2.13 339 22:38 22.11.2019
3920 Clouds 13 1016 81 10000 2.13 339 22:20 22.11.2019
3921 Clouds 14 1016 81 10000 2.13 339 21:58 22.11.2019
3922 Clouds 14 1016 76 10000 2.13 339 21:39 22.11.2019
3923 Clouds 14 1016 76 10000 2.13 339 21:19 22.11.2019
3924 Clouds 14 1015 71 10000 2.13 339 20:43 22.11.2019
3925 Clouds 14 1015 76 10000 2.61 335 20:22 22.11.2019
3926 Clouds 15 1015 76 10000 2.61 335 19:55 22.11.2019
3927 Clouds 15 1015 76 10000 2.61 335 19:37 22.11.2019
3928 Clouds 15 1015 76 10000 2.61 335 19:18 22.11.2019
3929 Clouds 15 1014 72 10000 2.61 335 18:39 22.11.2019
3930 Clouds 15 1014 63 10000 2.61 335 18:21 22.11.2019
3931 Clouds 15 1014 63 10000 2.61 335 18:21 22.11.2019
3932 Clouds 16 1014 63 10000 2.61 335 17:56 22.11.2019
3933 Clouds 16 1014 63 10000 2.61 335 17:56 22.11.2019
3934 Clouds 16 1014 63 10000 2.1 310 17:38 22.11.2019
3935 Clouds 16 1014 55 10000 2.1 300 17:20 22.11.2019
3936 Clouds 17 1013 52 10000 2.1 280 16:41 22.11.2019
3937 Clouds 17 1013 48 10000 2.6 280 16:23 22.11.2019
3938 Clouds 18 1013 45 10000 3.1 280 15:44 22.11.2019
3939 Clouds 19 1013 45 10000 3.1 280 15:24 22.11.2019
3940 Clouds 19 1013 45 10000 4.1 280 14:56 22.11.2019
3941 Clouds 19 1013 45 10000 3.6 290 14:38 22.11.2019
3942 Clouds 19 1013 49 10000 2.6 290 14:19 22.11.2019
3943 Clouds 19 1013 49 10000 2.6 290 13:57 22.11.2019
3944 Clouds 19 1013 46 10000 2.1 250 13:37 22.11.2019
3945 Clouds 19 1013 46 10000 2.1 300 13:18 22.11.2019
3946 Clouds 19 1013 46 10000 2.1 300 12:55 22.11.2019
3947 Clouds 19 1013 46 10000 2.6 300 12:36 22.11.2019
3948 Clouds 19 1013 52 10000 3.1 290 12:18 22.11.2019
3949 Clouds 19 1013 52 10000 3.1 300 11:40 22.11.2019
3950 Clouds 19 1013 52 10000 3.97 294 11:22 22.11.2019
3951 Clouds 19 1013 52 10000 3.97 294 10:59 22.11.2019
3952 Clouds 18 1014 63 10000 2.6 150 10:40 22.11.2019
3953 Clouds 18 1014 63 10000 2.6 150 10:40 22.11.2019
3954 Clouds 18 1014 63 10000 3.97 294 10:21 22.11.2019
3955 Clouds 18 1014 63 10000 3.97 294 09:55 22.11.2019
3956 Clouds 17 1014 72 10000 3.97 294 09:37 22.11.2019
3957 Clouds 17 1014 77 10000 3.97 294 09:18 22.11.2019
3958 Clouds 17 1014 87 10000 3.97 294 08:45 22.11.2019
3959 Rain 16 1014 87 10000 4.79 288 08:26 22.11.2019
3960 Rain 14 1013 93 10000 1.42 302 07:45 22.11.2019
3961 Clouds 14 1013 93 10000 1.42 302 07:23 22.11.2019
3962 Clouds 14 1013 93 10000 1.42 302 06:49 22.11.2019
3963 Clouds 14 1013 93 10000 1.42 302 06:30 22.11.2019
3964 Clouds 14 1012 93 10000 1.42 302 05:49 22.11.2019
3965 Clouds 14 1012 93 10000 1.43 266 04:50 22.11.2019
3966 Clouds 14 1013 87 10000 1 0 02:53 22.11.2019
3967 Clouds 14 1013 87 10000 1 0 02:31 22.11.2019
3968 Clouds 14 1012 87 10000 1.2 357 01:45 22.11.2019
3969 Rain 14 1012 100 10000 1.5 0 01:20 22.11.2019
3970 Rain 15 1012 100 10000 1.5 0 00:51 22.11.2019
3971 Rain 15 1012 100 8000 1.82 208 00:24 22.11.2019
3972 Rain 15 1012 93 8000 1.82 208 23:49 21.11.2019
3973 Rain 15 1012 93 8000 1.82 208 23:31 21.11.2019
3974 Rain 15 1012 93 10000 1.5 0 22:59 21.11.2019
3975 Rain 15 1012 100 10000 1 63 22:39 21.11.2019
3976 Rain 15 1012 100 10000 1 63 22:21 21.11.2019
3977 Rain 15 1013 100 10000 1 63 21:57 21.11.2019
3978 Rain 15 1012 100 10000 1 63 21:38 21.11.2019
3979 Rain 15 1013 100 10000 1 63 21:19 21.11.2019
3980 Rain 15 1013 100 10000 1 63 20:58 21.11.2019
3981 Rain 15 1014 100 10000 4.7 149 20:39 21.11.2019
3982 Rain 15 1014 100 10000 4.42 143 20:19 21.11.2019
3983 Rain 15 1014 100 10000 4.42 143 19:59 21.11.2019
3984 Rain 15 1014 100 10000 4.42 143 19:41 21.11.2019
3985 Rain 15 1014 100 8000 4.42 143 19:22 21.11.2019
3986 Rain 15 1014 100 8000 4.42 143 18:57 21.11.2019
3987 Rain 15 1014 100 8000 1.5 0 18:38 21.11.2019
3988 Rain 15 1013 100 10000 2.6 140 18:19 21.11.2019
3989 Rain 15 1013 100 10000 2.6 140 17:57 21.11.2019
3990 Thunderstorm 15 1013 93 10000 4.42 143 17:38 21.11.2019
3991 Thunderstorm 15 1013 93 8000 2.1 240 17:19 21.11.2019
3992 Thunderstorm 17 1011 93 5000 3.6 350 16:42 21.11.2019
3993 Clouds 19 1013 72 10000 2.1 150 16:22 21.11.2019
3994 Clouds 20 1013 72 10000 2.1 150 15:58 21.11.2019
3995 Thunderstorm 20 1011 77 10000 6.7 140 15:39 21.11.2019
3996 Clouds 20 1011 77 10000 5.7 140 15:19 21.11.2019
3997 Clouds 20 1011 77 10000 5.7 140 14:56 21.11.2019
3998 Clouds 20 1011 77 10000 5.7 140 14:56 21.11.2019
3999 Clouds 20 1012 77 10000 5.1 140 14:36 21.11.2019
4000 Clouds 21 1012 68 10000 5.7 140 14:18 21.11.2019
4001 Clouds 21 1012 68 10000 4.6 140 13:39 21.11.2019
4002 Clouds 21 1012 73 10000 6.2 150 13:20 21.11.2019
4003 Clouds 21 1012 73 10000 6.2 150 12:59 21.11.2019
4004 Clouds 21 1013 77 10000 5.7 150 12:38 21.11.2019
4005 Clouds 21 1013 73 10000 6.2 140 12:20 21.11.2019
4006 Clouds 21 1013 73 10000 5.7 140 11:41 21.11.2019
4007 Clouds 21 1014 73 10000 4.6 140 11:23 21.11.2019
4008 Clouds 21 1014 73 10000 4.6 140 10:59 21.11.2019
4009 Clouds 21 1014 68 10000 3.6 140 10:41 21.11.2019
4010 Clouds 21 1014 68 10000 4.6 140 10:22 21.11.2019
4011 Clouds 21 1014 68 10000 4.6 140 09:57 21.11.2019
4012 Clouds 21 1014 68 10000 2.6 140 09:38 21.11.2019
4013 Clouds 20 1015 77 10000 1.5 160 09:20 21.11.2019
4014 Clouds 20 1014 77 10000 2.1 150 08:42 21.11.2019
4015 Clouds 19 1014 77 10000 2.1 150 08:20 21.11.2019
4016 Clouds 19 1014 82 10000 3.1 140 07:43 21.11.2019
4017 Clouds 18 1014 82 10000 1.5 180 07:18 21.11.2019
4018 Clouds 18 1014 82 10000 1.5 180 06:57 21.11.2019
4019 Clouds 17 1014 88 10000 3.19 185 06:34 21.11.2019
4020 Clouds 17 1014 88 10000 1 0 05:39 21.11.2019
4021 Clouds 18 1014 77 10000 1.5 0 03:34 21.11.2019
4022 Clouds 18 1015 77 10000 4.88 174 02:42 21.11.2019
4023 Clouds 18 1015 77 10000 5.93 172 02:23 21.11.2019
4024 Clouds 18 1015 82 10000 1 0 01:45 21.11.2019
4025 Clouds 18 1015 77 10000 2.1 150 01:19 21.11.2019
4026 Clouds 18 1015 77 10000 2.6 160 00:38 21.11.2019
4027 Clouds 18 1015 77 10000 3.6 150 00:18 21.11.2019
4028 Clouds 18 1016 77 10000 3.1 150 23:41 20.11.2019
4029 Clouds 18 1016 77 10000 2.6 150 23:21 20.11.2019
4030 Clouds 18 1016 77 10000 2.6 150 22:57 20.11.2019
4031 Clouds 18 1016 77 10000 4.1 140 22:37 20.11.2019
4032 Clouds 18 1016 77 10000 3.6 150 22:19 20.11.2019
4033 Clouds 18 1016 77 10000 3.6 150 21:57 20.11.2019
4034 Clouds 18 1016 82 10000 3.1 150 21:38 20.11.2019
4035 Clouds 18 1016 82 10000 2.6 150 21:19 20.11.2019
4036 Clouds 18 1016 82 10000 2.6 150 20:56 20.11.2019
4037 Clouds 18 1016 88 10000 2.1 150 20:37 20.11.2019
4038 Clouds 18 1016 82 10000 2.1 140 20:19 20.11.2019
4039 Clouds 18 1016 82 10000 2.1 140 19:55 20.11.2019
4040 Clouds 18 1016 82 10000 2.6 130 19:55 20.11.2019
4041 Clouds 18 1016 82 10000 2.6 130 19:36 20.11.2019
4042 Clouds 19 1016 82 10000 3.1 140 19:18 20.11.2019
4043 Clouds 18 1016 82 10000 3.1 140 18:57 20.11.2019
4044 Clouds 18 1016 77 10000 1.5 0 18:38 20.11.2019
4045 Clouds 18 1016 77 10000 2.1 150 18:20 20.11.2019
4046 Clouds 18 1016 77 10000 2.1 150 17:55 20.11.2019
4047 Clouds 19 1016 77 10000 1.5 0 17:37 20.11.2019
4048 Clouds 19 1016 88 9000 1.5 0 17:18 20.11.2019
4049 Clouds 19 1016 88 9000 2.6 140 16:41 20.11.2019
4050 Rain 19 1016 88 9000 1.5 0 16:20 20.11.2019
4051 Rain 19 1016 88 9000 1.5 0 15:58 20.11.2019
4052 Rain 19 1016 93 8000 2.1 90 15:40 20.11.2019
4053 Rain 19 1016 88 8000 2.6 120 15:20 20.11.2019
4054 Rain 19 1016 88 8000 2.6 120 14:57 20.11.2019
4055 Rain 19 1016 88 8000 2.6 120 14:57 20.11.2019
4056 Clouds 19 1018 68 10000 4.6 150 14:38 20.11.2019
4057 Rain 19 1016 77 10000 4.6 150 14:20 20.11.2019
4058 Rain 20 1016 77 10000 4.6 150 13:56 20.11.2019
4059 Clouds 20 1016 73 10000 5.1 140 13:37 20.11.2019
4060 Clouds 20 1016 73 10000 5.1 140 13:18 20.11.2019
4061 Clouds 20 1016 73 10000 5.1 140 12:42 20.11.2019
4062 Clouds 20 1016 73 10000 5.1 140 12:23 20.11.2019
4063 Clouds 20 1017 73 10000 4.1 130 11:57 20.11.2019
4064 Clouds 20 1017 73 10000 4.1 130 11:37 20.11.2019
4065 Clouds 20 1017 68 10000 4.1 140 11:18 20.11.2019
4066 Clouds 20 1017 68 10000 4.1 140 11:18 20.11.2019
4067 Clouds 20 1017 68 10000 4.1 140 10:55 20.11.2019
4068 Clouds 19 1017 68 10000 2.6 130 10:36 20.11.2019
4069 Clouds 19 1018 72 10000 6.93 154 10:18 20.11.2019
4070 Clouds 18 1018 77 10000 6.93 154 09:42 20.11.2019
4071 Clouds 17 1018 82 10000 6.93 154 09:21 20.11.2019
4072 Clouds 17 1018 82 10000 6.93 154 08:54 20.11.2019
4073 Clouds 17 1018 88 10000 6.38 155 08:36 20.11.2019
4074 Clouds 17 1018 82 10000 5.04 133 08:18 20.11.2019
4075 Clouds 16 1018 82 10000 5.04 133 07:40 20.11.2019
4076 Clouds 16 1018 93 10000 5.04 133 07:21 20.11.2019
4077 Clouds 15 1017 87 10000 5.04 133 06:46 20.11.2019
4078 Clouds 15 1017 93 10000 5.04 133 06:20 20.11.2019
4079 Clouds 15 1017 87 10000 4.26 129 04:51 20.11.2019
4080 Clouds 16 1018 87 10000 4.26 129 02:48 20.11.2019
4081 Clouds 16 1018 93 10000 3.19 121 02:18 20.11.2019
4082 Clouds 16 1018 93 10000 3.62 118 01:21 20.11.2019
4083 Rain 16 1020 87 10000 1 310 00:35 20.11.2019
4084 Clouds 16 1018 93 10000 3.62 118 23:46 19.11.2019
4085 Clouds 16 1018 93 10000 3.8 122 23:25 19.11.2019
4086 Clouds 16 1019 93 10000 3.8 122 22:57 19.11.2019
4087 Clouds 16 1019 93 10000 3.8 122 22:38 19.11.2019
4088 Clouds 16 1019 87 10000 3.8 122 22:19 19.11.2019
4089 Clouds 16 1019 87 10000 3.8 122 22:19 19.11.2019
4090 Clouds 16 1019 87 10000 3.8 122 21:55 19.11.2019
4091 Clouds 17 1019 93 10000 3.8 122 21:37 19.11.2019
4092 Clouds 17 1019 93 10000 3.8 122 21:37 19.11.2019
4093 Clouds 17 1019 88 10000 3.8 122 21:19 19.11.2019
4094 Clouds 17 1019 88 10000 3.8 122 21:19 19.11.2019
4095 Clouds 17 1019 88 10000 3.8 122 20:55 19.11.2019
4096 Clouds 17 1019 88 10000 3.8 122 20:55 19.11.2019
4097 Clouds 17 1019 88 10000 3.8 122 20:37 19.11.2019
4098 Clouds 17 1019 87 10000 4.14 119 20:18 19.11.2019
4099 Clouds 17 1019 87 10000 4.14 119 19:55 19.11.2019
4100 Clouds 17 1020 88 10000 4.14 119 19:37 19.11.2019
4101 Clouds 17 1020 88 10000 4.14 119 19:18 19.11.2019
4102 Clouds 17 1020 88 10000 4.14 119 18:54 19.11.2019
4103 Clouds 18 1020 77 10000 4.14 119 18:36 19.11.2019
4104 Clouds 18 1020 72 10000 4.14 119 18:18 19.11.2019
4105 Clouds 18 1020 72 10000 4.14 119 17:54 19.11.2019
4106 Clouds 18 1019 77 10000 4.14 119 17:36 19.11.2019
4107 Clouds 18 1019 77 10000 4.63 136 17:18 19.11.2019
4108 Clouds 18 1019 77 10000 4.63 136 16:41 19.11.2019
4109 Clouds 19 1019 77 10000 4.63 136 16:22 19.11.2019
4110 Clouds 19 1019 72 10000 1.5 0 15:54 19.11.2019
4111 Clouds 19 1019 64 10000 4.63 136 15:36 19.11.2019
4112 Clouds 19 1019 64 10000 4.63 136 15:36 19.11.2019
4113 Clouds 19 1019 64 10000 1 0 15:18 19.11.2019
4114 Clouds 20 1019 64 10000 1 0 14:54 19.11.2019
4115 Clouds 20 1019 64 10000 1 0 14:36 19.11.2019
4116 Clouds 20 1019 64 10000 1 0 14:36 19.11.2019
4117 Clouds 20 1019 64 10000 1.5 0 14:18 19.11.2019
4118 Clouds 20 1019 60 10000 2.1 200 13:40 19.11.2019
4119 Clouds 20 1020 56 10000 1.5 0 13:19 19.11.2019
4120 Clouds 20 1022 68 10000 2.6 120 12:40 19.11.2019
4121 Clouds 20 1022 68 10000 2.6 120 12:22 19.11.2019
4122 Clouds 20 1020 64 10000 4.99 135 11:58 19.11.2019
4123 Clouds 20 1020 56 10000 2.1 90 11:38 19.11.2019
4124 Clouds 20 1021 64 10000 2.6 110 11:19 19.11.2019
4125 Clouds 19 1021 68 10000 4.1 80 10:48 19.11.2019
4126 Clouds 19 1021 68 10000 4.1 80 10:23 19.11.2019
4127 Clouds 19 1021 64 10000 2.6 60 09:58 19.11.2019
4128 Clouds 19 1021 68 10000 1 0 09:40 19.11.2019
4129 Clouds 18 1021 72 10000 2.77 92 09:19 19.11.2019
4130 Clouds 18 1021 82 10000 1 0 08:41 19.11.2019
4131 Clouds 17 1021 82 10000 2.29 32 08:23 19.11.2019
4132 Clouds 17 1021 82 10000 2.29 32 07:57 19.11.2019
4133 Clouds 16 1021 87 10000 1 0 07:39 19.11.2019
4134 Clouds 15 1021 93 10000 2.29 32 07:20 19.11.2019
4135 Clouds 15 1021 93 10000 1.5 0 06:50 19.11.2019
4136 Clouds 15 1021 93 10000 1.5 0 06:30 19.11.2019
4137 Clouds 15 1021 93 10000 1.5 10 05:28 19.11.2019
4138 Clouds 15 1020 93 10000 2.44 31 03:50 19.11.2019
4139 Rain 15 1020 87 10000 2.44 31 03:31 19.11.2019
4140 Rain 15 1020 93 10000 2.44 31 02:56 19.11.2019
4141 Clouds 15 1020 87 10000 1.92 38 02:22 19.11.2019
4142 Clouds 15 1020 93 10000 1.92 38 01:27 19.11.2019
4143 Clouds 16 1020 93 10000 1.92 54 00:21 19.11.2019
4144 Clouds 16 1020 93 10000 1.92 54 23:57 18.11.2019
4145 Clouds 16 1020 93 10000 1.92 54 23:37 18.11.2019
4146 Clouds 16 1020 93 10000 2.01 110 23:18 18.11.2019
4147 Clouds 16 1020 93 10000 2.01 110 22:42 18.11.2019
4148 Clouds 16 1020 87 10000 2.01 110 22:23 18.11.2019
4149 Clouds 16 1020 87 10000 2.01 110 21:55 18.11.2019
4150 Clouds 16 1020 87 10000 2.01 110 21:37 18.11.2019
4151 Clouds 16 1019 87 10000 2.01 110 21:19 18.11.2019
4152 Clouds 16 1019 87 10000 2.01 110 20:56 18.11.2019
4153 Clouds 17 1019 87 10000 2.01 110 20:38 18.11.2019
4154 Clouds 17 1019 82 10000 3.12 137 20:18 18.11.2019
4155 Clouds 17 1019 82 10000 3.12 137 19:54 18.11.2019
4156 Clouds 17 1019 88 10000 3.12 137 19:36 18.11.2019
4157 Clouds 17 1019 88 10000 3.12 137 19:18 18.11.2019
4158 Clouds 18 1019 88 10000 3.12 137 18:54 18.11.2019
4159 Clouds 18 1019 88 10000 3.12 137 18:36 18.11.2019
4160 Clouds 18 1019 88 10000 3.12 137 18:18 18.11.2019
4161 Clouds 18 1018 88 10000 3.12 137 17:38 18.11.2019
4162 Clouds 19 1018 82 10000 2.79 154 17:19 18.11.2019
4163 Clouds 19 1018 82 10000 2.79 154 16:54 18.11.2019
4164 Clouds 19 1018 77 10000 2.79 154 16:36 18.11.2019
4165 Clouds 19 1018 77 10000 2.1 190 16:18 18.11.2019
4166 Clouds 20 1018 77 10000 2.1 190 15:54 18.11.2019
4167 Clouds 20 1018 72 10000 2.1 180 15:36 18.11.2019
4168 Clouds 20 1019 56 10000 3.1 190 15:18 18.11.2019
4169 Clouds 21 1019 56 10000 3.1 190 14:41 18.11.2019
4170 Clouds 21 1017 64 10000 2.6 170 14:22 18.11.2019
4171 Clouds 21 1017 60 10000 2.1 160 13:46 18.11.2019
4172 Clouds 22 1017 60 10000 2.1 160 13:27 18.11.2019
4173 Clouds 21 1017 60 10000 2.1 170 12:57 18.11.2019
4174 Clouds 21 1017 56 10000 2.6 160 12:37 18.11.2019
4175 Clouds 21 1017 56 10000 2.1 180 12:18 18.11.2019
4176 Clouds 21 1017 56 10000 3.1 150 11:44 18.11.2019
4177 Clouds 21 1017 56 10000 3.1 150 11:25 18.11.2019
4178 Clouds 21 1017 64 10000 1.75 189 10:55 18.11.2019
4179 Clouds 21 1017 64 10000 1.75 189 10:37 18.11.2019
4180 Clouds 20 1017 73 8000 1.75 189 10:18 18.11.2019
4181 -273 0 0 0 0 0 09:54 18.11.2019
4182 Clouds 20 1017 73 8000 1.75 189 09:36 18.11.2019
4183 Clouds 20 1017 77 8000 1.75 189 09:18 18.11.2019
4184 Clouds 19 1017 82 8000 1.75 189 08:42 18.11.2019
4185 Rain 17 1017 93 8000 1.78 157 08:20 18.11.2019
4186 Rain 16 1017 100 8000 1.78 157 07:47 18.11.2019
4187 Rain 16 1017 100 8000 1.78 157 07:29 18.11.2019
4188 Clouds 15 1016 93 8000 1.78 157 06:56 18.11.2019
4189 Clouds 15 1016 100 8000 1.78 157 06:32 18.11.2019
4190 Clouds 15 1015 100 10000 1.78 157 05:48 18.11.2019
4191 Clouds 15 1016 100 10000 1.08 150 04:46 18.11.2019
4192 Clouds 16 1016 100 10000 1.48 91 01:56 18.11.2019
4193 Clouds 16 1016 100 10000 1.48 91 01:31 18.11.2019
4194 Rain 17 1016 100 10000 1.7 89 00:23 18.11.2019
4195 Rain 17 1016 100 8000 1.7 89 23:43 17.11.2019
4196 Rain 17 1016 100 8000 1.48 135 23:24 17.11.2019
4197 Rain 17 1016 88 4000 2.6 170 22:58 17.11.2019
4198 Rain 17 1016 77 10000 1.48 135 22:40 17.11.2019
4199 Rain 17 1016 77 10000 1.48 135 22:22 17.11.2019
4200 Rain 17 1016 82 10000 1.48 135 21:58 17.11.2019
4201 Rain 17 1016 82 10000 1.48 135 21:40 17.11.2019
4202 Rain 17 1016 82 10000 1.48 135 21:19 17.11.2019
4203 Clouds 17 1016 82 10000 1.48 135 20:56 17.11.2019
4204 Clouds 17 1017 82 10000 1.48 135 20:38 17.11.2019
4205 Clouds 17 1017 82 10000 1.48 135 20:38 17.11.2019
4206 Clouds 17 1017 82 10000 1.38 76 20:19 17.11.2019
4207 Clouds 17 1017 82 10000 1.38 76 19:56 17.11.2019
4208 Clouds 17 1016 82 10000 1.38 76 19:37 17.11.2019
4209 Clouds 17 1017 82 10000 1.38 76 19:19 17.11.2019
4210 Clouds 17 1016 77 10000 1.38 76 18:55 17.11.2019
4211 Clouds 17 1016 77 10000 1.38 76 18:37 17.11.2019
4212 Clouds 17 1016 77 10000 2.1 60 18:18 17.11.2019
4213 Clouds 17 1016 77 10000 2.1 60 17:57 17.11.2019
4214 Clouds 18 1016 77 10000 1.38 76 17:38 17.11.2019
4215 Clouds 18 1016 77 10000 1.58 190 17:20 17.11.2019
4216 Clouds 18 1016 77 10000 1.58 190 16:57 17.11.2019
4217 Clouds 18 1016 72 10000 1.58 190 16:39 17.11.2019
4218 Clouds 18 1016 72 10000 1.58 190 16:21 17.11.2019
4219 Clouds 18 1016 72 10000 1.58 190 15:55 17.11.2019
4220 Clouds 19 1016 68 10000 1.58 190 15:36 17.11.2019
4221 Clouds 19 1016 68 10000 1.58 190 15:36 17.11.2019
4222 Clouds 19 1016 64 10000 1.58 190 15:18 17.11.2019
4223 Clouds 19 1016 64 10000 1.58 190 14:55 17.11.2019
4224 Clouds 19 1016 64 10000 1.58 190 14:37 17.11.2019
4225 Clouds 19 1016 64 10000 1.5 200 14:18 17.11.2019
4226 Clouds 19 1016 64 10000 1.5 200 13:54 17.11.2019
4227 Clouds 19 1016 64 10000 2.1 190 13:36 17.11.2019
4228 Clouds 19 1016 60 10000 1.5 230 13:18 17.11.2019
4229 Clouds 20 1016 56 10000 1.92 184 12:39 17.11.2019
4230 Clouds 19 1016 64 10000 1.92 184 12:21 17.11.2019
4231 Clouds 19 1016 64 10000 1.92 184 12:21 17.11.2019
4232 Clouds 20 1016 64 10000 1.92 184 11:56 17.11.2019
4233 Clouds 20 1017 60 10000 1.92 184 11:38 17.11.2019
4234 Clouds 19 1017 60 10000 0.87 32 11:19 17.11.2019
4235 Clouds 19 1017 60 10000 0.87 32 11:19 17.11.2019
4236 Clouds 19 1017 60 10000 0.87 32 10:43 17.11.2019
4237 Clouds 19 1018 63 10000 0.87 32 10:23 17.11.2019
4238 Clouds 18 1018 63 10000 0.87 32 09:57 17.11.2019
4239 Clouds 18 1018 63 10000 0.87 32 09:39 17.11.2019
4240 Clouds 17 1018 68 10000 0.87 32 09:19 17.11.2019
4241 Clouds 16 1018 82 10000 0.87 32 08:38 17.11.2019
4242 Clouds 15 1018 87 10000 2.46 11 08:19 17.11.2019
4243 Clouds 15 1018 87 10000 2.31 11 07:46 17.11.2019
4244 Clouds 14 1018 93 10000 2.31 11 07:22 17.11.2019
4245 Clouds 14 1018 93 10000 2.31 11 06:57 17.11.2019
4246 Clouds 14 1018 87 10000 2.31 11 06:31 17.11.2019
4247 Clouds 14 1017 82 10000 2.31 11 05:40 17.11.2019
4248 Clouds 14 1017 87 10000 2.5 5 04:23 17.11.2019
4249 Clouds 14 1017 87 10000 2.5 5 03:43 17.11.2019
4250 Clouds 14 1017 87 10000 2.5 5 03:23 17.11.2019
4251 Clouds 14 1017 87 10000 2.58 9 02:27 17.11.2019
4252 Clouds 14 1017 87 10000 2.44 9 01:25 17.11.2019
4253 Clouds 14 1017 87 10000 2.44 9 00:53 17.11.2019
4254 Clouds 14 1018 82 10000 2.44 9 00:22 17.11.2019
4255 Clouds 15 1018 87 10000 2.44 9 23:44 16.11.2019
4256 Clouds 15 1018 87 10000 2.11 14 23:20 16.11.2019
4257 Clouds 15 1018 87 10000 2.11 14 22:59 16.11.2019
4258 Clouds 15 1018 82 10000 2.11 14 22:40 16.11.2019
4259 Clouds 15 1018 82 10000 2.11 14 22:19 16.11.2019
4260 Clouds 15 1018 87 10000 2.11 14 21:42 16.11.2019
4261 Clouds 15 1018 87 10000 2.11 14 21:24 16.11.2019
4262 Clouds 15 1018 87 10000 2.11 14 20:59 16.11.2019
4263 Clouds 15 1018 87 10000 2.11 14 20:41 16.11.2019
4264 Clouds 15 1018 82 10000 1.08 20 20:20 16.11.2019
4265 Clouds 15 1018 82 10000 1.08 20 19:58 16.11.2019
4266 Clouds 16 1018 82 10000 1.08 20 19:39 16.11.2019
4267 Clouds 16 1018 82 10000 1.08 20 19:20 16.11.2019
4268 Clouds 16 1018 77 10000 1.08 20 18:46 16.11.2019
4269 Clouds 16 1018 77 10000 1.08 20 18:28 16.11.2019
4270 Clouds 17 1018 77 10000 1.08 20 17:56 16.11.2019
4271 Clouds 17 1018 77 10000 1.08 20 17:38 16.11.2019
4272 Clouds 17 1018 77 10000 1.19 194 17:19 16.11.2019
4273 Clouds 18 1018 72 10000 1.19 194 16:48 16.11.2019
4274 Clouds 18 1018 72 10000 1.19 194 16:30 16.11.2019
4275 Clouds 18 1018 64 10000 1.19 194 15:58 16.11.2019
4276 Clouds 19 1018 68 10000 1.19 194 15:39 16.11.2019
4277 Clouds 19 1018 60 10000 1.19 194 15:20 16.11.2019
4278 Clouds 19 1018 60 10000 1.19 194 14:57 16.11.2019
4279 Clouds 19 1018 60 10000 1.19 194 14:57 16.11.2019
4280 Clouds 19 1020 72 10000 5.7 40 14:39 16.11.2019
4281 Clouds 20 1018 53 10000 1.28 197 14:20 16.11.2019
4282 Clouds 20 1018 53 10000 1.28 197 13:55 16.11.2019
4283 Clouds 21 1018 53 10000 1.28 197 13:37 16.11.2019
4284 Clouds 21 1019 49 10000 2.1 160 13:18 16.11.2019
4285 Clouds 21 1019 49 10000 2.1 160 13:18 16.11.2019
4286 Clouds 20 1019 53 10000 2.1 210 12:42 16.11.2019
4287 Clouds 20 1019 53 10000 2.1 210 12:23 16.11.2019
4288 Clouds 20 1019 56 10000 1.52 215 11:56 16.11.2019
4289 Rain 20 1019 56 10000 1.52 215 11:38 16.11.2019
4290 Rain 20 1020 56 10000 0.73 6 11:19 16.11.2019
4291 Rain 20 1020 52 10000 0.73 6 10:43 16.11.2019
4292 Clouds 20 1020 52 10000 0.73 6 10:25 16.11.2019
4293 Clouds 20 1020 56 10000 0.73 6 09:59 16.11.2019
4294 Clouds 20 1020 56 10000 0.73 6 09:59 16.11.2019
4295 Clouds 19 1020 60 10000 0.73 6 09:40 16.11.2019
4296 Clouds 19 1020 59 10000 0.73 6 09:20 16.11.2019
4297 Clouds 18 1020 59 10000 0.73 6 08:56 16.11.2019
4298 Clouds 17 1021 72 10000 0.73 6 08:36 16.11.2019
4299 Clouds 17 1020 72 10000 2.07 14 08:18 16.11.2019
4300 Clouds 15 1020 82 10000 2.07 14 07:40 16.11.2019
4301 Clouds 14 1020 87 10000 2.6 330 07:18 16.11.2019
4302 Clouds 13 1020 82 10000 2.07 14 06:43 16.11.2019
4303 Clouds 13 1020 87 10000 2.07 14 06:20 16.11.2019
4304 Clouds 13 1020 87 10000 1.74 351 04:45 16.11.2019
4305 Clouds 14 1020 87 10000 1.74 351 03:26 16.11.2019
4306 Clouds 14 1020 87 10000 1.74 351 02:36 16.11.2019
4307 Clouds 14 1020 87 10000 1.74 351 02:36 16.11.2019
4308 Clear 14 1020 82 10000 0.9 1 01:41 16.11.2019
4309 Clear 14 1020 82 10000 0.93 358 00:51 16.11.2019
4310 Clear 14 1020 82 10000 0.93 358 00:31 16.11.2019
4311 Clear 15 1020 82 10000 0.93 358 23:58 15.11.2019
4312 Clear 14 1021 93 10000 1 290 23:38 15.11.2019
4313 Clear 14 1020 82 10000 0.61 318 23:20 15.11.2019
4314 Clear 15 1020 82 10000 0.61 318 22:42 15.11.2019
4315 Clear 15 1020 76 10000 0.61 318 22:20 15.11.2019
4316 Clear 15 1020 76 10000 0.61 318 21:59 15.11.2019
4317 Clear 15 1021 100 10000 1 250 21:40 15.11.2019
4318 Clear 15 1019 82 10000 0.61 318 21:20 15.11.2019
4319 Clear 15 1019 82 10000 0.61 318 20:57 15.11.2019
4320 Clear 15 1019 82 10000 0.61 318 20:39 15.11.2019
4321 Clear 15 1019 82 10000 1.14 237 20:20 15.11.2019
4322 Clear 15 1019 82 10000 0.79 244 19:57 15.11.2019
4323 Clear 16 1019 77 10000 0.79 244 19:39 15.11.2019
4324 Clear 16 1020 87 10000 1.5 250 19:20 15.11.2019
4325 Clear 16 1020 87 10000 1.5 250 18:56 15.11.2019
4326 Clear 16 1020 87 10000 1 0 18:38 15.11.2019
4327 Clear 17 1018 72 10000 1 0 18:20 15.11.2019
4328 Clear 17 1018 72 10000 0.79 244 17:42 15.11.2019
4329 Clear 17 1017 72 10000 1.78 197 17:24 15.11.2019
4330 Clear 18 1017 72 10000 1.78 197 16:56 15.11.2019
4331 Clear 19 1017 68 10000 1.78 197 16:37 15.11.2019
4332 Clouds 20 1017 56 10000 1.78 197 16:19 15.11.2019
4333 Clouds 20 1017 46 10000 1.78 197 15:38 15.11.2019
4334 Clouds 21 1017 52 10000 1.78 197 15:20 15.11.2019
4335 Clouds 21 1017 52 10000 1.78 197 14:57 15.11.2019
4336 Clouds 21 1018 43 10000 2.6 20 14:38 15.11.2019
4337 Clouds 21 1016 49 10000 2.27 188 14:19 15.11.2019
4338 Clouds 21 1016 49 10000 2.27 188 13:58 15.11.2019
4339 Clouds 21 1016 53 10000 1 0 13:39 15.11.2019
4340 Clouds 21 1016 53 10000 1 0 13:20 15.11.2019
4341 Clouds 21 1016 53 10000 1 0 12:57 15.11.2019
4342 Clouds 21 1016 49 10000 1 0 12:39 15.11.2019
4343 Clouds 21 1017 49 10000 1.5 0 12:20 15.11.2019
4344 Clouds 21 1017 49 10000 1.5 0 11:57 15.11.2019
4345 Clouds 21 1017 60 10000 1.5 0 11:38 15.11.2019
4346 Clouds 20 1017 60 10000 1 0 11:20 15.11.2019
4347 Clouds 20 1017 60 10000 1 0 10:56 15.11.2019
4348 Clouds 20 1017 60 10000 1 0 10:38 15.11.2019
4349 Clouds 20 1017 60 10000 1 0 10:18 15.11.2019
4350 Clear 19 1017 68 10000 1.62 275 09:40 15.11.2019
4351 Clear 19 1016 68 10000 1.62 275 09:19 15.11.2019
4352 Clear 18 1016 72 10000 1.62 275 08:44 15.11.2019
4353 Clear 17 1016 72 10000 2.45 307 08:23 15.11.2019
4354 Clear 15 1016 87 10000 2.45 307 07:49 15.11.2019
4355 Clear 15 1016 87 10000 2.45 307 07:28 15.11.2019
4356 Clear 14 1015 93 10000 2.45 307 06:50 15.11.2019
4357 Clear 13 1015 93 10000 2.45 307 06:31 15.11.2019
4358 Clouds 13 1014 93 10000 2.45 307 05:42 15.11.2019
4359 Clouds 13 1014 93 10000 2.65 310 05:23 15.11.2019
4360 Rain 14 1013 93 10000 2.65 310 03:53 15.11.2019
4361 Rain 14 1013 93 10000 2.65 310 03:23 15.11.2019
4362 Clouds 14 1013 93 10000 2.81 299 02:20 15.11.2019
4363 Clouds 14 1013 93 10000 2.81 299 01:33 15.11.2019
4364 Clouds 14 1013 93 10000 3.57 295 01:33 15.11.2019
4365 Clouds 15 1013 93 10000 3.57 295 00:54 15.11.2019
4366 Clouds 14 1013 93 10000 3.57 295 00:33 15.11.2019
4367 Clouds 15 1013 87 10000 3.57 295 23:53 14.11.2019
4368 Clouds 15 1013 87 10000 3.57 295 23:29 14.11.2019
4369 Clouds 15 1012 87 10000 2.94 303 22:59 14.11.2019
4370 Clouds 15 1012 87 10000 2.94 303 22:40 14.11.2019
4371 Clouds 15 1012 87 10000 2.94 303 22:21 14.11.2019
4372 Clouds 15 1012 87 10000 2.94 303 21:56 14.11.2019
4373 Clouds 15 1012 87 10000 2.94 303 21:56 14.11.2019
4374 Clouds 16 1012 87 10000 2.94 303 21:38 14.11.2019
4375 Clouds 16 1012 82 10000 2.94 303 21:19 14.11.2019
4376 Clouds 16 1012 82 10000 2.94 303 20:42 14.11.2019
4377 Clouds 16 1012 82 10000 2.94 303 20:42 14.11.2019
4378 Rain 16 1012 82 10000 0.93 238 20:24 14.11.2019
4379 Rain 16 1012 82 10000 0.93 238 19:59 14.11.2019
4380 Rain 16 1011 82 10000 2.1 340 19:41 14.11.2019
4381 Rain 16 1011 82 10000 0.93 238 19:18 14.11.2019
4382 Rain 17 1010 82 10000 0.93 238 18:56 14.11.2019
4383 Rain 17 1010 82 10000 0.93 238 18:38 14.11.2019
4384 Clouds 17 1010 82 10000 0.93 238 18:20 14.11.2019
4385 Clouds 17 1010 82 10000 0.93 238 18:20 14.11.2019
4386 Clouds 17 1010 72 10000 0.93 238 17:55 14.11.2019
4387 Clouds 18 1010 72 10000 0.93 238 17:37 14.11.2019
4388 Clouds 17 1010 77 10000 1.73 186 17:18 14.11.2019
4389 Clouds 18 1010 77 10000 1.73 186 16:57 14.11.2019
4390 Clouds 18 1009 77 10000 1.73 186 16:36 14.11.2019
4391 Clouds 18 1011 63 10000 5.1 200 16:18 14.11.2019
4392 Clouds 19 1011 63 10000 5.1 200 15:54 14.11.2019
4393 Clouds 19 1009 64 10000 1.73 186 15:36 14.11.2019
4394 Clouds 20 1009 60 10000 1.73 186 15:18 14.11.2019
4395 Clouds 20 1009 60 10000 1.73 186 14:43 14.11.2019
4396 Clouds 20 1009 60 10000 2.63 185 14:22 14.11.2019
4397 Clouds 20 1009 60 10000 2.63 185 13:56 14.11.2019
4398 Clouds 20 1009 64 10000 1.5 0 13:37 14.11.2019
4399 Rain 20 1009 64 10000 2.24 185 13:19 14.11.2019
4400 Rain 20 1009 60 10000 1.5 0 12:46 14.11.2019
4401 Rain 20 1009 60 10000 1.5 0 12:26 14.11.2019
4402 Clouds 20 1009 64 10000 1.5 0 11:59 14.11.2019
4403 Clouds 20 1009 68 10000 2.1 170 11:38 14.11.2019
4404 Clouds 19 1010 64 10000 1.86 196 11:20 14.11.2019
4405 Clouds 19 1010 64 10000 1.86 196 10:58 14.11.2019
4406 Clouds 19 1010 68 10000 1.86 196 10:38 14.11.2019
4407 Clouds 19 1010 72 10000 1.86 196 10:19 14.11.2019
4408 Clouds 19 1010 72 10000 1.86 196 09:56 14.11.2019
4409 Clouds 18 1010 72 10000 1.86 196 09:37 14.11.2019
4410 Clouds 15 1010 82 10000 1.86 196 09:18 14.11.2019
4411 Clouds 15 1010 82 10000 1.86 196 08:46 14.11.2019
4412 Clouds 15 1010 82 10000 1.86 196 08:25 14.11.2019
4413 Clouds 13 1010 87 10000 0.64 315 07:43 14.11.2019
4414 Clouds 13 1010 87 10000 0.64 315 07:25 14.11.2019
4415 Clouds 11 1010 93 10000 0.64 315 06:55 14.11.2019
4416 Clouds 11 1009 93 10000 1 0 06:37 14.11.2019
4417 Clouds 11 1009 100 10000 0.64 315 06:18 14.11.2019
4418 Clouds 12 1009 93 10000 0.69 231 04:40 14.11.2019
4419 Clouds 13 1009 93 10000 0.69 231 03:52 14.11.2019
4420 Clouds 13 1009 87 10000 0.69 231 02:41 14.11.2019
4421 Clouds 14 1009 87 10000 0.86 151 01:41 14.11.2019
4422 Clouds 14 1009 87 10000 0.36 157 01:20 14.11.2019
4423 Clouds 14 1010 93 10000 0.36 157 00:48 14.11.2019
4424 Clouds 14 1010 93 10000 0.36 157 00:25 14.11.2019
4425 Clouds 14 1010 87 10000 0.36 157 23:41 13.11.2019
4426 Clouds 14 1010 87 10000 0.57 294 23:21 13.11.2019
4427 Clouds 14 1010 87 10000 0.57 294 22:56 13.11.2019
4428 Clouds 14 1010 87 10000 0.57 294 22:38 13.11.2019
4429 Clouds 14 1010 87 10000 0.57 294 22:20 13.11.2019
4430 Rain 14 1010 87 10000 0.57 294 21:55 13.11.2019
4431 Rain 14 1010 87 10000 1 0 21:37 13.11.2019
4432 Rain 14 1010 87 10000 1.5 0 21:19 13.11.2019
4433 Rain 14 1010 87 10000 1.5 0 20:56 13.11.2019
4434 Rain 14 1010 82 10000 2.6 230 20:37 13.11.2019
4435 Rain 14 1010 77 10000 2.1 220 20:18 13.11.2019
4436 Rain 14 1008 87 10000 4.1 30 19:44 13.11.2019
4437 Rain 14 1010 77 10000 1 0 19:20 13.11.2019
4438 Rain 14 1010 77 10000 1 0 18:58 13.11.2019
4439 Rain 14 1010 77 10000 1 0 18:58 13.11.2019
4440 Rain 14 1009 82 9000 4.6 80 18:39 13.11.2019
4441 Rain 14 1010 93 6000 4.1 60 18:21 13.11.2019
4442 Rain 14 1010 93 6000 4.1 60 17:58 13.11.2019
4443 Rain 14 1010 87 6000 4.1 80 17:40 13.11.2019
4444 Rain 15 1010 87 7000 4.1 100 17:21 13.11.2019
4445 Rain 15 1010 87 7000 4.1 100 16:58 13.11.2019
4446 Rain 15 1010 87 8000 4.6 50 16:40 13.11.2019
4447 Rain 15 1010 87 8000 3.1 100 16:21 13.11.2019
4448 Rain 15 1010 87 8000 3.1 100 15:58 13.11.2019
4449 Rain 15 1010 93 8000 3.6 90 15:39 13.11.2019
4450 Rain 16 1010 100 8000 3.6 80 15:20 13.11.2019
4451 Rain 16 1011 93 7000 2.1 50 14:43 13.11.2019
4452 Drizzle 16 1012 82 10000 2.6 290 14:23 13.11.2019
4453 Drizzle 16 1012 82 10000 2.6 290 13:58 13.11.2019
4454 Rain 16 1012 82 10000 1.5 0 13:37 13.11.2019
4455 Rain 16 1011 93 8000 2.1 90 13:18 13.11.2019
4456 Rain 16 1011 93 8000 2.1 90 12:56 13.11.2019
4457 Rain 16 1013 82 10000 1 0 12:37 13.11.2019
4458 Rain 16 1011 93 8000 4.1 140 12:19 13.11.2019
4459 Rain 16 1011 93 8000 4.1 150 11:41 13.11.2019
4460 Rain 16 1012 93 8000 5.1 140 11:21 13.11.2019
4461 Rain 16 1012 93 8000 5.1 140 10:58 13.11.2019
4462 Rain 16 1011 100 8000 5.7 140 10:40 13.11.2019
4463 Rain 16 1011 100 6000 5.1 130 10:20 13.11.2019
4464 Rain 16 1011 100 6000 5.1 130 09:57 13.11.2019
4465 Rain 16 1011 100 6000 4.1 80 09:38 13.11.2019
4466 Rain 16 1011 100 6000 4.1 80 09:38 13.11.2019
4467 Rain 16 1012 100 2500 3.6 100 09:20 13.11.2019
4468 Rain 16 1011 100 5000 3.6 90 08:39 13.11.2019
4469 Rain 16 1011 93 5000 3.6 100 08:20 13.11.2019
4470 Rain 16 1011 100 5000 1.5 100 07:42 13.11.2019
4471 Rain 16 1010 93 10000 10.17 165 07:21 13.11.2019
4472 Rain 16 1010 93 10000 10.17 165 06:46 13.11.2019
4473 Rain 16 1009 93 10000 10.17 165 06:19 13.11.2019
4474 Rain 16 1009 93 10000 10.17 165 06:19 13.11.2019
4475 Rain 16 1009 93 10000 10.17 165 05:57 13.11.2019
4476 Rain 16 1009 93 10000 1.5 0 05:38 13.11.2019
4477 Rain 16 1009 100 10000 2.69 125 04:44 13.11.2019
4478 Thunderstorm 16 1010 100 8000 2.69 125 02:28 13.11.2019
4479 Thunderstorm 17 1010 88 8000 4.59 194 01:46 13.11.2019
4480 Rain 18 1012 88 10000 1.5 230 00:57 13.11.2019
4481 Rain 18 1009 93 10000 6.41 203 00:36 13.11.2019
4482 Rain 18 1010 88 10000 6.41 203 23:42 12.11.2019
4483 Rain 18 1010 88 10000 3.4 150 23:22 12.11.2019
4484 Rain 19 1009 88 10000 3.4 150 22:58 12.11.2019
4485 Thunderstorm 19 1011 93 8000 2.6 30 22:40 12.11.2019
4486 Thunderstorm 19 1011 93 8000 2.6 30 22:40 12.11.2019
4487 Thunderstorm 19 1013 82 10000 1 340 22:18 12.11.2019
4488 Rain 20 1012 88 8000 3.4 150 21:44 12.11.2019
4489 Rain 20 1012 88 8000 3.4 150 21:26 12.11.2019
4490 Rain 20 1011 77 10000 3.4 150 20:59 12.11.2019
4491 Clouds 20 1011 77 10000 3.4 150 20:38 12.11.2019
4492 Rain 20 1011 77 10000 4.55 139 20:19 12.11.2019
4493 Rain 20 1011 77 10000 4.55 139 19:58 12.11.2019
4494 Clouds 20 1011 77 10000 4.55 139 19:40 12.11.2019
4495 Clouds 20 1011 68 10000 4.55 139 19:20 12.11.2019
4496 Clouds 21 1011 68 10000 4.55 139 18:59 12.11.2019
4497 Clouds 21 1011 64 10000 4.55 139 18:41 12.11.2019
4498 Clouds 21 1011 64 10000 2.6 100 18:23 12.11.2019
4499 Clouds 21 1011 64 10000 2.6 100 17:58 12.11.2019
4500 Clouds 21 1010 64 10000 3.1 80 17:40 12.11.2019
4501 Clouds 21 1010 60 10000 3.1 80 17:21 12.11.2019
4502 Clouds 21 1010 60 10000 3.1 80 16:59 12.11.2019
4503 Clouds 21 1009 64 10000 3.1 80 16:40 12.11.2019
4504 Clouds 21 1009 64 10000 3.1 80 16:22 12.11.2019
4505 Clouds 22 1010 56 10000 4.04 130 15:42 12.11.2019
4506 Clouds 22 1010 56 10000 4.04 130 15:23 12.11.2019
4507 Clouds 22 1010 60 10000 2.6 140 14:58 12.11.2019
4508 Clouds 22 1011 64 10000 3.1 170 14:39 12.11.2019
4509 Clouds 23 1011 57 10000 4.1 170 14:19 12.11.2019
4510 Clouds 23 1011 57 10000 4.1 170 13:57 12.11.2019
4511 Clouds 23 1011 53 10000 4.1 170 13:39 12.11.2019
4512 Clouds 23 1012 60 10000 2.1 200 13:19 12.11.2019
4513 Clouds 23 1012 64 10000 4.1 180 12:43 12.11.2019
4514 Clouds 23 1012 64 10000 4.1 180 12:43 12.11.2019
4515 Clouds 23 1012 60 10000 4.1 190 12:20 12.11.2019
4516 Clouds 23 1012 60 10000 4.1 190 12:20 12.11.2019
4517 Clouds 23 1012 60 10000 4.1 190 11:59 12.11.2019
4518 Clouds 23 1012 57 10000 2.6 180 11:41 12.11.2019
4519 Clouds 23 1013 57 10000 2.6 90 11:22 12.11.2019
4520 Clouds 23 1013 57 10000 2.6 90 10:57 12.11.2019
4521 Clouds 23 1013 57 10000 3.1 80 10:39 12.11.2019
4522 Clouds 23 1013 57 10000 3.1 80 10:39 12.11.2019
4523 Clouds 23 1013 57 10000 3.1 80 10:39 12.11.2019
4524 Clouds 22 1013 64 10000 4.1 90 10:21 12.11.2019
4525 Clouds 22 1013 68 10000 4.1 90 09:56 12.11.2019
4526 Clouds 22 1013 68 10000 4.1 90 09:38 12.11.2019
4527 Clouds 21 1013 77 10000 3.1 90 09:18 12.11.2019
4528 Clouds 21 1014 77 10000 4.1 80 08:42 12.11.2019
4529 Clouds 20 1014 77 10000 4.1 80 08:24 12.11.2019
4530 Clouds 19 1014 82 10000 3 62 07:41 12.11.2019
4531 Clouds 18 1013 93 10000 3 62 07:23 12.11.2019
4532 Clouds 18 1013 100 10000 3 62 06:47 12.11.2019
4533 Clouds 17 1013 93 10000 3 62 06:23 12.11.2019
4534 -273 0 0 0 0 0 06:23 12.11.2019
4535 Clouds 17 1013 93 10000 3 62 05:49 12.11.2019
4536 Clouds 17 1013 100 10000 1.99 61 04:50 12.11.2019
4537 Clouds 17 1013 93 10000 1.99 61 03:53 12.11.2019
4538 Clouds 17 1013 93 10000 1.99 61 03:53 12.11.2019
4539 Clouds 18 1014 93 10000 1.85 39 01:50 12.11.2019
4540 Clouds 18 1014 93 10000 2.02 42 01:23 12.11.2019
4541 Clouds 18 1014 93 10000 2.02 42 00:51 12.11.2019
4542 Clouds 18 1014 93 10000 2.02 42 00:32 12.11.2019
4543 Clouds 18 1015 88 10000 2.02 42 23:48 11.11.2019
4544 Clouds 18 1015 88 10000 2.02 42 23:25 11.11.2019
4545 Clouds 18 1015 88 10000 1.17 80 22:58 11.11.2019
4546 Clouds 18 1015 88 10000 1.17 80 22:38 11.11.2019
4547 Clouds 18 1015 88 10000 1.17 80 22:19 11.11.2019
4548 Clouds 18 1015 88 10000 1.17 80 21:57 11.11.2019
4549 Clouds 18 1014 88 10000 1.17 80 21:38 11.11.2019
4550 Clouds 18 1014 88 10000 1.17 80 21:19 11.11.2019
4551 Clouds 18 1014 88 10000 1.17 80 20:55 11.11.2019
4552 Clouds 18 1014 93 10000 0.99 76 20:36 11.11.2019
4553 Clouds 18 1014 88 10000 1.14 154 20:18 11.11.2019
4554 Clouds 18 1014 88 10000 1.14 154 19:41 11.11.2019
4555 Clouds 18 1014 88 10000 1.14 154 19:19 11.11.2019
4556 Clouds 18 1014 88 10000 1.14 154 18:57 11.11.2019
4557 Clouds 18 1014 88 10000 1.14 154 18:38 11.11.2019
4558 Clouds 19 1015 82 10000 1.14 154 18:19 11.11.2019
4559 Clouds 19 1014 82 10000 1.14 154 17:43 11.11.2019
4560 Clouds 19 1014 82 10000 2.31 176 17:24 11.11.2019
4561 Clouds 19 1014 73 10000 2.31 176 16:45 11.11.2019
4562 Clouds 20 1014 73 10000 2.31 176 16:24 11.11.2019
4563 Clouds 20 1014 73 10000 2.31 176 15:59 11.11.2019
4564 Clouds 20 1014 68 10000 2.31 176 15:41 11.11.2019
4565 Clouds 20 1014 68 10000 2.31 176 15:20 11.11.2019
4566 Clouds 21 1014 64 10000 2.31 176 14:54 11.11.2019
4567 Clouds 21 1015 60 10000 2.31 176 14:36 11.11.2019
4568 Clouds 21 1015 64 10000 2.29 144 14:18 11.11.2019
4569 Clouds 21 1015 64 10000 2.09 147 13:39 11.11.2019
4570 Clouds 21 1016 60 10000 2.09 147 13:21 11.11.2019
4571 Clouds 22 1016 60 10000 2.09 147 12:58 11.11.2019
4572 Clouds 22 1016 60 10000 2.09 147 12:40 11.11.2019
4573 Clouds 21 1016 60 10000 2.09 147 12:22 11.11.2019
4574 Clouds 22 1015 60 10000 2.09 147 11:55 11.11.2019
4575 Clouds 21 1015 60 10000 2.09 147 11:37 11.11.2019
4576 Clouds 21 1016 53 10000 0.13 60 11:19 11.11.2019
4577 Rain 20 1016 56 10000 0.13 60 10:42 11.11.2019
4578 Rain 20 1016 56 10000 0.13 60 10:18 11.11.2019
4579 Rain 20 1016 56 10000 0.13 60 09:56 11.11.2019
4580 Clouds 19 1016 59 10000 0.13 60 09:37 11.11.2019
4581 Clouds 19 1018 63 10000 1 0 09:18 11.11.2019
4582 Clouds 19 1018 63 10000 1 0 09:18 11.11.2019
4583 Clouds 18 1017 72 10000 0.13 60 08:40 11.11.2019
4584 Clouds 18 1017 72 10000 0.13 60 08:40 11.11.2019
4585 Clouds 17 1017 72 10000 2.58 346 08:21 11.11.2019
4586 Clouds 17 1017 72 10000 2.58 346 07:56 11.11.2019
4587 Clouds 16 1016 82 10000 2.58 346 07:37 11.11.2019
4588 Clouds 15 1016 87 10000 2.58 346 07:18 11.11.2019
4589 Clouds 14 1016 93 10000 2.58 346 06:47 11.11.2019
4590 Clouds 14 1015 87 10000 2.58 346 06:22 11.11.2019
4591 Clouds 14 1016 87 10000 2.58 346 05:51 11.11.2019
4592 Clouds 14 1015 93 10000 2.79 337 04:30 11.11.2019
4593 Clouds 14 1015 93 10000 2.79 337 03:23 11.11.2019
4594 Clouds 14 1015 82 10000 2.98 328 02:24 11.11.2019
4595 Clouds 14 1017 87 10000 1.5 0 01:55 11.11.2019
4596 Clouds 15 1015 76 10000 2.98 328 01:34 11.11.2019
4597 Clouds 15 1015 82 10000 3.08 325 00:48 11.11.2019
4598 Rain 15 1015 72 10000 3.08 325 00:20 11.11.2019
4599 Clouds 16 1015 72 10000 3.08 325 23:39 10.11.2019
4600 Clouds 16 1015 72 10000 3.08 325 23:39 10.11.2019
4601 Clouds 16 1015 72 10000 3.4 314 23:20 10.11.2019
4602 Clouds 16 1015 72 10000 3.4 314 22:58 10.11.2019
4603 Clouds 16 1015 72 10000 3.4 314 22:38 10.11.2019
4604 Clouds 16 1015 77 10000 3.4 314 22:20 10.11.2019
4605 Clouds 17 1015 77 10000 3.4 314 21:58 10.11.2019
4606 Clouds 17 1015 77 10000 3.4 314 21:58 10.11.2019
4607 Clouds 17 1015 77 10000 3.4 314 21:58 10.11.2019
4608 Clouds 17 1015 82 10000 3.4 314 21:39 10.11.2019
4609 Clouds 17 1015 82 10000 3.4 314 21:21 10.11.2019
4610 Clouds 17 1015 82 10000 3.4 314 20:56 10.11.2019
4611 Clouds 18 1014 77 10000 3.4 314 20:38 10.11.2019
4612 Clouds 18 1014 77 10000 4.62 305 20:20 10.11.2019
4613 Clouds 18 1014 72 10000 4.68 302 19:54 10.11.2019
4614 Clouds 18 1014 77 10000 2.6 330 19:36 10.11.2019
4615 Clouds 18 1014 82 10000 2.6 320 19:18 10.11.2019
4616 Clouds 19 1014 82 10000 2.6 320 18:54 10.11.2019
4617 Clouds 19 1014 82 10000 2.6 320 18:54 10.11.2019
4618 Clouds 19 1013 82 10000 4.68 302 18:54 10.11.2019
4619 Clouds 19 1013 82 10000 4.68 302 18:36 10.11.2019
4620 Clouds 19 1013 82 10000 4.68 302 18:18 10.11.2019
4621 Clouds 19 1013 82 10000 4.68 302 17:55 10.11.2019
4622 Clouds 19 1013 82 10000 4.68 302 17:36 10.11.2019
4623 Clouds 20 1013 77 10000 2.74 285 17:18 10.11.2019
4624 Clouds 20 1012 68 10000 2.74 285 16:43 10.11.2019
4625 Clouds 20 1012 68 10000 2.74 285 16:25 10.11.2019
4626 Clouds 21 1012 68 10000 2.74 285 15:56 10.11.2019
4627 Clouds 21 1012 64 10000 2.74 285 15:37 10.11.2019
4628 Clouds 21 1012 64 10000 2.74 285 15:18 10.11.2019
4629 Clouds 21 1012 68 10000 1.5 0 14:56 10.11.2019
4630 Clouds 21 1012 60 10000 1.5 0 14:38 10.11.2019
4631 Clouds 21 1012 60 10000 1.5 0 14:20 10.11.2019
4632 Clouds 21 1012 68 10000 1.5 0 13:45 10.11.2019
4633 Clouds 22 1012 68 10000 3.32 187 13:22 10.11.2019
4634 Clouds 22 1012 68 10000 3.32 187 13:22 10.11.2019
4635 Clouds 21 1012 68 10000 3.32 187 13:00 10.11.2019
4636 Clouds 21 1012 82 10000 3.32 187 12:41 10.11.2019
4637 Clouds 21 1012 56 10000 9.8 160 12:19 10.11.2019
4638 Clouds 20 1012 56 10000 9.8 160 11:55 10.11.2019
4639 Clouds 21 1012 82 10000 3.32 187 11:55 10.11.2019
4640 Clouds 21 1012 82 10000 3.32 187 11:55 10.11.2019
4641 Clouds 20 1012 56 10000 9.8 160 11:37 10.11.2019
4642 Rain 20 1013 82 10000 1.5 0 11:19 10.11.2019
4643 Rain 19 1013 82 10000 3.81 191 10:42 10.11.2019
4644 Rain 19 1013 82 10000 3.81 191 10:21 10.11.2019
4645 Rain 19 1013 82 10000 1.5 0 09:57 10.11.2019
4646 Thunderstorm 19 1013 87 6000 3.6 310 09:39 10.11.2019
4647 Clouds 19 1014 60 10000 4.1 200 09:19 10.11.2019
4648 Rain 20 1013 77 10000 3.81 191 08:39 10.11.2019
4649 Rain 19 1013 72 10000 1.5 0 08:20 10.11.2019
4650 Rain 19 1013 77 10000 4.1 170 07:46 10.11.2019
4651 Clouds 19 1013 77 10000 4.1 170 07:27 10.11.2019
4652 Clouds 18 1012 82 10000 4.1 160 06:59 10.11.2019
4653 Clouds 18 1012 82 10000 4.1 160 05:57 10.11.2019
4654 Clouds 19 1013 88 10000 1 0 03:33 10.11.2019
4655 Clouds 18 1013 88 10000 1.5 0 02:30 10.11.2019
4656 Clouds 18 1013 93 10000 7.31 175 01:37 10.11.2019
4657 Clouds 18 1012 93 10000 7.42 176 01:18 10.11.2019
4658 Clouds 18 1013 93 10000 7.42 176 00:25 10.11.2019
4659 Clouds 18 1013 93 10000 7.42 176 23:42 09.11.2019
4660 Clouds 18 1014 93 10000 4.29 165 23:19 09.11.2019
4661 Clouds 18 1015 87 10000 4.29 165 22:42 09.11.2019
4662 Clouds 18 1015 87 10000 4.29 165 22:23 09.11.2019
4663 Clouds 18 1015 87 10000 4.29 165 21:58 09.11.2019
4664 Clouds 18 1014 82 10000 4.29 165 21:40 09.11.2019
4665 Clouds 18 1015 82 10000 1.5 0 21:21 09.11.2019
4666 Clouds 18 1015 82 10000 1.5 0 20:56 09.11.2019
4667 Clouds 18 1014 82 10000 1.5 0 20:38 09.11.2019
4668 Clouds 18 1014 77 10000 1.5 0 20:20 09.11.2019
4669 Clouds 18 1014 77 10000 1.5 0 19:54 09.11.2019
4670 Clouds 18 1014 77 10000 1.5 0 19:36 09.11.2019
4671 Clouds 18 1014 82 10000 0.7 102 19:18 09.11.2019
4672 Clouds 18 1014 82 10000 0.7 102 18:39 09.11.2019
4673 Clouds 18 1014 82 10000 0.7 102 18:39 09.11.2019
4674 Clouds 18 1015 77 10000 0.7 102 18:19 09.11.2019
4675 Clouds 19 1015 72 10000 0.7 102 17:44 09.11.2019
4676 Clouds 19 1015 68 10000 2.1 150 17:23 09.11.2019
4677 Clouds 19 1015 68 10000 2.1 150 16:59 09.11.2019
4678 Clouds 19 1015 68 10000 3.1 150 16:41 09.11.2019
4679 Clouds 20 1015 68 10000 3.1 150 16:20 09.11.2019
4680 Clouds 20 1015 64 10000 3.6 160 15:54 09.11.2019
4681 Clouds 21 1015 60 10000 3.6 170 15:36 09.11.2019
4682 Clouds 21 1015 56 10000 3.1 160 15:18 09.11.2019
4683 Clouds 21 1015 53 10000 3.6 160 14:41 09.11.2019
4684 Clouds 22 1015 53 10000 3.6 170 14:20 09.11.2019
4685 Clouds 22 1015 53 10000 3.6 170 13:57 09.11.2019
4686 Clouds 22 1015 53 10000 3.6 170 13:37 09.11.2019
4687 Clouds 22 1015 53 10000 2.6 150 13:19 09.11.2019
4688 Clouds 22 1015 53 10000 2.6 150 12:47 09.11.2019
4689 Clouds 22 1015 53 10000 2.6 150 12:29 09.11.2019
4690 Clouds 22 1016 49 10000 2.6 160 11:57 09.11.2019
4691 Clouds 22 1016 53 10000 2.1 160 11:39 09.11.2019
4692 Clouds 21 1016 49 10000 1.35 227 11:19 09.11.2019
4693 Clouds 21 1016 53 10000 1.35 227 10:42 09.11.2019
4694 Clouds 21 1016 56 10000 1.35 227 10:20 09.11.2019
4695 Clouds 21 1016 56 10000 1.35 227 09:59 09.11.2019
4696 Clouds 21 1016 56 10000 1.35 227 09:59 09.11.2019
4697 Clouds 20 1017 60 10000 1.35 227 09:41 09.11.2019
4698 Clouds 20 1017 60 10000 1.35 227 09:20 09.11.2019
4699 Clouds 19 1017 72 10000 1.35 227 08:43 09.11.2019
4700 Clouds 18 1017 72 10000 2.02 323 08:24 09.11.2019
4701 Clouds 17 1017 82 10000 2.03 325 07:55 09.11.2019
4702 Clear 16 1018 76 10000 2.03 325 07:37 09.11.2019
4703 Clear 15 1016 87 10000 2.03 325 07:18 09.11.2019
4704 Clear 14 1016 87 10000 2.03 325 06:42 09.11.2019
4705 Rain 14 1016 87 10000 2.03 325 06:23 09.11.2019
4706 Rain 14 1016 87 10000 2.03 325 05:39 09.11.2019
4707 Clouds 14 1015 87 10000 2.79 308 04:29 09.11.2019
4708 Clouds 14 1015 93 10000 2.79 308 02:49 09.11.2019
4709 Clouds 15 1015 93 10000 2.79 308 02:26 09.11.2019
4710 Clouds 15 1015 87 10000 3.78 306 01:18 09.11.2019
4711 Clouds 15 1015 82 10000 3.78 306 00:40 09.11.2019
4712 Clouds 15 1015 82 10000 3.78 306 00:22 09.11.2019
4713 Clouds 16 1015 87 10000 3.78 306 23:40 08.11.2019
4714 Clouds 16 1015 87 10000 4.55 295 23:22 08.11.2019
4715 Clouds 16 1015 87 10000 4.55 295 23:22 08.11.2019
4716 Clouds 16 1015 87 10000 4.55 295 22:58 08.11.2019
4717 Clouds 16 1015 87 10000 4.55 295 22:38 08.11.2019
4718 Clouds 16 1015 87 10000 4.55 295 22:20 08.11.2019
4719 Clouds 17 1015 82 10000 4.55 295 21:42 08.11.2019
4720 Clouds 17 1015 82 10000 4.55 295 21:23 08.11.2019
4721 Clouds 17 1015 82 10000 4.55 295 21:23 08.11.2019
4722 Clouds 17 1015 82 10000 4.55 295 20:57 08.11.2019
4723 Clouds 17 1014 77 10000 4.55 295 20:39 08.11.2019
4724 Clouds 17 1014 82 10000 4.84 290 20:19 08.11.2019
4725 Clouds 17 1014 82 10000 4.84 290 19:54 08.11.2019
4726 Clouds 18 1013 77 10000 4.84 290 19:36 08.11.2019
4727 Clouds 18 1013 72 10000 4.84 290 19:18 08.11.2019
4728 Clouds 18 1013 72 10000 4.84 290 18:54 08.11.2019
4729 Clouds 18 1013 68 10000 4.84 290 18:36 08.11.2019
4730 Clouds 19 1013 68 10000 4.84 290 18:18 08.11.2019
4731 Clouds 19 1013 68 10000 4.84 290 17:54 08.11.2019
4732 Clouds 19 1012 68 10000 4.84 290 17:36 08.11.2019
4733 Clouds 20 1012 64 10000 3.6 285 17:18 08.11.2019
4734 Clouds 20 1012 64 10000 3.6 285 16:55 08.11.2019
4735 Rain 21 1012 60 10000 1 0 16:37 08.11.2019
4736 Rain 21 1011 56 10000 2.6 290 16:18 08.11.2019
4737 Rain 22 1011 53 10000 2.6 250 15:41 08.11.2019
4738 Rain 22 1011 53 10000 2.6 250 15:22 08.11.2019
4739 Clouds 22 1011 50 10000 1.5 0 14:57 08.11.2019
4740 Clouds 22 1011 60 10000 2.6 180 14:38 08.11.2019
4741 Clouds 23 1011 60 10000 2.6 180 14:20 08.11.2019
4742 Clouds 23 1011 60 10000 2.6 160 13:59 08.11.2019
4743 Clouds 23 1010 60 10000 2.6 170 13:39 08.11.2019
4744 Clouds 23 1010 60 10000 2.6 170 13:21 08.11.2019
4745 Clouds 23 1010 57 10000 1.5 0 12:48 08.11.2019
4746 Clouds 23 1010 57 10000 1.5 0 12:29 08.11.2019
4747 Clouds 23 1010 57 10000 2.1 170 11:59 08.11.2019
4748 Clouds 23 1011 60 10000 1 0 11:41 08.11.2019
4749 Clouds 22 1011 64 10000 1 0 11:21 08.11.2019
4750 Clouds 22 1011 64 10000 1 0 10:59 08.11.2019
4751 Clouds 22 1011 64 10000 1 0 10:41 08.11.2019
4752 Clouds 22 1011 64 10000 1 0 10:21 08.11.2019
4753 Clouds 21 1011 69 10000 3.99 193 09:58 08.11.2019
4754 Clouds 21 1011 68 10000 3.99 193 09:38 08.11.2019
4755 Clouds 20 1011 82 10000 1 0 09:19 08.11.2019
4756 Clouds 17 1011 88 10000 3.76 199 08:45 08.11.2019
4757 Clouds 17 1011 88 10000 9.79 178 08:21 08.11.2019
4758 Clouds 15 1011 87 10000 1 0 07:45 08.11.2019
4759 Clouds 15 1011 87 10000 1 0 07:24 08.11.2019
4760 Clouds 15 1010 93 10000 1.5 0 06:58 08.11.2019
4761 Clouds 14 1010 93 10000 2.1 50 06:38 08.11.2019
4762 Thunderstorm 14 1010 93 4000 5.1 70 06:19 08.11.2019
4763 Thunderstorm 16 1012 82 6000 2.6 100 05:36 08.11.2019
4764 Thunderstorm 18 1010 87 6000 3.6 260 04:29 08.11.2019
4765 Rain 19 1009 82 10000 2.1 90 03:43 08.11.2019
4766 Clouds 18 1009 77 10000 6.7 155 03:19 08.11.2019
4767 Clouds 20 1009 77 10000 5.2 140 01:57 08.11.2019
4768 Clouds 21 1009 77 10000 5.2 140 01:37 08.11.2019
4769 Clouds 21 1009 77 10000 4.47 139 00:49 08.11.2019
4770 Clouds 21 1009 77 10000 4.47 139 00:23 08.11.2019
4771 Clouds 21 1009 73 10000 4.47 139 23:55 07.11.2019
4772 Clouds 21 1010 73 10000 3.1 140 23:33 07.11.2019
4773 Clouds 20 1012 68 10000 1 360 22:59 07.11.2019
4774 Clouds 20 1012 82 10000 5.46 154 22:41 07.11.2019
4775 Clouds 20 1010 78 10000 5.1 150 22:21 07.11.2019
4776 Clouds 20 1010 78 10000 5.1 150 21:55 07.11.2019
4777 Clouds 21 1012 77 10000 1 0 21:37 07.11.2019
4778 Clouds 21 1010 78 10000 5.46 154 21:18 07.11.2019
4779 Clouds 21 1010 78 10000 5.46 154 20:55 07.11.2019
4780 Clouds 21 1010 78 10000 6.2 140 20:37 07.11.2019
4781 Clouds 21 1010 83 10000 2.6 140 20:18 07.11.2019
4782 Clouds 21 1012 64 10000 1.5 0 19:41 07.11.2019
4783 Clouds 21 1012 64 10000 1.5 0 19:23 07.11.2019
4784 Clouds 21 1012 68 10000 1.5 240 18:58 07.11.2019
4785 Clouds 21 1010 78 10000 6.09 153 18:39 07.11.2019
4786 Clouds 21 1010 78 10000 2.1 110 18:19 07.11.2019
4787 Clouds 21 1010 78 10000 2.1 110 17:59 07.11.2019
4788 Clouds 22 1010 78 10000 3.6 140 17:39 07.11.2019
4789 Clouds 22 1010 78 10000 3.6 140 17:20 07.11.2019
4790 Clouds 22 1010 73 10000 3.6 140 16:57 07.11.2019
4791 Clouds 22 1010 73 10000 3.1 140 16:38 07.11.2019
4792 Clouds 22 1010 73 10000 3.1 140 16:19 07.11.2019
4793 -273 0 0 0 0 0 15:54 07.11.2019
4794 Clouds 23 1010 69 10000 4.1 150 15:36 07.11.2019
4795 Clouds 23 1010 69 10000 4.1 150 15:18 07.11.2019
4796 Clouds 24 1010 61 10000 5.7 150 14:43 07.11.2019
4797 Clouds 24 1010 61 10000 5.1 150 14:25 07.11.2019
4798 Clouds 24 1010 60 10000 4.6 160 13:56 07.11.2019
4799 Clouds 24 1010 60 10000 4.1 150 13:38 07.11.2019
4800 Clouds 24 1010 60 10000 4.1 150 13:20 07.11.2019
4801 Clouds 24 1011 64 10000 4.1 170 12:58 07.11.2019
4802 Clouds 24 1011 65 10000 4.1 170 12:39 07.11.2019
4803 Clouds 24 1011 65 10000 4.1 170 12:20 07.11.2019
4804 Clouds 24 1012 69 10000 3.6 150 11:44 07.11.2019
4805 Clouds 24 1012 69 10000 3.6 150 11:24 07.11.2019
4806 Clouds 24 1012 69 10000 2.6 140 10:59 07.11.2019
4807 Clouds 23 1012 73 10000 2.6 160 10:40 07.11.2019
4808 Clouds 23 1012 73 10000 2.6 160 10:18 07.11.2019
4809 Clouds 23 1012 78 10000 2.6 150 09:42 07.11.2019
4810 Clouds 23 1012 73 10000 4.3 154 09:40 07.11.2019
4811 Clouds 23 1012 73 10000 4.3 154 09:20 07.11.2019
4812 -273 0 0 0 0 0 08:47 07.11.2019
4813 Clouds 21 1012 78 10000 4.3 154 08:47 07.11.2019
4814 -273 0 0 0 0 0 08:47 07.11.2019
4815 Clouds 21 1012 78 10000 4.3 154 08:46 07.11.2019
4816 Clouds 21 1012 88 10000 2.1 70 08:25 07.11.2019
4817 Clouds 21 1012 88 10000 2.1 70 08:25 07.11.2019
4818 Clouds 21 1012 88 10000 2.1 70 08:25 07.11.2019
4819 Clouds 21 1011 93 10000 2.07 138 07:59 07.11.2019
4820 Clouds 20 1011 93 10000 2.07 138 07:41 07.11.2019
4821 Clouds 19 1011 93 10000 2.07 138 07:21 07.11.2019
4822 -273 0 0 0 0 0 06:48 07.11.2019
4823 Clouds 18 1011 88 10000 2.07 138 06:47 07.11.2019
4824 Clouds 18 1011 88 10000 2.07 138 06:27 07.11.2019
4825 Clouds 18 1011 93 10000 2.07 138 05:51 07.11.2019
4826 Clouds 18 1011 93 10000 2.07 138 05:33 07.11.2019
4827 Clouds 18 1011 87 10000 1.69 133 04:53 07.11.2019
4828 Clouds 18 1011 87 10000 1.69 133 04:52 07.11.2019
4829 Clouds 18 1011 87 10000 1.69 133 04:31 07.11.2019
4830 Clouds 18 1011 87 10000 0.87 135 01:51 07.11.2019
4831 Clouds 18 1011 87 10000 0.87 135 01:49 07.11.2019
4832 Clouds 18 1011 87 10000 0.62 120 00:46 07.11.2019
4833 Clouds 18 1011 87 10000 0.62 120 00:19 07.11.2019
4834 Clouds 18 1011 87 10000 0.62 120 23:47 06.11.2019
4835 Clouds 18 1011 87 10000 0.51 147 23:21 06.11.2019
4836 Clouds 18 1012 87 10000 0.51 147 22:55 06.11.2019
4837 Clouds 18 1011 87 10000 0.51 147 22:37 06.11.2019
4838 Clouds 18 1011 87 10000 0.51 147 22:18 06.11.2019
4839 Clouds 18 1011 87 10000 0.51 147 21:42 06.11.2019
4840 Clouds 18 1013 82 10000 0.5 0 21:20 06.11.2019
4841 Clouds 19 1013 82 10000 0.5 0 20:58 06.11.2019
4842 Clouds 19 1012 88 10000 0.51 147 20:40 06.11.2019
4843 Clouds 19 1012 88 10000 2.38 303 20:21 06.11.2019
4844 Clouds 19 1013 77 10000 1.5 0 19:58 06.11.2019
4845 Clouds 19 1012 82 10000 1.57 277 19:39 06.11.2019
4846 Clouds 19 1012 82 10000 1.57 277 19:21 06.11.2019
4847 Clouds 20 1011 88 10000 1.5 0 18:57 06.11.2019
4848 Clouds 20 1011 88 10000 1.5 0 18:38 06.11.2019
4849 Clouds 20 1011 82 10000 1.57 277 18:19 06.11.2019
4850 Clouds 20 1011 82 10000 1.57 277 17:56 06.11.2019
4851 Clouds 20 1011 82 10000 1.57 277 17:37 06.11.2019
4852 Clouds 20 1011 77 10000 1.13 193 17:18 06.11.2019
4853 Clouds 21 1011 77 10000 1.13 193 16:54 06.11.2019
4854 Clouds 21 1010 73 10000 2.1 150 16:36 06.11.2019
4855 Clouds 22 1010 64 10000 1.5 150 16:18 06.11.2019
4856 Clouds 22 1010 64 10000 1.5 150 15:54 06.11.2019
4857 Clouds 22 1010 64 10000 1.5 150 15:36 06.11.2019
4858 Clouds 22 1010 56 10000 1.5 160 15:18 06.11.2019
4859 Clouds 22 1011 56 10000 2.1 150 14:55 06.11.2019
4860 Clouds 23 1011 56 10000 2.1 150 14:37 06.11.2019
4861 Clouds 23 1011 56 10000 2.6 160 14:18 06.11.2019
4862 Clouds 23 1011 56 10000 2.6 160 13:39 06.11.2019
4863 Clouds 23 1011 56 10000 2.6 160 13:21 06.11.2019
4864 Clouds 23 1011 56 10000 2.6 150 12:58 06.11.2019
4865 Clouds 23 1011 56 10000 3.19 177 12:39 06.11.2019
4866 Clouds 23 1011 56 10000 3.19 177 12:20 06.11.2019
4867 Clouds 23 1012 56 10000 1.5 150 11:58 06.11.2019
4868 Clouds 23 1012 56 10000 3.19 177 11:37 06.11.2019
4869 Clouds 22 1012 56 10000 2.6 150 11:18 06.11.2019
4870 Clouds 22 1012 56 10000 2.6 150 10:56 06.11.2019
4871 Clouds 22 1013 56 10000 2.6 160 10:38 06.11.2019
4872 Clouds 22 1013 64 10000 1.5 160 10:19 06.11.2019
4873 Clouds 21 1013 73 10000 1 0 09:44 06.11.2019
4874 Clouds 21 1013 73 10000 1 0 09:22 06.11.2019
4875 Clouds 20 1013 77 10000 1 0 08:59 06.11.2019
4876 Clouds 20 1013 77 10000 2.45 195 08:38 06.11.2019
4877 Clear 20 1013 77 10000 1.56 304 08:20 06.11.2019
4878 Clouds 19 1013 77 10000 1.55 307 07:57 06.11.2019
4879 Clouds 18 1013 87 10000 1.55 307 07:39 06.11.2019
4880 Clouds 17 1013 100 10000 1.55 307 07:19 06.11.2019
4881 Clouds 16 1013 93 10000 1.55 307 06:44 06.11.2019
4882 Rain 16 1012 93 10000 1.55 307 06:23 06.11.2019
4883 Clouds 16 1013 100 10000 2 306 04:18 06.11.2019
4884 Clouds 17 1013 100 10000 2.47 309 02:20 06.11.2019
4885 Rain 17 1013 93 10000 2.47 309 01:31 06.11.2019
4886 Rain 18 1013 93 10000 2.27 306 00:37 06.11.2019
4887 Clouds 18 1013 100 10000 2.27 306 23:58 05.11.2019
4888 Clouds 18 1013 93 10000 2.27 306 23:38 05.11.2019
4889 Clouds 18 1013 93 10000 1 313 23:19 05.11.2019
4890 Clouds 18 1013 93 10000 1 313 22:43 05.11.2019
4891 Clouds 18 1013 93 10000 1 313 22:20 05.11.2019
4892 Clouds 18 1013 93 10000 1 313 21:59 05.11.2019
4893 Clouds 19 1013 93 10000 1 313 21:41 05.11.2019
4894 Clouds 19 1013 88 10000 1 313 21:20 05.11.2019
4895 Clouds 19 1013 88 10000 1 313 20:57 05.11.2019
4896 Clouds 19 1013 88 10000 1 0 20:38 05.11.2019
4897 Clouds 19 1013 88 10000 1.09 269 20:20 05.11.2019
4898 Clouds 19 1013 88 10000 1.09 269 19:56 05.11.2019
4899 Clouds 19 1013 82 10000 1.09 269 19:37 05.11.2019
4900 Clouds 20 1013 82 10000 1.09 269 19:19 05.11.2019
4901 Clouds 20 1013 82 10000 1.09 269 18:56 05.11.2019
4902 Clouds 19 1013 82 10000 1.09 269 18:38 05.11.2019
4903 Clouds 20 1014 88 10000 1.09 269 18:19 05.11.2019
4904 Clouds 19 1014 88 10000 1.09 269 17:56 05.11.2019
4905 Clouds 20 1015 72 10000 3.1 210 17:37 05.11.2019
4906 Clear 20 1013 77 10000 2.43 180 17:18 05.11.2019
4907 Clouds 21 1013 77 10000 2.43 180 16:41 05.11.2019
4908 Clouds 21 1013 68 10000 1.5 0 16:21 05.11.2019
4909 Clouds 22 1013 68 10000 1.5 0 15:59 05.11.2019
4910 Clouds 22 1013 68 10000 1.5 0 15:37 05.11.2019
4911 Clouds 22 1013 60 10000 2.1 160 15:18 05.11.2019
4912 Clouds 22 1013 60 10000 2.1 160 14:55 05.11.2019
4913 Clouds 22 1013 60 10000 2.1 160 14:55 05.11.2019
4914 Clouds 22 1013 60 10000 2.6 160 14:36 05.11.2019
4915 Clouds 23 1013 53 10000 2.1 170 14:18 05.11.2019
4916 Clouds 23 1013 53 10000 1.5 0 13:43 05.11.2019
4917 Clouds 23 1013 53 10000 1.5 0 13:24 05.11.2019
4918 Clouds 23 1013 56 10000 1.5 0 12:42 05.11.2019
4919 Clouds 23 1013 56 10000 1.5 0 12:23 05.11.2019
4920 Clouds 23 1013 56 10000 1.5 0 12:23 05.11.2019
4921 Clouds 23 1013 56 10000 1.5 0 11:59 05.11.2019
4922 Clouds 23 1014 56 10000 1.5 0 11:40 05.11.2019
4923 Clear 22 1014 64 10000 2.21 275 11:21 05.11.2019
4924 Clear 22 1014 64 10000 2.21 275 10:59 05.11.2019
4925 Clouds 22 1014 64 10000 2.21 275 10:40 05.11.2019
4926 Clouds 22 1014 64 10000 2.21 275 10:22 05.11.2019
4927 Clouds 21 1014 64 10000 2.21 275 09:55 05.11.2019
4928 Clear 21 1014 52 10000 2.21 275 09:37 05.11.2019
4929 Clear 21 1015 72 10000 2.21 275 09:18 05.11.2019
4930 Clear 20 1015 82 10000 2.21 275 08:39 05.11.2019
4931 Clear 19 1015 82 10000 3.37 302 08:20 05.11.2019
4932 Clear 19 1015 82 10000 3.37 302 07:57 05.11.2019
4933 Clear 18 1014 87 10000 3.37 302 07:39 05.11.2019
4934 Clear 18 1014 87 10000 3.37 302 07:39 05.11.2019
4935 Clear 17 1014 87 10000 3.37 302 07:20 05.11.2019
4936 Clouds 16 1014 93 10000 3.37 302 06:50 05.11.2019
4937 Clouds 15 1013 93 10000 3.37 302 05:51 05.11.2019
4938 Clouds 15 1013 93 10000 4.07 299 05:23 05.11.2019
4939 Clouds 15 1013 93 10000 4.07 299 04:31 05.11.2019
4940 Clouds 15 1013 93 10000 4.07 299 03:56 05.11.2019
4941 Clouds 16 1012 93 10000 4.07 299 02:48 05.11.2019
4942 Clouds 16 1012 93 10000 2.95 292 02:22 05.11.2019
4943 Rain 16 1013 93 10000 3 295 01:25 05.11.2019
4944 Clouds 16 1012 93 10000 3 295 00:38 05.11.2019
4945 Clouds 17 1012 93 10000 3 295 23:57 04.11.2019
4946 Clouds 17 1012 93 10000 3 295 23:37 04.11.2019
4947 Clouds 17 1012 93 10000 2.67 208 23:18 04.11.2019
4948 Clouds 16 1012 93 10000 2.67 208 22:42 04.11.2019
4949 Clouds 17 1012 93 10000 2.67 208 22:24 04.11.2019
4950 Clouds 17 1012 93 10000 2.67 208 21:56 04.11.2019
4951 Clouds 17 1012 100 10000 2.67 208 21:38 04.11.2019
4952 Clouds 17 1012 100 10000 2.67 208 21:19 04.11.2019
4953 Clouds 17 1012 100 10000 2.67 208 20:59 04.11.2019
4954 Clouds 17 1012 100 10000 2.67 208 20:40 04.11.2019
4955 Clouds 17 1012 100 10000 3.67 162 20:21 04.11.2019
4956 Clouds 17 1012 100 10000 3.67 162 20:21 04.11.2019
4957 Rain 17 1012 93 10000 2.09 214 19:59 04.11.2019
4958 Rain 17 1012 93 10000 2.09 214 19:41 04.11.2019
4959 Rain 17 1011 93 10000 2.09 214 19:22 04.11.2019
4960 Clouds 17 1011 93 10000 2.09 214 18:57 04.11.2019
4961 Clouds 17 1012 100 10000 2.09 214 18:39 04.11.2019
4962 Clouds 17 1012 93 10000 2.09 214 18:19 04.11.2019
4963 Clouds 17 1011 93 10000 2.09 214 17:55 04.11.2019
4964 Clouds 17 1011 93 10000 2.09 214 17:55 04.11.2019
4965 Clouds 17 1011 93 10000 2.09 214 17:36 04.11.2019
4966 Rain 17 1011 93 10000 6.61 188 17:18 04.11.2019
4967 Rain 17 1010 93 10000 6.61 188 16:41 04.11.2019
4968 Rain 17 1010 100 8000 2.1 120 16:23 04.11.2019
4969 Rain 17 1010 100 8000 2.1 120 15:57 04.11.2019
4970 Rain 17 1010 93 8000 2.6 90 15:39 04.11.2019
4971 Thunderstorm 18 1011 93 7000 3.1 310 15:21 04.11.2019
4972 Thunderstorm 18 1011 93 7000 3.1 310 14:57 04.11.2019
4973 Thunderstorm 21 1010 68 2000 6.2 250 14:39 04.11.2019
4974 Clouds 22 1010 69 10000 5.1 160 14:20 04.11.2019
4975 Clouds 22 1010 69 10000 5.1 160 13:57 04.11.2019
4976 Rain 22 1010 69 10000 5.1 170 13:39 04.11.2019
4977 Clouds 22 1010 64 10000 5.1 160 13:20 04.11.2019
4978 Clouds 22 1011 64 10000 5.1 150 12:45 04.11.2019
4979 Clouds 23 1011 64 10000 5.1 150 12:25 04.11.2019
4980 Clouds 23 1011 69 10000 5.1 140 11:59 04.11.2019
4981 Clouds 22 1011 64 10000 5.1 160 11:41 04.11.2019
4982 Clouds 22 1011 64 10000 5.1 160 11:22 04.11.2019
4983 Clouds 22 1011 64 10000 6.2 160 10:54 04.11.2019
4984 Clouds 22 1011 78 10000 6.2 160 10:36 04.11.2019
4985 Clouds 21 1011 78 10000 5.1 160 10:18 04.11.2019
4986 Rain 21 1012 83 10000 3.6 180 09:40 04.11.2019
4987 Drizzle 21 1012 83 10000 3.1 170 09:20 04.11.2019
4988 Drizzle 20 1012 83 9000 2.1 180 08:43 04.11.2019
4989 Drizzle 20 1012 83 9000 2.1 180 08:23 04.11.2019
4990 Rain 20 1012 82 8000 3.1 180 07:59 04.11.2019
4991 Rain 20 1012 77 8000 4.1 180 07:41 04.11.2019
4992 Clouds 19 1012 88 8000 2.1 170 07:20 04.11.2019
4993 Clouds 19 1012 82 8000 4.1 170 06:49 04.11.2019
4994 Clouds 19 1012 93 8000 2.6 190 06:18 04.11.2019
4995 Rain 19 1012 93 10000 1.5 0 05:37 04.11.2019
4996 Rain 19 1012 88 10000 7.54 178 04:37 04.11.2019
4997 Rain 19 1013 82 10000 2.1 180 03:42 04.11.2019
4998 Clouds 19 1013 83 10000 3.6 150 01:38 04.11.2019
4999 Clouds 19 1014 77 10000 3.6 150 01:18 04.11.2019
5000 Clouds 19 1014 77 10000 2.6 140 00:39 04.11.2019
5001 Clouds 19 1014 77 10000 2.6 140 00:19 04.11.2019
5002 Clouds 19 1014 77 10000 3.1 160 23:40 03.11.2019
5003 Clouds 19 1014 77 10000 3.6 160 23:21 03.11.2019
5004 Clouds 19 1014 77 10000 3.6 160 22:57 03.11.2019
5005 Clouds 19 1015 77 10000 4.1 170 22:39 03.11.2019
5006 Clouds 19 1015 77 10000 4.1 170 22:19 03.11.2019
5007 Clouds 19 1014 77 10000 3.1 180 21:44 03.11.2019
5008 Clouds 19 1014 77 10000 3.1 180 21:22 03.11.2019
5009 Clouds 19 1015 77 10000 1.5 0 20:59 03.11.2019
5010 Clouds 19 1015 77 10000 1.5 0 20:38 03.11.2019
5011 Clouds 19 1015 72 10000 1 0 20:20 03.11.2019
5012 Clouds 19 1015 72 10000 1 0 19:58 03.11.2019
5013 Clouds 18 1015 72 10000 1 0 19:39 03.11.2019
5014 Clouds 18 1015 72 10000 1.5 0 19:21 03.11.2019
5015 Clouds 18 1015 72 10000 1.5 0 18:59 03.11.2019
5016 Clouds 19 1015 72 10000 2.1 170 18:38 03.11.2019
5017 Clouds 19 1015 68 10000 3.1 160 18:18 03.11.2019
5018 Clouds 19 1015 68 10000 3.1 160 17:56 03.11.2019
5019 Clouds 19 1015 68 10000 2.6 150 17:37 03.11.2019
5020 Clouds 19 1015 64 10000 3.6 150 17:18 03.11.2019
5021 Clouds 19 1015 64 10000 4.6 150 16:54 03.11.2019
5022 Clouds 19 1015 64 10000 4.6 150 16:36 03.11.2019
5023 Clouds 19 1015 64 10000 5.7 150 16:18 03.11.2019
5024 Clouds 20 1015 60 10000 5.7 140 15:43 03.11.2019
5025 Clouds 20 1015 60 10000 5.7 140 15:24 03.11.2019
5026 Clouds 20 1015 56 10000 6.2 160 14:56 03.11.2019
5027 Clouds 20 1015 56 10000 3.6 150 14:38 03.11.2019
5028 Clouds 21 1015 56 10000 4.72 163 14:18 03.11.2019
5029 Clouds 21 1015 56 10000 4.72 163 14:18 03.11.2019
5030 Clouds 21 1015 56 10000 3.1 150 13:43 03.11.2019
5031 Clouds 21 1015 53 10000 3.1 150 13:20 03.11.2019
5032 Clouds 21 1015 53 10000 3.1 150 12:58 03.11.2019
5033 Clouds 21 1016 56 10000 2.6 160 12:37 03.11.2019
5034 Clouds 21 1016 56 10000 3.1 0 12:18 03.11.2019
5035 Clouds 20 1017 56 10000 2.6 0 11:43 03.11.2019
5036 Clouds 20 1017 56 10000 1.5 0 11:22 03.11.2019
5037 Clouds 20 1017 56 10000 1.5 0 10:58 03.11.2019
5038 Clouds 20 1017 60 10000 1.5 150 10:39 03.11.2019
5039 Clouds 20 1017 56 10000 4.13 175 10:21 03.11.2019
5040 Clouds 20 1017 56 10000 4.13 175 10:21 03.11.2019
5041 Clouds 19 1017 56 10000 4.13 175 09:55 03.11.2019
5042 Clouds 19 1017 56 10000 4.13 175 09:37 03.11.2019
5043 Clouds 19 1017 52 10000 4.13 175 09:19 03.11.2019
5044 Clouds 18 1017 59 10000 4.13 175 08:38 03.11.2019
5045 Clouds 17 1017 67 10000 2.11 135 08:20 03.11.2019
5046 Clouds 16 1017 76 10000 2.11 135 07:45 03.11.2019
5047 Clouds 15 1017 76 10000 2.11 135 07:23 03.11.2019
5048 Clouds 13 1016 81 10000 1 0 06:46 03.11.2019
5049 Clear 12 1016 81 10000 2.11 135 06:28 03.11.2019
5050 Clear 12 1016 81 10000 2.11 135 05:38 03.11.2019
5051 Clear 12 1016 76 10000 1.04 143 04:56 03.11.2019
5052 Clear 12 1017 76 10000 1.04 143 04:33 03.11.2019
5053 Clear 12 1016 76 10000 1.04 143 03:30 03.11.2019
5054 Clear 13 1017 76 10000 1.04 143 02:30 03.11.2019
5055 Clear 13 1018 87 10000 1.5 0 01:59 03.11.2019
5056 Clear 13 1017 76 10000 1.54 38 01:38 03.11.2019
5057 Clear 13 1018 87 10000 1 0 01:19 03.11.2019
5058 Clear 13 1017 76 10000 1.49 44 00:42 03.11.2019
5059 Clear 13 1017 76 10000 1.49 44 00:23 03.11.2019
5060 Clear 13 1017 71 10000 1.49 44 23:57 02.11.2019
5061 Clear 13 1017 71 10000 1.49 44 23:37 02.11.2019
5062 Clear 13 1017 71 10000 1.9 24 23:18 02.11.2019
5063 Clear 13 1017 71 10000 1.9 24 22:55 02.11.2019
5064 Clear 14 1017 71 10000 1.9 24 22:37 02.11.2019
5065 Clear 14 1017 71 10000 1.9 24 22:18 02.11.2019
5066 Clear 14 1017 71 10000 1.9 24 22:18 02.11.2019
5067 Clear 14 1017 71 10000 1.9 24 21:55 02.11.2019
5068 Clear 14 1017 71 10000 1.9 24 21:55 02.11.2019
5069 Clear 14 1017 71 10000 1.9 24 21:37 02.11.2019
5070 Clear 14 1017 67 10000 1.9 24 21:18 02.11.2019
5071 Clear 14 1017 67 10000 1.9 24 20:57 02.11.2019
5072 Clear 14 1017 67 10000 1.87 23 20:38 02.11.2019
5073 Clouds 15 1018 71 10000 1.5 250 20:19 02.11.2019
5074 Clear 15 1017 62 10000 0.98 45 19:40 02.11.2019
5075 Clear 15 1017 62 10000 0.98 45 19:22 02.11.2019
5076 Clouds 16 1017 59 10000 0.98 45 18:56 02.11.2019
5077 Clouds 16 1017 59 10000 0.98 45 18:37 02.11.2019
5078 Clouds 16 1016 63 10000 2.1 70 18:19 02.11.2019
5079 Clouds 16 1016 63 10000 2.1 70 17:56 02.11.2019
5080 Clouds 17 1016 63 10000 2.1 70 17:37 02.11.2019
5081 Clouds 17 1016 52 10000 1.5 80 17:19 02.11.2019
5082 Clouds 17 1016 52 10000 1.5 80 16:56 02.11.2019
5083 Clouds 18 1015 48 10000 2.1 80 16:36 02.11.2019
5084 Clouds 18 1015 48 10000 2.1 80 16:36 02.11.2019
5085 Clouds 18 1015 42 10000 1.5 80 16:18 02.11.2019
5086 Clouds 18 1015 42 10000 1.5 80 16:18 02.11.2019
5087 Clouds 19 1015 40 10000 2.1 80 15:41 02.11.2019
5088 Clouds 19 1016 37 10000 2.1 80 15:19 02.11.2019
5089 Clouds 20 1015 35 10000 2.1 70 14:42 02.11.2019
5090 Clouds 20 1015 35 10000 2.1 70 14:23 02.11.2019
5091 Clouds 20 1015 35 10000 3.1 80 13:57 02.11.2019
5092 Clouds 20 1015 37 10000 2.6 0 13:38 02.11.2019
5093 Clouds 20 1016 37 10000 0.52 180 13:18 02.11.2019
5094 Clouds 20 1016 37 10000 1.5 0 12:41 02.11.2019
5095 Clouds 20 1016 40 10000 1.5 0 12:22 02.11.2019
5096 Clouds 20 1016 37 10000 1.5 0 12:22 02.11.2019
5097 Clouds 20 1016 40 10000 1.5 0 11:57 02.11.2019
5098 Clouds 20 1016 43 10000 1.5 0 11:39 02.11.2019
5099 Clouds 19 1017 46 10000 1.5 0 11:20 02.11.2019
5100 Clouds 19 1017 46 10000 2.1 130 10:48 02.11.2019
5101 Clouds 19 1017 46 10000 2.1 130 10:28 02.11.2019
5102 Clouds 18 1017 49 10000 1.84 357 09:58 02.11.2019
5103 Clouds 19 1017 49 10000 1.84 357 09:39 02.11.2019
5104 Clouds 18 1017 52 10000 1.84 357 09:19 02.11.2019
5105 Clouds 18 1017 52 10000 1.84 357 09:19 02.11.2019
5106 Clouds 17 1017 59 10000 1.84 357 08:45 02.11.2019
5107 Clouds 16 1017 67 10000 3.45 358 08:22 02.11.2019
5108 Clouds 16 1017 67 10000 3.45 358 07:50 02.11.2019
5109 Clouds 15 1017 77 10000 3.45 358 07:32 02.11.2019
5110 Clouds 15 1017 82 10000 3.45 358 06:55 02.11.2019
5111 Clouds 14 1017 87 10000 3.45 358 06:37 02.11.2019
5112 Clouds 14 1017 76 10000 3.45 358 05:59 02.11.2019
5113 Clouds 14 1017 76 10000 3.45 358 05:25 02.11.2019
5114 Clouds 14 1017 76 10000 2.74 5 04:23 02.11.2019
5115 Clouds 14 1019 76 10000 3.6 10 03:50 02.11.2019
5116 Clouds 14 1019 82 10000 4.6 10 02:44 02.11.2019
5117 Clouds 14 1017 76 10000 2.68 353 01:55 02.11.2019
5118 Clouds 15 1017 67 10000 3.24 353 01:24 02.11.2019
5119 Clouds 15 1017 72 10000 3.24 353 00:51 02.11.2019
5120 Clouds 15 1017 72 10000 3.24 353 00:26 02.11.2019
5121 Clouds 15 1017 72 10000 3.24 353 23:48 01.11.2019
5122 Clouds 15 1017 67 10000 3.39 3 23:23 01.11.2019
5123 Clouds 15 1017 67 10000 3.39 3 22:58 01.11.2019
5124 Clouds 15 1018 72 10000 3.39 3 22:39 01.11.2019
5125 Clouds 15 1018 67 10000 3.39 3 22:20 01.11.2019
5126 Clouds 15 1018 72 10000 3.39 3 21:41 01.11.2019
5127 Clouds 16 1018 63 10000 3.39 3 21:23 01.11.2019
5128 Clouds 15 1018 63 10000 3.39 3 20:57 01.11.2019
5129 Clouds 16 1018 67 10000 3.39 3 20:39 01.11.2019
5130 Clouds 15 1018 77 10000 4.28 10 20:19 01.11.2019
5131 Clouds 15 1018 77 10000 4.28 10 19:56 01.11.2019
5132 Clouds 16 1018 72 10000 4.28 10 19:37 01.11.2019
5133 Clouds 16 1017 67 10000 4.28 10 19:19 01.11.2019
5134 Clouds 16 1017 67 10000 4.28 10 18:39 01.11.2019
5135 Clouds 16 1017 67 10000 4.28 10 18:39 01.11.2019
5136 Clouds 16 1017 67 10000 4.28 10 18:21 01.11.2019
5137 Clouds 16 1017 67 10000 4.28 10 17:55 01.11.2019
5138 Clouds 16 1016 67 10000 4.28 10 17:37 01.11.2019
5139 Clouds 16 1016 72 10000 4.78 17 17:19 01.11.2019
5140 Clouds 16 1016 63 10000 2.1 350 16:38 01.11.2019
5141 Clouds 16 1016 63 10000 2.1 350 16:38 01.11.2019
5142 Clouds 17 1016 63 10000 3.6 360 16:19 01.11.2019
5143 Clouds 17 1016 63 10000 3.6 360 15:54 01.11.2019
5144 Clouds 17 1016 63 10000 4.78 17 15:36 01.11.2019
5145 Clouds 18 1015 60 10000 3.1 330 15:18 01.11.2019
5146 Clouds 18 1017 63 10000 7.7 30 14:41 01.11.2019
5147 Clouds 18 1015 56 10000 3.6 10 14:23 01.11.2019
5148 Clouds 18 1015 56 10000 3.6 10 13:57 01.11.2019
5149 Clouds 18 1016 56 10000 5.1 20 13:37 01.11.2019
5150 Clouds 18 1016 60 10000 1.5 80 13:19 01.11.2019
5151 Clouds 18 1016 60 10000 1.5 80 13:19 01.11.2019
5152 Clouds 18 1016 60 10000 1.5 100 12:43 01.11.2019
5153 Clouds 18 1016 60 10000 1.5 100 12:25 01.11.2019
5154 Rain 18 1016 56 10000 3.1 10 11:56 01.11.2019
5155 Rain 18 1016 60 10000 3.1 320 11:38 01.11.2019
5156 Rain 18 1016 60 10000 3.1 340 11:19 01.11.2019
5157 Clouds 18 1016 63 10000 2.1 350 10:41 01.11.2019
5158 Clouds 18 1016 63 10000 4.1 340 10:21 01.11.2019
5159 Clouds 18 1016 63 10000 4.1 340 09:57 01.11.2019
5160 Clouds 18 1016 68 10000 4.1 340 09:38 01.11.2019
5161 Clouds 18 1016 60 10000 3.1 330 09:19 01.11.2019
5162 Clouds 18 1016 60 10000 3.1 330 09:19 01.11.2019
5163 Clouds 17 1015 68 10000 3 26 08:42 01.11.2019
5164 Clouds 17 1015 77 10000 2.53 16 08:22 01.11.2019
5165 Clouds 17 1015 77 10000 2.53 16 08:22 01.11.2019
5166 Clouds 17 1015 77 10000 2.53 16 07:56 01.11.2019
5167 Clouds 16 1015 77 10000 2.53 16 07:37 01.11.2019
5168 Clouds 16 1015 82 10000 2.53 16 07:18 01.11.2019
5169 Clouds 16 1015 82 10000 2.53 16 06:40 01.11.2019
5170 Clouds 16 1015 82 10000 2.53 16 06:21 01.11.2019
5171 Clouds 16 1014 82 10000 1.5 0 05:43 01.11.2019
5172 Clouds 16 1015 93 10000 4.6 30 03:42 01.11.2019
5173 Clouds 16 1014 77 10000 3.1 310 02:47 01.11.2019
5174 Clouds 16 1014 77 10000 2.6 340 01:28 01.11.2019
5175 Clouds 16 1014 77 10000 3.49 44 00:39 01.11.2019
5176 Clouds 16 1014 77 10000 2.1 330 00:18 01.11.2019
5177 Clouds 16 1014 77 10000 3.49 44 23:42 31.10.2019
5178 Clouds 16 1014 77 10000 3.6 330 23:22 31.10.2019
5179 Clouds 17 1014 77 10000 3.6 330 22:55 31.10.2019
5180 Clouds 17 1014 77 10000 3.6 320 22:36 31.10.2019
5181 Clouds 17 1014 77 10000 2.1 310 22:18 31.10.2019
5182 Clouds 17 1014 77 10000 2.57 33 21:41 31.10.2019
5183 Clouds 16 1014 88 10000 1.5 300 21:20 31.10.2019
5184 Clouds 16 1014 88 10000 1.5 300 20:56 31.10.2019
5185 Clouds 17 1014 93 10000 2.57 33 20:37 31.10.2019
5186 Clouds 17 1014 100 10000 0.58 237 20:19 31.10.2019
5187 Clouds 17 1014 100 10000 0.58 237 19:40 31.10.2019
5188 Clouds 17 1015 88 10000 0.5 0 19:21 31.10.2019
5189 Clouds 17 1014 100 9000 0.58 237 18:56 31.10.2019
5190 Rain 17 1014 100 9000 0.58 237 18:38 31.10.2019
5191 Rain 17 1014 100 9000 0.58 237 18:19 31.10.2019
5192 Rain 17 1014 100 9000 0.58 237 17:41 31.10.2019
5193 Rain 17 1014 100 7000 1.78 135 17:22 31.10.2019
5194 Rain 17 1014 100 7000 1.78 135 16:58 31.10.2019
5195 Rain 17 1014 100 7000 1.78 135 16:58 31.10.2019
5196 Rain 17 1014 93 3000 2.1 300 16:40 31.10.2019
5197 Rain 17 1014 93 3000 2.1 300 16:40 31.10.2019
5198 Rain 18 1014 93 3000 2.1 320 16:20 31.10.2019
5199 Rain 18 1014 93 3000 2.1 320 15:54 31.10.2019
5200 Rain 18 1013 82 9000 1.5 0 15:36 31.10.2019
5201 Rain 18 1013 88 9000 1.5 0 15:18 31.10.2019
5202 Rain 18 1013 93 9000 1.78 135 14:41 31.10.2019
5203 Rain 18 1013 93 9000 2.82 157 14:23 31.10.2019
5204 Rain 18 1014 93 8000 2.82 157 13:59 31.10.2019
5205 Thunderstorm 19 1014 93 6000 2.82 157 13:39 31.10.2019
5206 Thunderstorm 20 1014 93 3000 2.6 300 13:20 31.10.2019
5207 Thunderstorm 20 1014 93 3000 2.6 300 12:58 31.10.2019
5208 Rain 21 1014 83 8000 1.51 174 12:40 31.10.2019
5209 Clouds 21 1014 77 8000 1.51 174 12:22 31.10.2019
5210 Clouds 21 1015 73 7000 1.5 0 11:47 31.10.2019
5211 Rain 21 1015 73 7000 1.84 162 11:21 31.10.2019
5212 Rain 21 1015 73 7000 1.84 162 10:59 31.10.2019
5213 Rain 21 1015 73 7000 1.84 162 10:59 31.10.2019
5214 Clouds 21 1016 73 7000 1.84 162 10:40 31.10.2019
5215 Clouds 21 1016 73 7000 1.84 162 10:21 31.10.2019
5216 Clouds 21 1016 73 7000 1.84 162 09:59 31.10.2019
5217 Clouds 20 1016 73 8000 1.84 162 09:39 31.10.2019
5218 Clouds 20 1016 68 9000 1.84 162 09:18 31.10.2019
5219 Clouds 19 1016 72 9000 1.27 133 08:46 31.10.2019
5220 Clouds 19 1016 72 9000 1.84 162 08:27 31.10.2019
5221 Clouds 18 1016 77 9000 1.35 57 07:54 31.10.2019
5222 Clouds 17 1016 82 9000 1.35 57 07:36 31.10.2019
5223 Clouds 17 1016 82 10000 1.35 57 07:18 31.10.2019
5224 Clouds 17 1016 82 10000 1.35 57 06:33 31.10.2019
5225 Clouds 16 1016 87 10000 1.35 57 05:58 31.10.2019
5226 Clouds 17 1016 87 10000 1.43 52 03:30 31.10.2019
5227 Clouds 16 1017 87 10000 1.43 52 02:38 31.10.2019
5228 Clouds 16 1017 87 10000 1.03 112 01:50 31.10.2019
5229 Clouds 17 1017 87 10000 0.95 118 00:36 31.10.2019
5230 Clouds 17 1017 82 10000 0.95 118 23:56 30.10.2019
5231 Clouds 17 1017 82 10000 0.95 118 23:28 30.10.2019
5232 Clouds 17 1017 82 10000 1.87 169 22:43 30.10.2019
5233 Clouds 17 1017 82 10000 1 0 22:23 30.10.2019
5234 Clouds 17 1017 82 10000 1 0 21:56 30.10.2019
5235 Clouds 18 1017 82 10000 1 0 21:37 30.10.2019
5236 Clouds 18 1018 82 10000 1.87 169 21:18 30.10.2019
5237 Clouds 18 1018 82 10000 1.87 169 20:59 30.10.2019
5238 Clouds 18 1018 82 10000 1.87 169 20:59 30.10.2019
5239 Clouds 18 1018 82 10000 2.01 169 20:41 30.10.2019
5240 Clouds 18 1018 82 10000 2.01 169 20:41 30.10.2019
5241 Clouds 18 1018 82 10000 2.01 169 20:41 30.10.2019
5242 Clouds 18 1018 82 10000 1.88 168 20:22 30.10.2019
5243 Clouds 18 1018 77 10000 1.67 154 19:58 30.10.2019
5244 Clouds 18 1018 72 10000 1.67 154 19:38 30.10.2019
5245 Clouds 18 1017 77 10000 1.67 154 19:20 30.10.2019
5246 Clouds 18 1017 77 10000 1.67 154 18:58 30.10.2019
5247 Clouds 19 1017 73 10000 1.5 0 18:37 30.10.2019
5248 Clouds 19 1017 77 10000 1.67 154 18:18 30.10.2019
5249 Clouds 20 1017 73 10000 1.67 154 17:41 30.10.2019
5250 Clouds 20 1017 73 10000 2.63 173 17:19 30.10.2019
5251 Clouds 21 1016 68 10000 1.5 180 16:56 30.10.2019
5252 Clouds 21 1016 68 10000 1.5 180 16:38 30.10.2019
5253 Clear 21 1018 68 10000 2.1 110 16:20 30.10.2019
5254 Clouds 22 1016 60 10000 1.5 170 15:57 30.10.2019
5255 Clouds 22 1016 57 10000 2.6 180 15:38 30.10.2019
5256 Clouds 23 1016 50 10000 2.1 180 15:19 30.10.2019
5257 Clouds 23 1016 50 10000 2.1 180 14:56 30.10.2019
5258 Clouds 23 1016 50 10000 2.1 180 14:56 30.10.2019
5259 Clouds 23 1016 41 10000 2.1 160 14:38 30.10.2019
5260 Clouds 23 1016 44 10000 1.5 160 14:18 30.10.2019
5261 Clouds 23 1016 50 10000 2.1 190 13:42 30.10.2019
5262 Clouds 23 1016 57 10000 2.6 190 13:21 30.10.2019
5263 Clouds 23 1016 57 10000 2.6 190 12:59 30.10.2019
5264 Clouds 24 1016 57 10000 2.6 190 12:41 30.10.2019
5265 Clear 23 1016 50 10000 2.1 170 12:22 30.10.2019
5266 Clear 23 1017 50 10000 2.1 190 11:43 30.10.2019
5267 Clear 23 1017 50 10000 2.1 190 11:25 30.10.2019
5268 Clear 23 1017 47 10000 2.15 168 10:59 30.10.2019
5269 Clear 22 1017 44 10000 2.15 168 10:41 30.10.2019
5270 Clear 22 1017 44 10000 2.15 168 10:22 30.10.2019
5271 Clear 21 1017 53 10000 1.5 0 09:41 30.10.2019
5272 Clear 21 1019 68 10000 1 0 09:22 30.10.2019
5273 Clear 20 1017 56 10000 2.15 168 08:56 30.10.2019
5274 Clear 20 1017 60 10000 2.15 168 08:38 30.10.2019
5275 Clear 19 1017 68 10000 1.82 359 08:18 30.10.2019
5276 Clear 18 1017 82 10000 1.82 359 07:43 30.10.2019
5277 Clear 16 1017 87 10000 1.82 359 06:59 30.10.2019
5278 Clear 15 1016 82 10000 1.82 359 06:40 30.10.2019
5279 Clouds 15 1016 87 10000 1.82 359 05:58 30.10.2019
5280 Clouds 14 1016 87 10000 1.82 359 05:39 30.10.2019
5281 Rain 15 1016 87 10000 1.41 358 03:54 30.10.2019
5282 Rain 15 1016 87 10000 1.41 358 03:23 30.10.2019
5283 Clear 15 1016 87 10000 1.41 358 02:49 30.10.2019
5284 Clear 15 1016 87 10000 0.77 38 01:49 30.10.2019
5285 Clear 16 1016 82 10000 0.86 25 00:43 30.10.2019
5286 Clear 16 1016 82 10000 0.86 25 00:25 30.10.2019
5287 Clear 16 1016 82 10000 0.86 25 23:41 29.10.2019
5288 Clear 16 1016 87 10000 0.62 112 23:22 29.10.2019
5289 Clear 16 1016 82 10000 0.62 112 22:45 29.10.2019
5290 Clear 16 1017 87 10000 0.62 112 22:20 29.10.2019
5291 Clear 16 1017 87 10000 0.62 112 21:56 29.10.2019
5292 Clear 17 1016 82 10000 0.62 112 21:38 29.10.2019
5293 Clear 17 1016 82 10000 0.62 112 21:20 29.10.2019
5294 Clear 17 1017 82 10000 0.62 112 20:54 29.10.2019
5295 Clear 17 1017 82 10000 0.62 112 20:36 29.10.2019
5296 Clear 17 1016 82 10000 1.76 144 20:18 29.10.2019
5297 Clear 17 1016 82 10000 1.76 144 19:55 29.10.2019
5298 Clear 18 1016 82 10000 1.76 144 19:36 29.10.2019
5299 Clear 18 1016 77 10000 1.76 144 19:18 29.10.2019
5300 Clear 18 1016 77 10000 1.76 144 18:54 29.10.2019
5301 Clear 18 1016 77 10000 1.76 144 18:36 29.10.2019
5302 Clear 19 1016 77 10000 1.76 144 18:18 29.10.2019
5303 Clear 19 1017 72 10000 0.5 0 17:40 29.10.2019
5304 Clear 20 1015 68 10000 2.6 170 17:21 29.10.2019
5305 Clear 20 1015 68 10000 2.6 170 16:58 29.10.2019
5306 Clear 21 1015 73 10000 3.1 190 16:38 29.10.2019
5307 Clear 21 1014 64 10000 3.6 180 16:19 29.10.2019
5308 Clear 21 1014 64 10000 3.6 180 15:54 29.10.2019
5309 Clear 22 1014 56 10000 3.1 190 15:36 29.10.2019
5310 Clear 22 1014 56 10000 2.6 180 15:18 29.10.2019
5311 Clear 22 1014 53 10000 2.1 170 14:42 29.10.2019
5312 Clear 22 1015 53 10000 2.6 170 14:24 29.10.2019
5313 Clear 23 1015 53 10000 2.6 170 13:58 29.10.2019
5314 Clouds 23 1015 53 10000 3.6 170 13:39 29.10.2019
5315 Clouds 22 1015 53 10000 3.6 170 13:21 29.10.2019
5316 Clouds 23 1015 60 10000 3.6 170 12:44 29.10.2019
5317 Clouds 23 1015 60 10000 3.6 170 12:25 29.10.2019
5318 Clouds 23 1015 53 10000 2.1 190 11:57 29.10.2019
5319 Clear 22 1015 53 10000 3.1 190 11:38 29.10.2019
5320 Clear 22 1015 56 10000 2.6 190 11:19 29.10.2019
5321 Clear 22 1015 56 10000 2.6 190 10:57 29.10.2019
5322 Clear 22 1015 60 10000 2.6 180 10:38 29.10.2019
5323 Clear 21 1015 56 10000 1.93 169 10:19 29.10.2019
5324 Clear 21 1015 56 10000 1.93 169 09:44 29.10.2019
5325 Clear 20 1015 60 10000 1.93 169 09:23 29.10.2019
5326 Clear 20 1015 60 10000 1.93 169 09:23 29.10.2019
5327 Clear 19 1015 60 10000 1.93 169 08:58 29.10.2019
5328 Clear 19 1015 60 10000 1.93 169 08:39 29.10.2019
5329 Clear 18 1015 63 10000 1.33 14 08:21 29.10.2019
5330 Clear 17 1015 72 10000 1.33 14 07:49 29.10.2019
5331 Rain 16 1015 76 10000 1.33 14 07:22 29.10.2019
5332 Rain 16 1015 76 10000 1.33 14 06:59 29.10.2019
5333 Clear 15 1014 82 10000 1.33 14 06:41 29.10.2019
5334 Clear 14 1014 82 10000 1.33 14 06:19 29.10.2019
5335 Clear 14 1014 76 10000 1.33 14 05:49 29.10.2019
5336 Clear 14 1014 82 10000 1.62 350 05:18 29.10.2019
5337 Clear 14 1014 82 10000 1.62 350 03:34 29.10.2019
5338 Clear 15 1013 82 10000 1.62 350 02:32 29.10.2019
5339 Clouds 15 1013 77 10000 1.28 8 01:43 29.10.2019
5340 Clouds 15 1014 77 10000 1.5 350 00:57 29.10.2019
5341 Clouds 15 1014 82 10000 1.56 18 00:30 29.10.2019
5342 Clouds 16 1014 77 10000 1.56 18 23:42 28.10.2019
5343 Clouds 16 1014 77 10000 1.39 124 23:20 28.10.2019
5344 Clouds 16 1014 77 10000 1.39 124 22:57 28.10.2019
5345 Clouds 16 1014 72 10000 1.39 124 22:37 28.10.2019
5346 Clouds 16 1014 72 10000 1.39 124 22:18 28.10.2019
5347 Clouds 16 1014 72 10000 1.39 124 21:54 28.10.2019
5348 Clouds 17 1014 77 10000 1.39 124 21:36 28.10.2019
5349 Clouds 17 1014 72 10000 1.39 124 21:18 28.10.2019
5350 Clouds 17 1014 72 10000 1.39 124 20:42 28.10.2019
5351 Clouds 17 1014 72 10000 1.5 300 20:24 28.10.2019
5352 Clouds 17 1014 72 10000 1.86 152 20:24 28.10.2019
5353 Clouds 18 1014 72 10000 1.5 300 19:58 28.10.2019
5354 Clouds 18 1013 72 10000 1.86 152 19:39 28.10.2019
5355 Clouds 18 1013 68 10000 1.86 152 19:20 28.10.2019
5356 Clouds 18 1013 68 10000 1.86 152 18:58 28.10.2019
5357 Clouds 18 1013 68 10000 1 0 18:39 28.10.2019
5358 Clouds 19 1013 68 10000 1.5 0 18:21 28.10.2019
5359 Clouds 19 1013 68 10000 1 0 18:21 28.10.2019
5360 Clouds 19 1013 68 10000 1.5 0 17:56 28.10.2019
5361 Clouds 19 1013 68 10000 1.5 0 17:38 28.10.2019
5362 Clouds 20 1012 64 10000 1.5 0 17:19 28.10.2019
5363 Clouds 20 1012 64 10000 1.5 0 16:56 28.10.2019
5364 Clouds 21 1012 56 10000 1.5 0 16:38 28.10.2019
5365 Clouds 21 1012 49 10000 2.1 190 16:19 28.10.2019
5366 Clouds 22 1012 49 10000 2.1 190 15:56 28.10.2019
5367 Clouds 22 1012 49 10000 1.5 0 15:38 28.10.2019
5368 Clouds 23 1012 50 10000 2.59 181 15:18 28.10.2019
5369 Clouds 23 1012 50 10000 2.59 181 14:55 28.10.2019
5370 Clouds 23 1012 50 10000 2.1 170 14:37 28.10.2019
5371 Clouds 23 1012 50 10000 1.5 0 14:18 28.10.2019
5372 Clouds 23 1012 50 10000 1.5 0 14:18 28.10.2019
5373 Clouds 23 1012 50 10000 1.5 0 13:54 28.10.2019
5374 Clouds 23 1012 50 10000 2.1 180 13:36 28.10.2019
5375 Clouds 23 1012 50 10000 2.1 180 13:18 28.10.2019
5376 Clouds 23 1013 50 10000 2.1 180 12:40 28.10.2019
5377 Clouds 23 1013 50 10000 2.6 200 12:20 28.10.2019
5378 Clouds 23 1013 50 10000 2.6 200 12:20 28.10.2019
5379 Clouds 22 1013 53 10000 1.5 0 11:40 28.10.2019
5380 Clear 22 1014 53 10000 1.5 0 11:21 28.10.2019
5381 Clear 22 1014 53 10000 1.5 0 10:57 28.10.2019
5382 Clear 22 1014 46 10000 1.39 177 10:38 28.10.2019
5383 Clear 21 1014 43 10000 1.5 0 10:19 28.10.2019
5384 Clear 21 1014 43 10000 1.5 0 09:55 28.10.2019
5385 Clear 21 1014 43 10000 1.39 177 09:55 28.10.2019
5386 Clear 21 1014 43 10000 1.39 177 09:36 28.10.2019
5387 Clear 21 1014 43 10000 1.39 177 09:18 28.10.2019
5388 Clear 20 1014 43 10000 1.39 177 08:56 28.10.2019
5389 Clear 20 1014 46 10000 1.54 170 08:37 28.10.2019
5390 Clear 19 1014 52 10000 1.75 26 08:18 28.10.2019
5391 Clear 18 1016 63 10000 1 0 07:43 28.10.2019
5392 Clear 18 1015 63 10000 1 240 07:23 28.10.2019
5393 Clear 16 1015 63 10000 1 240 06:59 28.10.2019
5394 Clear 15 1015 72 10000 1 260 06:37 28.10.2019
5395 Clear 15 1013 71 10000 2.33 3 05:19 28.10.2019
5396 Clear 16 1014 67 10000 2.33 3 03:44 28.10.2019
5397 Clear 15 1014 67 10000 2.33 3 02:45 28.10.2019
5398 Clear 16 1016 76 10000 1.5 0 01:52 28.10.2019
5399 Clear 16 1014 59 10000 1.74 16 00:47 28.10.2019
5400 Clear 16 1015 58 10000 1.74 16 00:25 28.10.2019
5401 Clear 17 1016 67 10000 1.5 0 23:44 27.10.2019
5402 Clear 17 1016 67 10000 1.5 0 23:22 27.10.2019
5403 Clear 17 1015 59 10000 1.6 7 22:57 27.10.2019
5404 Clear 17 1015 59 10000 1.6 7 22:37 27.10.2019
5405 Clear 17 1015 55 10000 1.6 7 22:19 27.10.2019
5406 Clear 17 1015 55 10000 1.6 7 21:56 27.10.2019
5407 Clear 17 1015 52 10000 1.6 7 21:38 27.10.2019
5408 Clear 17 1015 48 10000 1.6 7 21:20 27.10.2019
5409 Clear 18 1016 55 10000 1.6 7 20:42 27.10.2019
5410 Clear 18 1016 55 10000 1.78 22 20:24 27.10.2019
5411 Clear 18 1016 55 10000 1.78 22 19:59 27.10.2019
5412 Clear 18 1015 55 10000 1.5 0 19:39 27.10.2019
5413 Clear 19 1015 49 10000 1 0 19:20 27.10.2019
5414 Clear 19 1015 49 10000 1 0 18:57 27.10.2019
5415 Clear 19 1016 46 10000 1.5 0 18:39 27.10.2019
5416 Clear 20 1015 43 10000 1 0 18:21 27.10.2019
5417 Clear 20 1015 43 10000 1 0 17:56 27.10.2019
5418 Clear 21 1015 40 10000 1.78 22 17:37 27.10.2019
5419 Clear 21 1015 33 10000 1.5 0 17:19 27.10.2019
5420 Clear 22 1015 33 10000 1.5 0 16:56 27.10.2019
5421 Clear 22 1015 31 10000 2.1 320 16:38 27.10.2019
5422 Clear 23 1017 53 10000 6.7 60 16:19 27.10.2019
5423 Clear 24 1015 29 10000 3.1 310 15:55 27.10.2019
5424 Clear 24 1015 28 10000 2.6 340 15:37 27.10.2019
5425 Clear 24 1015 28 10000 3.1 360 15:18 27.10.2019
5426 Clear 25 1015 28 10000 4.1 320 14:41 27.10.2019
5427 Clear 25 1015 30 10000 4.1 310 14:20 27.10.2019
5428 Clear 25 1015 30 10000 4.1 310 13:56 27.10.2019
5429 Clear 25 1016 28 10000 4.1 340 13:38 27.10.2019
5430 Clear 25 1016 28 10000 3.6 330 13:19 27.10.2019
5431 Clear 25 1016 30 10000 3.6 330 12:45 27.10.2019
5432 Clear 25 1017 28 10000 3.6 340 12:24 27.10.2019
5433 Clear 25 1017 28 10000 3.6 340 11:57 27.10.2019
5434 Clear 25 1017 30 10000 3.6 340 11:38 27.10.2019
5435 Clear 24 1018 30 10000 3.6 340 11:20 27.10.2019
5436 Clear 24 1018 31 10000 3.6 340 10:44 27.10.2019
5437 Clear 24 1018 31 10000 3.6 340 10:24 27.10.2019
5438 Clear 23 1018 31 10000 3.6 340 09:56 27.10.2019
5439 Clear 23 1018 33 10000 3.6 340 09:37 27.10.2019
5440 Clear 23 1018 33 10000 3.6 340 09:37 27.10.2019
5441 Clear 22 1018 36 10000 3.6 330 09:18 27.10.2019
5442 Clear 22 1018 36 10000 3.6 330 09:18 27.10.2019
5443 Clear 22 1019 38 10000 3.6 330 08:42 27.10.2019
5444 Clear 20 1019 38 10000 2.1 350 08:22 27.10.2019
5445 Clear 20 1019 38 10000 2.1 350 07:56 27.10.2019
5446 Clear 19 1019 43 10000 2.1 350 07:38 27.10.2019
5447 Clear 19 1019 49 10000 1 0 07:19 27.10.2019
5448 Clear 18 1018 52 10000 3.54 4 06:42 27.10.2019
5449 Clear 18 1018 52 10000 3.54 4 06:42 27.10.2019
5450 Clear 17 1018 52 10000 3.54 4 06:23 27.10.2019
5451 Clear 17 1018 48 10000 3.54 4 05:39 27.10.2019
5452 Clear 18 1018 45 10000 3.56 1 04:50 27.10.2019
5453 Clear 17 1020 67 10000 2.6 70 02:54 27.10.2019
5454 Clear 18 1019 40 10000 3.1 320 01:49 27.10.2019
5455 Clear 18 1019 43 10000 2.6 330 01:20 27.10.2019
5456 Clear 18 1020 43 10000 2.1 310 00:43 27.10.2019
5457 Clear 18 1020 43 10000 3.68 353 00:22 27.10.2019
5458 Clear 18 1020 40 10000 2.6 330 23:55 26.10.2019
5459 Clear 18 1020 40 10000 2.6 330 23:36 26.10.2019
5460 Clear 18 1020 37 10000 3.6 330 23:18 26.10.2019
5461 Clear 19 1020 37 10000 3.6 330 22:55 26.10.2019
5462 Clear 19 1020 40 10000 3.68 353 22:36 26.10.2019
5463 Clear 19 1021 45 10000 2.6 70 22:18 26.10.2019
5464 Clear 19 1020 43 10000 2.6 320 21:42 26.10.2019
5465 Clear 19 1020 43 10000 3.1 340 21:21 26.10.2019
5466 Clear 19 1020 43 10000 2.1 330 20:46 26.10.2019
5467 Clear 19 1020 43 10000 2.1 330 20:46 26.10.2019
5468 Clear 19 1020 46 10000 3.1 320 20:20 26.10.2019
5469 Clear 19 1020 46 10000 3.1 320 19:59 26.10.2019
5470 Clear 20 1021 45 10000 3.1 10 19:40 26.10.2019
5471 Clear 20 1020 46 10000 3.1 330 19:20 26.10.2019
5472 Clear 20 1020 46 10000 3.1 330 18:56 26.10.2019
5473 Clear 20 1020 46 10000 3.1 330 18:56 26.10.2019
5474 Clear 20 1020 49 10000 4.1 330 18:38 26.10.2019
5475 Clear 21 1021 43 10000 4.6 10 18:18 26.10.2019
5476 Clear 22 1021 43 10000 4.6 10 17:56 26.10.2019
5477 Clear 22 1019 43 10000 3.1 350 17:37 26.10.2019
5478 Clear 23 1019 41 10000 5.7 330 17:18 26.10.2019
5479 Clear 23 1019 38 10000 5.1 330 16:43 26.10.2019
5480 Clear 24 1019 38 10000 5.1 330 16:24 26.10.2019
5481 Clear 24 1019 34 10000 4.6 340 15:44 26.10.2019
5482 Clear 24 1019 34 10000 5.7 330 15:21 26.10.2019
5483 Clear 24 1019 34 10000 5.7 330 14:58 26.10.2019
5484 Clear 25 1019 36 10000 4.6 330 14:37 26.10.2019
5485 Clear 25 1019 36 10000 4.1 350 14:18 26.10.2019
5486 Clear 25 1019 34 10000 5.1 340 13:42 26.10.2019
5487 Clear 24 1021 39 0 8.06 359 13:22 26.10.2019
5488 Clear 24 1019 41 10000 5.1 330 12:50 26.10.2019
5489 Clear 24 1019 41 10000 5.1 330 12:27 26.10.2019
5490 Clear 24 1020 44 10000 5.1 330 11:58 26.10.2019
5491 Clear 23 1020 44 10000 5.1 330 11:40 26.10.2019
5492 Clear 23 1020 44 10000 7.7 330 11:22 26.10.2019
5493 Clear 22 1020 43 10000 4.6 330 10:46 26.10.2019
5494 Clear 22 1020 43 10000 4.6 330 10:25 26.10.2019
5495 Clouds 21 1020 46 10000 5.1 330 09:48 26.10.2019
5496 Clouds 21 1020 46 10000 5.1 330 09:29 26.10.2019
5497 Clouds 18 1020 49 10000 3.6 340 08:48 26.10.2019
5498 Clouds 18 1020 49 10000 3.6 340 08:27 26.10.2019
5499 Clouds 16 1020 49 10000 3.6 330 07:57 26.10.2019
5500 Clear 16 1019 49 10000 3.6 340 07:34 26.10.2019
5501 Clear 16 1019 52 10000 3.6 340 06:56 26.10.2019
5502 Clear 16 1019 52 10000 1.5 320 06:38 26.10.2019
5503 Clear 16 1018 48 10000 2.6 330 05:24 26.10.2019
5504 Clear 17 1018 48 10000 2.6 330 04:59 26.10.2019
5505 Clear 17 1019 45 10000 4.1 10 03:31 26.10.2019
5506 Clear 17 1018 49 10000 2.6 330 02:28 26.10.2019
5507 Clear 17 1019 52 10000 4.1 30 01:45 26.10.2019
5508 Clear 18 1018 46 10000 3.1 330 00:50 26.10.2019
5509 Clear 18 1018 52 10000 2.6 360 23:48 25.10.2019
5510 Clear 18 1018 46 10000 2.6 340 23:22 25.10.2019
5511 Clear 18 1018 46 10000 2.6 340 22:58 25.10.2019
5512 Clear 19 1018 43 10000 2.6 340 22:39 25.10.2019
5513 Clear 19 1017 40 10000 3.1 330 22:21 25.10.2019
5514 Clear 19 1017 40 10000 3.1 330 21:55 25.10.2019
5515 Clear 19 1017 40 10000 4.1 320 21:37 25.10.2019
5516 Clear 19 1017 46 10000 4.6 330 21:18 25.10.2019
5517 Clear 20 1017 49 10000 4.6 330 20:42 25.10.2019
5518 Clear 20 1017 52 10000 5.1 330 20:19 25.10.2019
5519 Clear 20 1016 49 10000 3.1 340 19:47 25.10.2019
5520 Clear 20 1016 49 10000 3.1 340 19:27 25.10.2019
5521 Clear 21 1016 49 10000 3.6 340 18:56 25.10.2019
5522 Clear 21 1016 43 10000 4.1 330 18:37 25.10.2019
5523 Clear 22 1015 38 10000 2.6 330 18:19 25.10.2019
5524 Clear 22 1015 38 10000 3.6 320 17:39 25.10.2019
5525 Clear 23 1015 36 10000 4.1 320 17:20 25.10.2019
5526 Clear 24 1015 31 10000 4.1 330 16:46 25.10.2019
5527 Clear 24 1015 31 10000 4.1 330 16:23 25.10.2019
5528 Clear 24 1015 31 10000 4.6 320 15:57 25.10.2019
5529 Clear 25 1015 30 10000 4.1 330 15:38 25.10.2019
5530 Clear 25 1015 30 10000 4.1 320 15:20 25.10.2019
5531 Clear 25 1015 30 10000 4.6 330 14:42 25.10.2019
5532 Clear 25 1015 30 10000 4.6 330 14:23 25.10.2019
5533 Clear 25 1015 30 10000 4.6 320 13:59 25.10.2019
5534 Clear 25 1015 30 10000 4.1 330 13:39 25.10.2019
5535 Clear 25 1015 30 10000 4.1 340 13:21 25.10.2019
5536 Clear 25 1016 31 10000 4.6 330 12:43 25.10.2019
5537 Clear 24 1016 31 10000 4.6 330 12:22 25.10.2019
5538 Clear 24 1016 31 10000 5.1 340 11:59 25.10.2019
5539 Clear 24 1016 33 10000 4.6 330 11:38 25.10.2019
5540 Clear 23 1016 36 10000 4.6 320 11:19 25.10.2019
5541 Clear 23 1016 38 10000 4.1 330 10:41 25.10.2019
5542 Clear 22 1016 38 10000 5.1 330 10:23 25.10.2019
5543 Clear 21 1016 38 10000 5.1 330 09:59 25.10.2019
5544 Clear 21 1016 38 10000 4.1 330 09:39 25.10.2019
5545 Clear 20 1016 37 10000 4.1 330 09:20 25.10.2019
5546 Clear 20 1016 37 10000 4.1 330 08:51 25.10.2019
5547 Clear 20 1016 37 10000 4.1 330 08:51 25.10.2019
5548 Clear 19 1016 35 10000 3.6 320 08:33 25.10.2019
5549 Clear 18 1016 37 10000 3.6 320 07:58 25.10.2019
5550 Clear 17 1016 40 10000 1.5 0 07:40 25.10.2019
5551 Clear 16 1015 42 10000 2.6 310 07:22 25.10.2019
5552 Clear 16 1015 40 10000 4.1 320 06:36 25.10.2019
5553 Clear 16 1015 40 10000 3.1 310 05:48 25.10.2019
5554 Clear 16 1015 40 10000 3.6 320 05:21 25.10.2019
5555 Clear 16 1015 40 10000 2.6 330 03:59 25.10.2019
5556 Clear 17 1015 32 10000 1.5 0 02:22 25.10.2019
5557 Clear 17 1015 35 10000 1.5 0 01:51 25.10.2019
5558 Clear 18 1015 32 10000 1.5 0 00:26 25.10.2019
5559 Clear 19 1015 32 10000 3.1 310 23:41 24.10.2019
5560 Clear 18 1015 32 10000 3.1 310 23:23 24.10.2019
5561 Clear 19 1015 32 10000 2.6 310 22:57 24.10.2019
5562 Clear 18 1015 30 10000 1.5 0 22:38 24.10.2019
5563 Clear 19 1015 30 10000 3.1 300 22:19 24.10.2019
5564 Clear 18 1015 30 10000 3.1 300 21:57 24.10.2019
5565 Clear 19 1015 32 10000 3.6 320 21:38 24.10.2019
5566 Clear 19 1015 32 10000 3.6 320 21:38 24.10.2019
5567 Clear 20 1015 37 10000 3.1 310 21:19 24.10.2019
5568 Clear 20 1015 37 10000 3.1 310 20:57 24.10.2019
5569 Clear 20 1015 37 10000 4.1 330 20:38 24.10.2019
5570 Clear 20 1016 40 10000 3.1 320 20:20 24.10.2019
5571 Clear 20 1016 40 10000 3.1 320 19:55 24.10.2019
5572 Clear 20 1015 43 10000 3.1 320 19:37 24.10.2019
5573 Clear 20 1015 43 10000 2.6 310 19:18 24.10.2019
5574 Clear 21 1015 35 10000 3.1 330 18:41 24.10.2019
5575 Clear 21 1015 40 0 2.68 31 18:23 24.10.2019
5576 Clear 22 1015 31 10000 3.6 320 17:59 24.10.2019
5577 Clear 23 1015 31 10000 5.1 330 17:40 24.10.2019
5578 Clear 23 1015 31 10000 4.6 350 17:20 24.10.2019
5579 Clear 23 1015 31 10000 4.6 350 16:56 24.10.2019
5580 Clear 24 1014 27 10000 4.1 340 16:37 24.10.2019
5581 Clear 24 1014 30 10000 3.6 330 16:19 24.10.2019
5582 Clear 24 1014 30 10000 3.6 330 15:56 24.10.2019
5583 Clear 25 1015 30 10000 4.1 350 15:38 24.10.2019
5584 Clear 25 1015 26 10000 4.6 360 15:19 24.10.2019
5585 Clear 25 1016 23 10000 10.3 40 14:55 24.10.2019
5586 Clear 25 1015 28 10000 4.6 340 14:36 24.10.2019
5587 Clear 25 1015 28 10000 5.7 330 14:18 24.10.2019
5588 Clear 25 1015 30 10000 5.1 340 13:40 24.10.2019
5589 Clear 25 1016 28 10000 5.1 340 13:19 24.10.2019
5590 Clear 25 1016 28 10000 5.1 340 12:57 24.10.2019
5591 Clear 25 1016 28 10000 4.6 350 12:38 24.10.2019
5592 Clear 24 1016 28 10000 4.6 350 12:19 24.10.2019
5593 Clear 24 1016 28 10000 4.6 350 11:56 24.10.2019
5594 Clear 24 1017 29 10000 5.1 340 11:37 24.10.2019
5595 Clear 24 1017 29 10000 5.1 340 11:37 24.10.2019
5596 Clear 24 1017 31 10000 6.2 320 11:19 24.10.2019
5597 Clear 24 1017 31 10000 6.2 320 10:55 24.10.2019
5598 Clear 24 1017 31 10000 5.7 320 10:36 24.10.2019
5599 Clear 23 1017 31 10000 5.7 320 10:18 24.10.2019
5600 Clear 23 1017 33 10000 3.6 330 09:37 24.10.2019
5601 Clear 21 1017 33 10000 4.1 330 09:18 24.10.2019
5602 Clear 21 1017 35 10000 4.1 320 08:44 24.10.2019
5603 Clear 20 1017 35 10000 3.6 320 08:20 24.10.2019
5604 Clear 20 1017 35 10000 3.6 320 07:56 24.10.2019
5605 Clear 20 1017 37 10000 3.6 320 07:38 24.10.2019
5606 Clear 19 1016 37 10000 3.6 310 07:20 24.10.2019
5607 Clear 19 1016 37 10000 3.6 310 06:39 24.10.2019
5608 Clear 19 1016 37 10000 3.1 310 05:57 24.10.2019
5609 Clear 19 1016 37 10000 3.1 300 05:39 24.10.2019
5610 Clear 19 1016 40 10000 3.1 320 04:44 24.10.2019
5611 Clear 19 1017 40 10000 2.6 330 03:36 24.10.2019
5612 Clear 19 1017 40 10000 4.1 320 02:51 24.10.2019
5613 Clear 19 1017 40 10000 4.1 320 02:22 24.10.2019
5614 Clear 19 1017 43 10000 3.6 320 01:33 24.10.2019
5615 Clear 19 1017 45 10000 2.1 320 00:57 24.10.2019
5616 Clear 19 1018 42 10000 5.7 360 00:37 24.10.2019
5617 Clear 19 1018 40 10000 4.1 320 00:18 24.10.2019
5618 Clear 19 1019 48 10000 4.6 360 23:42 23.10.2019
5619 Clear 19 1018 40 10000 5.1 340 23:21 23.10.2019
5620 Clear 19 1018 40 10000 5.1 340 22:57 23.10.2019
5621 Clear 19 1018 43 10000 5.1 330 22:37 23.10.2019
5622 Clear 19 1018 46 10000 5.1 330 22:18 23.10.2019
5623 Clear 19 1018 46 10000 5.1 330 21:57 23.10.2019
5624 Clear 19 1018 49 10000 6.2 330 21:38 23.10.2019
5625 Clear 19 1018 46 10000 4.1 340 21:19 23.10.2019
5626 Clear 19 1018 46 10000 4.1 340 20:56 23.10.2019
5627 Clear 19 1019 48 10000 5.1 360 20:37 23.10.2019
5628 Clear 19 1018 43 10000 6.2 340 20:19 23.10.2019
5629 Clear 20 1018 46 10000 5.1 330 19:45 23.10.2019
5630 Clear 20 1018 42 10000 3.1 360 19:20 23.10.2019
5631 Clear 20 1018 42 10000 3.1 360 18:59 23.10.2019
5632 Clear 20 1017 49 10000 4.1 330 18:39 23.10.2019
5633 Clear 21 1017 46 10000 5.1 320 18:19 23.10.2019
5634 Clear 21 1017 46 10000 5.1 320 17:58 23.10.2019
5635 Clear 21 1017 46 10000 5.1 320 17:58 23.10.2019
5636 Clear 22 1017 40 10000 3.1 10 17:40 23.10.2019
5637 Clear 22 1017 43 10000 6.2 330 17:19 23.10.2019
5638 Clear 22 1017 43 10000 6.2 330 16:54 23.10.2019
5639 Clear 23 1017 44 10000 6.7 330 16:36 23.10.2019
5640 Clear 22 1017 44 10000 6.7 330 16:36 23.10.2019
5641 Clear 23 1016 41 10000 6.2 340 16:18 23.10.2019
5642 Clear 23 1017 41 10000 6.2 330 15:40 23.10.2019
5643 Clear 24 1016 41 10000 5.1 330 15:21 23.10.2019
5644 Clear 24 1016 41 10000 5.1 330 14:57 23.10.2019
5645 Clouds 24 1016 41 10000 6.2 330 14:38 23.10.2019
5646 Clear 24 1018 47 10000 6.2 40 14:19 23.10.2019
5647 Clear 24 1018 47 10000 6.2 40 14:19 23.10.2019
5648 Clear 24 1018 47 10000 6.2 40 13:57 23.10.2019
5649 Clouds 24 1017 44 10000 7.2 340 13:38 23.10.2019
5650 Clouds 24 1017 39 10000 7.2 10 13:20 23.10.2019
5651 Clouds 24 1019 49 10000 7.7 20 12:41 23.10.2019
5652 Clouds 23 1018 41 10000 6.2 340 12:20 23.10.2019
5653 Clouds 23 1018 41 10000 6.2 340 11:58 23.10.2019
5654 Clouds 23 1018 41 10000 6.2 340 11:58 23.10.2019
5655 Clouds 23 1018 44 10000 6.2 320 11:40 23.10.2019
5656 Clouds 23 1019 44 10000 9.3 350 11:21 23.10.2019
5657 Clouds 23 1019 44 10000 9.3 350 10:59 23.10.2019
5658 Clouds 23 1019 44 10000 8.7 360 10:41 23.10.2019
5659 Clouds 22 1019 46 10000 8.7 360 10:22 23.10.2019
5660 Clouds 21 1019 46 10000 6.2 350 09:41 23.10.2019
5661 Clouds 21 1019 46 10000 6.2 350 09:41 23.10.2019
5662 Clouds 21 1019 46 10000 6.2 350 09:23 23.10.2019
5663 Clouds 20 1019 56 10000 4.1 340 08:57 23.10.2019
5664 Clouds 20 1019 60 10000 3.6 340 08:39 23.10.2019
5665 Clouds 19 1019 64 10000 3.1 340 08:18 23.10.2019
5666 Clouds 19 1018 64 10000 5.1 350 07:45 23.10.2019
5667 Clouds 19 1019 63 10000 5.1 20 07:21 23.10.2019
5668 Clouds 18 1018 64 10000 5.1 340 06:45 23.10.2019
5669 Clouds 18 1018 64 10000 6.7 340 06:20 23.10.2019
5670 Clouds 19 1018 64 10000 7.2 340 05:23 23.10.2019
5671 Clouds 19 1017 64 10000 8.2 340 04:34 23.10.2019
5672 Clouds 19 1018 64 10000 2.6 330 02:45 23.10.2019
5673 Clouds 19 1018 64 10000 2.6 330 02:25 23.10.2019
5674 Clouds 20 1018 56 10000 3.6 350 01:26 23.10.2019
5675 Clear 20 1018 60 10000 13.4 40 00:38 23.10.2019
5676 Clear 20 1018 60 10000 13.4 40 00:38 23.10.2019
5677 Clouds 20 1019 56 10000 4.1 340 00:19 23.10.2019
5678 Clouds 20 1019 56 10000 7.2 340 23:39 22.10.2019
5679 Clouds 20 1019 56 10000 7.2 330 23:18 22.10.2019
5680 Clouds 20 1019 56 10000 7.2 330 23:18 22.10.2019
5681 Clouds 20 1019 56 10000 7.2 330 22:55 22.10.2019
5682 Clouds 20 1019 56 10000 3.6 350 22:37 22.10.2019
5683 Clouds 20 1019 56 10000 4.6 340 22:19 22.10.2019
5684 Clouds 20 1019 56 10000 4.6 340 21:56 22.10.2019
5685 Clouds 20 1019 53 10000 3.6 310 21:36 22.10.2019
5686 Clouds 20 1019 53 10000 3.6 310 21:36 22.10.2019
5687 Clouds 20 1019 53 10000 4.1 320 21:18 22.10.2019
5688 Clouds 20 1019 53 10000 4.1 320 20:55 22.10.2019
5689 Clouds 20 1018 53 10000 4.6 330 20:37 22.10.2019
5690 Clouds 20 1018 53 10000 4.1 320 20:18 22.10.2019
5691 Clouds 20 1018 53 10000 4.6 330 19:42 22.10.2019
5692 Clouds 21 1018 53 10000 4.6 330 19:24 22.10.2019
5693 Clouds 21 1018 49 10000 6.2 340 18:57 22.10.2019
5694 Clouds 21 1018 46 10000 6.7 340 18:39 22.10.2019
5695 Clear 22 1019 46 10000 4.1 10 18:21 22.10.2019
5696 Clear 22 1019 46 10000 4.1 10 17:56 22.10.2019
5697 Clear 22 1019 46 10000 4.1 10 17:56 22.10.2019
5698 Clouds 22 1018 44 10000 7.7 350 17:38 22.10.2019
5699 Clouds 22 1018 44 10000 7.7 340 17:19 22.10.2019
5700 Clouds 23 1018 44 10000 7.7 340 16:56 22.10.2019
5701 Clouds 23 1017 44 10000 6.2 340 16:37 22.10.2019
5702 Clouds 23 1017 39 10000 6.2 350 16:18 22.10.2019
5703 Clouds 24 1017 39 10000 6.2 350 15:43 22.10.2019
5704 Clouds 24 1017 39 10000 6.7 350 15:20 22.10.2019
5705 Clouds 24 1017 39 10000 5.7 350 14:50 22.10.2019
5706 Clouds 25 1017 39 10000 5.7 350 14:23 22.10.2019
5707 Clouds 25 1018 39 10000 5.7 330 13:59 22.10.2019
5708 Clouds 25 1018 41 10000 6.2 330 13:41 22.10.2019
5709 Clouds 25 1018 41 10000 5.7 340 13:19 22.10.2019
5710 Rain 25 1018 41 10000 5.7 340 12:56 22.10.2019
5711 Rain 24 1018 41 10000 6.7 350 12:38 22.10.2019
5712 Rain 24 1019 44 10000 5.7 340 12:19 22.10.2019
5713 Clouds 24 1019 44 10000 4.1 350 11:41 22.10.2019
5714 Clouds 24 1019 44 10000 4.1 350 11:22 22.10.2019
5715 Clouds 24 1019 41 10000 7.2 350 10:59 22.10.2019
5716 Clouds 24 1019 47 10000 5.1 350 10:38 22.10.2019
5717 Clouds 23 1019 50 10000 5.1 350 10:19 22.10.2019
5718 Clouds 23 1019 50 10000 5.1 350 10:19 22.10.2019
5719 Clouds 23 1019 53 10000 4.6 340 09:58 22.10.2019
5720 Clouds 22 1019 53 10000 4.6 340 09:40 22.10.2019
5721 Clouds 22 1019 53 10000 4.6 340 09:21 22.10.2019
5722 Clouds 22 1019 53 10000 3.6 340 08:55 22.10.2019
5723 Clouds 21 1019 56 10000 3.6 340 08:37 22.10.2019
5724 Clouds 21 1019 60 10000 5.1 330 08:18 22.10.2019
5725 Clouds 20 1018 60 10000 4.1 320 07:44 22.10.2019
5726 Clouds 20 1018 60 10000 4.1 320 07:24 22.10.2019
5727 Clouds 19 1018 56 10000 3.1 320 06:44 22.10.2019
5728 Clouds 19 1018 56 10000 3.1 320 06:25 22.10.2019
5729 Clear 19 1018 56 10000 4.6 320 05:40 22.10.2019
5730 Clear 19 1019 60 10000 4.1 330 04:22 22.10.2019
5731 Clear 20 1019 60 10000 3.6 340 02:31 22.10.2019
5732 Clear 20 1019 60 10000 2.6 20 01:38 22.10.2019
5733 Clear 20 1019 60 10000 4.1 360 01:18 22.10.2019
5734 Clear 20 1019 56 10000 4.1 360 00:42 22.10.2019
5735 Clear 19 1019 56 10000 4.1 360 00:24 22.10.2019
5736 Clear 19 1019 49 10000 2.6 350 23:59 21.10.2019
5737 Clear 19 1019 49 10000 2.6 350 23:59 21.10.2019
5738 Clear 19 1019 52 10000 1.5 0 23:38 21.10.2019
5739 Clear 19 1019 60 10000 1.5 0 23:19 21.10.2019
5740 Clear 19 1019 60 10000 1.5 0 22:58 21.10.2019
5741 Clear 20 1019 56 10000 2.1 340 22:39 21.10.2019
5742 Clear 20 1019 56 10000 2.6 360 22:20 21.10.2019
5743 Clear 20 1019 56 10000 2.6 360 21:58 21.10.2019
5744 Clear 21 1019 53 10000 2.6 350 21:38 21.10.2019
5745 Clear 21 1019 53 10000 2.6 350 21:20 21.10.2019
5746 Clear 21 1019 49 10000 3.1 330 20:57 21.10.2019
5747 Clear 21 1019 49 10000 3.95 357 20:39 21.10.2019
5748 Clear 21 1019 49 10000 1.5 0 20:20 21.10.2019
5749 Clear 21 1019 49 10000 1.5 0 19:56 21.10.2019
5750 Clear 22 1019 46 10000 4.6 340 19:37 21.10.2019
5751 Clear 22 1019 46 10000 3.6 340 19:19 21.10.2019
5752 Clear 22 1019 46 10000 3.6 340 18:55 21.10.2019
5753 Clear 22 1019 47 10000 1.5 0 18:36 21.10.2019
5754 Clear 23 1019 41 10000 3.1 320 18:18 21.10.2019
5755 Clear 24 1019 39 10000 3.6 350 17:39 21.10.2019
5756 Clear 24 1018 36 10000 3.6 350 17:20 21.10.2019
5757 Clear 24 1018 36 10000 3.6 350 16:59 21.10.2019
5758 Clear 25 1018 39 10000 3.1 350 16:40 21.10.2019
5759 Clear 25 1018 39 10000 3.1 350 16:22 21.10.2019
5760 Clear 25 1018 37 10000 4.1 350 15:58 21.10.2019
5761 Clear 26 1018 34 10000 4.1 340 15:39 21.10.2019
5762 Clear 26 1018 34 10000 3.6 340 15:20 21.10.2019
5763 Clear 26 1019 37 10000 3.6 330 14:55 21.10.2019
5764 Clear 26 1019 37 10000 3.6 330 14:36 21.10.2019
5765 Clear 26 1019 39 10000 4.6 320 14:18 21.10.2019
5766 Clear 26 1019 39 10000 3.6 320 13:42 21.10.2019
5767 Clear 26 1019 42 10000 5.1 310 13:20 21.10.2019
5768 Clear 26 1019 42 10000 5.1 310 12:59 21.10.2019
5769 Clear 26 1020 44 10000 4.6 330 12:40 21.10.2019
5770 Clear 25 1020 47 10000 5.1 330 12:20 21.10.2019
5771 Clear 25 1020 47 10000 5.1 330 11:55 21.10.2019
5772 Clear 25 1020 47 10000 4.6 330 11:36 21.10.2019
5773 Clouds 25 1020 50 10000 5.1 320 11:18 21.10.2019
5774 Clouds 24 1020 50 10000 5.1 320 10:54 21.10.2019
5775 Clouds 24 1020 50 10000 5.1 320 10:54 21.10.2019
5776 Clouds 24 1020 50 10000 5.1 320 10:54 21.10.2019
5777 Clear 24 1020 47 10000 4.6 330 10:36 21.10.2019
5778 Clear 23 1020 47 10000 4.1 340 10:18 21.10.2019
5779 Clear 23 1020 47 10000 4.1 330 09:41 21.10.2019
5780 Mist 22 1020 47 10000 4.1 330 09:22 21.10.2019
5781 Clear 21 1020 49 10000 4.6 320 08:42 21.10.2019
5782 Clear 20 1020 49 10000 4.6 320 08:23 21.10.2019
5783 Clear 19 1020 53 10000 4.6 320 07:56 21.10.2019
5784 Clear 19 1021 82 10000 1 0 07:37 21.10.2019
5785 Mist 18 1019 53 10000 3.1 320 07:18 21.10.2019
5786 Clear 18 1019 53 10000 3.6 320 06:44 21.10.2019
5787 Clear 18 1019 53 10000 3.6 320 06:25 21.10.2019
5788 Clear 18 1019 53 10000 3.6 320 05:41 21.10.2019
5789 Clear 18 1019 60 10000 3.68 1.525 03:41 21.10.2019
5790 Clear 18 1019 77 10000 2.97 1.139 02:40 21.10.2019
5791 Clear 18 1019 77 10000 2.97 1.139 02:20 21.10.2019
5792 Clear 18 1019 82 10000 2.97 1.139 01:48 21.10.2019
5793 Clear 18 1019 82 10000 2.85 2.316 01:20 21.10.2019
5794 Clear 19 1019 77 10000 2.85 2.316 00:41 21.10.2019
5795 Clear 19 1019 77 10000 1.88 348.966 00:22 21.10.2019
5796 Clear 19 1019 77 10000 1.88 348.966 23:40 20.10.2019
5797 Clear 19 1019 77 10000 1.88 348.966 23:21 20.10.2019
5798 Clear 19 1020 77 10000 1.88 348.966 22:55 20.10.2019
5799 Clear 19 1020 77 10000 1.88 348.966 22:36 20.10.2019
5800 Clear 20 1020 72 10000 1.88 348.966 22:18 20.10.2019
5801 Clear 20 1019 72 10000 1.88 348.966 21:40 20.10.2019
5802 Clear 20 1019 72 10000 1.88 348.966 21:40 20.10.2019
5803 Clear 20 1019 72 10000 0.7 271.895 21:22 20.10.2019
5804 Clear 20 1019 77 10000 0.91 292.668 20:59 20.10.2019
5805 Clear 20 1019 77 10000 0.91 292.668 20:39 20.10.2019
5806 Clear 21 1019 77 10000 0.91 292.668 20:18 20.10.2019
5807 Clear 21 1019 77 10000 0.91 292.668 20:18 20.10.2019
5808 Clear 21 1019 77 10000 0.91 292.668 19:56 20.10.2019
5809 Clear 21 1019 78 10000 0.91 292.668 19:37 20.10.2019
5810 Clear 22 1019 78 10000 0.91 292.668 19:19 20.10.2019
5811 Clear 22 1018 73 10000 0.91 292.668 18:42 20.10.2019
5812 Clear 22 1018 73 10000 1.6 165.269 18:23 20.10.2019
5813 Clear 23 1018 64 10000 1.6 165.269 17:59 20.10.2019
5814 Clouds 23 1018 57 10000 1.6 165.269 17:40 20.10.2019
5815 Clouds 24 1018 57 10000 1.6 165.269 17:21 20.10.2019
5816 Clouds 24 1018 57 10000 1.5 0 16:56 20.10.2019
5817 Clouds 24 1018 54 10000 2.1 200 16:37 20.10.2019
5818 Clouds 24 1018 54 10000 2.6 190 16:18 20.10.2019
5819 Clouds 25 1018 54 10000 2.6 190 15:55 20.10.2019
5820 Clouds 25 1018 54 10000 2.1 180 15:36 20.10.2019
5821 Clouds 25 1018 54 10000 2.6 190 15:18 20.10.2019
5822 Clouds 25 1018 57 10000 2.6 200 14:41 20.10.2019
5823 Clouds 25 1018 57 10000 2.6 200 14:23 20.10.2019
5824 Clouds 25 1018 57 10000 2.6 190 13:56 20.10.2019
5825 Clouds 25 1019 57 10000 2.6 190 13:37 20.10.2019
5826 Clouds 25 1019 51 10000 1.5 0 13:19 20.10.2019
5827 Clouds 26 1019 51 10000 1.5 0 12:58 20.10.2019
5828 Clouds 25 1019 47 10000 1.5 0 12:39 20.10.2019
5829 Clouds 25 1019 47 10000 1.5 0 12:21 20.10.2019
5830 Mist 24 1019 50 10000 1.5 0 11:59 20.10.2019
5831 Mist 24 1019 50 8000 1.37 169.445 11:40 20.10.2019
5832 Mist 23 1019 50 8000 1.37 169.445 11:22 20.10.2019
5833 Mist 23 1019 50 8000 1.37 169.445 10:58 20.10.2019
5834 Mist 23 1020 53 8000 1.37 169.445 10:39 20.10.2019
5835 Mist 23 1020 53 8000 1.37 169.445 10:20 20.10.2019
5836 Mist 22 1020 60 8000 1.37 169.445 09:55 20.10.2019
5837 Clear 22 1020 64 8000 1.37 169.445 09:37 20.10.2019
5838 Clear 21 1020 68 8000 1.56 16.946 09:18 20.10.2019
5839 Mist 19 1019 68 8000 1.76 15.636 08:39 20.10.2019
5840 Mist 19 1019 77 8000 1.76 15.636 08:20 20.10.2019
5841 Clouds 19 1019 77 8000 1.76 15.636 07:47 20.10.2019
5842 Mist 18 1019 77 8000 1.76 15.636 07:26 20.10.2019
5843 Rain 17 1018 82 8000 1.76 15.636 06:30 20.10.2019
5844 Mist 18 1018 82 10000 1.45 346.318 04:29 20.10.2019
5845 Mist 18 1018 88 10000 1.45 346.318 03:50 20.10.2019
5846 Mist 18 1018 88 10000 0.62 292.834 03:22 20.10.2019
5847 Clouds 18 1020 93 6000 1 260 02:48 20.10.2019
5848 Clouds 19 1020 93 6000 1 260 02:22 20.10.2019
5849 Clouds 19 1019 82 10000 0.62 292.834 01:49 20.10.2019
5850 Clouds 19 1019 82 10000 0.68 306.617 01:21 20.10.2019
5851 Clouds 19 1019 88 10000 0.68 306.617 00:48 20.10.2019
5852 Clouds 19 1018 82 10000 0.82 186.987 00:20 20.10.2019
5853 Clouds 19 1018 82 10000 0.82 186.987 23:54 19.10.2019
5854 Clouds 19 1018 82 10000 0.82 186.987 23:54 19.10.2019
5855 Clouds 19 1018 82 10000 0.82 186.987 23:36 19.10.2019
5856 Clouds 19 1020 88 8000 0.82 186.987 23:18 19.10.2019
5857 Clouds 19 1018 82 10000 0.82 186.987 22:40 19.10.2019
5858 Clouds 20 1018 82 10000 0.82 186.987 22:21 19.10.2019
5859 Clouds 20 1018 82 10000 0.82 186.987 21:55 19.10.2019
5860 Clouds 20 1018 82 10000 0.82 186.987 21:37 19.10.2019
5861 Clouds 20 1018 77 10000 1.69 176.715 21:19 19.10.2019
5862 Clouds 20 1018 83 10000 1.21 180.426 20:41 19.10.2019
5863 Clouds 20 1018 83 10000 1.21 180.426 20:20 19.10.2019
5864 Clouds 21 1018 78 10000 1.21 180.426 19:42 19.10.2019
5865 Clouds 21 1018 78 10000 1.21 180.426 19:24 19.10.2019
5866 Clouds 21 1017 78 10000 1.21 180.426 18:56 19.10.2019
5867 Clouds 22 1017 73 10000 2.6 180 18:37 19.10.2019
5868 Clouds 22 1017 73 10000 3.1 180 18:19 19.10.2019
5869 Clouds 23 1017 73 10000 3.6 190 17:41 19.10.2019
5870 Clouds 23 1017 73 10000 3.6 190 17:21 19.10.2019
5871 Clouds 23 1017 64 10000 3.6 190 16:57 19.10.2019
5872 Clouds 24 1016 61 10000 3.6 200 16:37 19.10.2019
5873 Clouds 24 1016 57 10000 3.6 190 16:18 19.10.2019
5874 Clouds 24 1016 50 10000 3.1 190 15:41 19.10.2019
5875 Clouds 25 1016 50 10000 3.1 190 15:23 19.10.2019
5876 Clouds 25 1018 61 10000 3.1 90 14:39 19.10.2019
5877 Clouds 24 1017 54 10000 3.1 190 14:20 19.10.2019
5878 Clouds 25 1017 54 10000 3.1 190 13:58 19.10.2019
5879 Clouds 25 1017 50 10000 2.6 190 13:40 19.10.2019
5880 Clouds 25 1017 50 10000 2.6 190 13:40 19.10.2019
5881 Clouds 25 1017 54 10000 2.6 180 13:19 19.10.2019
5882 Clouds 25 1017 54 10000 2.6 180 12:57 19.10.2019
5883 Clouds 24 1017 57 10000 3.01 167.161 12:37 19.10.2019
5884 Clouds 24 1018 61 8000 1.82 192.242 12:19 19.10.2019
5885 Clouds 23 1018 57 8000 1.82 192.242 11:41 19.10.2019
5886 Clouds 23 1018 64 8000 1.82 192.242 11:23 19.10.2019
5887 Mist 23 1018 64 8000 1.82 192.242 10:56 19.10.2019
5888 Mist 23 1018 64 8000 1.82 192.242 10:38 19.10.2019
5889 Mist 22 1018 69 8000 1.82 192.242 10:20 19.10.2019
5890 Clear 22 1018 64 8000 1.82 192.242 09:43 19.10.2019
5891 Clear 21 1018 68 8000 1.82 192.242 09:25 19.10.2019
5892 Clear 21 1017 77 8000 1.2 350.302 08:59 19.10.2019
5893 Clear 20 1017 77 8000 1.2 350.302 08:40 19.10.2019
5894 Clear 20 1017 77 8000 1.2 350.302 08:40 19.10.2019
5895 Mist 19 1017 82 8000 1.2 350.302 08:21 19.10.2019
5896 Mist 18 1017 88 9000 1.2 350.302 07:44 19.10.2019
5897 Mist 18 1017 88 9000 1.2 350.302 07:25 19.10.2019
5898 Clear 17 1017 88 8000 1.2 350.302 06:47 19.10.2019
5899 Clouds 17 1016 88 9000 1.2 350.302 06:26 19.10.2019
5900 Clouds 18 1016 88 9000 0.97 346.078 05:34 19.10.2019
5901 Clouds 18 1016 88 9000 0.97 346.078 04:24 19.10.2019
5902 Clouds 18 1016 88 9000 0.63 143.839 02:49 19.10.2019
5903 Clouds 18 1016 88 9000 0.63 143.839 01:54 19.10.2019
5904 Clouds 18 1016 88 9000 0.63 143.839 01:33 19.10.2019
5905 Clouds 19 1017 82 9000 0.8 53.8 00:49 19.10.2019
5906 Clouds 19 1017 82 9000 0.8 53.8 00:27 19.10.2019
5907 Clouds 19 1017 77 9000 1.86 133.209 23:56 18.10.2019
5908 Clouds 19 1017 77 9000 1.86 133.209 23:36 18.10.2019
5909 Mist 19 1017 77 9000 1.86 133.209 23:18 18.10.2019
5910 Mist 19 1017 77 9000 1.86 133.209 22:43 18.10.2019
5911 Mist 19 1017 77 9000 1.86 133.209 22:20 18.10.2019
5912 Mist 19 1017 82 9000 1.86 133.209 22:20 18.10.2019
5913 Mist 19 1017 77 9000 1.86 133.209 22:20 18.10.2019
5914 Mist 20 1017 82 9000 1.86 133.209 21:59 18.10.2019
5915 Mist 20 1017 82 9000 1.86 133.209 21:39 18.10.2019
5916 Clouds 20 1017 82 9000 2.77 138.849 21:20 18.10.2019
5917 Clouds 20 1017 82 9000 2.77 138.849 20:58 18.10.2019
5918 Clouds 20 1017 82 9000 2.77 138.849 20:40 18.10.2019
5919 Clouds 20 1017 82 9000 2.77 138.849 20:21 18.10.2019
5920 Clouds 20 1017 82 9000 2.77 138.849 20:21 18.10.2019
5921 Mist 20 1016 77 9000 2.77 138.849 19:57 18.10.2019
5922 Clouds 21 1016 77 10000 2.77 138.849 19:39 18.10.2019
5923 Clouds 21 1016 73 10000 2.77 138.849 19:20 18.10.2019
5924 Clouds 21 1016 73 10000 2.77 138.849 18:57 18.10.2019
5925 Mist 21 1016 73 10000 1 0 18:38 18.10.2019
5926 Mist 22 1016 73 10000 1.5 0 18:20 18.10.2019
5927 Mist 22 1016 69 10000 1.5 0 17:39 18.10.2019
5928 Mist 23 1016 69 10000 1.5 0 17:21 18.10.2019
5929 Clouds 23 1015 64 10000 2.1 180 16:59 18.10.2019
5930 Clouds 23 1015 64 10000 2.6 180 16:38 18.10.2019
5931 Clouds 24 1015 69 10000 3.1 170 16:19 18.10.2019
5932 Clouds 24 1015 69 10000 3.1 170 15:54 18.10.2019
5933 Clouds 24 1016 65 10000 3.1 180 15:36 18.10.2019
5934 Clouds 24 1016 61 10000 3.6 170 15:18 18.10.2019
5935 Clouds 24 1016 61 10000 3.6 170 15:18 18.10.2019
5936 Clouds 24 1016 61 10000 3.6 170 14:54 18.10.2019
5937 Clouds 24 1016 54 10000 2.1 200 14:36 18.10.2019
5938 Clouds 24 1016 54 10000 2.1 200 14:36 18.10.2019
5939 Clouds 25 1016 54 10000 1.5 0 14:18 18.10.2019
5940 Clouds 25 1016 54 10000 2.1 160 13:41 18.10.2019
5941 Clouds 25 1016 54 10000 2.1 160 13:23 18.10.2019
5942 Clouds 25 1017 61 10000 1.5 0 12:57 18.10.2019
5943 Clouds 25 1017 61 10000 2.6 180 12:39 18.10.2019
5944 Clouds 24 1017 61 10000 2.6 170 12:20 18.10.2019
5945 Clouds 24 1017 61 10000 2.6 170 11:56 18.10.2019
5946 Clouds 24 1017 61 9000 1.5 0 11:38 18.10.2019
5947 Clouds 24 1017 61 9000 1 0 11:19 18.10.2019
5948 Clouds 24 1017 61 9000 1 0 11:19 18.10.2019
5949 Clouds 23 1017 61 9000 1 0 10:56 18.10.2019
5950 -273 0 0 0 0 0 10:55 18.10.2019
5951 Clouds 23 1017 61 9000 1 0 10:55 18.10.2019
5952 Clouds 23 1018 60 8000 2.47 165.373 10:36 18.10.2019
5953 Clouds 23 1018 60 6000 2.47 165.373 10:18 18.10.2019
5954 -273 0 0 0 0 0 09:54 18.10.2019
5955 Clouds 22 1018 64 6000 2.47 165.373 09:36 18.10.2019
5956 Clouds 21 1018 73 6000 1 0 09:18 18.10.2019
5957 Clouds 20 1017 72 6000 1 0 08:42 18.10.2019
5958 Clouds 19 1017 72 6000 1 0 08:21 18.10.2019
5959 Clouds 18 1017 82 8000 1 0 07:42 18.10.2019
5960 Clouds 18 1017 82 8000 1 0 07:24 18.10.2019
5961 Clouds 18 1018 82 6000 1 240 06:40 18.10.2019
5962 Clouds 18 1018 82 6000 1 240 06:21 18.10.2019
5963 Clouds 17 1017 82 8000 0.65 74.262 05:56 18.10.2019
5964 Clouds 17 1017 82 8000 0.65 74.262 05:23 18.10.2019
5965 Clouds 17 1017 88 10000 0.65 74.262 04:41 18.10.2019
5966 Clouds 18 1017 88 10000 0.65 74.262 03:32 18.10.2019
5967 Clouds 18 1017 88 10000 1.1 169.118 02:34 18.10.2019
5968 Clouds 18 1017 82 10000 1.1 169.118 01:46 18.10.2019
5969 Clouds 18 1017 82 10000 1.13 190.064 01:28 18.10.2019
5970 Clouds 18 1017 82 10000 1.13 190.064 01:28 18.10.2019
5971 Clouds 18 1017 82 10000 1.13 190.064 00:46 18.10.2019
5972 Clouds 18 1017 82 10000 0.81 139.888 00:21 18.10.2019
5973 Clouds 18 1017 82 10000 0.81 139.888 23:57 17.10.2019
5974 Clouds 19 1017 88 10000 0.81 139.888 23:38 17.10.2019
5975 Clouds 19 1017 88 10000 0.81 139.888 23:19 17.10.2019
5976 Clouds 19 1017 88 10000 0.81 139.888 22:55 17.10.2019
5977 Clouds 19 1017 82 10000 0.81 139.888 22:37 17.10.2019
5978 Clouds 19 1017 82 10000 0.81 139.888 22:18 17.10.2019
5979 Clouds 19 1017 82 10000 0.81 139.888 21:55 17.10.2019
5980 Clouds 20 1017 82 10000 0.81 139.888 21:37 17.10.2019
5981 Clouds 20 1017 83 10000 1.56 154.779 21:19 17.10.2019
5982 Clouds 20 1017 83 10000 1.57 149.915 20:56 17.10.2019
5983 Clouds 20 1017 83 10000 1.57 149.915 20:56 17.10.2019
5984 Clouds 20 1017 83 10000 1.57 149.915 20:37 17.10.2019
5985 Clouds 21 1017 78 10000 1.57 149.915 20:18 17.10.2019
5986 Clouds 21 1017 78 10000 1.5 0 19:42 17.10.2019
5987 Clouds 21 1017 78 10000 1.5 0 19:42 17.10.2019
5988 Clouds 21 1017 78 10000 1.5 0 19:42 17.10.2019
5989 Clouds 21 1017 73 10000 1.5 0 19:20 17.10.2019
5990 Clouds 21 1017 73 10000 1.5 0 18:59 17.10.2019
5991 Clouds 22 1016 73 10000 1.5 0 18:39 17.10.2019
5992 Clouds 22 1016 73 10000 2.1 170 18:21 17.10.2019
5993 Clouds 22 1016 73 10000 2.1 170 17:54 17.10.2019
5994 Clouds 23 1016 69 10000 1.5 0 17:36 17.10.2019
5995 Clouds 23 1016 69 10000 1.5 0 17:18 17.10.2019
5996 Clouds 24 1016 61 10000 2.1 170 16:41 17.10.2019
5997 Clouds 24 1016 61 10000 2.6 200 16:19 17.10.2019
5998 Clouds 24 1016 61 10000 2.6 200 16:19 17.10.2019
5999 Clouds 24 1016 61 10000 2.6 200 15:59 17.10.2019
6000 Clouds 24 1016 57 10000 2.1 190 15:40 17.10.2019
6001 Clouds 25 1016 54 10000 3.1 170 15:20 17.10.2019
6002 Clouds 25 1016 54 10000 3.1 170 15:20 17.10.2019
6003 Clouds 25 1016 54 10000 3.1 170 14:57 17.10.2019
6004 Clouds 25 1016 54 10000 2.6 200 14:38 17.10.2019
6005 Clouds 25 1016 57 10000 2.6 190 14:20 17.10.2019
6006 Clouds 25 1016 54 10000 2.6 180 13:41 17.10.2019
6007 Clouds 25 1016 54 10000 2.6 180 13:21 17.10.2019
6008 Clouds 25 1016 54 10000 2.1 210 12:58 17.10.2019
6009 Clouds 25 1017 47 10000 1.5 0 12:39 17.10.2019
6010 Clouds 24 1017 47 10000 1.5 0 12:20 17.10.2019
6011 Clouds 24 1017 47 10000 1.5 0 11:56 17.10.2019
6012 Clouds 24 1017 57 10000 1.662 147 11:38 17.10.2019
6013 Clouds 23 1017 64 10000 1.662 147 11:18 17.10.2019
6014 Clouds 24 1017 57 10000 1.662 147 10:42 17.10.2019
6015 -273 0 0 0 0 0 10:20 17.10.2019
6016 Clouds 23 1017 57 10000 1.662 147 09:57 17.10.2019
6017 Clouds 22 1017 60 10000 1.662 147 09:38 17.10.2019
6018 Clouds 22 1017 64 10000 1.221 16 09:20 17.10.2019
6019 Clouds 21 1017 72 10000 1.221 16 08:57 17.10.2019
6020 Clouds 21 1017 64 10000 1.221 16 08:57 17.10.2019
6021 Clouds 21 1017 72 10000 1.221 16 08:38 17.10.2019
6022 Clouds 20 1017 72 10000 1.221 16 08:18 17.10.2019
6023 Clouds 19 1016 77 10000 1.221 16 07:48 17.10.2019
6024 Clouds 19 1016 77 10000 1.221 16 07:21 17.10.2019
6025 Clouds 19 1016 77 10000 1.221 16 07:21 17.10.2019
6026 Clouds 19 1016 77 10000 1.221 16 06:58 17.10.2019
6027 Clouds 18 1016 77 10000 1.221 16 06:39 17.10.2019
6028 Clouds 18 1016 77 10000 0.884 349 06:19 17.10.2019
6029 Clouds 18 1015 77 10000 0.884 349 05:41 17.10.2019
6030 Clouds 18 1015 77 10000 0.884 349 05:21 17.10.2019
6031 Clouds 18 1015 77 10000 0.884 349 04:50 17.10.2019
6032 Clouds 18 1015 72 10000 0.884 349 03:50 17.10.2019
6033 Clouds 19 1015 72 10000 0.934 14 02:35 17.10.2019
6034 Clouds 19 1015 77 10000 0.934 14 00:54 17.10.2019
6035 Clouds 19 1015 77 10000 0.934 14 00:36 17.10.2019
6036 Clouds 19 1015 72 10000 0.943 242 00:18 17.10.2019
6037 Clouds 20 1015 72 10000 0.943 242 23:42 16.10.2019
6038 Clouds 20 1016 77 10000 0.943 242 23:20 16.10.2019
6039 Clouds 20 1016 77 10000 0.943 242 22:55 16.10.2019
6040 Clouds 20 1016 77 10000 0.943 242 22:36 16.10.2019
6041 Clouds 20 1016 77 10000 0.943 242 22:18 16.10.2019
6042 Clouds 20 1016 77 10000 0.943 242 21:55 16.10.2019
6043 Clouds 20 1016 73 10000 0.958 263 21:37 16.10.2019
6044 Clouds 21 1015 73 10000 1.417 219 21:18 16.10.2019
6045 -273 0 0 0 0 0 20:56 16.10.2019
6046 Clouds 21 1015 73 10000 1.417 219 20:56 16.10.2019
6047 Clouds 21 1015 73 10000 1.417 219 20:38 16.10.2019
6048 Clouds 21 1015 69 10000 1.417 219 20:20 16.10.2019
6049 Clouds 21 1015 69 10000 1.417 219 19:56 16.10.2019
6050 Clouds 21 1015 69 10000 1.417 219 19:38 16.10.2019
6051 Clouds 22 1015 69 10000 1 0 19:19 16.10.2019
6052 Clouds 22 1015 69 10000 1 0 18:39 16.10.2019
6053 Clouds 23 1014 64 10000 1.5 0 18:19 16.10.2019
6054 Clouds 23 1014 64 10000 1.5 0 17:56 16.10.2019
6055 Clear 23 1016 60 10000 4.1 20 17:38 16.10.2019
6056 Clouds 24 1014 61 10000 1.5 0 17:19 16.10.2019
6057 Clouds 24 1014 61 10000 1.5 0 16:58 16.10.2019
6058 Clouds 24 1014 57 10000 1.5 0 16:39 16.10.2019
6059 Clouds 24 1014 53 10000 2.6 180 16:20 16.10.2019
6060 -273 0 0 0 0 0 15:55 16.10.2019
6061 Clouds 25 1014 47 10000 3.1 180 15:36 16.10.2019
6062 Clouds 25 1014 39 10000 2.6 160 15:18 16.10.2019
6063 Clouds 25 1014 39 10000 2.6 160 15:18 16.10.2019
6064 Clouds 25 1014 39 10000 2.6 160 14:55 16.10.2019
6065 Clouds 25 1014 39 10000 2.6 160 14:37 16.10.2019
6066 Clouds 25 1014 42 10000 2.6 170 14:18 16.10.2019
6067 Clouds 26 1014 42 10000 2.6 170 13:55 16.10.2019
6068 Clouds 26 1014 42 10000 2.6 180 13:36 16.10.2019
6069 Clouds 26 1015 44 10000 2.6 200 13:18 16.10.2019
6070 Clear 25 1015 44 10000 2.6 200 12:40 16.10.2019
6071 Clear 25 1015 47 10000 2.1 190 12:18 16.10.2019
6072 Clear 24 1015 39 10000 1.614 160 11:42 16.10.2019
6073 Clear 24 1015 41 10000 1.614 160 11:18 16.10.2019
6074 Clear 24 1015 44 10000 1.614 160 10:39 16.10.2019
6075 Clear 23 1015 50 10000 1.614 160 10:20 16.10.2019
6076 Clear 23 1015 50 10000 1.614 160 09:56 16.10.2019
6077 Clear 22 1015 53 9000 1.614 160 09:38 16.10.2019
6078 Clear 21 1016 60 9000 1.855 349 09:19 16.10.2019
6079 Clear 20 1015 64 9000 1.855 349 08:43 16.10.2019
6080 Clear 20 1015 64 9000 1.855 349 08:24 16.10.2019
6081 Clear 18 1015 77 10000 1.855 349 07:45 16.10.2019
6082 -273 0 0 0 0 0 07:25 16.10.2019
6083 Clear 17 1015 72 10000 1.855 349 06:58 16.10.2019
6084 Clear 17 1015 72 10000 1.855 349 06:39 16.10.2019
6085 Clear 16 1015 72 10000 1.692 12 05:48 16.10.2019
6086 Clear 17 1016 72 10000 1.131 352 03:24 16.10.2019
6087 Clear 17 1016 72 10000 1.131 352 02:47 16.10.2019
6088 Clear 18 1015 67 10000 1.047 0 01:19 16.10.2019
6089 Clear 18 1016 63 10000 1.047 0 00:49 16.10.2019
6090 Clear 18 1016 63 10000 1.047 0 00:27 16.10.2019
6091 Clear 19 1016 63 10000 0.37 262 23:41 15.10.2019
6092 Clear 19 1016 63 10000 0.37 262 23:22 15.10.2019
6093 Clear 19 1017 72 10000 1.5 0 22:56 15.10.2019
6094 Clear 19 1016 63 10000 0.37 262 22:38 15.10.2019
6095 Clear 19 1016 63 10000 0.37 262 22:20 15.10.2019
6096 Clear 19 1016 63 10000 0.37 262 21:56 15.10.2019
6097 Clear 19 1016 63 10000 0.37 262 21:55 15.10.2019
6098 Clear 20 1016 63 10000 0.767 186 21:37 15.10.2019
6099 Clear 20 1016 60 10000 1.589 204 21:19 15.10.2019
6100 Clear 20 1016 60 10000 1.589 204 20:56 15.10.2019
6101 Clear 20 1015 60 10000 1.589 204 20:37 15.10.2019
6102 Clear 20 1015 60 10000 1.589 204 20:19 15.10.2019
6103 Clear 21 1015 60 10000 1.589 204 19:56 15.10.2019
6104 Clear 21 1015 60 10000 1.589 204 19:56 15.10.2019
6105 Clear 21 1015 56 10000 1.589 204 19:37 15.10.2019
6106 Clear 21 1015 56 10000 1.589 204 19:37 15.10.2019
6107 Clear 21 1015 60 10000 1.589 204 19:19 15.10.2019
6108 Clear 22 1014 56 10000 1.589 204 18:44 15.10.2019
6109 Clear 22 1014 56 10000 1.589 204 18:26 15.10.2019
6110 Clear 23 1014 47 10000 2.08 169 17:56 15.10.2019
6111 Clear 24 1014 47 10000 2.6 190 17:38 15.10.2019
6112 Clear 24 1014 44 10000 2.6 180 17:19 15.10.2019
6113 Clear 25 1014 39 10000 3.6 180 16:45 15.10.2019
6114 Clear 25 1014 39 10000 3.6 180 16:45 15.10.2019
6115 Clear 25 1014 39 10000 3.6 180 16:22 15.10.2019
6116 Clear 25 1014 39 10000 3.6 190 15:58 15.10.2019
6117 Clear 25 1014 36 10000 3.6 190 15:40 15.10.2019
6118 Clear 26 1014 34 10000 2.6 210 15:20 15.10.2019
6119 Clear 26 1014 34 10000 2.6 210 14:57 15.10.2019
6120 Clear 26 1015 32 10000 3.1 210 14:38 15.10.2019
6121 Clear 26 1015 34 10000 3.1 200 14:19 15.10.2019
6122 Clear 27 1017 53 10000 6.2 40 13:44 15.10.2019
6123 Clear 26 1017 53 10000 6.2 40 13:21 15.10.2019
6124 Clear 26 1016 44 10000 3.6 180 12:59 15.10.2019
6125 -273 0 0 0 0 0 12:39 15.10.2019
6126 Clear 26 1017 39 10000 2.6 170 12:20 15.10.2019
6127 Clear 26 1017 39 10000 2.6 170 11:55 15.10.2019
6128 Clear 25 1017 39 10000 2.6 150 11:37 15.10.2019
6129 Clear 25 1017 41 10000 0.155 299 11:18 15.10.2019
6130 Clear 24 1017 41 10000 0.16 299.699 10:42 15.10.2019
6131 Clear 24 1017 41 10000 0.16 299.699 10:19 15.10.2019
6132 Clear 23 1017 41 10000 0.16 299.699 09:57 15.10.2019
6133 Clear 22 1018 43 10000 0.16 299.699 09:37 15.10.2019
6134 Clear 21 1017 46 10000 2.35 1.122 09:19 15.10.2019
6135 Clear 20 1017 49 10000 2.12 0.756 08:42 15.10.2019
6136 Clear 19 1017 59 10000 2.12 0.756 08:22 15.10.2019
6137 Clear 18 1019 77 10000 2.12 0.756 07:56 15.10.2019
6138 Clear 17 1017 63 10000 2.12 0.756 07:38 15.10.2019
6139 Clear 17 1017 67 10000 2.12 0.756 07:19 15.10.2019
6140 Clear 16 1017 67 10000 2.12 0.756 06:44 15.10.2019
6141 Clear 16 1017 67 10000 2.12 0.756 06:26 15.10.2019
6142 Clear 16 1017 71 10000 2.05 15.255 05:41 15.10.2019
6143 Clear 16 1017 72 10000 2.05 15.255 05:23 15.10.2019
6144 Clear 16 1017 67 10000 2.05 15.255 04:25 15.10.2019
6145 Clear 17 1018 93 10000 1.5 280 03:37 15.10.2019
6146 Clear 17 1017 63 10000 1.8 359.301 02:29 15.10.2019
6147 Clear 17 1018 62 10000 1.8 359.301 01:48 15.10.2019
6148 Clear 18 1018 62 10000 1.94 1.653 01:19 15.10.2019
6149 Clear 18 1018 63 10000 1.94 1.653 00:49 15.10.2019
6150 Clear 18 1018 63 10000 1.94 1.653 00:49 15.10.2019
6151 Clear 18 1018 63 10000 0.92 6.032 00:21 15.10.2019
6152 Clear 18 1018 63 10000 0.92 6.032 23:44 14.10.2019
6153 Clear 18 1018 55 10000 0.92 6.032 23:20 14.10.2019
6154 Clear 19 1018 55 10000 0.92 6.032 22:57 14.10.2019
6155 Clear 19 1018 55 10000 0.92 6.032 22:38 14.10.2019
6156 Clear 19 1018 55 10000 0.92 6.032 22:18 14.10.2019
6157 Clear 19 1018 52 10000 0.92 6.032 21:41 14.10.2019
6158 Clear 19 1018 52 10000 0.52 5.755 21:22 14.10.2019
6159 Clear 20 1018 49 10000 0.32 7.279 20:59 14.10.2019
6160 Clear 20 1018 60 10000 0.32 7.279 20:40 14.10.2019
6161 Clear 20 1018 64 10000 0.32 7.279 20:22 14.10.2019
6162 Clear 20 1018 64 10000 0.32 7.279 19:59 14.10.2019
6163 Clear 21 1018 60 10000 0.324 7 19:41 14.10.2019
6164 Clear 21 1018 60 10000 0.324 7 19:23 14.10.2019
6165 Clear 22 1018 60 10000 0.32 7.279 18:58 14.10.2019
6166 Clear 22 1018 60 10000 0.32 7.279 18:58 14.10.2019
6167 Clear 22 1017 50 10000 0.32 7.279 18:38 14.10.2019
6168 Clear 23 1017 53 10000 1 0 18:19 14.10.2019
6169 Clear 24 1017 53 10000 1 0 17:56 14.10.2019
6170 Clear 24 1017 47 10000 1.5 0 17:37 14.10.2019
6171 Clear 25 1017 47 10000 2.6 190 17:19 14.10.2019
6172 Clear 26 1017 47 10000 3.1 190 16:40 14.10.2019
6173 Clear 26 1019 44 10000 6.2 70 16:21 14.10.2019
6174 Clear 26 1017 26 10000 2.1 240 15:42 14.10.2019
6175 Clear 26 1017 28 10000 3.1 330 15:23 14.10.2019
6176 Clear 26 1019 44 10000 6.7 70 14:57 14.10.2019
6177 Clear 26 1019 44 10000 6.7 70 14:57 14.10.2019
6178 Clear 26 1020 44 10000 5.7 80 14:39 14.10.2019
6179 Clear 26 1020 39 10000 5.7 80 14:19 14.10.2019
6180 Clear 26 1018 30 10000 3.1 320 13:44 14.10.2019
6181 Clear 26 1019 30 10000 3.1 320 13:21 14.10.2019
6182 Clear 26 1019 30 10000 3.1 320 12:55 14.10.2019
6183 Clear 26 1019 30 10000 3.6 340 12:37 14.10.2019
6184 Clear 25 1021 38 10000 7.2 40 12:18 14.10.2019
6185 Clear 25 1021 38 10000 7.2 40 12:18 14.10.2019
6186 Clear 25 1021 38 10000 7.2 40 12:18 14.10.2019
6187 Clear 25 1020 32 10000 4.1 330 11:44 14.10.2019
6188 Clear 25 1020 32 10000 4.1 330 11:26 14.10.2019
6189 Clear 25 1020 31 10000 3.1 330 10:57 14.10.2019
6190 Clear 24 1020 31 10000 3.1 330 10:38 14.10.2019
6191 Clear 24 1020 36 10000 3.6 340 10:19 14.10.2019
6192 Clear 23 1020 36 10000 3.6 340 09:42 14.10.2019
6193 Clear 22 1020 36 10000 3.6 340 09:21 14.10.2019
6194 Clear 21 1020 38 10000 3.6 340 08:51 14.10.2019
6195 Clear 20 1020 38 10000 3.6 340 08:23 14.10.2019
6196 Clear 18 1019 46 10000 2.8 0.41 07:47 14.10.2019
6197 Clear 17 1019 46 10000 2.8 0.41 07:26 14.10.2019
6198 Clear 16 1021 76 10000 1.5 270 06:59 14.10.2019
6199 Clear 16 1021 62 10000 0.5 290 06:29 14.10.2019
6200 Clear 16 1021 66 10000 1 0 05:57 14.10.2019
6201 Clear 16 1019 49 10000 3.11 359.687 05:29 14.10.2019
6202 Clear 16 1019 60 10000 2.6 320 04:34 14.10.2019
6203 Clear 17 1019 56 10000 3.11 359.687 03:27 14.10.2019
6204 Clear 17 1020 60 10000 1.5 0 02:36 14.10.2019
6205 Clear 17 1020 60 10000 3.4 0.927 01:22 14.10.2019
6206 Clear 17 1020 52 10000 3.4 0.927 00:45 14.10.2019
6207 Clear 18 1020 52 10000 3.05 0.789 00:19 14.10.2019
6208 Clear 19 1020 49 10000 3.05 0.789 23:44 13.10.2019
6209 Clear 19 1020 49 10000 2.6 300 23:20 13.10.2019
6210 Clear 19 1020 49 10000 2.6 300 22:58 13.10.2019
6211 Clear 19 1020 49 10000 2.6 300 22:58 13.10.2019
6212 Clear 19 1020 49 10000 2.6 300 22:58 13.10.2019
6213 Clear 19 1020 49 10000 2.6 300 22:58 13.10.2019
6214 Clear 19 1020 53 10000 3.1 310 22:40 13.10.2019
6215 Clear 20 1020 56 10000 3.6 320 22:21 13.10.2019
6216 Clear 20 1020 56 10000 3.6 320 21:58 13.10.2019
6217 Clear 20 1020 60 10000 3.1 320 21:37 13.10.2019
6218 Clear 20 1020 60 10000 3.6 320 21:18 13.10.2019
6219 Clear 20 1020 60 10000 3.6 320 21:18 13.10.2019
6220 Clear 20 1020 60 10000 3.6 320 20:57 13.10.2019
6221 Clear 21 1020 56 10000 3.6 320 20:38 13.10.2019
6222 Clear 21 1020 53 10000 3.1 320 20:19 13.10.2019
6223 Clear 21 1020 53 10000 3.1 320 19:57 13.10.2019
6224 Clear 21 1020 53 10000 3.1 320 19:57 13.10.2019
6225 Clear 21 1020 53 10000 3.1 320 19:57 13.10.2019
6226 Clear 21 1020 53 10000 2.6 320 19:39 13.10.2019
6227 Clear 21 1020 53 10000 2.6 320 19:39 13.10.2019
6228 Clear 22 1020 50 10000 2.6 330 19:20 13.10.2019
6229 -273 0 0 0 0 0 18:55 13.10.2019
6230 Clear 22 1020 50 10000 2.6 330 18:55 13.10.2019
6231 Clear 22 1020 50 10000 2.6 330 18:54 13.10.2019
6232 Clear 23 1019 50 10000 4.6 330 18:36 13.10.2019
6233 Clear 23 1021 68 10000 5.1 30 18:18 13.10.2019
6234 Clear 24 1019 41 10000 3.6 320 17:42 13.10.2019
6235 Clear 24 1019 41 10000 3.6 320 17:42 13.10.2019
6236 Clear 25 1019 41 10000 3.6 320 17:24 13.10.2019
6237 Clear 26 1019 42 10000 4.1 320 16:54 13.10.2019
6238 Clear 26 1019 42 10000 4.1 320 16:36 13.10.2019
6239 Clear 26 1019 39 10000 4.1 310 16:18 13.10.2019
6240 Clear 25 1019 39 10000 4.1 330 15:40 13.10.2019
6241 Clear 27 1019 39 10000 4.1 330 15:22 13.10.2019
6242 Clear 26 1019 39 10000 3.6 330 14:59 13.10.2019
6243 Clear 26 1019 42 10000 4.1 340 14:40 13.10.2019
6244 Clear 26 1019 42 10000 6.2 320 14:22 13.10.2019
6245 Clear 26 1019 42 10000 6.2 320 13:59 13.10.2019
6246 Clear 26 1020 42 10000 5.7 320 13:39 13.10.2019
6247 Clear 26 1020 42 10000 5.7 320 13:39 13.10.2019
6248 Clouds 26 1020 44 10000 4.6 330 13:21 13.10.2019
6249 -273 0 0 0 0 0 12:56 13.10.2019
6250 Clouds 25 1020 44 10000 4.1 340 12:38 13.10.2019
6251 Clouds 25 1021 44 10000 3.6 340 12:19 13.10.2019
6252 Clouds 25 1021 44 10000 3.6 340 11:58 13.10.2019
6253 Clouds 25 1021 44 10000 5.1 320 11:38 13.10.2019
6254 Clouds 24 1021 50 10000 4.1 320 11:19 13.10.2019
6255 Clear 24 1021 50 10000 4.6 320 10:42 13.10.2019
6256 Clear 23 1021 50 10000 4.6 320 10:23 13.10.2019
6257 Clear 23 1021 50 10000 4.6 330 09:58 13.10.2019
6258 Clear 23 1021 50 10000 4.6 330 09:58 13.10.2019
6259 Clear 22 1021 47 10000 4.6 320 09:38 13.10.2019
6260 Clear 22 1021 49 10000 3.6 330 09:19 13.10.2019
6261 Clear 21 1021 53 10000 4.6 320 08:43 13.10.2019
6262 Clear 21 1021 53 10000 4.6 320 08:43 13.10.2019
6263 Clear 20 1021 56 10000 4.1 330 08:23 13.10.2019
6264 Clear 19 1021 52 10000 4.1 320 07:50 13.10.2019
6265 Clear 18 1021 52 10000 4.1 320 07:30 13.10.2019
6266 Clear 17 1020 56 10000 3.1 320 06:48 13.10.2019
6267 Clear 18 1021 56 10000 1.5 320 05:57 13.10.2019
6268 Clear 18 1022 63 10000 7.2 30 04:59 13.10.2019
6269 Clear 18 1020 56 10000 3.6 320 04:33 13.10.2019
6270 Clear 19 1021 56 10000 1 0 02:48 13.10.2019
6271 Clear 19 1021 56 10000 1 0 02:25 13.10.2019
6272 Clear 19 1021 56 10000 1.5 0 01:34 13.10.2019
6273 Clear 19 1021 52 10000 2.6 310 00:53 13.10.2019
6274 Clear 19 1021 52 10000 2.6 310 00:23 13.10.2019
6275 Clear 20 1021 49 10000 3.1 320 23:59 12.10.2019
6276 Clear 20 1021 49 10000 4.1 330 23:40 12.10.2019
6277 Clear 21 1021 49 10000 4.1 330 23:22 12.10.2019
6278 Clear 20 1021 49 10000 4.6 320 22:58 12.10.2019
6279 Clear 20 1021 49 10000 3.1 320 22:40 12.10.2019
6280 Clear 20 1021 53 10000 3.6 310 22:21 12.10.2019
6281 Clear 20 1021 53 10000 3.6 310 21:56 12.10.2019
6282 Clear 20 1021 53 10000 3.6 320 21:38 12.10.2019
6283 Clear 21 1021 53 10000 2.6 320 21:20 12.10.2019
6284 Clear 21 1022 49 10000 2.6 320 20:45 12.10.2019
6285 Clear 21 1022 49 10000 2.6 320 20:27 12.10.2019
6286 Clear 21 1021 46 10000 2.6 330 19:42 12.10.2019
6287 Clear 22 1021 46 10000 2.6 330 19:24 12.10.2019
6288 Clear 22 1021 44 10000 2.1 320 18:59 12.10.2019
6289 Clear 22 1021 44 10000 2.6 330 18:41 12.10.2019
6290 Clear 23 1021 44 10000 2.6 330 18:23 12.10.2019
6291 Clear 23 1021 39 10000 4.6 350 17:45 12.10.2019
6292 Clear 24 1021 30 10000 3.6 350 17:21 12.10.2019
6293 Clear 25 1021 30 10000 3.6 350 16:58 12.10.2019
6294 Clear 25 1021 28 10000 3.6 350 16:40 12.10.2019
6295 Clear 26 1021 30 10000 4.1 350 16:19 12.10.2019
6296 Clear 25 1021 30 10000 4.1 350 15:45 12.10.2019
6297 Clear 26 1021 30 10000 4.1 350 15:26 12.10.2019
6298 Clear 26 1021 32 10000 4.6 340 14:59 12.10.2019
6299 Clear 26 1021 30 10000 4.6 330 14:38 12.10.2019
6300 Clear 26 1021 30 10000 5.1 340 14:20 12.10.2019
6301 Clear 26 1021 30 10000 5.1 340 13:49 12.10.2019
6302 Clear 26 1021 30 10000 5.1 340 13:31 12.10.2019
6303 Clear 26 1022 28 10000 5.1 330 12:55 12.10.2019
6304 Clear 26 1022 30 10000 5.1 340 12:37 12.10.2019
6305 Clear 26 1022 32 10000 4.6 340 12:18 12.10.2019
6306 Clear 25 1022 41 10000 5.7 340 11:41 12.10.2019
6307 Clear 25 1022 47 10000 6.2 330 11:22 12.10.2019
6308 Clear 25 1022 47 10000 6.2 330 10:57 12.10.2019
6309 Clouds 25 1022 47 10000 5.1 330 10:38 12.10.2019
6310 Clouds 24 1023 53 10000 5.7 320 10:19 12.10.2019
6311 Clouds 24 1023 53 10000 5.7 320 09:56 12.10.2019
6312 -273 0 0 0 0 0 09:56 12.10.2019
6313 Clouds 24 1022 53 10000 4.6 320 09:37 12.10.2019
6314 Clouds 22 1022 60 10000 6.2 320 09:19 12.10.2019
6315 -273 0 0 0 0 0 08:43 12.10.2019
6316 Clouds 21 1022 60 10000 5.7 340 08:23 12.10.2019
6317 Clouds 21 1021 68 10000 3.6 340 07:49 12.10.2019
6318 Clouds 20 1021 68 10000 3.6 340 07:30 12.10.2019
6319 Clouds 19 1021 68 10000 3.1 320 05:54 12.10.2019
6320 Clouds 19 1021 73 10000 4.1 320 05:26 12.10.2019
6321 Clouds 19 1021 73 10000 4.1 330 04:31 12.10.2019
6322 Clouds 20 1021 73 10000 4.1 330 03:53 12.10.2019
6323 Clouds 20 1021 77 10000 3.6 330 02:37 12.10.2019
6324 Clouds 20 1021 73 10000 3.1 330 01:32 12.10.2019
6325 Clouds 20 1021 68 10000 3.1 330 00:54 12.10.2019
6326 Clouds 20 1021 68 10000 3.1 330 00:35 12.10.2019
6327 Clouds 20 1021 68 10000 3.1 330 23:54 11.10.2019
6328 Clouds 21 1021 68 10000 3.1 340 23:36 11.10.2019
6329 Clouds 21 1021 68 10000 3.1 340 23:36 11.10.2019
6330 Clouds 21 1020 68 10000 3.1 330 23:18 11.10.2019
6331 Clouds 21 1020 68 10000 3.1 330 23:18 11.10.2019
6332 Clouds 21 1020 64 10000 3.1 330 22:37 11.10.2019
6333 Clouds 21 1020 69 10000 4.41 2.728 22:18 11.10.2019
6334 Clouds 21 1020 64 10000 2.1 320 21:42 11.10.2019
6335 Clouds 21 1019 64 10000 2.46 4.19 21:21 11.10.2019
6336 Clouds 22 1019 64 10000 3.02 5.913 20:57 11.10.2019
6337 Clouds 22 1019 73 10000 3.02 5.913 20:38 11.10.2019
6338 Clouds 22 1019 78 10000 3.02 5.913 20:19 11.10.2019
6339 Clouds 22 1019 78 10000 3.02 5.913 19:55 11.10.2019
6340 Clouds 22 1019 78 10000 3.02 5.913 19:36 11.10.2019
6341 Clouds 22 1019 73 10000 3.02 5.913 19:18 11.10.2019
6342 Clouds 22 1019 73 10000 3.02 5.913 19:18 11.10.2019
6343 Clouds 23 1019 73 10000 3.02 5.913 18:54 11.10.2019
6344 Clouds 23 1018 73 10000 3.02 5.913 18:36 11.10.2019
6345 Clouds 23 1018 65 10000 2.6 190 18:18 11.10.2019
6346 Clouds 24 1018 65 10000 2.6 190 17:54 11.10.2019
6347 Clouds 24 1018 65 10000 2.1 160 17:36 11.10.2019
6348 Clouds 25 1018 61 10000 2.6 180 17:18 11.10.2019
6349 Clouds 25 1018 61 10000 2.6 180 16:39 11.10.2019
6350 Clouds 25 1020 69 10000 6.7 30 16:19 11.10.2019
6351 Clouds 25 1020 69 10000 6.7 30 15:57 11.10.2019
6352 Clouds 26 1017 57 10000 3.1 190 15:37 11.10.2019
6353 Clouds 26 1018 61 10000 3.6 190 15:18 11.10.2019
6354 Clouds 26 1018 61 10000 4.1 190 14:44 11.10.2019
6355 Clouds 26 1018 61 10000 4.1 190 14:25 11.10.2019
6356 Clouds 26 1018 51 10000 2.6 180 13:47 11.10.2019
6357 Clouds 26 1018 51 10000 2.6 180 13:27 11.10.2019
6358 Clouds 26 1020 64 10000 4.1 20 12:59 11.10.2019
6359 Clouds 26 1020 64 10000 4.1 20 12:41 11.10.2019
6360 Clouds 25 1019 65 10000 2.32 193.736 12:22 11.10.2019
6361 Clouds 25 1019 65 10000 2.32 193.736 12:00 11.10.2019
6362 Rain 24 1019 69 10000 2.32 193.736 11:40 11.10.2019
6363 Rain 24 1020 69 10000 1.5 0 11:21 11.10.2019
6364 Clouds 24 1020 69 10000 1.5 0 10:56 11.10.2019
6365 Clouds 24 1018 64 10000 2.32 193.736 10:38 11.10.2019
6366 Clouds 23 1018 69 10000 2.32 193.736 10:20 11.10.2019
6367 Clouds 23 1018 69 10000 2.32 193.736 10:20 11.10.2019
6368 Clouds 23 1018 69 10000 2.32 193.736 09:55 11.10.2019
6369 Clouds 23 1018 69 10000 0.47 153.163 09:37 11.10.2019
6370 Clouds 22 1018 68 10000 0.29 267.059 09:18 11.10.2019
6371 Clouds 22 1018 68 10000 0.29 267.059 09:18 11.10.2019
6372 Clouds 22 1018 68 10000 0.29 267.059 08:54 11.10.2019
6373 Clouds 21 1020 82 10000 1 300 08:36 11.10.2019
6374 Clouds 21 1018 77 10000 0.29 267.059 08:18 11.10.2019
6375 Clouds 20 1019 88 10000 0.5 0 07:41 11.10.2019
6376 Clouds 19 1019 88 10000 0.5 0 07:22 11.10.2019
6377 Clouds 19 1017 88 10000 0.29 267.059 06:47 11.10.2019
6378 Clear 19 1017 88 10000 0.68 8.631 06:22 11.10.2019
6379 Clear 19 1017 82 10000 0.68 8.631 05:37 11.10.2019
6380 Clouds 19 1018 93 10000 1.5 290 04:59 11.10.2019
6381 Clear 19 1016 77 10000 0.68 8.631 04:24 11.10.2019
6382 Clouds 20 1018 82 10000 1 300 02:19 11.10.2019
6383 Clear 20 1017 88 10000 1.46 7.062 00:47 11.10.2019
6384 Clear 20 1017 88 10000 2.17 101.036 00:27 11.10.2019
6385 Clear 20 1017 88 10000 2.17 101.036 23:44 10.10.2019
6386 Clear 20 1017 88 10000 2.17 101.036 23:22 10.10.2019
6387 Clear 20 1017 88 10000 2.17 101.036 22:57 10.10.2019
6388 Clear 20 1017 83 10000 2.17 101.036 22:39 10.10.2019
6389 Clear 20 1017 83 10000 2.17 101.036 22:20 10.10.2019
6390 Clear 20 1017 83 10000 2.17 101.036 21:57 10.10.2019
6391 Clear 20 1017 88 10000 2.17 101.036 21:39 10.10.2019
6392 Clear 20 1017 83 10000 1.73 156.68 21:20 10.10.2019
6393 Clear 21 1017 83 10000 2.34 130.801 20:43 10.10.2019
6394 Clouds 21 1017 83 10000 2.34 130.801 20:22 10.10.2019
6395 Clouds 21 1017 83 10000 2.34 130.801 19:59 10.10.2019
6396 Clouds 21 1017 83 10000 2.34 130.801 19:41 10.10.2019
6397 Clouds 21 1017 83 10000 2.34 130.801 19:41 10.10.2019
6398 Clouds 21 1017 83 10000 1.5 0 19:20 10.10.2019
6399 Clouds 22 1017 83 10000 1.5 0 18:59 10.10.2019
6400 Clouds 22 1017 73 10000 1.5 0 18:39 10.10.2019
6401 Clouds 22 1017 78 10000 1 0 18:20 10.10.2019
6402 Clouds 22 1017 78 10000 1 0 17:55 10.10.2019
6403 Clouds 23 1017 73 10000 2.1 190 17:36 10.10.2019
6404 Clouds 23 1016 69 10000 2.1 190 17:18 10.10.2019
6405 Clouds 23 1016 69 10000 3.21 155.089 16:44 10.10.2019
6406 Clouds 23 1016 69 10000 3.21 155.089 16:44 10.10.2019
6407 Clouds 24 1016 69 10000 3.21 155.089 16:26 10.10.2019
6408 Clouds 24 1017 69 10000 2.1 160 15:57 10.10.2019
6409 Clouds 24 1017 69 10000 1 0 15:37 10.10.2019
6410 Clouds 24 1017 64 10000 1 0 15:19 10.10.2019
6411 Clouds 24 1017 64 10000 1 0 14:54 10.10.2019
6412 Clouds 24 1017 64 10000 2.1 180 14:36 10.10.2019
6413 Clouds 25 1017 61 10000 2.6 200 14:18 10.10.2019
6414 Clouds 25 1017 54 10000 1.5 0 13:41 10.10.2019
6415 Clouds 25 1018 54 10000 1 0 13:23 10.10.2019
6416 Clouds 25 1018 54 10000 1 0 12:57 10.10.2019
6417 Clouds 25 1018 57 10000 1.5 0 12:39 10.10.2019
6418 Clouds 24 1018 57 10000 1 0 12:20 10.10.2019
6419 Clouds 24 1018 57 10000 1 0 11:56 10.10.2019
6420 Clouds 24 1019 60 10000 1 0 11:38 10.10.2019
6421 Clouds 24 1019 64 10000 2.14 162.353 11:19 10.10.2019
6422 Clouds 23 1019 69 10000 1.5 0 10:44 10.10.2019
6423 Clouds 22 1019 69 10000 1.5 0 10:26 10.10.2019
6424 Clouds 22 1019 69 10000 2.14 162.353 09:56 10.10.2019
6425 Clouds 21 1019 68 10000 2.14 162.353 09:38 10.10.2019
6426 Clouds 21 1019 68 10000 2.14 162.353 09:38 10.10.2019
6427 Clouds 20 1019 77 10000 1 0 09:19 10.10.2019
6428 Clouds 20 1019 77 10000 1 0 08:56 10.10.2019
6429 Clouds 20 1019 77 10000 1.35 190.172 08:37 10.10.2019
6430 Clouds 19 1019 82 10000 1.5 0 08:18 10.10.2019
6431 Clouds 19 1019 82 10000 1.5 0 08:18 10.10.2019
6432 Clouds 18 1018 88 10000 1.35 190.172 07:42 10.10.2019
6433 Clouds 17 1018 87 10000 1.35 190.172 07:20 10.10.2019
6434 Clouds 17 1018 87 10000 1.35 190.172 06:46 10.10.2019
6435 Clouds 16 1018 87 10000 0.99 193.572 06:26 10.10.2019
6436 Clouds 16 1018 87 10000 0.99 193.572 05:27 10.10.2019
6437 Clear 16 1018 87 10000 0.99 193.572 04:39 10.10.2019
6438 Clear 16 1018 82 10000 0.99 193.572 04:21 10.10.2019
6439 Clouds 17 1019 82 10000 1.12 175.398 01:43 10.10.2019
6440 Clouds 17 1019 82 10000 0.81 154.634 01:24 10.10.2019
6441 Clouds 17 1019 82 10000 0.81 154.634 00:54 10.10.2019
6442 Clouds 17 1019 82 10000 1.71 175.075 00:22 10.10.2019
6443 Clouds 18 1019 77 10000 1.71 175.075 23:40 09.10.2019
6444 Clouds 18 1020 77 10000 1.71 175.075 23:20 09.10.2019
6445 Clouds 18 1020 77 10000 1.71 175.075 22:56 09.10.2019
6446 Clouds 18 1020 77 10000 1.71 175.075 22:37 09.10.2019
6447 Clouds 18 1020 77 10000 1.71 175.075 22:19 09.10.2019
6448 Clouds 18 1020 77 10000 1.71 175.075 21:40 09.10.2019
6449 Clouds 18 1020 72 10000 2.48 189.086 21:21 09.10.2019
6450 Clouds 19 1020 72 10000 2.47 187.927 20:56 09.10.2019
6451 Clouds 19 1020 68 10000 2.47 187.927 20:38 09.10.2019
6452 Clouds 19 1020 68 10000 2.47 187.927 20:38 09.10.2019
6453 Clouds 19 1020 68 10000 2.47 187.927 20:19 09.10.2019
6454 Clouds 19 1020 68 10000 2.47 187.927 19:58 09.10.2019
6455 Clouds 20 1020 64 10000 2.47 187.927 19:39 09.10.2019
6456 Clouds 20 1020 60 10000 1.5 0 19:20 09.10.2019
6457 Clouds 20 1019 60 10000 2.47 187.927 18:38 09.10.2019
6458 Clouds 21 1020 56 10000 2.1 180 18:19 09.10.2019
6459 Clouds 21 1020 56 10000 2.1 180 17:57 09.10.2019
6460 Clouds 22 1020 53 10000 2.1 190 17:37 09.10.2019
6461 Clouds 22 1020 56 10000 2.1 180 17:19 09.10.2019
6462 Clouds 23 1020 56 10000 2.1 180 16:55 09.10.2019
6463 Clouds 23 1019 50 10000 2.1 200 16:36 09.10.2019
6464 Clouds 23 1019 53 10000 2.1 220 16:18 09.10.2019
6465 Clouds 23 1019 53 10000 2.1 220 15:55 09.10.2019
6466 Clouds 23 1020 50 10000 3.1 220 15:55 09.10.2019
6467 Clouds 23 1020 50 10000 3.1 220 15:36 09.10.2019
6468 Clouds 23 1020 47 10000 2.6 210 15:18 09.10.2019
6469 Clouds 23 1020 47 10000 2.1 200 14:42 09.10.2019
6470 Clouds 23 1020 47 10000 2.1 200 14:42 09.10.2019
6471 Clouds 23 1020 47 10000 2.1 200 14:18 09.10.2019
6472 Clouds 23 1020 47 10000 2.1 200 13:58 09.10.2019
6473 Clouds 23 1021 50 10000 2.1 200 13:36 09.10.2019
6474 Clouds 23 1021 44 10000 2.1 170 13:18 09.10.2019
6475 Clouds 23 1022 47 10000 2.1 170 12:42 09.10.2019
6476 Clouds 23 1022 47 10000 2.1 170 12:22 09.10.2019
6477 Clouds 22 1022 47 10000 0.34 334.63 11:58 09.10.2019
6478 Clouds 22 1022 47 10000 0.34 334.63 11:39 09.10.2019
6479 Clouds 22 1023 53 10000 0.34 334.63 11:20 09.10.2019
6480 Clouds 21 1023 53 10000 0.34 334.63 10:57 09.10.2019
6481 Clouds 21 1023 53 10000 0.34 334.63 10:57 09.10.2019
6482 Clouds 21 1023 56 10000 0.34 334.63 10:39 09.10.2019
6483 Clouds 21 1023 56 10000 1.5 130 10:18 09.10.2019
6484 Clouds 20 1023 56 10000 0.34 334.63 09:42 09.10.2019
6485 Clouds 20 1022 60 10000 2.12 347.225 09:20 09.10.2019
6486 Clouds 19 1022 64 10000 2.31 356.008 08:57 09.10.2019
6487 Clouds 19 1022 64 10000 2.31 356.008 08:37 09.10.2019
6488 Clouds 18 1022 68 10000 2.31 356.008 08:18 09.10.2019
6489 Clouds 17 1022 77 10000 2.31 356.008 07:46 09.10.2019
6490 Clouds 17 1022 77 10000 2.31 356.008 07:24 09.10.2019
6491 Clouds 17 1022 77 10000 2.31 356.008 07:24 09.10.2019
6492 Clouds 16 1022 72 10000 2.1 300 06:54 09.10.2019
6493 Clouds 16 1021 72 10000 1.5 0 06:25 09.10.2019
6494 Clouds 16 1022 72 10000 1.5 0 05:47 09.10.2019
6495 Clouds 17 1021 72 10000 3.28 13.689 04:41 09.10.2019
6496 Clouds 16 1021 72 10000 3.28 13.689 03:43 09.10.2019
6497 Clouds 17 1022 72 10000 3.33 356.768 01:55 09.10.2019
6498 Clouds 17 1021 72 10000 3.6 354.156 01:22 09.10.2019
6499 Clouds 17 1021 72 10000 3.6 354.156 01:22 09.10.2019
6500 Clouds 17 1021 72 10000 3.6 354.156 00:59 09.10.2019
6501 Clouds 17 1021 68 10000 3.6 354.156 00:40 09.10.2019
6502 Clouds 17 1021 68 10000 4.47 0.475 00:22 09.10.2019
6503 Clouds 17 1022 72 10000 4.47 0.475 23:58 08.10.2019
6504 Clouds 17 1021 77 10000 4.47 0.475 23:37 08.10.2019
6505 Clouds 17 1021 72 10000 1.5 0 23:18 08.10.2019
6506 Clouds 17 1021 72 10000 2.6 330 22:41 08.10.2019
6507 Clouds 17 1021 72 10000 2.6 330 22:41 08.10.2019
6508 Clouds 17 1021 72 10000 2.1 320 22:21 08.10.2019
6509 Clouds 17 1021 72 10000 2.1 320 21:58 08.10.2019
6510 Clouds 17 1021 72 10000 2.6 300 21:39 08.10.2019
6511 Clouds 17 1021 72 10000 2.6 300 21:39 08.10.2019
6512 Clouds 17 1020 72 10000 2.1 310 21:20 08.10.2019
6513 Clouds 17 1020 72 10000 2.1 310 20:58 08.10.2019
6514 Clouds 17 1020 72 10000 3.1 320 20:39 08.10.2019
6515 Clouds 17 1020 72 10000 2.6 320 20:21 08.10.2019
6516 Clouds 17 1020 72 10000 2.6 320 19:59 08.10.2019
6517 Clouds 17 1019 68 10000 2.6 330 19:41 08.10.2019
6518 Clouds 17 1019 68 10000 2.6 330 19:23 08.10.2019
6519 Drizzle 17 1019 68 10000 3.1 330 18:57 08.10.2019
6520 Drizzle 18 1019 68 10000 2.6 340 18:39 08.10.2019
6521 Clouds 18 1018 68 10000 3.1 330 18:19 08.10.2019
6522 Clouds 18 1018 68 10000 3.1 330 17:55 08.10.2019
6523 Clouds 18 1018 72 10000 3.6 320 17:36 08.10.2019
6524 Clouds 18 1018 68 10000 3.6 320 17:18 08.10.2019
6525 Clouds 19 1017 68 10000 3.6 320 16:40 08.10.2019
6526 Clouds 19 1017 68 10000 4.1 320 16:22 08.10.2019
6527 Clouds 19 1017 68 10000 4.1 320 15:57 08.10.2019
6528 Drizzle 19 1017 68 10000 5.1 310 15:37 08.10.2019
6529 Drizzle 19 1017 68 10000 4.1 320 15:19 08.10.2019
6530 Clouds 19 1017 68 10000 4.1 310 14:42 08.10.2019
6531 Clouds 20 1016 64 10000 5.1 330 14:21 08.10.2019
6532 Clouds 20 1016 64 10000 5.1 330 13:58 08.10.2019
6533 Clouds 20 1016 64 10000 4.6 320 13:39 08.10.2019
6534 -273 0 0 0 0 0 13:39 08.10.2019
6535 Clouds 20 1016 68 10000 5.1 320 13:20 08.10.2019
6536 Clouds 20 1016 68 10000 5.1 320 12:59 08.10.2019
6537 Clouds 20 1016 68 10000 4.6 340 12:39 08.10.2019
6538 Clouds 21 1015 64 10000 5.1 320 12:19 08.10.2019
6539 Clouds 21 1015 64 10000 5.1 320 11:55 08.10.2019
6540 Clouds 21 1015 64 10000 5.7 310 11:37 08.10.2019
6541 Clouds 21 1015 64 10000 4.6 320 11:19 08.10.2019
6542 Clouds 21 1014 68 10000 3.6 330 10:40 08.10.2019
6543 Clouds 21 1014 72 10000 3.6 310 10:21 08.10.2019
6544 Clouds 21 1014 72 10000 3.6 310 09:58 08.10.2019
6545 Clouds 20 1014 72 10000 5.7 320 09:40 08.10.2019
6546 Clouds 19 1013 72 10000 5.1 320 09:20 08.10.2019
6547 -273 0 0 0 0 0 08:44 08.10.2019
6548 Clouds 19 1012 72 10000 6.2 320 08:25 08.10.2019
6549 Clouds 18 1012 77 10000 4.1 320 07:47 08.10.2019
6550 Clouds 18 1011 88 10000 4.6 310 07:23 08.10.2019
6551 Clouds 18 1011 88 10000 4.6 310 06:57 08.10.2019
6552 Rain 18 1010 88 9000 5.1 310 06:35 08.10.2019
6553 Rain 18 1011 77 10000 4.1 310 05:58 08.10.2019
6554 Rain 18 1010 77 10000 4.1 320 05:38 08.10.2019
6555 Clouds 18 1010 82 10000 4.1 310 04:55 08.10.2019
6556 Clouds 18 1008 82 10000 4.1 330 03:30 08.10.2019
6557 Clouds 18 1008 77 10000 3.1 320 02:40 08.10.2019
6558 Clouds 18 1008 72 10000 3.1 340 01:51 08.10.2019
6559 Clouds 18 1008 72 10000 3.1 340 01:33 08.10.2019
6560 Clouds 18 1008 77 10000 2.1 280 00:55 08.10.2019
6561 Clouds 18 1008 88 10000 6.2 10 00:23 08.10.2019
6562 Clouds 18 1007 82 10000 2.1 350 23:44 07.10.2019
6563 Rain 18 1008 93 10000 5.7 20 23:21 07.10.2019
6564 Rain 18 1008 93 10000 5.7 20 22:59 07.10.2019
6565 Rain 18 1007 82 10000 4.1 340 22:40 07.10.2019
6566 Rain 18 1006 93 10000 3.8 8.775 22:21 07.10.2019
6567 Rain 18 1006 93 10000 3.8 8.775 21:59 07.10.2019
6568 Rain 18 1006 93 10000 2.1 190 21:40 07.10.2019
6569 Rain 18 1006 93 8000 4.04 26.032 21:20 07.10.2019
6570 Rain 18 1006 93 8000 4.04 26.032 21:20 07.10.2019
6571 Rain 18 1006 93 8000 3.77 22.392 20:59 07.10.2019
6572 Rain 19 1006 93 6000 2.6 340 20:39 07.10.2019
6573 Rain 19 1006 93 6000 2.6 340 20:39 07.10.2019
6574 Rain 19 1006 93 6000 2.6 340 20:39 07.10.2019
6575 Rain 19 1006 88 7000 2.6 300 20:21 07.10.2019
6576 Rain 19 1006 88 7000 2.6 300 19:59 07.10.2019
6577 Rain 19 1006 88 10000 3.77 22.392 19:41 07.10.2019
6578 Rain 19 1005 88 10000 3.77 22.392 19:20 07.10.2019
6579 Rain 19 1005 88 10000 3.77 22.392 18:59 07.10.2019
6580 Rain 19 1005 82 10000 3.77 22.392 18:40 07.10.2019
6581 Rain 19 1006 82 10000 3.3 64.67 18:19 07.10.2019
6582 Rain 19 1006 82 10000 3.3 64.67 17:54 07.10.2019
6583 Rain 19 1006 82 10000 3.3 64.67 17:54 07.10.2019
6584 Drizzle 20 1006 82 10000 3.3 64.67 17:36 07.10.2019
6585 Drizzle 20 1006 82 10000 3.3 64.67 17:18 07.10.2019
6586 Rain 20 1006 77 10000 3.3 64.67 16:43 07.10.2019
6587 Rain 20 1006 82 10000 3.3 64.67 16:25 07.10.2019
6588 Rain 20 1006 77 10000 2.1 50 15:46 07.10.2019
6589 Rain 20 1006 77 10000 2.1 50 15:26 07.10.2019
6590 Rain 20 1006 64 10000 3.1 40 14:58 07.10.2019
6591 Rain 21 1006 60 10000 3.1 60 14:40 07.10.2019
6592 Drizzle 21 1008 64 10000 4.1 100 14:22 07.10.2019
6593 Clouds 22 1007 60 10000 4.1 100 13:44 07.10.2019
6594 Clouds 22 1007 60 10000 4.1 80 13:21 07.10.2019
6595 Clouds 21 1007 60 10000 4.1 80 12:57 07.10.2019
6596 Clouds 21 1007 56 10000 5.1 110 12:39 07.10.2019
6597 Clouds 21 1007 56 10000 5.1 110 12:20 07.10.2019
6598 Rain 21 1007 60 10000 4.1 90 11:58 07.10.2019
6599 Rain 21 1007 60 10000 4.1 90 11:39 07.10.2019
6600 Rain 21 1007 64 10000 4.1 80 11:20 07.10.2019
6601 Rain 21 1007 68 10000 4.1 80 10:42 07.10.2019
6602 Clouds 21 1009 64 10000 4.1 80 10:21 07.10.2019
6603 Clouds 21 1009 64 10000 4.1 80 09:57 07.10.2019
6604 Clouds 21 1008 64 10000 4.1 80 09:38 07.10.2019
6605 Drizzle 20 1009 72 10000 1 0 09:20 07.10.2019
6606 Drizzle 20 1008 88 10000 2.46 37.038 08:43 07.10.2019
6607 Drizzle 19 1007 88 10000 2.46 37.038 08:20 07.10.2019
6608 Drizzle 19 1007 88 10000 2.46 37.038 07:47 07.10.2019
6609 Drizzle 19 1007 88 10000 2.46 37.038 07:27 07.10.2019
6610 Rain 19 1007 88 10000 2.46 37.038 06:58 07.10.2019
6611 Rain 19 1007 88 10000 2.46 37.038 06:38 07.10.2019
6612 Rain 19 1007 88 10000 2.1 320 06:19 07.10.2019
6613 Drizzle 19 1007 93 10000 1.84 68.714 05:26 07.10.2019
6614 Drizzle 19 1007 88 10000 1.84 68.714 04:50 07.10.2019
6615 Rain 19 1008 77 10000 1.84 68.714 03:48 07.10.2019
6616 Rain 19 1008 77 10000 1.84 68.714 03:30 07.10.2019
6617 Rain 20 1008 68 10000 1.37 90 02:39 07.10.2019
6618 Clouds 20 1009 64 10000 1.37 90 02:19 07.10.2019
6619 Clouds 20 1009 64 10000 1.37 90 02:19 07.10.2019
6620 Drizzle 20 1009 68 10000 2.1 80 01:24 07.10.2019
6621 Clouds 20 1009 60 10000 2.6 70 00:53 07.10.2019
6622 Clouds 20 1009 60 10000 2.6 70 00:26 07.10.2019
6623 Clouds 20 1009 60 10000 2.1 70 23:59 06.10.2019
6624 Clouds 20 1010 64 10000 2.1 70 23:40 06.10.2019
6625 Clouds 20 1010 64 10000 2.1 70 23:20 06.10.2019
6626 Clouds 21 1010 64 10000 2.1 70 22:57 06.10.2019
6627 Clouds 21 1010 64 10000 2.1 70 22:39 06.10.2019
6628 Clouds 21 1010 64 10000 2.6 70 22:20 06.10.2019
6629 Clouds 21 1010 64 10000 2.6 70 22:20 06.10.2019
6630 Clouds 21 1010 64 10000 2.1 70 21:55 06.10.2019
6631 Clouds 20 1010 64 10000 2.1 70 21:37 06.10.2019
6632 Clouds 21 1009 64 10000 2.6 70 21:18 06.10.2019
6633 Clouds 21 1009 64 10000 2.6 70 21:18 06.10.2019
6634 Clouds 21 1009 64 10000 2.6 70 20:56 06.10.2019
6635 Clouds 21 1010 64 10000 2.6 70 20:38 06.10.2019
6636 Clouds 21 1010 64 10000 2.6 70 20:38 06.10.2019
6637 Clouds 20 1010 64 10000 2.6 80 20:19 06.10.2019
6638 Clouds 20 1010 64 10000 2.6 80 20:19 06.10.2019
6639 Clouds 21 1009 60 10000 3.1 70 19:56 06.10.2019
6640 Clouds 21 1009 60 10000 3.1 70 19:37 06.10.2019
6641 Clouds 21 1009 56 10000 2.6 60 19:18 06.10.2019
6642 Clouds 22 1009 56 10000 2.6 60 18:55 06.10.2019
6643 Clouds 22 1009 56 10000 2.1 80 18:37 06.10.2019
6644 Clouds 22 1009 53 10000 2.1 140 18:18 06.10.2019
6645 Clouds 23 1009 53 10000 2.6 160 17:43 06.10.2019
6646 Clouds 23 1009 53 10000 2.6 150 17:20 06.10.2019
6647 Clouds 24 1009 53 10000 2.6 150 16:56 06.10.2019
6648 Clouds 24 1009 54 10000 4.1 150 16:38 06.10.2019
6649 Clouds 25 1009 44 10000 2.1 180 16:19 06.10.2019
6650 Clouds 24 1009 42 10000 2.6 160 15:44 06.10.2019
6651 Clouds 25 1009 42 10000 2.6 160 15:22 06.10.2019
6652 Clouds 26 1009 42 10000 3.1 170 14:58 06.10.2019
6653 Clouds 26 1009 39 10000 2.1 160 14:39 06.10.2019
6654 Clouds 25 1009 39 10000 2.1 160 14:21 06.10.2019
6655 Clouds 26 1009 53 10000 2.1 190 13:54 06.10.2019
6656 Clouds 26 1009 53 10000 2.1 190 13:54 06.10.2019
6657 Clouds 25 1009 53 10000 2.1 190 13:36 06.10.2019
6658 Clouds 25 1010 53 10000 2.6 190 13:18 06.10.2019
6659 Clouds 25 1010 36 10000 2.1 180 12:55 06.10.2019
6660 Clouds 25 1010 36 10000 2.1 180 12:55 06.10.2019
6661 Clouds 25 1010 36 10000 2.1 180 12:37 06.10.2019